<?xml version="1.0" encoding="UTF-8" standalone="no" ?>
<gpx xmlns="http://www.topografix.com/GPX/1/1" xmlns:xsi="http://www.w3.org/2001/XMLSchema-instance" xsi:schemaLocation="http://www.topografix.com/GPX/1/1 http://www.topografix.com/GPX/1/1/gpx.xsd" version="1.1" creator="VisuGPX - https://www.visugpx.com">
  <metadata>
    <name>Rando VTT Montamisé 2023</name>
  </metadata>
  <trk>
    <name><![CDATA[Rando VTT Montamisé 2023_1]]></name>
    <trkseg>
      <trkpt lat="46.63239" lon="0.49065">
        <ele>97.4</ele>
        <time>2023-02-26T07:21:22Z</time>
      </trkpt>
      <trkpt lat="46.63232" lon="0.49087">
        <ele>97.6</ele>
        <time>2023-02-26T07:21:29Z</time>
      </trkpt>
      <trkpt lat="46.63234" lon="0.49089">
        <ele>97.2</ele>
        <time>2023-02-26T07:21:30Z</time>
      </trkpt>
      <trkpt lat="46.63242" lon="0.49095">
        <ele>97</ele>
        <time>2023-02-26T07:21:40Z</time>
      </trkpt>
      <trkpt lat="46.63242" lon="0.49095">
        <ele>97.2</ele>
        <time>2023-02-26T07:21:41Z</time>
      </trkpt>
      <trkpt lat="46.63243" lon="0.49099">
        <ele>97.2</ele>
        <time>2023-02-26T07:21:43Z</time>
      </trkpt>
      <trkpt lat="46.63243" lon="0.49101">
        <ele>97.2</ele>
        <time>2023-02-26T07:21:44Z</time>
      </trkpt>
      <trkpt lat="46.6324" lon="0.49112">
        <ele>98</ele>
        <time>2023-02-26T07:21:49Z</time>
      </trkpt>
      <trkpt lat="46.6324" lon="0.49115">
        <ele>98.2</ele>
        <time>2023-02-26T07:21:50Z</time>
      </trkpt>
      <trkpt lat="46.63248" lon="0.49132">
        <ele>99</ele>
        <time>2023-02-26T07:21:56Z</time>
      </trkpt>
      <trkpt lat="46.63253" lon="0.49142">
        <ele>99.2</ele>
        <time>2023-02-26T07:22:00Z</time>
      </trkpt>
      <trkpt lat="46.63256" lon="0.49149">
        <ele>99.2</ele>
        <time>2023-02-26T07:22:02Z</time>
      </trkpt>
      <trkpt lat="46.6327" lon="0.49174">
        <ele>99.2</ele>
        <time>2023-02-26T07:22:09Z</time>
      </trkpt>
      <trkpt lat="46.63276" lon="0.49187">
        <ele>99.2</ele>
        <time>2023-02-26T07:22:12Z</time>
      </trkpt>
      <trkpt lat="46.6328" lon="0.49198">
        <ele>99</ele>
        <time>2023-02-26T07:22:14Z</time>
      </trkpt>
      <trkpt lat="46.63282" lon="0.49202">
        <ele>99</ele>
        <time>2023-02-26T07:22:15Z</time>
      </trkpt>
      <trkpt lat="46.63296" lon="0.4923">
        <ele>98.8</ele>
        <time>2023-02-26T07:22:20Z</time>
      </trkpt>
      <trkpt lat="46.63307" lon="0.49258">
        <ele>98.8</ele>
        <time>2023-02-26T07:22:24Z</time>
      </trkpt>
      <trkpt lat="46.63313" lon="0.49271">
        <ele>99</ele>
        <time>2023-02-26T07:22:26Z</time>
      </trkpt>
      <trkpt lat="46.63324" lon="0.49291">
        <ele>98.8</ele>
        <time>2023-02-26T07:22:29Z</time>
      </trkpt>
      <trkpt lat="46.63335" lon="0.49312">
        <ele>98.8</ele>
        <time>2023-02-26T07:22:32Z</time>
      </trkpt>
      <trkpt lat="46.63345" lon="0.49331">
        <ele>98.2</ele>
        <time>2023-02-26T07:22:35Z</time>
      </trkpt>
      <trkpt lat="46.6335" lon="0.49343">
        <ele>98.4</ele>
        <time>2023-02-26T07:22:37Z</time>
      </trkpt>
      <trkpt lat="46.63358" lon="0.4936">
        <ele>98.8</ele>
        <time>2023-02-26T07:22:40Z</time>
      </trkpt>
      <trkpt lat="46.63365" lon="0.49373">
        <ele>99.4</ele>
        <time>2023-02-26T07:22:42Z</time>
      </trkpt>
      <trkpt lat="46.63373" lon="0.4939">
        <ele>100.2</ele>
        <time>2023-02-26T07:22:45Z</time>
      </trkpt>
      <trkpt lat="46.63379" lon="0.49405">
        <ele>100.6</ele>
        <time>2023-02-26T07:22:48Z</time>
      </trkpt>
      <trkpt lat="46.63393" lon="0.49431">
        <ele>101.4</ele>
        <time>2023-02-26T07:22:53Z</time>
      </trkpt>
      <trkpt lat="46.63401" lon="0.49445">
        <ele>101.6</ele>
        <time>2023-02-26T07:22:56Z</time>
      </trkpt>
      <trkpt lat="46.63412" lon="0.49466">
        <ele>101.8</ele>
        <time>2023-02-26T07:23:00Z</time>
      </trkpt>
      <trkpt lat="46.63431" lon="0.49502">
        <ele>101.6</ele>
        <time>2023-02-26T07:23:08Z</time>
      </trkpt>
      <trkpt lat="46.63434" lon="0.49511">
        <ele>101.6</ele>
        <time>2023-02-26T07:23:10Z</time>
      </trkpt>
      <trkpt lat="46.63441" lon="0.49524">
        <ele>101.8</ele>
        <time>2023-02-26T07:23:13Z</time>
      </trkpt>
      <trkpt lat="46.63459" lon="0.49556">
        <ele>102.8</ele>
        <time>2023-02-26T07:23:20Z</time>
      </trkpt>
      <trkpt lat="46.63467" lon="0.49562">
        <ele>103.2</ele>
        <time>2023-02-26T07:23:23Z</time>
      </trkpt>
      <trkpt lat="46.63469" lon="0.49561">
        <ele>103.2</ele>
        <time>2023-02-26T07:23:24Z</time>
      </trkpt>
      <trkpt lat="46.63471" lon="0.49558">
        <ele>103.2</ele>
        <time>2023-02-26T07:23:25Z</time>
      </trkpt>
      <trkpt lat="46.63474" lon="0.49548">
        <ele>103.2</ele>
        <time>2023-02-26T07:23:28Z</time>
      </trkpt>
      <trkpt lat="46.63474" lon="0.49544">
        <ele>103.2</ele>
        <time>2023-02-26T07:23:29Z</time>
      </trkpt>
      <trkpt lat="46.63475" lon="0.4953">
        <ele>103.4</ele>
        <time>2023-02-26T07:23:33Z</time>
      </trkpt>
      <trkpt lat="46.63477" lon="0.49522">
        <ele>103.8</ele>
        <time>2023-02-26T07:23:35Z</time>
      </trkpt>
      <trkpt lat="46.63479" lon="0.4951">
        <ele>103.8</ele>
        <time>2023-02-26T07:23:39Z</time>
      </trkpt>
      <trkpt lat="46.63481" lon="0.4949">
        <ele>104.4</ele>
        <time>2023-02-26T07:23:45Z</time>
      </trkpt>
      <trkpt lat="46.63482" lon="0.49482">
        <ele>104.8</ele>
        <time>2023-02-26T07:23:47Z</time>
      </trkpt>
      <trkpt lat="46.63483" lon="0.49464">
        <ele>106.2</ele>
        <time>2023-02-26T07:23:51Z</time>
      </trkpt>
      <trkpt lat="46.63487" lon="0.49431">
        <ele>107.2</ele>
        <time>2023-02-26T07:23:58Z</time>
      </trkpt>
      <trkpt lat="46.63489" lon="0.49402">
        <ele>108.4</ele>
        <time>2023-02-26T07:24:04Z</time>
      </trkpt>
      <trkpt lat="46.6349" lon="0.49397">
        <ele>108.6</ele>
        <time>2023-02-26T07:24:05Z</time>
      </trkpt>
      <trkpt lat="46.63493" lon="0.49369">
        <ele>109.6</ele>
        <time>2023-02-26T07:24:11Z</time>
      </trkpt>
      <trkpt lat="46.63498" lon="0.49329">
        <ele>110.4</ele>
        <time>2023-02-26T07:24:18Z</time>
      </trkpt>
      <trkpt lat="46.635" lon="0.49323">
        <ele>110.6</ele>
        <time>2023-02-26T07:24:19Z</time>
      </trkpt>
      <trkpt lat="46.63508" lon="0.49302">
        <ele>111</ele>
        <time>2023-02-26T07:24:23Z</time>
      </trkpt>
      <trkpt lat="46.63519" lon="0.49278">
        <ele>111.6</ele>
        <time>2023-02-26T07:24:28Z</time>
      </trkpt>
      <trkpt lat="46.63522" lon="0.49274">
        <ele>111.8</ele>
        <time>2023-02-26T07:24:29Z</time>
      </trkpt>
      <trkpt lat="46.63535" lon="0.49253">
        <ele>112.6</ele>
        <time>2023-02-26T07:24:34Z</time>
      </trkpt>
      <trkpt lat="46.63538" lon="0.4925">
        <ele>112.8</ele>
        <time>2023-02-26T07:24:35Z</time>
      </trkpt>
      <trkpt lat="46.63551" lon="0.49231">
        <ele>113.4</ele>
        <time>2023-02-26T07:24:40Z</time>
      </trkpt>
      <trkpt lat="46.6356" lon="0.49219">
        <ele>114</ele>
        <time>2023-02-26T07:24:43Z</time>
      </trkpt>
      <trkpt lat="46.63562" lon="0.49215">
        <ele>114.2</ele>
        <time>2023-02-26T07:24:44Z</time>
      </trkpt>
      <trkpt lat="46.63567" lon="0.49208">
        <ele>114.4</ele>
        <time>2023-02-26T07:24:46Z</time>
      </trkpt>
      <trkpt lat="46.63585" lon="0.49188">
        <ele>114.6</ele>
        <time>2023-02-26T07:24:52Z</time>
      </trkpt>
      <trkpt lat="46.636" lon="0.49173">
        <ele>114.4</ele>
        <time>2023-02-26T07:24:57Z</time>
      </trkpt>
      <trkpt lat="46.63609" lon="0.49165">
        <ele>114.6</ele>
        <time>2023-02-26T07:25:02Z</time>
      </trkpt>
      <trkpt lat="46.6362" lon="0.49153">
        <ele>115</ele>
        <time>2023-02-26T07:25:06Z</time>
      </trkpt>
      <trkpt lat="46.63622" lon="0.4915">
        <ele>115</ele>
        <time>2023-02-26T07:25:07Z</time>
      </trkpt>
      <trkpt lat="46.63633" lon="0.49139">
        <ele>114.8</ele>
        <time>2023-02-26T07:25:12Z</time>
      </trkpt>
      <trkpt lat="46.63646" lon="0.49127">
        <ele>115.2</ele>
        <time>2023-02-26T07:25:18Z</time>
      </trkpt>
      <trkpt lat="46.63659" lon="0.49116">
        <ele>115.4</ele>
        <time>2023-02-26T07:25:23Z</time>
      </trkpt>
      <trkpt lat="46.63661" lon="0.49116">
        <ele>115.4</ele>
        <time>2023-02-26T07:25:24Z</time>
      </trkpt>
      <trkpt lat="46.63664" lon="0.49117">
        <ele>115.4</ele>
        <time>2023-02-26T07:25:25Z</time>
      </trkpt>
      <trkpt lat="46.63672" lon="0.49125">
        <ele>115.6</ele>
        <time>2023-02-26T07:25:28Z</time>
      </trkpt>
      <trkpt lat="46.63687" lon="0.49143">
        <ele>116</ele>
        <time>2023-02-26T07:25:33Z</time>
      </trkpt>
      <trkpt lat="46.63689" lon="0.49146">
        <ele>116</ele>
        <time>2023-02-26T07:25:34Z</time>
      </trkpt>
      <trkpt lat="46.63704" lon="0.49171">
        <ele>116.8</ele>
        <time>2023-02-26T07:25:41Z</time>
      </trkpt>
      <trkpt lat="46.63712" lon="0.49189">
        <ele>117.2</ele>
        <time>2023-02-26T07:25:46Z</time>
      </trkpt>
      <trkpt lat="46.63719" lon="0.49198">
        <ele>117.4</ele>
        <time>2023-02-26T07:25:49Z</time>
      </trkpt>
      <trkpt lat="46.63734" lon="0.49227">
        <ele>117.6</ele>
        <time>2023-02-26T07:25:58Z</time>
      </trkpt>
      <trkpt lat="46.63746" lon="0.49248">
        <ele>117.6</ele>
        <time>2023-02-26T07:26:04Z</time>
      </trkpt>
      <trkpt lat="46.63759" lon="0.49274">
        <ele>117.6</ele>
        <time>2023-02-26T07:26:11Z</time>
      </trkpt>
      <trkpt lat="46.6377" lon="0.49293">
        <ele>117</ele>
        <time>2023-02-26T07:26:17Z</time>
      </trkpt>
      <trkpt lat="46.63781" lon="0.49314">
        <ele>116.8</ele>
        <time>2023-02-26T07:26:23Z</time>
      </trkpt>
      <trkpt lat="46.63792" lon="0.49335">
        <ele>116.8</ele>
        <time>2023-02-26T07:26:28Z</time>
      </trkpt>
      <trkpt lat="46.63804" lon="0.49361">
        <ele>116</ele>
        <time>2023-02-26T07:26:33Z</time>
      </trkpt>
      <trkpt lat="46.63809" lon="0.49371">
        <ele>115.8</ele>
        <time>2023-02-26T07:26:35Z</time>
      </trkpt>
      <trkpt lat="46.63816" lon="0.49388">
        <ele>115.6</ele>
        <time>2023-02-26T07:26:38Z</time>
      </trkpt>
      <trkpt lat="46.63822" lon="0.494">
        <ele>115.4</ele>
        <time>2023-02-26T07:26:40Z</time>
      </trkpt>
      <trkpt lat="46.63835" lon="0.49425">
        <ele>115</ele>
        <time>2023-02-26T07:26:44Z</time>
      </trkpt>
      <trkpt lat="46.63841" lon="0.49437">
        <ele>114.6</ele>
        <time>2023-02-26T07:26:46Z</time>
      </trkpt>
      <trkpt lat="46.63847" lon="0.49449">
        <ele>113.8</ele>
        <time>2023-02-26T07:26:48Z</time>
      </trkpt>
      <trkpt lat="46.63852" lon="0.49458">
        <ele>113.4</ele>
        <time>2023-02-26T07:26:50Z</time>
      </trkpt>
      <trkpt lat="46.63854" lon="0.49462">
        <ele>113</ele>
        <time>2023-02-26T07:26:51Z</time>
      </trkpt>
      <trkpt lat="46.63856" lon="0.49466">
        <ele>112.8</ele>
        <time>2023-02-26T07:26:52Z</time>
      </trkpt>
      <trkpt lat="46.63866" lon="0.49488">
        <ele>112.2</ele>
        <time>2023-02-26T07:26:56Z</time>
      </trkpt>
      <trkpt lat="46.63869" lon="0.49494">
        <ele>112.2</ele>
        <time>2023-02-26T07:26:57Z</time>
      </trkpt>
      <trkpt lat="46.63887" lon="0.49527">
        <ele>111.8</ele>
        <time>2023-02-26T07:27:02Z</time>
      </trkpt>
      <trkpt lat="46.63897" lon="0.49544">
        <ele>110.8</ele>
        <time>2023-02-26T07:27:06Z</time>
      </trkpt>
      <trkpt lat="46.63899" lon="0.49546">
        <ele>110.6</ele>
        <time>2023-02-26T07:27:07Z</time>
      </trkpt>
      <trkpt lat="46.63906" lon="0.49562">
        <ele>110.2</ele>
        <time>2023-02-26T07:27:12Z</time>
      </trkpt>
      <trkpt lat="46.63918" lon="0.49585">
        <ele>110.4</ele>
        <time>2023-02-26T07:27:17Z</time>
      </trkpt>
      <trkpt lat="46.63919" lon="0.4959">
        <ele>110.6</ele>
        <time>2023-02-26T07:27:18Z</time>
      </trkpt>
      <trkpt lat="46.63924" lon="0.49601">
        <ele>111</ele>
        <time>2023-02-26T07:27:20Z</time>
      </trkpt>
      <trkpt lat="46.63928" lon="0.49612">
        <ele>111.4</ele>
        <time>2023-02-26T07:27:22Z</time>
      </trkpt>
      <trkpt lat="46.63936" lon="0.49629">
        <ele>111.6</ele>
        <time>2023-02-26T07:27:25Z</time>
      </trkpt>
      <trkpt lat="46.63939" lon="0.49634">
        <ele>111.8</ele>
        <time>2023-02-26T07:27:26Z</time>
      </trkpt>
      <trkpt lat="46.63942" lon="0.49639">
        <ele>111.8</ele>
        <time>2023-02-26T07:27:27Z</time>
      </trkpt>
      <trkpt lat="46.63951" lon="0.49655">
        <ele>112.2</ele>
        <time>2023-02-26T07:27:30Z</time>
      </trkpt>
      <trkpt lat="46.63956" lon="0.49665">
        <ele>112.6</ele>
        <time>2023-02-26T07:27:32Z</time>
      </trkpt>
      <trkpt lat="46.63965" lon="0.49684">
        <ele>112.8</ele>
        <time>2023-02-26T07:27:36Z</time>
      </trkpt>
      <trkpt lat="46.63967" lon="0.49688">
        <ele>112.8</ele>
        <time>2023-02-26T07:27:37Z</time>
      </trkpt>
      <trkpt lat="46.63979" lon="0.4971">
        <ele>112.8</ele>
        <time>2023-02-26T07:27:42Z</time>
      </trkpt>
      <trkpt lat="46.63985" lon="0.49724">
        <ele>112.4</ele>
        <time>2023-02-26T07:27:45Z</time>
      </trkpt>
      <trkpt lat="46.6399" lon="0.49734">
        <ele>112.2</ele>
        <time>2023-02-26T07:27:47Z</time>
      </trkpt>
      <trkpt lat="46.64" lon="0.49758">
        <ele>112.2</ele>
        <time>2023-02-26T07:27:52Z</time>
      </trkpt>
      <trkpt lat="46.64003" lon="0.49766">
        <ele>112</ele>
        <time>2023-02-26T07:27:54Z</time>
      </trkpt>
      <trkpt lat="46.64005" lon="0.49769">
        <ele>111.6</ele>
        <time>2023-02-26T07:27:55Z</time>
      </trkpt>
      <trkpt lat="46.64008" lon="0.49774">
        <ele>110.8</ele>
        <time>2023-02-26T07:27:57Z</time>
      </trkpt>
      <trkpt lat="46.6401" lon="0.49776">
        <ele>110.4</ele>
        <time>2023-02-26T07:27:59Z</time>
      </trkpt>
      <trkpt lat="46.64012" lon="0.49781">
        <ele>110.2</ele>
        <time>2023-02-26T07:28:01Z</time>
      </trkpt>
      <trkpt lat="46.64015" lon="0.49788">
        <ele>110.2</ele>
        <time>2023-02-26T07:28:03Z</time>
      </trkpt>
      <trkpt lat="46.64026" lon="0.49814">
        <ele>110.4</ele>
        <time>2023-02-26T07:28:10Z</time>
      </trkpt>
      <trkpt lat="46.64036" lon="0.49836">
        <ele>111.2</ele>
        <time>2023-02-26T07:28:16Z</time>
      </trkpt>
      <trkpt lat="46.64039" lon="0.49844">
        <ele>111.4</ele>
        <time>2023-02-26T07:28:18Z</time>
      </trkpt>
      <trkpt lat="46.64047" lon="0.49863">
        <ele>112.6</ele>
        <time>2023-02-26T07:28:23Z</time>
      </trkpt>
      <trkpt lat="46.64058" lon="0.49883">
        <ele>113</ele>
        <time>2023-02-26T07:28:29Z</time>
      </trkpt>
      <trkpt lat="46.64065" lon="0.49899">
        <ele>113.6</ele>
        <time>2023-02-26T07:28:35Z</time>
      </trkpt>
      <trkpt lat="46.64075" lon="0.49917">
        <ele>113.8</ele>
        <time>2023-02-26T07:28:42Z</time>
      </trkpt>
      <trkpt lat="46.64084" lon="0.49938">
        <ele>114.2</ele>
        <time>2023-02-26T07:28:49Z</time>
      </trkpt>
      <trkpt lat="46.64092" lon="0.49953">
        <ele>114.6</ele>
        <time>2023-02-26T07:28:55Z</time>
      </trkpt>
      <trkpt lat="46.64102" lon="0.49974">
        <ele>115.2</ele>
        <time>2023-02-26T07:29:01Z</time>
      </trkpt>
      <trkpt lat="46.64114" lon="0.49999">
        <ele>115.2</ele>
        <time>2023-02-26T07:29:07Z</time>
      </trkpt>
      <trkpt lat="46.64124" lon="0.50019">
        <ele>116.2</ele>
        <time>2023-02-26T07:29:11Z</time>
      </trkpt>
      <trkpt lat="46.64127" lon="0.50023">
        <ele>116.4</ele>
        <time>2023-02-26T07:29:12Z</time>
      </trkpt>
      <trkpt lat="46.64142" lon="0.50054">
        <ele>116.6</ele>
        <time>2023-02-26T07:29:18Z</time>
      </trkpt>
      <trkpt lat="46.64152" lon="0.50077">
        <ele>116</ele>
        <time>2023-02-26T07:29:22Z</time>
      </trkpt>
      <trkpt lat="46.64157" lon="0.50088">
        <ele>115.6</ele>
        <time>2023-02-26T07:29:24Z</time>
      </trkpt>
      <trkpt lat="46.64174" lon="0.50121">
        <ele>115.2</ele>
        <time>2023-02-26T07:29:31Z</time>
      </trkpt>
      <trkpt lat="46.64176" lon="0.50123">
        <ele>115</ele>
        <time>2023-02-26T07:29:32Z</time>
      </trkpt>
      <trkpt lat="46.64179" lon="0.50124">
        <ele>114.8</ele>
        <time>2023-02-26T07:29:33Z</time>
      </trkpt>
      <trkpt lat="46.64181" lon="0.50123">
        <ele>114.6</ele>
        <time>2023-02-26T07:29:34Z</time>
      </trkpt>
      <trkpt lat="46.64193" lon="0.50111">
        <ele>114.4</ele>
        <time>2023-02-26T07:29:40Z</time>
      </trkpt>
      <trkpt lat="46.64214" lon="0.50094">
        <ele>115.4</ele>
        <time>2023-02-26T07:29:47Z</time>
      </trkpt>
      <trkpt lat="46.64235" lon="0.50074">
        <ele>116.2</ele>
        <time>2023-02-26T07:29:54Z</time>
      </trkpt>
      <trkpt lat="46.64238" lon="0.50071">
        <ele>116.4</ele>
        <time>2023-02-26T07:29:55Z</time>
      </trkpt>
      <trkpt lat="46.64257" lon="0.50052">
        <ele>116.6</ele>
        <time>2023-02-26T07:30:02Z</time>
      </trkpt>
      <trkpt lat="46.64276" lon="0.50034">
        <ele>117</ele>
        <time>2023-02-26T07:30:09Z</time>
      </trkpt>
      <trkpt lat="46.64292" lon="0.50016">
        <ele>117.2</ele>
        <time>2023-02-26T07:30:15Z</time>
      </trkpt>
      <trkpt lat="46.64295" lon="0.50014">
        <ele>117.6</ele>
        <time>2023-02-26T07:30:16Z</time>
      </trkpt>
      <trkpt lat="46.6431" lon="0.49997">
        <ele>118.8</ele>
        <time>2023-02-26T07:30:22Z</time>
      </trkpt>
      <trkpt lat="46.64312" lon="0.49995">
        <ele>118.8</ele>
        <time>2023-02-26T07:30:23Z</time>
      </trkpt>
      <trkpt lat="46.64334" lon="0.49974">
        <ele>119.6</ele>
        <time>2023-02-26T07:30:31Z</time>
      </trkpt>
      <trkpt lat="46.64337" lon="0.49971">
        <ele>120</ele>
        <time>2023-02-26T07:30:32Z</time>
      </trkpt>
      <trkpt lat="46.64357" lon="0.4995">
        <ele>120.8</ele>
        <time>2023-02-26T07:30:39Z</time>
      </trkpt>
      <trkpt lat="46.64363" lon="0.49944">
        <ele>121</ele>
        <time>2023-02-26T07:30:41Z</time>
      </trkpt>
      <trkpt lat="46.64377" lon="0.49929">
        <ele>121.2</ele>
        <time>2023-02-26T07:30:46Z</time>
      </trkpt>
      <trkpt lat="46.64394" lon="0.49913">
        <ele>121.6</ele>
        <time>2023-02-26T07:30:52Z</time>
      </trkpt>
      <trkpt lat="46.64401" lon="0.49902">
        <ele>122</ele>
        <time>2023-02-26T07:30:57Z</time>
      </trkpt>
      <trkpt lat="46.64405" lon="0.49895">
        <ele>121.6</ele>
        <time>2023-02-26T07:31:00Z</time>
      </trkpt>
      <trkpt lat="46.64409" lon="0.49894">
        <ele>121.4</ele>
        <time>2023-02-26T07:31:02Z</time>
      </trkpt>
      <trkpt lat="46.64417" lon="0.49886">
        <ele>121.8</ele>
        <time>2023-02-26T07:31:06Z</time>
      </trkpt>
      <trkpt lat="46.64419" lon="0.49883">
        <ele>122</ele>
        <time>2023-02-26T07:31:07Z</time>
      </trkpt>
      <trkpt lat="46.64429" lon="0.49873">
        <ele>122.4</ele>
        <time>2023-02-26T07:31:11Z</time>
      </trkpt>
      <trkpt lat="46.64442" lon="0.49861">
        <ele>122.2</ele>
        <time>2023-02-26T07:31:18Z</time>
      </trkpt>
      <trkpt lat="46.64444" lon="0.49859">
        <ele>122.2</ele>
        <time>2023-02-26T07:31:20Z</time>
      </trkpt>
      <trkpt lat="46.64446" lon="0.49857">
        <ele>122.2</ele>
        <time>2023-02-26T07:31:27Z</time>
      </trkpt>
      <trkpt lat="46.64453" lon="0.49851">
        <ele>122</ele>
        <time>2023-02-26T07:31:35Z</time>
      </trkpt>
      <trkpt lat="46.64463" lon="0.49849">
        <ele>122</ele>
        <time>2023-02-26T07:31:39Z</time>
      </trkpt>
      <trkpt lat="46.64474" lon="0.49846">
        <ele>122</ele>
        <time>2023-02-26T07:31:43Z</time>
      </trkpt>
      <trkpt lat="46.64491" lon="0.49832">
        <ele>122</ele>
        <time>2023-02-26T07:31:49Z</time>
      </trkpt>
      <trkpt lat="46.64512" lon="0.49811">
        <ele>122.4</ele>
        <time>2023-02-26T07:31:56Z</time>
      </trkpt>
      <trkpt lat="46.64536" lon="0.49785">
        <ele>121.4</ele>
        <time>2023-02-26T07:32:03Z</time>
      </trkpt>
      <trkpt lat="46.64561" lon="0.49762">
        <ele>121.6</ele>
        <time>2023-02-26T07:32:10Z</time>
      </trkpt>
      <trkpt lat="46.64564" lon="0.49758">
        <ele>121.6</ele>
        <time>2023-02-26T07:32:11Z</time>
      </trkpt>
      <trkpt lat="46.64576" lon="0.49743">
        <ele>121.2</ele>
        <time>2023-02-26T07:32:15Z</time>
      </trkpt>
      <trkpt lat="46.64583" lon="0.49734">
        <ele>121</ele>
        <time>2023-02-26T07:32:17Z</time>
      </trkpt>
      <trkpt lat="46.64591" lon="0.49724">
        <ele>121.2</ele>
        <time>2023-02-26T07:32:20Z</time>
      </trkpt>
      <trkpt lat="46.64608" lon="0.49705">
        <ele>121</ele>
        <time>2023-02-26T07:32:26Z</time>
      </trkpt>
      <trkpt lat="46.6461" lon="0.49702">
        <ele>121</ele>
        <time>2023-02-26T07:32:27Z</time>
      </trkpt>
      <trkpt lat="46.64621" lon="0.49688">
        <ele>120.8</ele>
        <time>2023-02-26T07:32:31Z</time>
      </trkpt>
      <trkpt lat="46.64626" lon="0.49684">
        <ele>120.8</ele>
        <time>2023-02-26T07:32:32Z</time>
      </trkpt>
      <trkpt lat="46.64642" lon="0.49667">
        <ele>120.8</ele>
        <time>2023-02-26T07:32:37Z</time>
      </trkpt>
      <trkpt lat="46.64662" lon="0.49649">
        <ele>121.2</ele>
        <time>2023-02-26T07:32:43Z</time>
      </trkpt>
      <trkpt lat="46.64683" lon="0.49628">
        <ele>121.4</ele>
        <time>2023-02-26T07:32:49Z</time>
      </trkpt>
      <trkpt lat="46.64698" lon="0.49613">
        <ele>121.6</ele>
        <time>2023-02-26T07:32:54Z</time>
      </trkpt>
      <trkpt lat="46.64714" lon="0.49595">
        <ele>121.8</ele>
        <time>2023-02-26T07:33:00Z</time>
      </trkpt>
      <trkpt lat="46.64727" lon="0.49583">
        <ele>121.8</ele>
        <time>2023-02-26T07:33:04Z</time>
      </trkpt>
      <trkpt lat="46.64731" lon="0.49578">
        <ele>121.8</ele>
        <time>2023-02-26T07:33:05Z</time>
      </trkpt>
      <trkpt lat="46.64736" lon="0.49575">
        <ele>122</ele>
        <time>2023-02-26T07:33:06Z</time>
      </trkpt>
      <trkpt lat="46.64751" lon="0.49557">
        <ele>122</ele>
        <time>2023-02-26T07:33:12Z</time>
      </trkpt>
      <trkpt lat="46.64752" lon="0.49553">
        <ele>122</ele>
        <time>2023-02-26T07:33:13Z</time>
      </trkpt>
      <trkpt lat="46.64752" lon="0.49541">
        <ele>122</ele>
        <time>2023-02-26T07:33:16Z</time>
      </trkpt>
      <trkpt lat="46.64747" lon="0.49518">
        <ele>122</ele>
        <time>2023-02-26T07:33:22Z</time>
      </trkpt>
      <trkpt lat="46.64738" lon="0.49486">
        <ele>122</ele>
        <time>2023-02-26T07:33:29Z</time>
      </trkpt>
      <trkpt lat="46.64728" lon="0.49468">
        <ele>122.2</ele>
        <time>2023-02-26T07:33:34Z</time>
      </trkpt>
      <trkpt lat="46.64719" lon="0.49441">
        <ele>122.4</ele>
        <time>2023-02-26T07:33:39Z</time>
      </trkpt>
      <trkpt lat="46.64718" lon="0.49436">
        <ele>122.2</ele>
        <time>2023-02-26T07:33:40Z</time>
      </trkpt>
      <trkpt lat="46.64707" lon="0.49413">
        <ele>122.8</ele>
        <time>2023-02-26T07:33:45Z</time>
      </trkpt>
      <trkpt lat="46.647" lon="0.49397">
        <ele>123</ele>
        <time>2023-02-26T07:33:49Z</time>
      </trkpt>
      <trkpt lat="46.64697" lon="0.49392">
        <ele>123</ele>
        <time>2023-02-26T07:33:50Z</time>
      </trkpt>
      <trkpt lat="46.64695" lon="0.49388">
        <ele>123.2</ele>
        <time>2023-02-26T07:33:51Z</time>
      </trkpt>
      <trkpt lat="46.64692" lon="0.49383">
        <ele>123.2</ele>
        <time>2023-02-26T07:33:52Z</time>
      </trkpt>
      <trkpt lat="46.64682" lon="0.49362">
        <ele>123.4</ele>
        <time>2023-02-26T07:33:56Z</time>
      </trkpt>
      <trkpt lat="46.64679" lon="0.49357">
        <ele>123.4</ele>
        <time>2023-02-26T07:33:57Z</time>
      </trkpt>
      <trkpt lat="46.64663" lon="0.49324">
        <ele>124</ele>
        <time>2023-02-26T07:34:03Z</time>
      </trkpt>
      <trkpt lat="46.6465" lon="0.49299">
        <ele>124.4</ele>
        <time>2023-02-26T07:34:08Z</time>
      </trkpt>
      <trkpt lat="46.64646" lon="0.49292">
        <ele>124</ele>
        <time>2023-02-26T07:34:10Z</time>
      </trkpt>
      <trkpt lat="46.64636" lon="0.4927">
        <ele>123.8</ele>
        <time>2023-02-26T07:34:15Z</time>
      </trkpt>
      <trkpt lat="46.64624" lon="0.49241">
        <ele>123.8</ele>
        <time>2023-02-26T07:34:21Z</time>
      </trkpt>
      <trkpt lat="46.64601" lon="0.49208">
        <ele>123.4</ele>
        <time>2023-02-26T07:34:29Z</time>
      </trkpt>
      <trkpt lat="46.64592" lon="0.49195">
        <ele>123</ele>
        <time>2023-02-26T07:34:32Z</time>
      </trkpt>
      <trkpt lat="46.64584" lon="0.49179">
        <ele>122.8</ele>
        <time>2023-02-26T07:34:35Z</time>
      </trkpt>
      <trkpt lat="46.64569" lon="0.49149">
        <ele>122.4</ele>
        <time>2023-02-26T07:34:40Z</time>
      </trkpt>
      <trkpt lat="46.64567" lon="0.49143">
        <ele>122.2</ele>
        <time>2023-02-26T07:34:41Z</time>
      </trkpt>
      <trkpt lat="46.64568" lon="0.49138">
        <ele>121.8</ele>
        <time>2023-02-26T07:34:42Z</time>
      </trkpt>
      <trkpt lat="46.6457" lon="0.49128">
        <ele>121</ele>
        <time>2023-02-26T07:34:44Z</time>
      </trkpt>
      <trkpt lat="46.64575" lon="0.4912">
        <ele>120.8</ele>
        <time>2023-02-26T07:34:46Z</time>
      </trkpt>
      <trkpt lat="46.64585" lon="0.49105">
        <ele>121.2</ele>
        <time>2023-02-26T07:34:50Z</time>
      </trkpt>
      <trkpt lat="46.64602" lon="0.4908">
        <ele>121.4</ele>
        <time>2023-02-26T07:34:57Z</time>
      </trkpt>
      <trkpt lat="46.64615" lon="0.49067">
        <ele>120.2</ele>
        <time>2023-02-26T07:35:01Z</time>
      </trkpt>
      <trkpt lat="46.64621" lon="0.4906">
        <ele>119.8</ele>
        <time>2023-02-26T07:35:03Z</time>
      </trkpt>
      <trkpt lat="46.64625" lon="0.49056">
        <ele>119.6</ele>
        <time>2023-02-26T07:35:04Z</time>
      </trkpt>
      <trkpt lat="46.64646" lon="0.49031">
        <ele>118.6</ele>
        <time>2023-02-26T07:35:10Z</time>
      </trkpt>
      <trkpt lat="46.6465" lon="0.49026">
        <ele>118.4</ele>
        <time>2023-02-26T07:35:11Z</time>
      </trkpt>
      <trkpt lat="46.64654" lon="0.49022">
        <ele>118.2</ele>
        <time>2023-02-26T07:35:12Z</time>
      </trkpt>
      <trkpt lat="46.6467" lon="0.49008">
        <ele>117.4</ele>
        <time>2023-02-26T07:35:15Z</time>
      </trkpt>
      <trkpt lat="46.6468" lon="0.48999">
        <ele>116.4</ele>
        <time>2023-02-26T07:35:17Z</time>
      </trkpt>
      <trkpt lat="46.64685" lon="0.48993">
        <ele>115.6</ele>
        <time>2023-02-26T07:35:19Z</time>
      </trkpt>
      <trkpt lat="46.64685" lon="0.48993">
        <ele>114.8</ele>
        <time>2023-02-26T07:35:20Z</time>
      </trkpt>
      <trkpt lat="46.64691" lon="0.48989">
        <ele>114.8</ele>
        <time>2023-02-26T07:35:21Z</time>
      </trkpt>
      <trkpt lat="46.64699" lon="0.48985">
        <ele>114.4</ele>
        <time>2023-02-26T07:35:24Z</time>
      </trkpt>
      <trkpt lat="46.64717" lon="0.48965">
        <ele>114.2</ele>
        <time>2023-02-26T07:35:30Z</time>
      </trkpt>
      <trkpt lat="46.64739" lon="0.48941">
        <ele>116</ele>
        <time>2023-02-26T07:35:37Z</time>
      </trkpt>
      <trkpt lat="46.64746" lon="0.48932">
        <ele>117.2</ele>
        <time>2023-02-26T07:35:40Z</time>
      </trkpt>
      <trkpt lat="46.64756" lon="0.48921">
        <ele>117.6</ele>
        <time>2023-02-26T07:35:44Z</time>
      </trkpt>
      <trkpt lat="46.64776" lon="0.48896">
        <ele>117.6</ele>
        <time>2023-02-26T07:35:51Z</time>
      </trkpt>
      <trkpt lat="46.64806" lon="0.48864">
        <ele>116.8</ele>
        <time>2023-02-26T07:36:00Z</time>
      </trkpt>
      <trkpt lat="46.64825" lon="0.48847">
        <ele>116.2</ele>
        <time>2023-02-26T07:36:04Z</time>
      </trkpt>
      <trkpt lat="46.64834" lon="0.4884">
        <ele>115.4</ele>
        <time>2023-02-26T07:36:06Z</time>
      </trkpt>
      <trkpt lat="46.64838" lon="0.48837">
        <ele>115.2</ele>
        <time>2023-02-26T07:36:07Z</time>
      </trkpt>
      <trkpt lat="46.64841" lon="0.48834">
        <ele>114.8</ele>
        <time>2023-02-26T07:36:08Z</time>
      </trkpt>
      <trkpt lat="46.64845" lon="0.48833">
        <ele>114.6</ele>
        <time>2023-02-26T07:36:09Z</time>
      </trkpt>
      <trkpt lat="46.64849" lon="0.48834">
        <ele>114.4</ele>
        <time>2023-02-26T07:36:10Z</time>
      </trkpt>
      <trkpt lat="46.64859" lon="0.48849">
        <ele>114</ele>
        <time>2023-02-26T07:36:14Z</time>
      </trkpt>
      <trkpt lat="46.64862" lon="0.48855">
        <ele>114.2</ele>
        <time>2023-02-26T07:36:15Z</time>
      </trkpt>
      <trkpt lat="46.6487" lon="0.48871">
        <ele>114.6</ele>
        <time>2023-02-26T07:36:18Z</time>
      </trkpt>
      <trkpt lat="46.64873" lon="0.48877">
        <ele>114.8</ele>
        <time>2023-02-26T07:36:19Z</time>
      </trkpt>
      <trkpt lat="46.64879" lon="0.48886">
        <ele>114.6</ele>
        <time>2023-02-26T07:36:21Z</time>
      </trkpt>
      <trkpt lat="46.64888" lon="0.48896">
        <ele>114.2</ele>
        <time>2023-02-26T07:36:24Z</time>
      </trkpt>
      <trkpt lat="46.64893" lon="0.48902">
        <ele>113.8</ele>
        <time>2023-02-26T07:36:26Z</time>
      </trkpt>
      <trkpt lat="46.64896" lon="0.48902">
        <ele>113.6</ele>
        <time>2023-02-26T07:36:27Z</time>
      </trkpt>
      <trkpt lat="46.64898" lon="0.48901">
        <ele>113.4</ele>
        <time>2023-02-26T07:36:28Z</time>
      </trkpt>
      <trkpt lat="46.64913" lon="0.48888">
        <ele>112.6</ele>
        <time>2023-02-26T07:36:33Z</time>
      </trkpt>
      <trkpt lat="46.64916" lon="0.48884">
        <ele>111.4</ele>
        <time>2023-02-26T07:36:35Z</time>
      </trkpt>
      <trkpt lat="46.6492" lon="0.48881">
        <ele>110.6</ele>
        <time>2023-02-26T07:36:38Z</time>
      </trkpt>
      <trkpt lat="46.64921" lon="0.4888">
        <ele>110.4</ele>
        <time>2023-02-26T07:36:39Z</time>
      </trkpt>
      <trkpt lat="46.64928" lon="0.48874">
        <ele>110</ele>
        <time>2023-02-26T07:36:43Z</time>
      </trkpt>
      <trkpt lat="46.64944" lon="0.48856">
        <ele>110</ele>
        <time>2023-02-26T07:36:50Z</time>
      </trkpt>
      <trkpt lat="46.64959" lon="0.48842">
        <ele>111</ele>
        <time>2023-02-26T07:36:55Z</time>
      </trkpt>
      <trkpt lat="46.64965" lon="0.48836">
        <ele>111.6</ele>
        <time>2023-02-26T07:36:57Z</time>
      </trkpt>
      <trkpt lat="46.6498" lon="0.48824">
        <ele>112.4</ele>
        <time>2023-02-26T07:37:01Z</time>
      </trkpt>
      <trkpt lat="46.64988" lon="0.4881">
        <ele>112.2</ele>
        <time>2023-02-26T07:37:05Z</time>
      </trkpt>
      <trkpt lat="46.64987" lon="0.48805">
        <ele>112</ele>
        <time>2023-02-26T07:37:06Z</time>
      </trkpt>
      <trkpt lat="46.64983" lon="0.48791">
        <ele>111.4</ele>
        <time>2023-02-26T07:37:09Z</time>
      </trkpt>
      <trkpt lat="46.64978" lon="0.48777">
        <ele>111.2</ele>
        <time>2023-02-26T07:37:12Z</time>
      </trkpt>
      <trkpt lat="46.64975" lon="0.48765">
        <ele>110.6</ele>
        <time>2023-02-26T07:37:15Z</time>
      </trkpt>
      <trkpt lat="46.64973" lon="0.4874">
        <ele>110.4</ele>
        <time>2023-02-26T07:37:21Z</time>
      </trkpt>
      <trkpt lat="46.64973" lon="0.48725">
        <ele>110.4</ele>
        <time>2023-02-26T07:37:24Z</time>
      </trkpt>
      <trkpt lat="46.64975" lon="0.48715">
        <ele>110.2</ele>
        <time>2023-02-26T07:37:26Z</time>
      </trkpt>
      <trkpt lat="46.64976" lon="0.48711">
        <ele>110.2</ele>
        <time>2023-02-26T07:37:27Z</time>
      </trkpt>
      <trkpt lat="46.64978" lon="0.48708">
        <ele>110.2</ele>
        <time>2023-02-26T07:37:28Z</time>
      </trkpt>
      <trkpt lat="46.64984" lon="0.48703">
        <ele>109.8</ele>
        <time>2023-02-26T07:37:31Z</time>
      </trkpt>
      <trkpt lat="46.64996" lon="0.48699">
        <ele>109.8</ele>
        <time>2023-02-26T07:37:37Z</time>
      </trkpt>
      <trkpt lat="46.65016" lon="0.48698">
        <ele>110.2</ele>
        <time>2023-02-26T07:37:44Z</time>
      </trkpt>
      <trkpt lat="46.65026" lon="0.48699">
        <ele>110.2</ele>
        <time>2023-02-26T07:37:47Z</time>
      </trkpt>
      <trkpt lat="46.65031" lon="0.48696">
        <ele>110.2</ele>
        <time>2023-02-26T07:37:48Z</time>
      </trkpt>
      <trkpt lat="46.65053" lon="0.48678">
        <ele>111.2</ele>
        <time>2023-02-26T07:37:54Z</time>
      </trkpt>
      <trkpt lat="46.65069" lon="0.48669">
        <ele>111.6</ele>
        <time>2023-02-26T07:37:58Z</time>
      </trkpt>
      <trkpt lat="46.65074" lon="0.48668">
        <ele>111.8</ele>
        <time>2023-02-26T07:37:59Z</time>
      </trkpt>
      <trkpt lat="46.6509" lon="0.48665">
        <ele>112</ele>
        <time>2023-02-26T07:38:03Z</time>
      </trkpt>
      <trkpt lat="46.65092" lon="0.48663">
        <ele>111.8</ele>
        <time>2023-02-26T07:38:04Z</time>
      </trkpt>
      <trkpt lat="46.65095" lon="0.4866">
        <ele>111.4</ele>
        <time>2023-02-26T07:38:05Z</time>
      </trkpt>
      <trkpt lat="46.65107" lon="0.48644">
        <ele>111</ele>
        <time>2023-02-26T07:38:09Z</time>
      </trkpt>
      <trkpt lat="46.65126" lon="0.48622">
        <ele>111.2</ele>
        <time>2023-02-26T07:38:15Z</time>
      </trkpt>
      <trkpt lat="46.65142" lon="0.48597">
        <ele>111.4</ele>
        <time>2023-02-26T07:38:21Z</time>
      </trkpt>
      <trkpt lat="46.65151" lon="0.48576">
        <ele>111</ele>
        <time>2023-02-26T07:38:26Z</time>
      </trkpt>
      <trkpt lat="46.65154" lon="0.48571">
        <ele>111.4</ele>
        <time>2023-02-26T07:38:28Z</time>
      </trkpt>
      <trkpt lat="46.65157" lon="0.48573">
        <ele>111.8</ele>
        <time>2023-02-26T07:38:30Z</time>
      </trkpt>
      <trkpt lat="46.65166" lon="0.48586">
        <ele>112.2</ele>
        <time>2023-02-26T07:38:35Z</time>
      </trkpt>
      <trkpt lat="46.6518" lon="0.48602">
        <ele>112.4</ele>
        <time>2023-02-26T07:38:41Z</time>
      </trkpt>
      <trkpt lat="46.6519" lon="0.48621">
        <ele>112.2</ele>
        <time>2023-02-26T07:38:47Z</time>
      </trkpt>
      <trkpt lat="46.65195" lon="0.4863">
        <ele>111.8</ele>
        <time>2023-02-26T07:38:52Z</time>
      </trkpt>
      <trkpt lat="46.65201" lon="0.48645">
        <ele>111.6</ele>
        <time>2023-02-26T07:38:57Z</time>
      </trkpt>
      <trkpt lat="46.65204" lon="0.48653">
        <ele>110.6</ele>
        <time>2023-02-26T07:39:00Z</time>
      </trkpt>
      <trkpt lat="46.65206" lon="0.48656">
        <ele>110.4</ele>
        <time>2023-02-26T07:39:02Z</time>
      </trkpt>
      <trkpt lat="46.65214" lon="0.48673">
        <ele>110.2</ele>
        <time>2023-02-26T07:39:10Z</time>
      </trkpt>
      <trkpt lat="46.65222" lon="0.4869">
        <ele>110.6</ele>
        <time>2023-02-26T07:39:17Z</time>
      </trkpt>
      <trkpt lat="46.65229" lon="0.48706">
        <ele>112.2</ele>
        <time>2023-02-26T07:39:22Z</time>
      </trkpt>
      <trkpt lat="46.6523" lon="0.48709">
        <ele>112.8</ele>
        <time>2023-02-26T07:39:23Z</time>
      </trkpt>
      <trkpt lat="46.65232" lon="0.48711">
        <ele>113.4</ele>
        <time>2023-02-26T07:39:24Z</time>
      </trkpt>
      <trkpt lat="46.65234" lon="0.48716">
        <ele>114.8</ele>
        <time>2023-02-26T07:39:26Z</time>
      </trkpt>
      <trkpt lat="46.65238" lon="0.48723">
        <ele>116</ele>
        <time>2023-02-26T07:39:28Z</time>
      </trkpt>
      <trkpt lat="46.6524" lon="0.48729">
        <ele>117</ele>
        <time>2023-02-26T07:39:30Z</time>
      </trkpt>
      <trkpt lat="46.65242" lon="0.48733">
        <ele>117.2</ele>
        <time>2023-02-26T07:39:31Z</time>
      </trkpt>
      <trkpt lat="46.65253" lon="0.48753">
        <ele>118</ele>
        <time>2023-02-26T07:39:37Z</time>
      </trkpt>
      <trkpt lat="46.65258" lon="0.48762">
        <ele>118.2</ele>
        <time>2023-02-26T07:39:40Z</time>
      </trkpt>
      <trkpt lat="46.65264" lon="0.48775">
        <ele>118.8</ele>
        <time>2023-02-26T07:39:44Z</time>
      </trkpt>
      <trkpt lat="46.65268" lon="0.48784">
        <ele>119.4</ele>
        <time>2023-02-26T07:39:47Z</time>
      </trkpt>
      <trkpt lat="46.65275" lon="0.48796">
        <ele>120.2</ele>
        <time>2023-02-26T07:39:51Z</time>
      </trkpt>
      <trkpt lat="46.65278" lon="0.48804">
        <ele>120.4</ele>
        <time>2023-02-26T07:39:53Z</time>
      </trkpt>
      <trkpt lat="46.65284" lon="0.48822">
        <ele>120.8</ele>
        <time>2023-02-26T07:39:58Z</time>
      </trkpt>
      <trkpt lat="46.65283" lon="0.48839">
        <ele>121</ele>
        <time>2023-02-26T07:40:03Z</time>
      </trkpt>
      <trkpt lat="46.65282" lon="0.48853">
        <ele>121.6</ele>
        <time>2023-02-26T07:40:08Z</time>
      </trkpt>
      <trkpt lat="46.65284" lon="0.48878">
        <ele>122</ele>
        <time>2023-02-26T07:40:16Z</time>
      </trkpt>
      <trkpt lat="46.65287" lon="0.4889">
        <ele>122.6</ele>
        <time>2023-02-26T07:40:20Z</time>
      </trkpt>
      <trkpt lat="46.6529" lon="0.48903">
        <ele>123</ele>
        <time>2023-02-26T07:40:24Z</time>
      </trkpt>
      <trkpt lat="46.65295" lon="0.48929">
        <ele>123.6</ele>
        <time>2023-02-26T07:40:31Z</time>
      </trkpt>
      <trkpt lat="46.65295" lon="0.48932">
        <ele>123.6</ele>
        <time>2023-02-26T07:40:32Z</time>
      </trkpt>
      <trkpt lat="46.65295" lon="0.48953">
        <ele>124.2</ele>
        <time>2023-02-26T07:40:38Z</time>
      </trkpt>
      <trkpt lat="46.65293" lon="0.48978">
        <ele>124.6</ele>
        <time>2023-02-26T07:40:45Z</time>
      </trkpt>
      <trkpt lat="46.65292" lon="0.48998">
        <ele>124.6</ele>
        <time>2023-02-26T07:40:51Z</time>
      </trkpt>
      <trkpt lat="46.65291" lon="0.49001">
        <ele>124.8</ele>
        <time>2023-02-26T07:40:52Z</time>
      </trkpt>
      <trkpt lat="46.65289" lon="0.49025">
        <ele>125.6</ele>
        <time>2023-02-26T07:40:58Z</time>
      </trkpt>
      <trkpt lat="46.65289" lon="0.49029">
        <ele>125.8</ele>
        <time>2023-02-26T07:40:59Z</time>
      </trkpt>
      <trkpt lat="46.65288" lon="0.49056">
        <ele>126.2</ele>
        <time>2023-02-26T07:41:05Z</time>
      </trkpt>
      <trkpt lat="46.65288" lon="0.49078">
        <ele>126</ele>
        <time>2023-02-26T07:41:11Z</time>
      </trkpt>
      <trkpt lat="46.65289" lon="0.49084">
        <ele>126</ele>
        <time>2023-02-26T07:41:13Z</time>
      </trkpt>
      <trkpt lat="46.65292" lon="0.49097">
        <ele>126.2</ele>
        <time>2023-02-26T07:41:17Z</time>
      </trkpt>
      <trkpt lat="46.65298" lon="0.49118">
        <ele>126.4</ele>
        <time>2023-02-26T07:41:24Z</time>
      </trkpt>
      <trkpt lat="46.65298" lon="0.49128">
        <ele>127</ele>
        <time>2023-02-26T07:41:27Z</time>
      </trkpt>
      <trkpt lat="46.65295" lon="0.49139">
        <ele>127</ele>
        <time>2023-02-26T07:41:30Z</time>
      </trkpt>
      <trkpt lat="46.65291" lon="0.49154">
        <ele>126.6</ele>
        <time>2023-02-26T07:41:35Z</time>
      </trkpt>
      <trkpt lat="46.6529" lon="0.49174">
        <ele>126.6</ele>
        <time>2023-02-26T07:41:42Z</time>
      </trkpt>
      <trkpt lat="46.65284" lon="0.49196">
        <ele>127</ele>
        <time>2023-02-26T07:41:48Z</time>
      </trkpt>
      <trkpt lat="46.65277" lon="0.49225">
        <ele>126.8</ele>
        <time>2023-02-26T07:41:54Z</time>
      </trkpt>
      <trkpt lat="46.6527" lon="0.49256">
        <ele>126.8</ele>
        <time>2023-02-26T07:42:00Z</time>
      </trkpt>
      <trkpt lat="46.65266" lon="0.49289">
        <ele>126.6</ele>
        <time>2023-02-26T07:42:06Z</time>
      </trkpt>
      <trkpt lat="46.65265" lon="0.49296">
        <ele>126.6</ele>
        <time>2023-02-26T07:42:07Z</time>
      </trkpt>
      <trkpt lat="46.65264" lon="0.49318">
        <ele>126</ele>
        <time>2023-02-26T07:42:11Z</time>
      </trkpt>
      <trkpt lat="46.65262" lon="0.49327">
        <ele>125.8</ele>
        <time>2023-02-26T07:42:13Z</time>
      </trkpt>
      <trkpt lat="46.6526" lon="0.49337">
        <ele>125.6</ele>
        <time>2023-02-26T07:42:15Z</time>
      </trkpt>
      <trkpt lat="46.65257" lon="0.49345">
        <ele>125.8</ele>
        <time>2023-02-26T07:42:17Z</time>
      </trkpt>
      <trkpt lat="46.6525" lon="0.49371">
        <ele>126</ele>
        <time>2023-02-26T07:42:23Z</time>
      </trkpt>
      <trkpt lat="46.6525" lon="0.49376">
        <ele>126</ele>
        <time>2023-02-26T07:42:24Z</time>
      </trkpt>
      <trkpt lat="46.65247" lon="0.49395">
        <ele>126</ele>
        <time>2023-02-26T07:42:28Z</time>
      </trkpt>
      <trkpt lat="46.65237" lon="0.49419">
        <ele>127.4</ele>
        <time>2023-02-26T07:42:33Z</time>
      </trkpt>
      <trkpt lat="46.65228" lon="0.49442">
        <ele>127.8</ele>
        <time>2023-02-26T07:42:39Z</time>
      </trkpt>
      <trkpt lat="46.6522" lon="0.49468">
        <ele>128</ele>
        <time>2023-02-26T07:42:46Z</time>
      </trkpt>
      <trkpt lat="46.65218" lon="0.4948">
        <ele>128.2</ele>
        <time>2023-02-26T07:42:49Z</time>
      </trkpt>
      <trkpt lat="46.65216" lon="0.49488">
        <ele>128.2</ele>
        <time>2023-02-26T07:42:51Z</time>
      </trkpt>
      <trkpt lat="46.65209" lon="0.49511">
        <ele>128.2</ele>
        <time>2023-02-26T07:42:56Z</time>
      </trkpt>
      <trkpt lat="46.65207" lon="0.49515">
        <ele>128.4</ele>
        <time>2023-02-26T07:42:57Z</time>
      </trkpt>
      <trkpt lat="46.65195" lon="0.49542">
        <ele>128.4</ele>
        <time>2023-02-26T07:43:02Z</time>
      </trkpt>
      <trkpt lat="46.65185" lon="0.49565">
        <ele>127.8</ele>
        <time>2023-02-26T07:43:08Z</time>
      </trkpt>
      <trkpt lat="46.65174" lon="0.49586">
        <ele>127.4</ele>
        <time>2023-02-26T07:43:13Z</time>
      </trkpt>
      <trkpt lat="46.65171" lon="0.49592">
        <ele>127.4</ele>
        <time>2023-02-26T07:43:14Z</time>
      </trkpt>
      <trkpt lat="46.65168" lon="0.49596">
        <ele>127.4</ele>
        <time>2023-02-26T07:43:15Z</time>
      </trkpt>
      <trkpt lat="46.65164" lon="0.49604">
        <ele>127.2</ele>
        <time>2023-02-26T07:43:17Z</time>
      </trkpt>
      <trkpt lat="46.65159" lon="0.49614">
        <ele>127.2</ele>
        <time>2023-02-26T07:43:19Z</time>
      </trkpt>
      <trkpt lat="46.65149" lon="0.49631">
        <ele>126.6</ele>
        <time>2023-02-26T07:43:22Z</time>
      </trkpt>
      <trkpt lat="46.65142" lon="0.49643">
        <ele>126.4</ele>
        <time>2023-02-26T07:43:24Z</time>
      </trkpt>
      <trkpt lat="46.65131" lon="0.49661">
        <ele>125.8</ele>
        <time>2023-02-26T07:43:27Z</time>
      </trkpt>
      <trkpt lat="46.65124" lon="0.49674">
        <ele>125</ele>
        <time>2023-02-26T07:43:29Z</time>
      </trkpt>
      <trkpt lat="46.65106" lon="0.49712">
        <ele>124</ele>
        <time>2023-02-26T07:43:34Z</time>
      </trkpt>
      <trkpt lat="46.65103" lon="0.49719">
        <ele>123.2</ele>
        <time>2023-02-26T07:43:35Z</time>
      </trkpt>
      <trkpt lat="46.651" lon="0.49726">
        <ele>122.6</ele>
        <time>2023-02-26T07:43:36Z</time>
      </trkpt>
      <trkpt lat="46.65095" lon="0.4974">
        <ele>122.2</ele>
        <time>2023-02-26T07:43:38Z</time>
      </trkpt>
      <trkpt lat="46.6509" lon="0.49754">
        <ele>121.8</ele>
        <time>2023-02-26T07:43:40Z</time>
      </trkpt>
      <trkpt lat="46.65088" lon="0.49761">
        <ele>121.4</ele>
        <time>2023-02-26T07:43:41Z</time>
      </trkpt>
      <trkpt lat="46.65086" lon="0.49769">
        <ele>121.2</ele>
        <time>2023-02-26T07:43:42Z</time>
      </trkpt>
      <trkpt lat="46.65081" lon="0.4979">
        <ele>120.2</ele>
        <time>2023-02-26T07:43:45Z</time>
      </trkpt>
      <trkpt lat="46.6508" lon="0.49799">
        <ele>120.2</ele>
        <time>2023-02-26T07:43:46Z</time>
      </trkpt>
      <trkpt lat="46.65072" lon="0.49836">
        <ele>119.8</ele>
        <time>2023-02-26T07:43:51Z</time>
      </trkpt>
      <trkpt lat="46.65067" lon="0.49865">
        <ele>119.2</ele>
        <time>2023-02-26T07:43:55Z</time>
      </trkpt>
      <trkpt lat="46.65066" lon="0.49871">
        <ele>119</ele>
        <time>2023-02-26T07:43:56Z</time>
      </trkpt>
      <trkpt lat="46.65057" lon="0.49916">
        <ele>118.2</ele>
        <time>2023-02-26T07:44:02Z</time>
      </trkpt>
      <trkpt lat="46.65055" lon="0.49924">
        <ele>118.2</ele>
        <time>2023-02-26T07:44:03Z</time>
      </trkpt>
      <trkpt lat="46.6505" lon="0.49964">
        <ele>118</ele>
        <time>2023-02-26T07:44:08Z</time>
      </trkpt>
      <trkpt lat="46.65051" lon="0.4998">
        <ele>118</ele>
        <time>2023-02-26T07:44:10Z</time>
      </trkpt>
      <trkpt lat="46.65053" lon="0.49996">
        <ele>118</ele>
        <time>2023-02-26T07:44:12Z</time>
      </trkpt>
      <trkpt lat="46.65052" lon="0.50006">
        <ele>118.2</ele>
        <time>2023-02-26T07:44:13Z</time>
      </trkpt>
      <trkpt lat="46.6505" lon="0.50058">
        <ele>117.8</ele>
        <time>2023-02-26T07:44:19Z</time>
      </trkpt>
      <trkpt lat="46.65049" lon="0.50073">
        <ele>117.6</ele>
        <time>2023-02-26T07:44:21Z</time>
      </trkpt>
      <trkpt lat="46.6505" lon="0.50087">
        <ele>117.4</ele>
        <time>2023-02-26T07:44:23Z</time>
      </trkpt>
      <trkpt lat="46.65063" lon="0.50121">
        <ele>117.2</ele>
        <time>2023-02-26T07:44:28Z</time>
      </trkpt>
      <trkpt lat="46.65085" lon="0.50164">
        <ele>117.2</ele>
        <time>2023-02-26T07:44:34Z</time>
      </trkpt>
      <trkpt lat="46.65088" lon="0.5017">
        <ele>117</ele>
        <time>2023-02-26T07:44:35Z</time>
      </trkpt>
      <trkpt lat="46.6509" lon="0.50176">
        <ele>117</ele>
        <time>2023-02-26T07:44:36Z</time>
      </trkpt>
      <trkpt lat="46.65095" lon="0.50182">
        <ele>116.2</ele>
        <time>2023-02-26T07:44:38Z</time>
      </trkpt>
      <trkpt lat="46.65096" lon="0.50185">
        <ele>116</ele>
        <time>2023-02-26T07:44:39Z</time>
      </trkpt>
      <trkpt lat="46.65099" lon="0.50191">
        <ele>115.4</ele>
        <time>2023-02-26T07:44:42Z</time>
      </trkpt>
      <trkpt lat="46.651" lon="0.50193">
        <ele>115.2</ele>
        <time>2023-02-26T07:44:43Z</time>
      </trkpt>
      <trkpt lat="46.65101" lon="0.50197">
        <ele>115</ele>
        <time>2023-02-26T07:44:44Z</time>
      </trkpt>
      <trkpt lat="46.65108" lon="0.5021">
        <ele>114.6</ele>
        <time>2023-02-26T07:44:47Z</time>
      </trkpt>
      <trkpt lat="46.6511" lon="0.50215">
        <ele>114.6</ele>
        <time>2023-02-26T07:44:48Z</time>
      </trkpt>
      <trkpt lat="46.65121" lon="0.50241">
        <ele>114.4</ele>
        <time>2023-02-26T07:44:52Z</time>
      </trkpt>
      <trkpt lat="46.65133" lon="0.50266">
        <ele>113.4</ele>
        <time>2023-02-26T07:44:56Z</time>
      </trkpt>
      <trkpt lat="46.65139" lon="0.50279">
        <ele>113</ele>
        <time>2023-02-26T07:44:58Z</time>
      </trkpt>
      <trkpt lat="46.65146" lon="0.50292">
        <ele>112.4</ele>
        <time>2023-02-26T07:45:00Z</time>
      </trkpt>
      <trkpt lat="46.65156" lon="0.5031">
        <ele>111.2</ele>
        <time>2023-02-26T07:45:03Z</time>
      </trkpt>
      <trkpt lat="46.65159" lon="0.50317">
        <ele>110.8</ele>
        <time>2023-02-26T07:45:04Z</time>
      </trkpt>
      <trkpt lat="46.65168" lon="0.50337">
        <ele>110.2</ele>
        <time>2023-02-26T07:45:07Z</time>
      </trkpt>
      <trkpt lat="46.65172" lon="0.50345">
        <ele>109.6</ele>
        <time>2023-02-26T07:45:09Z</time>
      </trkpt>
      <trkpt lat="46.65179" lon="0.5036">
        <ele>109.2</ele>
        <time>2023-02-26T07:45:13Z</time>
      </trkpt>
      <trkpt lat="46.65181" lon="0.50364">
        <ele>109.2</ele>
        <time>2023-02-26T07:45:14Z</time>
      </trkpt>
      <trkpt lat="46.65193" lon="0.50382">
        <ele>109.2</ele>
        <time>2023-02-26T07:45:19Z</time>
      </trkpt>
      <trkpt lat="46.65206" lon="0.5041">
        <ele>108.6</ele>
        <time>2023-02-26T07:45:26Z</time>
      </trkpt>
      <trkpt lat="46.65226" lon="0.50449">
        <ele>109</ele>
        <time>2023-02-26T07:45:34Z</time>
      </trkpt>
      <trkpt lat="46.65241" lon="0.50483">
        <ele>109</ele>
        <time>2023-02-26T07:45:40Z</time>
      </trkpt>
      <trkpt lat="46.65251" lon="0.50504">
        <ele>109.2</ele>
        <time>2023-02-26T07:45:44Z</time>
      </trkpt>
      <trkpt lat="46.65251" lon="0.50504">
        <ele>109.6</ele>
        <time>2023-02-26T07:45:45Z</time>
      </trkpt>
      <trkpt lat="46.65266" lon="0.50528">
        <ele>110.2</ele>
        <time>2023-02-26T07:45:49Z</time>
      </trkpt>
      <trkpt lat="46.65272" lon="0.50539">
        <ele>110.6</ele>
        <time>2023-02-26T07:45:51Z</time>
      </trkpt>
      <trkpt lat="46.65286" lon="0.5057">
        <ele>111.4</ele>
        <time>2023-02-26T07:45:57Z</time>
      </trkpt>
      <trkpt lat="46.65288" lon="0.50574">
        <ele>111.6</ele>
        <time>2023-02-26T07:45:58Z</time>
      </trkpt>
      <trkpt lat="46.65297" lon="0.50592">
        <ele>112.4</ele>
        <time>2023-02-26T07:46:03Z</time>
      </trkpt>
      <trkpt lat="46.65298" lon="0.50595">
        <ele>112.6</ele>
        <time>2023-02-26T07:46:04Z</time>
      </trkpt>
      <trkpt lat="46.65304" lon="0.50609">
        <ele>113.2</ele>
        <time>2023-02-26T07:46:08Z</time>
      </trkpt>
      <trkpt lat="46.65305" lon="0.50613">
        <ele>113.6</ele>
        <time>2023-02-26T07:46:09Z</time>
      </trkpt>
      <trkpt lat="46.65311" lon="0.50628">
        <ele>114.8</ele>
        <time>2023-02-26T07:46:13Z</time>
      </trkpt>
      <trkpt lat="46.65317" lon="0.50649">
        <ele>115</ele>
        <time>2023-02-26T07:46:19Z</time>
      </trkpt>
      <trkpt lat="46.65326" lon="0.50671">
        <ele>114.8</ele>
        <time>2023-02-26T07:46:25Z</time>
      </trkpt>
      <trkpt lat="46.6534" lon="0.50694">
        <ele>115.2</ele>
        <time>2023-02-26T07:46:30Z</time>
      </trkpt>
      <trkpt lat="46.65348" lon="0.50706">
        <ele>114.6</ele>
        <time>2023-02-26T07:46:33Z</time>
      </trkpt>
      <trkpt lat="46.6535" lon="0.50711">
        <ele>114.4</ele>
        <time>2023-02-26T07:46:34Z</time>
      </trkpt>
      <trkpt lat="46.65361" lon="0.50731">
        <ele>114.2</ele>
        <time>2023-02-26T07:46:38Z</time>
      </trkpt>
      <trkpt lat="46.6537" lon="0.50751">
        <ele>114</ele>
        <time>2023-02-26T07:46:43Z</time>
      </trkpt>
      <trkpt lat="46.65375" lon="0.5076">
        <ele>113.4</ele>
        <time>2023-02-26T07:46:45Z</time>
      </trkpt>
      <trkpt lat="46.65383" lon="0.50779">
        <ele>112.6</ele>
        <time>2023-02-26T07:46:49Z</time>
      </trkpt>
      <trkpt lat="46.65385" lon="0.50784">
        <ele>112.6</ele>
        <time>2023-02-26T07:46:50Z</time>
      </trkpt>
      <trkpt lat="46.65388" lon="0.5079">
        <ele>112.4</ele>
        <time>2023-02-26T07:46:51Z</time>
      </trkpt>
      <trkpt lat="46.65401" lon="0.50811">
        <ele>111.6</ele>
        <time>2023-02-26T07:46:54Z</time>
      </trkpt>
      <trkpt lat="46.65405" lon="0.50818">
        <ele>111.2</ele>
        <time>2023-02-26T07:46:55Z</time>
      </trkpt>
      <trkpt lat="46.65407" lon="0.50823">
        <ele>111</ele>
        <time>2023-02-26T07:46:56Z</time>
      </trkpt>
      <trkpt lat="46.65416" lon="0.50843">
        <ele>109.8</ele>
        <time>2023-02-26T07:46:59Z</time>
      </trkpt>
      <trkpt lat="46.65423" lon="0.50857">
        <ele>108.6</ele>
        <time>2023-02-26T07:47:01Z</time>
      </trkpt>
      <trkpt lat="46.65436" lon="0.50883">
        <ele>107.6</ele>
        <time>2023-02-26T07:47:05Z</time>
      </trkpt>
      <trkpt lat="46.65455" lon="0.50918">
        <ele>106.4</ele>
        <time>2023-02-26T07:47:10Z</time>
      </trkpt>
      <trkpt lat="46.65459" lon="0.50927">
        <ele>105.8</ele>
        <time>2023-02-26T07:47:11Z</time>
      </trkpt>
      <trkpt lat="46.65462" lon="0.50936">
        <ele>105.2</ele>
        <time>2023-02-26T07:47:12Z</time>
      </trkpt>
      <trkpt lat="46.6547" lon="0.50953">
        <ele>104</ele>
        <time>2023-02-26T07:47:14Z</time>
      </trkpt>
      <trkpt lat="46.65474" lon="0.5096">
        <ele>103.6</ele>
        <time>2023-02-26T07:47:15Z</time>
      </trkpt>
      <trkpt lat="46.65487" lon="0.50982">
        <ele>102.4</ele>
        <time>2023-02-26T07:47:18Z</time>
      </trkpt>
      <trkpt lat="46.65499" lon="0.51007">
        <ele>101.2</ele>
        <time>2023-02-26T07:47:21Z</time>
      </trkpt>
      <trkpt lat="46.65518" lon="0.51043">
        <ele>100</ele>
        <time>2023-02-26T07:47:25Z</time>
      </trkpt>
      <trkpt lat="46.65523" lon="0.51051">
        <ele>99.4</ele>
        <time>2023-02-26T07:47:26Z</time>
      </trkpt>
      <trkpt lat="46.65527" lon="0.51059">
        <ele>99</ele>
        <time>2023-02-26T07:47:27Z</time>
      </trkpt>
      <trkpt lat="46.65536" lon="0.51075">
        <ele>98.4</ele>
        <time>2023-02-26T07:47:30Z</time>
      </trkpt>
      <trkpt lat="46.65541" lon="0.51083">
        <ele>99.4</ele>
        <time>2023-02-26T07:47:32Z</time>
      </trkpt>
      <trkpt lat="46.65543" lon="0.51087">
        <ele>100</ele>
        <time>2023-02-26T07:47:33Z</time>
      </trkpt>
      <trkpt lat="46.65549" lon="0.51099">
        <ele>101</ele>
        <time>2023-02-26T07:47:36Z</time>
      </trkpt>
      <trkpt lat="46.65551" lon="0.51103">
        <ele>101.6</ele>
        <time>2023-02-26T07:47:37Z</time>
      </trkpt>
      <trkpt lat="46.65558" lon="0.51119">
        <ele>102.8</ele>
        <time>2023-02-26T07:47:41Z</time>
      </trkpt>
      <trkpt lat="46.65561" lon="0.51127">
        <ele>103.2</ele>
        <time>2023-02-26T07:47:43Z</time>
      </trkpt>
      <trkpt lat="46.65565" lon="0.51136">
        <ele>103.8</ele>
        <time>2023-02-26T07:47:45Z</time>
      </trkpt>
      <trkpt lat="46.65573" lon="0.51153">
        <ele>104.8</ele>
        <time>2023-02-26T07:47:49Z</time>
      </trkpt>
      <trkpt lat="46.65589" lon="0.51185">
        <ele>105.6</ele>
        <time>2023-02-26T07:47:56Z</time>
      </trkpt>
      <trkpt lat="46.65599" lon="0.51203">
        <ele>105.6</ele>
        <time>2023-02-26T07:48:01Z</time>
      </trkpt>
      <trkpt lat="46.65604" lon="0.51214">
        <ele>105.4</ele>
        <time>2023-02-26T07:48:05Z</time>
      </trkpt>
      <trkpt lat="46.65607" lon="0.51215">
        <ele>105.4</ele>
        <time>2023-02-26T07:48:06Z</time>
      </trkpt>
      <trkpt lat="46.65618" lon="0.51222">
        <ele>105.6</ele>
        <time>2023-02-26T07:48:10Z</time>
      </trkpt>
      <trkpt lat="46.6562" lon="0.51221">
        <ele>105.6</ele>
        <time>2023-02-26T07:48:11Z</time>
      </trkpt>
      <trkpt lat="46.65628" lon="0.51215">
        <ele>105.4</ele>
        <time>2023-02-26T07:48:14Z</time>
      </trkpt>
      <trkpt lat="46.65646" lon="0.512">
        <ele>104.8</ele>
        <time>2023-02-26T07:48:20Z</time>
      </trkpt>
      <trkpt lat="46.65649" lon="0.51197">
        <ele>104.8</ele>
        <time>2023-02-26T07:48:21Z</time>
      </trkpt>
      <trkpt lat="46.65663" lon="0.51188">
        <ele>104.6</ele>
        <time>2023-02-26T07:48:25Z</time>
      </trkpt>
      <trkpt lat="46.65684" lon="0.5118">
        <ele>104.2</ele>
        <time>2023-02-26T07:48:30Z</time>
      </trkpt>
      <trkpt lat="46.65695" lon="0.5118">
        <ele>103.8</ele>
        <time>2023-02-26T07:48:32Z</time>
      </trkpt>
      <trkpt lat="46.65714" lon="0.51183">
        <ele>103.2</ele>
        <time>2023-02-26T07:48:36Z</time>
      </trkpt>
      <trkpt lat="46.65726" lon="0.51196">
        <ele>103.2</ele>
        <time>2023-02-26T07:48:40Z</time>
      </trkpt>
      <trkpt lat="46.65728" lon="0.51215">
        <ele>102.6</ele>
        <time>2023-02-26T07:48:44Z</time>
      </trkpt>
      <trkpt lat="46.65728" lon="0.5122">
        <ele>102.2</ele>
        <time>2023-02-26T07:48:45Z</time>
      </trkpt>
      <trkpt lat="46.65732" lon="0.51236">
        <ele>102</ele>
        <time>2023-02-26T07:48:48Z</time>
      </trkpt>
      <trkpt lat="46.65735" lon="0.51239">
        <ele>102</ele>
        <time>2023-02-26T07:48:49Z</time>
      </trkpt>
      <trkpt lat="46.65739" lon="0.51242">
        <ele>102</ele>
        <time>2023-02-26T07:48:50Z</time>
      </trkpt>
      <trkpt lat="46.65747" lon="0.51246">
        <ele>102</ele>
        <time>2023-02-26T07:48:52Z</time>
      </trkpt>
      <trkpt lat="46.65751" lon="0.5125">
        <ele>101.8</ele>
        <time>2023-02-26T07:48:53Z</time>
      </trkpt>
      <trkpt lat="46.65753" lon="0.51255">
        <ele>100.8</ele>
        <time>2023-02-26T07:48:54Z</time>
      </trkpt>
      <trkpt lat="46.65754" lon="0.51266">
        <ele>99.6</ele>
        <time>2023-02-26T07:48:56Z</time>
      </trkpt>
      <trkpt lat="46.65746" lon="0.51287">
        <ele>99.4</ele>
        <time>2023-02-26T07:49:01Z</time>
      </trkpt>
      <trkpt lat="46.65744" lon="0.51306">
        <ele>99.4</ele>
        <time>2023-02-26T07:49:06Z</time>
      </trkpt>
      <trkpt lat="46.65745" lon="0.5131">
        <ele>99.2</ele>
        <time>2023-02-26T07:49:07Z</time>
      </trkpt>
      <trkpt lat="46.65753" lon="0.5133">
        <ele>98.8</ele>
        <time>2023-02-26T07:49:12Z</time>
      </trkpt>
      <trkpt lat="46.65755" lon="0.51334">
        <ele>98.6</ele>
        <time>2023-02-26T07:49:13Z</time>
      </trkpt>
      <trkpt lat="46.65757" lon="0.51339">
        <ele>98.4</ele>
        <time>2023-02-26T07:49:14Z</time>
      </trkpt>
      <trkpt lat="46.65761" lon="0.51353">
        <ele>97.2</ele>
        <time>2023-02-26T07:49:17Z</time>
      </trkpt>
      <trkpt lat="46.65763" lon="0.51357">
        <ele>96.8</ele>
        <time>2023-02-26T07:49:18Z</time>
      </trkpt>
      <trkpt lat="46.65764" lon="0.51365">
        <ele>96</ele>
        <time>2023-02-26T07:49:20Z</time>
      </trkpt>
      <trkpt lat="46.65768" lon="0.51376">
        <ele>95.4</ele>
        <time>2023-02-26T07:49:23Z</time>
      </trkpt>
      <trkpt lat="46.65774" lon="0.51378">
        <ele>95.4</ele>
        <time>2023-02-26T07:49:25Z</time>
      </trkpt>
      <trkpt lat="46.65779" lon="0.51378">
        <ele>95.2</ele>
        <time>2023-02-26T07:49:27Z</time>
      </trkpt>
      <trkpt lat="46.65782" lon="0.5138">
        <ele>95</ele>
        <time>2023-02-26T07:49:28Z</time>
      </trkpt>
      <trkpt lat="46.65788" lon="0.51387">
        <ele>94.8</ele>
        <time>2023-02-26T07:49:30Z</time>
      </trkpt>
      <trkpt lat="46.65791" lon="0.51392">
        <ele>94.8</ele>
        <time>2023-02-26T07:49:31Z</time>
      </trkpt>
      <trkpt lat="46.65801" lon="0.51412">
        <ele>94.8</ele>
        <time>2023-02-26T07:49:35Z</time>
      </trkpt>
      <trkpt lat="46.65817" lon="0.51446">
        <ele>95.6</ele>
        <time>2023-02-26T07:49:42Z</time>
      </trkpt>
      <trkpt lat="46.65824" lon="0.51459">
        <ele>96</ele>
        <time>2023-02-26T07:49:45Z</time>
      </trkpt>
      <trkpt lat="46.65829" lon="0.51471">
        <ele>96.2</ele>
        <time>2023-02-26T07:49:48Z</time>
      </trkpt>
      <trkpt lat="46.65841" lon="0.51496">
        <ele>97.2</ele>
        <time>2023-02-26T07:49:54Z</time>
      </trkpt>
      <trkpt lat="46.65846" lon="0.51503">
        <ele>97.2</ele>
        <time>2023-02-26T07:49:56Z</time>
      </trkpt>
      <trkpt lat="46.65858" lon="0.51524">
        <ele>98</ele>
        <time>2023-02-26T07:50:01Z</time>
      </trkpt>
      <trkpt lat="46.65863" lon="0.51533">
        <ele>98.2</ele>
        <time>2023-02-26T07:50:03Z</time>
      </trkpt>
      <trkpt lat="46.65872" lon="0.51548">
        <ele>98.2</ele>
        <time>2023-02-26T07:50:07Z</time>
      </trkpt>
      <trkpt lat="46.65884" lon="0.51574">
        <ele>97.8</ele>
        <time>2023-02-26T07:50:13Z</time>
      </trkpt>
      <trkpt lat="46.659" lon="0.51602">
        <ele>97.4</ele>
        <time>2023-02-26T07:50:20Z</time>
      </trkpt>
      <trkpt lat="46.65909" lon="0.51622">
        <ele>97.2</ele>
        <time>2023-02-26T07:50:25Z</time>
      </trkpt>
      <trkpt lat="46.65911" lon="0.51626">
        <ele>97</ele>
        <time>2023-02-26T07:50:26Z</time>
      </trkpt>
      <trkpt lat="46.65928" lon="0.5166">
        <ele>97.6</ele>
        <time>2023-02-26T07:50:35Z</time>
      </trkpt>
      <trkpt lat="46.65938" lon="0.5168">
        <ele>97.8</ele>
        <time>2023-02-26T07:50:40Z</time>
      </trkpt>
      <trkpt lat="46.65957" lon="0.51717">
        <ele>97.2</ele>
        <time>2023-02-26T07:50:48Z</time>
      </trkpt>
      <trkpt lat="46.65965" lon="0.51739">
        <ele>96.8</ele>
        <time>2023-02-26T07:50:52Z</time>
      </trkpt>
      <trkpt lat="46.65971" lon="0.51748">
        <ele>96</ele>
        <time>2023-02-26T07:50:54Z</time>
      </trkpt>
      <trkpt lat="46.65973" lon="0.51753">
        <ele>95.8</ele>
        <time>2023-02-26T07:50:55Z</time>
      </trkpt>
      <trkpt lat="46.65983" lon="0.51779">
        <ele>95</ele>
        <time>2023-02-26T07:51:00Z</time>
      </trkpt>
      <trkpt lat="46.65986" lon="0.51785">
        <ele>94.8</ele>
        <time>2023-02-26T07:51:01Z</time>
      </trkpt>
      <trkpt lat="46.65995" lon="0.51799">
        <ele>94.4</ele>
        <time>2023-02-26T07:51:03Z</time>
      </trkpt>
      <trkpt lat="46.66007" lon="0.51817">
        <ele>93.8</ele>
        <time>2023-02-26T07:51:06Z</time>
      </trkpt>
      <trkpt lat="46.66009" lon="0.51822">
        <ele>93.8</ele>
        <time>2023-02-26T07:51:07Z</time>
      </trkpt>
      <trkpt lat="46.66017" lon="0.5184">
        <ele>93.2</ele>
        <time>2023-02-26T07:51:10Z</time>
      </trkpt>
      <trkpt lat="46.66021" lon="0.5185">
        <ele>93</ele>
        <time>2023-02-26T07:51:12Z</time>
      </trkpt>
      <trkpt lat="46.6603" lon="0.51867">
        <ele>92.6</ele>
        <time>2023-02-26T07:51:15Z</time>
      </trkpt>
      <trkpt lat="46.66038" lon="0.51886">
        <ele>91.8</ele>
        <time>2023-02-26T07:51:18Z</time>
      </trkpt>
      <trkpt lat="46.66041" lon="0.51893">
        <ele>91.4</ele>
        <time>2023-02-26T07:51:19Z</time>
      </trkpt>
      <trkpt lat="46.66043" lon="0.519">
        <ele>91.2</ele>
        <time>2023-02-26T07:51:20Z</time>
      </trkpt>
      <trkpt lat="46.66045" lon="0.5191">
        <ele>90.2</ele>
        <time>2023-02-26T07:51:22Z</time>
      </trkpt>
      <trkpt lat="46.66049" lon="0.5192">
        <ele>89.4</ele>
        <time>2023-02-26T07:51:24Z</time>
      </trkpt>
      <trkpt lat="46.66049" lon="0.5192">
        <ele>89</ele>
        <time>2023-02-26T07:51:25Z</time>
      </trkpt>
      <trkpt lat="46.66053" lon="0.5193">
        <ele>89</ele>
        <time>2023-02-26T07:51:27Z</time>
      </trkpt>
      <trkpt lat="46.66064" lon="0.51947">
        <ele>89.6</ele>
        <time>2023-02-26T07:51:31Z</time>
      </trkpt>
      <trkpt lat="46.66066" lon="0.51952">
        <ele>89.6</ele>
        <time>2023-02-26T07:51:32Z</time>
      </trkpt>
      <trkpt lat="46.66068" lon="0.51956">
        <ele>89.8</ele>
        <time>2023-02-26T07:51:33Z</time>
      </trkpt>
      <trkpt lat="46.66075" lon="0.51966">
        <ele>90.2</ele>
        <time>2023-02-26T07:51:35Z</time>
      </trkpt>
      <trkpt lat="46.66078" lon="0.51974">
        <ele>90.4</ele>
        <time>2023-02-26T07:51:37Z</time>
      </trkpt>
      <trkpt lat="46.66086" lon="0.51989">
        <ele>91.6</ele>
        <time>2023-02-26T07:51:40Z</time>
      </trkpt>
      <trkpt lat="46.66096" lon="0.52009">
        <ele>92.2</ele>
        <time>2023-02-26T07:51:45Z</time>
      </trkpt>
      <trkpt lat="46.66103" lon="0.52018">
        <ele>92.8</ele>
        <time>2023-02-26T07:51:47Z</time>
      </trkpt>
      <trkpt lat="46.66111" lon="0.52033">
        <ele>94</ele>
        <time>2023-02-26T07:51:51Z</time>
      </trkpt>
      <trkpt lat="46.6612" lon="0.52055">
        <ele>95</ele>
        <time>2023-02-26T07:51:57Z</time>
      </trkpt>
      <trkpt lat="46.66128" lon="0.5207">
        <ele>96.2</ele>
        <time>2023-02-26T07:52:01Z</time>
      </trkpt>
      <trkpt lat="46.66132" lon="0.5208">
        <ele>96.6</ele>
        <time>2023-02-26T07:52:04Z</time>
      </trkpt>
      <trkpt lat="46.66135" lon="0.52086">
        <ele>97.4</ele>
        <time>2023-02-26T07:52:06Z</time>
      </trkpt>
      <trkpt lat="46.66144" lon="0.52103">
        <ele>98.2</ele>
        <time>2023-02-26T07:52:11Z</time>
      </trkpt>
      <trkpt lat="46.66146" lon="0.52107">
        <ele>98.4</ele>
        <time>2023-02-26T07:52:12Z</time>
      </trkpt>
      <trkpt lat="46.66156" lon="0.52124">
        <ele>99.8</ele>
        <time>2023-02-26T07:52:17Z</time>
      </trkpt>
      <trkpt lat="46.66167" lon="0.5215">
        <ele>100.8</ele>
        <time>2023-02-26T07:52:24Z</time>
      </trkpt>
      <trkpt lat="46.66179" lon="0.52172">
        <ele>101</ele>
        <time>2023-02-26T07:52:30Z</time>
      </trkpt>
      <trkpt lat="46.66187" lon="0.52185">
        <ele>101.4</ele>
        <time>2023-02-26T07:52:35Z</time>
      </trkpt>
      <trkpt lat="46.66197" lon="0.52207">
        <ele>101.8</ele>
        <time>2023-02-26T07:52:42Z</time>
      </trkpt>
      <trkpt lat="46.66202" lon="0.52218">
        <ele>101.8</ele>
        <time>2023-02-26T07:52:45Z</time>
      </trkpt>
      <trkpt lat="46.66206" lon="0.52228">
        <ele>102.2</ele>
        <time>2023-02-26T07:52:48Z</time>
      </trkpt>
      <trkpt lat="46.66216" lon="0.52251">
        <ele>102.8</ele>
        <time>2023-02-26T07:52:54Z</time>
      </trkpt>
      <trkpt lat="46.66219" lon="0.52256">
        <ele>103</ele>
        <time>2023-02-26T07:52:55Z</time>
      </trkpt>
      <trkpt lat="46.66229" lon="0.52275">
        <ele>103.2</ele>
        <time>2023-02-26T07:53:00Z</time>
      </trkpt>
      <trkpt lat="46.66239" lon="0.52291">
        <ele>102.8</ele>
        <time>2023-02-26T07:53:04Z</time>
      </trkpt>
      <trkpt lat="46.66241" lon="0.52296">
        <ele>102.8</ele>
        <time>2023-02-26T07:53:05Z</time>
      </trkpt>
      <trkpt lat="46.66247" lon="0.52306">
        <ele>103.2</ele>
        <time>2023-02-26T07:53:07Z</time>
      </trkpt>
      <trkpt lat="46.66252" lon="0.52316">
        <ele>103.8</ele>
        <time>2023-02-26T07:53:09Z</time>
      </trkpt>
      <trkpt lat="46.66253" lon="0.5232">
        <ele>104</ele>
        <time>2023-02-26T07:53:10Z</time>
      </trkpt>
      <trkpt lat="46.66257" lon="0.52324">
        <ele>104.2</ele>
        <time>2023-02-26T07:53:11Z</time>
      </trkpt>
      <trkpt lat="46.66267" lon="0.52345">
        <ele>104.2</ele>
        <time>2023-02-26T07:53:15Z</time>
      </trkpt>
      <trkpt lat="46.66287" lon="0.52381">
        <ele>103.8</ele>
        <time>2023-02-26T07:53:23Z</time>
      </trkpt>
      <trkpt lat="46.66293" lon="0.52397">
        <ele>102.8</ele>
        <time>2023-02-26T07:53:27Z</time>
      </trkpt>
      <trkpt lat="46.66296" lon="0.52404">
        <ele>102.4</ele>
        <time>2023-02-26T07:53:29Z</time>
      </trkpt>
      <trkpt lat="46.66304" lon="0.52426">
        <ele>102</ele>
        <time>2023-02-26T07:53:33Z</time>
      </trkpt>
      <trkpt lat="46.66309" lon="0.52434">
        <ele>101.4</ele>
        <time>2023-02-26T07:53:34Z</time>
      </trkpt>
      <trkpt lat="46.6632" lon="0.52456">
        <ele>100.8</ele>
        <time>2023-02-26T07:53:37Z</time>
      </trkpt>
      <trkpt lat="46.66326" lon="0.52468">
        <ele>100.2</ele>
        <time>2023-02-26T07:53:39Z</time>
      </trkpt>
      <trkpt lat="46.66328" lon="0.52473">
        <ele>99.8</ele>
        <time>2023-02-26T07:53:40Z</time>
      </trkpt>
      <trkpt lat="46.66332" lon="0.52484">
        <ele>99.2</ele>
        <time>2023-02-26T07:53:42Z</time>
      </trkpt>
      <trkpt lat="46.66335" lon="0.52491">
        <ele>98.6</ele>
        <time>2023-02-26T07:53:43Z</time>
      </trkpt>
      <trkpt lat="46.66346" lon="0.52518">
        <ele>97.6</ele>
        <time>2023-02-26T07:53:47Z</time>
      </trkpt>
      <trkpt lat="46.66355" lon="0.52536">
        <ele>97</ele>
        <time>2023-02-26T07:53:50Z</time>
      </trkpt>
      <trkpt lat="46.6636" lon="0.52545">
        <ele>97.2</ele>
        <time>2023-02-26T07:53:52Z</time>
      </trkpt>
      <trkpt lat="46.66368" lon="0.52559">
        <ele>99.2</ele>
        <time>2023-02-26T07:53:56Z</time>
      </trkpt>
      <trkpt lat="46.66371" lon="0.52564">
        <ele>99.6</ele>
        <time>2023-02-26T07:53:57Z</time>
      </trkpt>
      <trkpt lat="46.66373" lon="0.52567">
        <ele>100.6</ele>
        <time>2023-02-26T07:53:58Z</time>
      </trkpt>
      <trkpt lat="46.66378" lon="0.52574">
        <ele>102</ele>
        <time>2023-02-26T07:54:00Z</time>
      </trkpt>
      <trkpt lat="46.66384" lon="0.52585">
        <ele>103</ele>
        <time>2023-02-26T07:54:03Z</time>
      </trkpt>
      <trkpt lat="46.66387" lon="0.52589">
        <ele>103.2</ele>
        <time>2023-02-26T07:54:04Z</time>
      </trkpt>
      <trkpt lat="46.66401" lon="0.52608">
        <ele>104.4</ele>
        <time>2023-02-26T07:54:09Z</time>
      </trkpt>
      <trkpt lat="46.66405" lon="0.52618">
        <ele>105.4</ele>
        <time>2023-02-26T07:54:12Z</time>
      </trkpt>
      <trkpt lat="46.66411" lon="0.5263">
        <ele>106.4</ele>
        <time>2023-02-26T07:54:15Z</time>
      </trkpt>
      <trkpt lat="46.66412" lon="0.52633">
        <ele>106.6</ele>
        <time>2023-02-26T07:54:16Z</time>
      </trkpt>
      <trkpt lat="46.66423" lon="0.52658">
        <ele>107.4</ele>
        <time>2023-02-26T07:54:22Z</time>
      </trkpt>
      <trkpt lat="46.66437" lon="0.52688">
        <ele>107.4</ele>
        <time>2023-02-26T07:54:28Z</time>
      </trkpt>
      <trkpt lat="46.66443" lon="0.52698">
        <ele>107.4</ele>
        <time>2023-02-26T07:54:30Z</time>
      </trkpt>
      <trkpt lat="46.66446" lon="0.52702">
        <ele>107.4</ele>
        <time>2023-02-26T07:54:31Z</time>
      </trkpt>
      <trkpt lat="46.66455" lon="0.52719">
        <ele>106.8</ele>
        <time>2023-02-26T07:54:35Z</time>
      </trkpt>
      <trkpt lat="46.66461" lon="0.52735">
        <ele>105.4</ele>
        <time>2023-02-26T07:54:37Z</time>
      </trkpt>
      <trkpt lat="46.66467" lon="0.5275">
        <ele>104.2</ele>
        <time>2023-02-26T07:54:39Z</time>
      </trkpt>
      <trkpt lat="46.66481" lon="0.52776">
        <ele>104.2</ele>
        <time>2023-02-26T07:54:43Z</time>
      </trkpt>
      <trkpt lat="46.66486" lon="0.52785">
        <ele>105.6</ele>
        <time>2023-02-26T07:54:45Z</time>
      </trkpt>
      <trkpt lat="46.6649" lon="0.52796">
        <ele>107</ele>
        <time>2023-02-26T07:54:47Z</time>
      </trkpt>
      <trkpt lat="46.66495" lon="0.52805">
        <ele>108</ele>
        <time>2023-02-26T07:54:49Z</time>
      </trkpt>
      <trkpt lat="46.66496" lon="0.5281">
        <ele>108.2</ele>
        <time>2023-02-26T07:54:50Z</time>
      </trkpt>
      <trkpt lat="46.66499" lon="0.52815">
        <ele>108.6</ele>
        <time>2023-02-26T07:54:51Z</time>
      </trkpt>
      <trkpt lat="46.66501" lon="0.52819">
        <ele>109.4</ele>
        <time>2023-02-26T07:54:52Z</time>
      </trkpt>
      <trkpt lat="46.66504" lon="0.52829">
        <ele>110.6</ele>
        <time>2023-02-26T07:54:54Z</time>
      </trkpt>
      <trkpt lat="46.66506" lon="0.52834">
        <ele>111</ele>
        <time>2023-02-26T07:54:55Z</time>
      </trkpt>
      <trkpt lat="46.66513" lon="0.52849">
        <ele>112.2</ele>
        <time>2023-02-26T07:54:58Z</time>
      </trkpt>
      <trkpt lat="46.66516" lon="0.52857">
        <ele>113.4</ele>
        <time>2023-02-26T07:55:00Z</time>
      </trkpt>
      <trkpt lat="46.66517" lon="0.52861">
        <ele>113.6</ele>
        <time>2023-02-26T07:55:01Z</time>
      </trkpt>
      <trkpt lat="46.66526" lon="0.52876">
        <ele>114.6</ele>
        <time>2023-02-26T07:55:05Z</time>
      </trkpt>
      <trkpt lat="46.6653" lon="0.52884">
        <ele>115</ele>
        <time>2023-02-26T07:55:07Z</time>
      </trkpt>
      <trkpt lat="46.66532" lon="0.5289">
        <ele>115.8</ele>
        <time>2023-02-26T07:55:09Z</time>
      </trkpt>
      <trkpt lat="46.6654" lon="0.52908">
        <ele>116.8</ele>
        <time>2023-02-26T07:55:14Z</time>
      </trkpt>
      <trkpt lat="46.66542" lon="0.52912">
        <ele>117.2</ele>
        <time>2023-02-26T07:55:15Z</time>
      </trkpt>
      <trkpt lat="46.66548" lon="0.52923">
        <ele>117.8</ele>
        <time>2023-02-26T07:55:18Z</time>
      </trkpt>
      <trkpt lat="46.66555" lon="0.52937">
        <ele>118.8</ele>
        <time>2023-02-26T07:55:22Z</time>
      </trkpt>
      <trkpt lat="46.66561" lon="0.52951">
        <ele>120</ele>
        <time>2023-02-26T07:55:26Z</time>
      </trkpt>
      <trkpt lat="46.66566" lon="0.52961">
        <ele>121.2</ele>
        <time>2023-02-26T07:55:29Z</time>
      </trkpt>
      <trkpt lat="46.66576" lon="0.52975">
        <ele>122.4</ele>
        <time>2023-02-26T07:55:34Z</time>
      </trkpt>
      <trkpt lat="46.66577" lon="0.52979">
        <ele>122.4</ele>
        <time>2023-02-26T07:55:35Z</time>
      </trkpt>
      <trkpt lat="46.6659" lon="0.53">
        <ele>123.2</ele>
        <time>2023-02-26T07:55:41Z</time>
      </trkpt>
      <trkpt lat="46.66594" lon="0.53007">
        <ele>123.4</ele>
        <time>2023-02-26T07:55:43Z</time>
      </trkpt>
      <trkpt lat="46.666" lon="0.53021">
        <ele>123.8</ele>
        <time>2023-02-26T07:55:47Z</time>
      </trkpt>
      <trkpt lat="46.66611" lon="0.53045">
        <ele>124.6</ele>
        <time>2023-02-26T07:55:53Z</time>
      </trkpt>
      <trkpt lat="46.66613" lon="0.53049">
        <ele>124.8</ele>
        <time>2023-02-26T07:55:54Z</time>
      </trkpt>
      <trkpt lat="46.66626" lon="0.53075">
        <ele>125.2</ele>
        <time>2023-02-26T07:56:00Z</time>
      </trkpt>
      <trkpt lat="46.66638" lon="0.53099">
        <ele>125.6</ele>
        <time>2023-02-26T07:56:06Z</time>
      </trkpt>
      <trkpt lat="46.66642" lon="0.53108">
        <ele>125.6</ele>
        <time>2023-02-26T07:56:08Z</time>
      </trkpt>
      <trkpt lat="46.66649" lon="0.53122">
        <ele>125.6</ele>
        <time>2023-02-26T07:56:12Z</time>
      </trkpt>
      <trkpt lat="46.66659" lon="0.53133">
        <ele>126.2</ele>
        <time>2023-02-26T07:56:17Z</time>
      </trkpt>
      <trkpt lat="46.66668" lon="0.53126">
        <ele>125.8</ele>
        <time>2023-02-26T07:56:21Z</time>
      </trkpt>
      <trkpt lat="46.66676" lon="0.53103">
        <ele>125.6</ele>
        <time>2023-02-26T07:56:27Z</time>
      </trkpt>
      <trkpt lat="46.6668" lon="0.53094">
        <ele>125.6</ele>
        <time>2023-02-26T07:56:29Z</time>
      </trkpt>
      <trkpt lat="46.66685" lon="0.53085">
        <ele>125.8</ele>
        <time>2023-02-26T07:56:31Z</time>
      </trkpt>
      <trkpt lat="46.66687" lon="0.53081">
        <ele>125.8</ele>
        <time>2023-02-26T07:56:32Z</time>
      </trkpt>
      <trkpt lat="46.6669" lon="0.53077">
        <ele>125.8</ele>
        <time>2023-02-26T07:56:33Z</time>
      </trkpt>
      <trkpt lat="46.66702" lon="0.53061">
        <ele>125.8</ele>
        <time>2023-02-26T07:56:37Z</time>
      </trkpt>
      <trkpt lat="46.66705" lon="0.53057">
        <ele>125.6</ele>
        <time>2023-02-26T07:56:38Z</time>
      </trkpt>
      <trkpt lat="46.66708" lon="0.53054">
        <ele>125.6</ele>
        <time>2023-02-26T07:56:39Z</time>
      </trkpt>
      <trkpt lat="46.66723" lon="0.53036">
        <ele>126</ele>
        <time>2023-02-26T07:56:43Z</time>
      </trkpt>
      <trkpt lat="46.66752" lon="0.53002">
        <ele>126.6</ele>
        <time>2023-02-26T07:56:50Z</time>
      </trkpt>
      <trkpt lat="46.66774" lon="0.52973">
        <ele>126.2</ele>
        <time>2023-02-26T07:56:56Z</time>
      </trkpt>
      <trkpt lat="46.66781" lon="0.52965">
        <ele>126.4</ele>
        <time>2023-02-26T07:56:58Z</time>
      </trkpt>
      <trkpt lat="46.6679" lon="0.5295">
        <ele>126.4</ele>
        <time>2023-02-26T07:57:01Z</time>
      </trkpt>
      <trkpt lat="46.66807" lon="0.52923">
        <ele>125.8</ele>
        <time>2023-02-26T07:57:07Z</time>
      </trkpt>
      <trkpt lat="46.66813" lon="0.52913">
        <ele>126</ele>
        <time>2023-02-26T07:57:09Z</time>
      </trkpt>
      <trkpt lat="46.66823" lon="0.52896">
        <ele>126.2</ele>
        <time>2023-02-26T07:57:12Z</time>
      </trkpt>
      <trkpt lat="46.66851" lon="0.52858">
        <ele>126.2</ele>
        <time>2023-02-26T07:57:19Z</time>
      </trkpt>
      <trkpt lat="46.66863" lon="0.52842">
        <ele>125.8</ele>
        <time>2023-02-26T07:57:22Z</time>
      </trkpt>
      <trkpt lat="46.66874" lon="0.52828">
        <ele>125.8</ele>
        <time>2023-02-26T07:57:25Z</time>
      </trkpt>
      <trkpt lat="46.66878" lon="0.52821">
        <ele>125.8</ele>
        <time>2023-02-26T07:57:27Z</time>
      </trkpt>
      <trkpt lat="46.66879" lon="0.52814">
        <ele>125.4</ele>
        <time>2023-02-26T07:57:29Z</time>
      </trkpt>
      <trkpt lat="46.66879" lon="0.52806">
        <ele>124.8</ele>
        <time>2023-02-26T07:57:32Z</time>
      </trkpt>
      <trkpt lat="46.66876" lon="0.52804">
        <ele>124.6</ele>
        <time>2023-02-26T07:57:34Z</time>
      </trkpt>
      <trkpt lat="46.66875" lon="0.52803">
        <ele>124.6</ele>
        <time>2023-02-26T07:57:35Z</time>
      </trkpt>
      <trkpt lat="46.66874" lon="0.52802">
        <ele>124.4</ele>
        <time>2023-02-26T07:57:36Z</time>
      </trkpt>
      <trkpt lat="46.66871" lon="0.52796">
        <ele>124.4</ele>
        <time>2023-02-26T07:57:39Z</time>
      </trkpt>
      <trkpt lat="46.66861" lon="0.52782">
        <ele>124.6</ele>
        <time>2023-02-26T07:57:44Z</time>
      </trkpt>
      <trkpt lat="46.66847" lon="0.52765">
        <ele>123.8</ele>
        <time>2023-02-26T07:57:50Z</time>
      </trkpt>
      <trkpt lat="46.66842" lon="0.52759">
        <ele>123.6</ele>
        <time>2023-02-26T07:57:52Z</time>
      </trkpt>
      <trkpt lat="46.66839" lon="0.52756">
        <ele>123.4</ele>
        <time>2023-02-26T07:57:53Z</time>
      </trkpt>
      <trkpt lat="46.66829" lon="0.52747">
        <ele>123.2</ele>
        <time>2023-02-26T07:57:56Z</time>
      </trkpt>
      <trkpt lat="46.66826" lon="0.52742">
        <ele>122.8</ele>
        <time>2023-02-26T07:57:57Z</time>
      </trkpt>
      <trkpt lat="46.66823" lon="0.52737">
        <ele>122.4</ele>
        <time>2023-02-26T07:57:58Z</time>
      </trkpt>
      <trkpt lat="46.66819" lon="0.52726">
        <ele>121.6</ele>
        <time>2023-02-26T07:58:01Z</time>
      </trkpt>
      <trkpt lat="46.66818" lon="0.52719">
        <ele>121.4</ele>
        <time>2023-02-26T07:58:03Z</time>
      </trkpt>
      <trkpt lat="46.66815" lon="0.52706">
        <ele>120.6</ele>
        <time>2023-02-26T07:58:06Z</time>
      </trkpt>
      <trkpt lat="46.66814" lon="0.52701">
        <ele>120.4</ele>
        <time>2023-02-26T07:58:07Z</time>
      </trkpt>
      <trkpt lat="46.66813" lon="0.52697">
        <ele>120.2</ele>
        <time>2023-02-26T07:58:08Z</time>
      </trkpt>
      <trkpt lat="46.66811" lon="0.52693">
        <ele>119.8</ele>
        <time>2023-02-26T07:58:09Z</time>
      </trkpt>
      <trkpt lat="46.66807" lon="0.5268">
        <ele>119.2</ele>
        <time>2023-02-26T07:58:12Z</time>
      </trkpt>
      <trkpt lat="46.66803" lon="0.52665">
        <ele>118</ele>
        <time>2023-02-26T07:58:15Z</time>
      </trkpt>
      <trkpt lat="46.66798" lon="0.52653">
        <ele>117.2</ele>
        <time>2023-02-26T07:58:17Z</time>
      </trkpt>
      <trkpt lat="46.66794" lon="0.52646">
        <ele>116.6</ele>
        <time>2023-02-26T07:58:18Z</time>
      </trkpt>
      <trkpt lat="46.66785" lon="0.5263">
        <ele>115.2</ele>
        <time>2023-02-26T07:58:21Z</time>
      </trkpt>
      <trkpt lat="46.6678" lon="0.5262">
        <ele>113.8</ele>
        <time>2023-02-26T07:58:23Z</time>
      </trkpt>
      <trkpt lat="46.66775" lon="0.52611">
        <ele>113</ele>
        <time>2023-02-26T07:58:25Z</time>
      </trkpt>
      <trkpt lat="46.66772" lon="0.52606">
        <ele>112.6</ele>
        <time>2023-02-26T07:58:26Z</time>
      </trkpt>
      <trkpt lat="46.66769" lon="0.52602">
        <ele>112</ele>
        <time>2023-02-26T07:58:27Z</time>
      </trkpt>
      <trkpt lat="46.66766" lon="0.52596">
        <ele>111.6</ele>
        <time>2023-02-26T07:58:28Z</time>
      </trkpt>
      <trkpt lat="46.66759" lon="0.52585">
        <ele>110.4</ele>
        <time>2023-02-26T07:58:30Z</time>
      </trkpt>
      <trkpt lat="46.66747" lon="0.52573">
        <ele>109.2</ele>
        <time>2023-02-26T07:58:33Z</time>
      </trkpt>
      <trkpt lat="46.66726" lon="0.52554">
        <ele>107.8</ele>
        <time>2023-02-26T07:58:38Z</time>
      </trkpt>
      <trkpt lat="46.66722" lon="0.5255">
        <ele>107.4</ele>
        <time>2023-02-26T07:58:39Z</time>
      </trkpt>
      <trkpt lat="46.66712" lon="0.52538">
        <ele>106.8</ele>
        <time>2023-02-26T07:58:42Z</time>
      </trkpt>
      <trkpt lat="46.66708" lon="0.52534">
        <ele>106.6</ele>
        <time>2023-02-26T07:58:43Z</time>
      </trkpt>
      <trkpt lat="46.66701" lon="0.52526">
        <ele>106</ele>
        <time>2023-02-26T07:58:45Z</time>
      </trkpt>
      <trkpt lat="46.66692" lon="0.52518">
        <ele>106</ele>
        <time>2023-02-26T07:58:47Z</time>
      </trkpt>
      <trkpt lat="46.66685" lon="0.52511">
        <ele>105.8</ele>
        <time>2023-02-26T07:58:49Z</time>
      </trkpt>
      <trkpt lat="46.66681" lon="0.52507">
        <ele>105.6</ele>
        <time>2023-02-26T07:58:50Z</time>
      </trkpt>
      <trkpt lat="46.66679" lon="0.52503">
        <ele>105.6</ele>
        <time>2023-02-26T07:58:51Z</time>
      </trkpt>
      <trkpt lat="46.66675" lon="0.52494">
        <ele>104.4</ele>
        <time>2023-02-26T07:58:53Z</time>
      </trkpt>
      <trkpt lat="46.66672" lon="0.5249">
        <ele>103.8</ele>
        <time>2023-02-26T07:58:54Z</time>
      </trkpt>
      <trkpt lat="46.66666" lon="0.52481">
        <ele>103.2</ele>
        <time>2023-02-26T07:58:56Z</time>
      </trkpt>
      <trkpt lat="46.66651" lon="0.52457">
        <ele>102.2</ele>
        <time>2023-02-26T07:59:01Z</time>
      </trkpt>
      <trkpt lat="46.66649" lon="0.52452">
        <ele>101.6</ele>
        <time>2023-02-26T07:59:02Z</time>
      </trkpt>
      <trkpt lat="46.66646" lon="0.52446">
        <ele>101.2</ele>
        <time>2023-02-26T07:59:03Z</time>
      </trkpt>
      <trkpt lat="46.66642" lon="0.52432">
        <ele>99.8</ele>
        <time>2023-02-26T07:59:05Z</time>
      </trkpt>
      <trkpt lat="46.66638" lon="0.52421">
        <ele>99.6</ele>
        <time>2023-02-26T07:59:07Z</time>
      </trkpt>
      <trkpt lat="46.66635" lon="0.52416">
        <ele>99.4</ele>
        <time>2023-02-26T07:59:08Z</time>
      </trkpt>
      <trkpt lat="46.66625" lon="0.52394">
        <ele>99.2</ele>
        <time>2023-02-26T07:59:12Z</time>
      </trkpt>
      <trkpt lat="46.6662" lon="0.52382">
        <ele>99.4</ele>
        <time>2023-02-26T07:59:14Z</time>
      </trkpt>
      <trkpt lat="46.66612" lon="0.52365">
        <ele>99.6</ele>
        <time>2023-02-26T07:59:17Z</time>
      </trkpt>
      <trkpt lat="46.6661" lon="0.52359">
        <ele>99.4</ele>
        <time>2023-02-26T07:59:18Z</time>
      </trkpt>
      <trkpt lat="46.66604" lon="0.52335">
        <ele>98.8</ele>
        <time>2023-02-26T07:59:22Z</time>
      </trkpt>
      <trkpt lat="46.66602" lon="0.52328">
        <ele>98.6</ele>
        <time>2023-02-26T07:59:23Z</time>
      </trkpt>
      <trkpt lat="46.666" lon="0.52315">
        <ele>97.8</ele>
        <time>2023-02-26T07:59:25Z</time>
      </trkpt>
      <trkpt lat="46.66599" lon="0.52308">
        <ele>97.6</ele>
        <time>2023-02-26T07:59:26Z</time>
      </trkpt>
      <trkpt lat="46.66599" lon="0.52302">
        <ele>97.4</ele>
        <time>2023-02-26T07:59:27Z</time>
      </trkpt>
      <trkpt lat="46.66599" lon="0.52296">
        <ele>97.4</ele>
        <time>2023-02-26T07:59:28Z</time>
      </trkpt>
      <trkpt lat="46.66596" lon="0.5225">
        <ele>98.2</ele>
        <time>2023-02-26T07:59:35Z</time>
      </trkpt>
      <trkpt lat="46.66596" lon="0.5224">
        <ele>98.8</ele>
        <time>2023-02-26T07:59:37Z</time>
      </trkpt>
      <trkpt lat="46.66594" lon="0.52221">
        <ele>99</ele>
        <time>2023-02-26T07:59:40Z</time>
      </trkpt>
      <trkpt lat="46.66594" lon="0.52198">
        <ele>100</ele>
        <time>2023-02-26T07:59:45Z</time>
      </trkpt>
      <trkpt lat="46.66594" lon="0.52194">
        <ele>100.2</ele>
        <time>2023-02-26T07:59:46Z</time>
      </trkpt>
      <trkpt lat="46.66595" lon="0.52177">
        <ele>101.2</ele>
        <time>2023-02-26T07:59:50Z</time>
      </trkpt>
      <trkpt lat="46.66594" lon="0.52171">
        <ele>101.6</ele>
        <time>2023-02-26T07:59:51Z</time>
      </trkpt>
      <trkpt lat="46.66594" lon="0.52157">
        <ele>102.4</ele>
        <time>2023-02-26T07:59:54Z</time>
      </trkpt>
      <trkpt lat="46.66596" lon="0.52143">
        <ele>103.4</ele>
        <time>2023-02-26T07:59:57Z</time>
      </trkpt>
      <trkpt lat="46.66597" lon="0.52139">
        <ele>103.8</ele>
        <time>2023-02-26T07:59:58Z</time>
      </trkpt>
      <trkpt lat="46.66598" lon="0.52126">
        <ele>105.2</ele>
        <time>2023-02-26T08:00:01Z</time>
      </trkpt>
      <trkpt lat="46.66598" lon="0.52122">
        <ele>105.4</ele>
        <time>2023-02-26T08:00:02Z</time>
      </trkpt>
      <trkpt lat="46.66605" lon="0.52098">
        <ele>106.4</ele>
        <time>2023-02-26T08:00:09Z</time>
      </trkpt>
      <trkpt lat="46.6661" lon="0.52089">
        <ele>107.4</ele>
        <time>2023-02-26T08:00:13Z</time>
      </trkpt>
      <trkpt lat="46.66611" lon="0.52087">
        <ele>107.4</ele>
        <time>2023-02-26T08:00:14Z</time>
      </trkpt>
      <trkpt lat="46.66621" lon="0.52077">
        <ele>108.4</ele>
        <time>2023-02-26T08:00:19Z</time>
      </trkpt>
      <trkpt lat="46.66623" lon="0.52076">
        <ele>108.6</ele>
        <time>2023-02-26T08:00:20Z</time>
      </trkpt>
      <trkpt lat="46.66634" lon="0.52065">
        <ele>110</ele>
        <time>2023-02-26T08:00:26Z</time>
      </trkpt>
      <trkpt lat="46.66651" lon="0.52055">
        <ele>111</ele>
        <time>2023-02-26T08:00:33Z</time>
      </trkpt>
      <trkpt lat="46.66654" lon="0.52053">
        <ele>111</ele>
        <time>2023-02-26T08:00:34Z</time>
      </trkpt>
      <trkpt lat="46.66662" lon="0.52043">
        <ele>111.2</ele>
        <time>2023-02-26T08:00:37Z</time>
      </trkpt>
      <trkpt lat="46.66664" lon="0.52037">
        <ele>111.2</ele>
        <time>2023-02-26T08:00:38Z</time>
      </trkpt>
      <trkpt lat="46.66682" lon="0.51999">
        <ele>109.8</ele>
        <time>2023-02-26T08:00:45Z</time>
      </trkpt>
      <trkpt lat="46.6669" lon="0.51965">
        <ele>108.8</ele>
        <time>2023-02-26T08:00:50Z</time>
      </trkpt>
      <trkpt lat="46.6669" lon="0.51958">
        <ele>108.8</ele>
        <time>2023-02-26T08:00:51Z</time>
      </trkpt>
      <trkpt lat="46.66693" lon="0.51946">
        <ele>108</ele>
        <time>2023-02-26T08:00:53Z</time>
      </trkpt>
      <trkpt lat="46.66695" lon="0.51939">
        <ele>107.6</ele>
        <time>2023-02-26T08:00:54Z</time>
      </trkpt>
      <trkpt lat="46.66701" lon="0.51918">
        <ele>107</ele>
        <time>2023-02-26T08:00:57Z</time>
      </trkpt>
      <trkpt lat="46.66702" lon="0.51911">
        <ele>106.6</ele>
        <time>2023-02-26T08:00:58Z</time>
      </trkpt>
      <trkpt lat="46.66703" lon="0.51905">
        <ele>106.2</ele>
        <time>2023-02-26T08:00:59Z</time>
      </trkpt>
      <trkpt lat="46.66703" lon="0.51894">
        <ele>104.6</ele>
        <time>2023-02-26T08:01:01Z</time>
      </trkpt>
      <trkpt lat="46.66703" lon="0.51881">
        <ele>103.4</ele>
        <time>2023-02-26T08:01:03Z</time>
      </trkpt>
      <trkpt lat="46.66704" lon="0.51859">
        <ele>102.6</ele>
        <time>2023-02-26T08:01:06Z</time>
      </trkpt>
      <trkpt lat="46.66704" lon="0.51839">
        <ele>101.8</ele>
        <time>2023-02-26T08:01:08Z</time>
      </trkpt>
      <trkpt lat="46.66705" lon="0.51822">
        <ele>100.2</ele>
        <time>2023-02-26T08:01:10Z</time>
      </trkpt>
      <trkpt lat="46.66705" lon="0.51813">
        <ele>99.6</ele>
        <time>2023-02-26T08:01:11Z</time>
      </trkpt>
      <trkpt lat="46.66705" lon="0.51805">
        <ele>98.8</ele>
        <time>2023-02-26T08:01:12Z</time>
      </trkpt>
      <trkpt lat="46.66705" lon="0.51791">
        <ele>97</ele>
        <time>2023-02-26T08:01:14Z</time>
      </trkpt>
      <trkpt lat="46.66706" lon="0.51783">
        <ele>96</ele>
        <time>2023-02-26T08:01:15Z</time>
      </trkpt>
      <trkpt lat="46.66706" lon="0.51777">
        <ele>95.2</ele>
        <time>2023-02-26T08:01:16Z</time>
      </trkpt>
      <trkpt lat="46.66705" lon="0.51772">
        <ele>94.6</ele>
        <time>2023-02-26T08:01:17Z</time>
      </trkpt>
      <trkpt lat="46.66706" lon="0.51768">
        <ele>93.4</ele>
        <time>2023-02-26T08:01:18Z</time>
      </trkpt>
      <trkpt lat="46.66706" lon="0.51763">
        <ele>91.8</ele>
        <time>2023-02-26T08:01:19Z</time>
      </trkpt>
      <trkpt lat="46.6671" lon="0.51752">
        <ele>90.4</ele>
        <time>2023-02-26T08:01:21Z</time>
      </trkpt>
      <trkpt lat="46.66711" lon="0.51746">
        <ele>89.8</ele>
        <time>2023-02-26T08:01:22Z</time>
      </trkpt>
      <trkpt lat="46.66713" lon="0.5174">
        <ele>89.2</ele>
        <time>2023-02-26T08:01:23Z</time>
      </trkpt>
      <trkpt lat="46.66714" lon="0.51727">
        <ele>88.4</ele>
        <time>2023-02-26T08:01:25Z</time>
      </trkpt>
      <trkpt lat="46.66713" lon="0.51719">
        <ele>87.6</ele>
        <time>2023-02-26T08:01:26Z</time>
      </trkpt>
      <trkpt lat="46.66712" lon="0.51706">
        <ele>86.6</ele>
        <time>2023-02-26T08:01:28Z</time>
      </trkpt>
      <trkpt lat="46.66713" lon="0.51687">
        <ele>85.6</ele>
        <time>2023-02-26T08:01:30Z</time>
      </trkpt>
      <trkpt lat="46.66713" lon="0.51678">
        <ele>84.6</ele>
        <time>2023-02-26T08:01:31Z</time>
      </trkpt>
      <trkpt lat="46.66714" lon="0.5167">
        <ele>84</ele>
        <time>2023-02-26T08:01:32Z</time>
      </trkpt>
      <trkpt lat="46.66714" lon="0.51654">
        <ele>83</ele>
        <time>2023-02-26T08:01:34Z</time>
      </trkpt>
      <trkpt lat="46.66716" lon="0.51645">
        <ele>81.6</ele>
        <time>2023-02-26T08:01:35Z</time>
      </trkpt>
      <trkpt lat="46.66716" lon="0.51637">
        <ele>80.8</ele>
        <time>2023-02-26T08:01:36Z</time>
      </trkpt>
      <trkpt lat="46.66716" lon="0.51629">
        <ele>80.4</ele>
        <time>2023-02-26T08:01:37Z</time>
      </trkpt>
      <trkpt lat="46.66716" lon="0.51623">
        <ele>80.2</ele>
        <time>2023-02-26T08:01:38Z</time>
      </trkpt>
      <trkpt lat="46.66715" lon="0.51617">
        <ele>80.2</ele>
        <time>2023-02-26T08:01:39Z</time>
      </trkpt>
      <trkpt lat="46.66713" lon="0.51595">
        <ele>81.2</ele>
        <time>2023-02-26T08:01:43Z</time>
      </trkpt>
      <trkpt lat="46.66713" lon="0.51595">
        <ele>81.8</ele>
        <time>2023-02-26T08:01:44Z</time>
      </trkpt>
      <trkpt lat="46.66713" lon="0.51585">
        <ele>81.8</ele>
        <time>2023-02-26T08:01:45Z</time>
      </trkpt>
      <trkpt lat="46.66711" lon="0.51576">
        <ele>82.8</ele>
        <time>2023-02-26T08:01:48Z</time>
      </trkpt>
      <trkpt lat="46.6671" lon="0.51568">
        <ele>84</ele>
        <time>2023-02-26T08:01:51Z</time>
      </trkpt>
      <trkpt lat="46.6671" lon="0.51563">
        <ele>84.8</ele>
        <time>2023-02-26T08:01:53Z</time>
      </trkpt>
      <trkpt lat="46.6671" lon="0.5156">
        <ele>85</ele>
        <time>2023-02-26T08:01:54Z</time>
      </trkpt>
      <trkpt lat="46.6671" lon="0.51553">
        <ele>86.2</ele>
        <time>2023-02-26T08:01:57Z</time>
      </trkpt>
      <trkpt lat="46.66713" lon="0.51547">
        <ele>87.2</ele>
        <time>2023-02-26T08:02:01Z</time>
      </trkpt>
      <trkpt lat="46.66722" lon="0.51539">
        <ele>87.6</ele>
        <time>2023-02-26T08:02:07Z</time>
      </trkpt>
      <trkpt lat="46.66734" lon="0.51536">
        <ele>87.8</ele>
        <time>2023-02-26T08:02:12Z</time>
      </trkpt>
      <trkpt lat="46.66748" lon="0.51532">
        <ele>87.8</ele>
        <time>2023-02-26T08:02:17Z</time>
      </trkpt>
      <trkpt lat="46.66756" lon="0.51528">
        <ele>87.4</ele>
        <time>2023-02-26T08:02:20Z</time>
      </trkpt>
      <trkpt lat="46.66764" lon="0.51524">
        <ele>87.2</ele>
        <time>2023-02-26T08:02:23Z</time>
      </trkpt>
      <trkpt lat="46.66767" lon="0.51523">
        <ele>87.2</ele>
        <time>2023-02-26T08:02:24Z</time>
      </trkpt>
      <trkpt lat="46.6677" lon="0.51522">
        <ele>87</ele>
        <time>2023-02-26T08:02:25Z</time>
      </trkpt>
      <trkpt lat="46.66781" lon="0.51517">
        <ele>86.8</ele>
        <time>2023-02-26T08:02:29Z</time>
      </trkpt>
      <trkpt lat="46.66792" lon="0.51518">
        <ele>86.6</ele>
        <time>2023-02-26T08:02:32Z</time>
      </trkpt>
      <trkpt lat="46.66799" lon="0.51517">
        <ele>86</ele>
        <time>2023-02-26T08:02:34Z</time>
      </trkpt>
      <trkpt lat="46.66808" lon="0.51517">
        <ele>85.4</ele>
        <time>2023-02-26T08:02:36Z</time>
      </trkpt>
      <trkpt lat="46.66818" lon="0.51512">
        <ele>86</ele>
        <time>2023-02-26T08:02:39Z</time>
      </trkpt>
      <trkpt lat="46.66824" lon="0.51512">
        <ele>87</ele>
        <time>2023-02-26T08:02:41Z</time>
      </trkpt>
      <trkpt lat="46.6683" lon="0.51512">
        <ele>88.2</ele>
        <time>2023-02-26T08:02:43Z</time>
      </trkpt>
      <trkpt lat="46.66838" lon="0.51513">
        <ele>88.8</ele>
        <time>2023-02-26T08:02:45Z</time>
      </trkpt>
      <trkpt lat="46.66844" lon="0.51512">
        <ele>89.6</ele>
        <time>2023-02-26T08:02:47Z</time>
      </trkpt>
      <trkpt lat="46.66858" lon="0.5151">
        <ele>90.6</ele>
        <time>2023-02-26T08:02:51Z</time>
      </trkpt>
      <trkpt lat="46.66864" lon="0.5151">
        <ele>90.6</ele>
        <time>2023-02-26T08:02:52Z</time>
      </trkpt>
      <trkpt lat="46.66887" lon="0.51509">
        <ele>91.4</ele>
        <time>2023-02-26T08:02:59Z</time>
      </trkpt>
      <trkpt lat="46.66893" lon="0.51506">
        <ele>92</ele>
        <time>2023-02-26T08:03:02Z</time>
      </trkpt>
      <trkpt lat="46.66901" lon="0.51503">
        <ele>92.8</ele>
        <time>2023-02-26T08:03:05Z</time>
      </trkpt>
      <trkpt lat="46.66902" lon="0.51502">
        <ele>93.4</ele>
        <time>2023-02-26T08:03:06Z</time>
      </trkpt>
      <trkpt lat="46.66909" lon="0.515">
        <ele>94.4</ele>
        <time>2023-02-26T08:03:09Z</time>
      </trkpt>
      <trkpt lat="46.66917" lon="0.515">
        <ele>95</ele>
        <time>2023-02-26T08:03:12Z</time>
      </trkpt>
      <trkpt lat="46.66922" lon="0.51501">
        <ele>95.6</ele>
        <time>2023-02-26T08:03:14Z</time>
      </trkpt>
      <trkpt lat="46.66931" lon="0.51502">
        <ele>96.8</ele>
        <time>2023-02-26T08:03:19Z</time>
      </trkpt>
      <trkpt lat="46.66947" lon="0.51502">
        <ele>98</ele>
        <time>2023-02-26T08:03:26Z</time>
      </trkpt>
      <trkpt lat="46.66949" lon="0.51502">
        <ele>98.2</ele>
        <time>2023-02-26T08:03:27Z</time>
      </trkpt>
      <trkpt lat="46.6697" lon="0.515">
        <ele>98.2</ele>
        <time>2023-02-26T08:03:34Z</time>
      </trkpt>
      <trkpt lat="46.66991" lon="0.51497">
        <ele>98.4</ele>
        <time>2023-02-26T08:03:40Z</time>
      </trkpt>
      <trkpt lat="46.67008" lon="0.51493">
        <ele>98.6</ele>
        <time>2023-02-26T08:03:46Z</time>
      </trkpt>
      <trkpt lat="46.67013" lon="0.51491">
        <ele>99</ele>
        <time>2023-02-26T08:03:48Z</time>
      </trkpt>
      <trkpt lat="46.6702" lon="0.51489">
        <ele>99.4</ele>
        <time>2023-02-26T08:03:51Z</time>
      </trkpt>
      <trkpt lat="46.67037" lon="0.51488">
        <ele>99.2</ele>
        <time>2023-02-26T08:03:56Z</time>
      </trkpt>
      <trkpt lat="46.67057" lon="0.51482">
        <ele>99</ele>
        <time>2023-02-26T08:04:02Z</time>
      </trkpt>
      <trkpt lat="46.67062" lon="0.5148">
        <ele>98.6</ele>
        <time>2023-02-26T08:04:04Z</time>
      </trkpt>
      <trkpt lat="46.67067" lon="0.51476">
        <ele>98.4</ele>
        <time>2023-02-26T08:04:06Z</time>
      </trkpt>
      <trkpt lat="46.6707" lon="0.51475">
        <ele>98.2</ele>
        <time>2023-02-26T08:04:07Z</time>
      </trkpt>
      <trkpt lat="46.67076" lon="0.51476">
        <ele>98</ele>
        <time>2023-02-26T08:04:09Z</time>
      </trkpt>
      <trkpt lat="46.67079" lon="0.51475">
        <ele>97.6</ele>
        <time>2023-02-26T08:04:10Z</time>
      </trkpt>
      <trkpt lat="46.6709" lon="0.51471">
        <ele>96.6</ele>
        <time>2023-02-26T08:04:13Z</time>
      </trkpt>
      <trkpt lat="46.67094" lon="0.5147">
        <ele>96.4</ele>
        <time>2023-02-26T08:04:14Z</time>
      </trkpt>
      <trkpt lat="46.67099" lon="0.5147">
        <ele>95.4</ele>
        <time>2023-02-26T08:04:15Z</time>
      </trkpt>
      <trkpt lat="46.67107" lon="0.51471">
        <ele>94.6</ele>
        <time>2023-02-26T08:04:17Z</time>
      </trkpt>
      <trkpt lat="46.67111" lon="0.5147">
        <ele>94</ele>
        <time>2023-02-26T08:04:18Z</time>
      </trkpt>
      <trkpt lat="46.67119" lon="0.51471">
        <ele>93.2</ele>
        <time>2023-02-26T08:04:20Z</time>
      </trkpt>
      <trkpt lat="46.67124" lon="0.51471">
        <ele>93</ele>
        <time>2023-02-26T08:04:21Z</time>
      </trkpt>
      <trkpt lat="46.67134" lon="0.51472">
        <ele>91.8</ele>
        <time>2023-02-26T08:04:23Z</time>
      </trkpt>
      <trkpt lat="46.6716" lon="0.51471">
        <ele>90.6</ele>
        <time>2023-02-26T08:04:27Z</time>
      </trkpt>
      <trkpt lat="46.67167" lon="0.51473">
        <ele>90.4</ele>
        <time>2023-02-26T08:04:28Z</time>
      </trkpt>
      <trkpt lat="46.67181" lon="0.51476">
        <ele>90</ele>
        <time>2023-02-26T08:04:30Z</time>
      </trkpt>
      <trkpt lat="46.67186" lon="0.51476">
        <ele>89.2</ele>
        <time>2023-02-26T08:04:31Z</time>
      </trkpt>
      <trkpt lat="46.67192" lon="0.51476">
        <ele>88.6</ele>
        <time>2023-02-26T08:04:32Z</time>
      </trkpt>
      <trkpt lat="46.67198" lon="0.51477">
        <ele>88.2</ele>
        <time>2023-02-26T08:04:33Z</time>
      </trkpt>
      <trkpt lat="46.67223" lon="0.51481">
        <ele>87.8</ele>
        <time>2023-02-26T08:04:39Z</time>
      </trkpt>
      <trkpt lat="46.67228" lon="0.5148">
        <ele>88</ele>
        <time>2023-02-26T08:04:41Z</time>
      </trkpt>
      <trkpt lat="46.67235" lon="0.51476">
        <ele>88.2</ele>
        <time>2023-02-26T08:04:44Z</time>
      </trkpt>
      <trkpt lat="46.67253" lon="0.5147">
        <ele>89.4</ele>
        <time>2023-02-26T08:04:49Z</time>
      </trkpt>
      <trkpt lat="46.67256" lon="0.51467">
        <ele>89.6</ele>
        <time>2023-02-26T08:04:50Z</time>
      </trkpt>
      <trkpt lat="46.67268" lon="0.51451">
        <ele>90.8</ele>
        <time>2023-02-26T08:04:56Z</time>
      </trkpt>
      <trkpt lat="46.67275" lon="0.51442">
        <ele>91.8</ele>
        <time>2023-02-26T08:04:59Z</time>
      </trkpt>
      <trkpt lat="46.67283" lon="0.51431">
        <ele>92.4</ele>
        <time>2023-02-26T08:05:03Z</time>
      </trkpt>
      <trkpt lat="46.67293" lon="0.51422">
        <ele>92.6</ele>
        <time>2023-02-26T08:05:08Z</time>
      </trkpt>
      <trkpt lat="46.67297" lon="0.51418">
        <ele>93.2</ele>
        <time>2023-02-26T08:05:10Z</time>
      </trkpt>
      <trkpt lat="46.67303" lon="0.51409">
        <ele>94</ele>
        <time>2023-02-26T08:05:13Z</time>
      </trkpt>
      <trkpt lat="46.67304" lon="0.51407">
        <ele>94.6</ele>
        <time>2023-02-26T08:05:14Z</time>
      </trkpt>
      <trkpt lat="46.67308" lon="0.51402">
        <ele>95.8</ele>
        <time>2023-02-26T08:05:16Z</time>
      </trkpt>
      <trkpt lat="46.67316" lon="0.51395">
        <ele>96.2</ele>
        <time>2023-02-26T08:05:19Z</time>
      </trkpt>
      <trkpt lat="46.67331" lon="0.51385">
        <ele>96.6</ele>
        <time>2023-02-26T08:05:25Z</time>
      </trkpt>
      <trkpt lat="46.67335" lon="0.51384">
        <ele>96.8</ele>
        <time>2023-02-26T08:05:26Z</time>
      </trkpt>
      <trkpt lat="46.67345" lon="0.5137">
        <ele>98</ele>
        <time>2023-02-26T08:05:31Z</time>
      </trkpt>
      <trkpt lat="46.67347" lon="0.51367">
        <ele>98.2</ele>
        <time>2023-02-26T08:05:32Z</time>
      </trkpt>
      <trkpt lat="46.67352" lon="0.51363">
        <ele>98.4</ele>
        <time>2023-02-26T08:05:34Z</time>
      </trkpt>
      <trkpt lat="46.67358" lon="0.51358">
        <ele>98.6</ele>
        <time>2023-02-26T08:05:37Z</time>
      </trkpt>
      <trkpt lat="46.67358" lon="0.51358">
        <ele>99</ele>
        <time>2023-02-26T08:05:38Z</time>
      </trkpt>
      <trkpt lat="46.67372" lon="0.51344">
        <ele>99</ele>
        <time>2023-02-26T08:05:43Z</time>
      </trkpt>
      <trkpt lat="46.67374" lon="0.51342">
        <ele>98.8</ele>
        <time>2023-02-26T08:05:44Z</time>
      </trkpt>
      <trkpt lat="46.67384" lon="0.51331">
        <ele>98.6</ele>
        <time>2023-02-26T08:05:48Z</time>
      </trkpt>
      <trkpt lat="46.67388" lon="0.51325">
        <ele>98.6</ele>
        <time>2023-02-26T08:05:50Z</time>
      </trkpt>
      <trkpt lat="46.67392" lon="0.51319">
        <ele>98.2</ele>
        <time>2023-02-26T08:05:52Z</time>
      </trkpt>
      <trkpt lat="46.67393" lon="0.51309">
        <ele>98</ele>
        <time>2023-02-26T08:05:55Z</time>
      </trkpt>
      <trkpt lat="46.67393" lon="0.51299">
        <ele>97.8</ele>
        <time>2023-02-26T08:05:58Z</time>
      </trkpt>
      <trkpt lat="46.67389" lon="0.51271">
        <ele>97.8</ele>
        <time>2023-02-26T08:06:05Z</time>
      </trkpt>
      <trkpt lat="46.67384" lon="0.51253">
        <ele>98.2</ele>
        <time>2023-02-26T08:06:11Z</time>
      </trkpt>
      <trkpt lat="46.67374" lon="0.5123">
        <ele>99</ele>
        <time>2023-02-26T08:06:18Z</time>
      </trkpt>
      <trkpt lat="46.67373" lon="0.51226">
        <ele>99</ele>
        <time>2023-02-26T08:06:19Z</time>
      </trkpt>
      <trkpt lat="46.67366" lon="0.51211">
        <ele>99.6</ele>
        <time>2023-02-26T08:06:24Z</time>
      </trkpt>
      <trkpt lat="46.67365" lon="0.51208">
        <ele>100.2</ele>
        <time>2023-02-26T08:06:25Z</time>
      </trkpt>
      <trkpt lat="46.67362" lon="0.51201">
        <ele>101.2</ele>
        <time>2023-02-26T08:06:28Z</time>
      </trkpt>
      <trkpt lat="46.67359" lon="0.51192">
        <ele>102.2</ele>
        <time>2023-02-26T08:06:32Z</time>
      </trkpt>
      <trkpt lat="46.67358" lon="0.51189">
        <ele>102.6</ele>
        <time>2023-02-26T08:06:33Z</time>
      </trkpt>
      <trkpt lat="46.67355" lon="0.51182">
        <ele>103.8</ele>
        <time>2023-02-26T08:06:36Z</time>
      </trkpt>
      <trkpt lat="46.6735" lon="0.51173">
        <ele>104.8</ele>
        <time>2023-02-26T08:06:39Z</time>
      </trkpt>
      <trkpt lat="46.67348" lon="0.51169">
        <ele>105.2</ele>
        <time>2023-02-26T08:06:40Z</time>
      </trkpt>
      <trkpt lat="46.67341" lon="0.51158">
        <ele>105.8</ele>
        <time>2023-02-26T08:06:43Z</time>
      </trkpt>
      <trkpt lat="46.67336" lon="0.51148">
        <ele>106.6</ele>
        <time>2023-02-26T08:06:47Z</time>
      </trkpt>
      <trkpt lat="46.67335" lon="0.51146">
        <ele>107</ele>
        <time>2023-02-26T08:06:48Z</time>
      </trkpt>
      <trkpt lat="46.67328" lon="0.51133">
        <ele>108</ele>
        <time>2023-02-26T08:06:53Z</time>
      </trkpt>
      <trkpt lat="46.67327" lon="0.51131">
        <ele>108.2</ele>
        <time>2023-02-26T08:06:54Z</time>
      </trkpt>
      <trkpt lat="46.67318" lon="0.51116">
        <ele>109</ele>
        <time>2023-02-26T08:07:00Z</time>
      </trkpt>
      <trkpt lat="46.6731" lon="0.51098">
        <ele>109.6</ele>
        <time>2023-02-26T08:07:07Z</time>
      </trkpt>
      <trkpt lat="46.67306" lon="0.51089">
        <ele>110.2</ele>
        <time>2023-02-26T08:07:11Z</time>
      </trkpt>
      <trkpt lat="46.67304" lon="0.51079">
        <ele>110.8</ele>
        <time>2023-02-26T08:07:15Z</time>
      </trkpt>
      <trkpt lat="46.673" lon="0.51069">
        <ele>111.2</ele>
        <time>2023-02-26T08:07:19Z</time>
      </trkpt>
      <trkpt lat="46.67297" lon="0.51064">
        <ele>111.6</ele>
        <time>2023-02-26T08:07:21Z</time>
      </trkpt>
      <trkpt lat="46.67288" lon="0.51043">
        <ele>112.2</ele>
        <time>2023-02-26T08:07:28Z</time>
      </trkpt>
      <trkpt lat="46.67285" lon="0.51038">
        <ele>112.4</ele>
        <time>2023-02-26T08:07:30Z</time>
      </trkpt>
      <trkpt lat="46.6728" lon="0.51026">
        <ele>113.4</ele>
        <time>2023-02-26T08:07:34Z</time>
      </trkpt>
      <trkpt lat="46.67278" lon="0.51022">
        <ele>114</ele>
        <time>2023-02-26T08:07:36Z</time>
      </trkpt>
      <trkpt lat="46.67276" lon="0.51019">
        <ele>114.6</ele>
        <time>2023-02-26T08:07:38Z</time>
      </trkpt>
      <trkpt lat="46.67276" lon="0.51017">
        <ele>114.6</ele>
        <time>2023-02-26T08:07:39Z</time>
      </trkpt>
      <trkpt lat="46.67272" lon="0.5101">
        <ele>115.8</ele>
        <time>2023-02-26T08:07:43Z</time>
      </trkpt>
      <trkpt lat="46.67265" lon="0.50999">
        <ele>117</ele>
        <time>2023-02-26T08:07:48Z</time>
      </trkpt>
      <trkpt lat="46.67264" lon="0.50996">
        <ele>117.4</ele>
        <time>2023-02-26T08:07:49Z</time>
      </trkpt>
      <trkpt lat="46.67262" lon="0.50987">
        <ele>118</ele>
        <time>2023-02-26T08:07:52Z</time>
      </trkpt>
      <trkpt lat="46.67263" lon="0.5098">
        <ele>118</ele>
        <time>2023-02-26T08:07:54Z</time>
      </trkpt>
      <trkpt lat="46.67266" lon="0.50972">
        <ele>118</ele>
        <time>2023-02-26T08:07:56Z</time>
      </trkpt>
      <trkpt lat="46.67269" lon="0.50964">
        <ele>117.8</ele>
        <time>2023-02-26T08:07:58Z</time>
      </trkpt>
      <trkpt lat="46.67277" lon="0.50951">
        <ele>117.8</ele>
        <time>2023-02-26T08:08:01Z</time>
      </trkpt>
      <trkpt lat="46.6728" lon="0.50948">
        <ele>117.4</ele>
        <time>2023-02-26T08:08:02Z</time>
      </trkpt>
      <trkpt lat="46.67283" lon="0.50944">
        <ele>117.2</ele>
        <time>2023-02-26T08:08:03Z</time>
      </trkpt>
      <trkpt lat="46.67288" lon="0.50937">
        <ele>117</ele>
        <time>2023-02-26T08:08:05Z</time>
      </trkpt>
      <trkpt lat="46.67292" lon="0.5093">
        <ele>116.6</ele>
        <time>2023-02-26T08:08:07Z</time>
      </trkpt>
      <trkpt lat="46.67311" lon="0.50907">
        <ele>116.2</ele>
        <time>2023-02-26T08:08:13Z</time>
      </trkpt>
      <trkpt lat="46.67315" lon="0.50902">
        <ele>116.2</ele>
        <time>2023-02-26T08:08:14Z</time>
      </trkpt>
      <trkpt lat="46.67323" lon="0.50892">
        <ele>115.8</ele>
        <time>2023-02-26T08:08:16Z</time>
      </trkpt>
      <trkpt lat="46.67328" lon="0.50886">
        <ele>115</ele>
        <time>2023-02-26T08:08:17Z</time>
      </trkpt>
      <trkpt lat="46.67332" lon="0.50881">
        <ele>113.8</ele>
        <time>2023-02-26T08:08:18Z</time>
      </trkpt>
      <trkpt lat="46.67341" lon="0.50869">
        <ele>112</ele>
        <time>2023-02-26T08:08:20Z</time>
      </trkpt>
      <trkpt lat="46.67346" lon="0.50863">
        <ele>110.2</ele>
        <time>2023-02-26T08:08:21Z</time>
      </trkpt>
      <trkpt lat="46.67352" lon="0.50857">
        <ele>109.2</ele>
        <time>2023-02-26T08:08:22Z</time>
      </trkpt>
      <trkpt lat="46.67357" lon="0.5085">
        <ele>108.6</ele>
        <time>2023-02-26T08:08:23Z</time>
      </trkpt>
      <trkpt lat="46.67368" lon="0.50836">
        <ele>106.8</ele>
        <time>2023-02-26T08:08:25Z</time>
      </trkpt>
      <trkpt lat="46.67374" lon="0.50829">
        <ele>105.4</ele>
        <time>2023-02-26T08:08:26Z</time>
      </trkpt>
      <trkpt lat="46.67379" lon="0.50822">
        <ele>103.6</ele>
        <time>2023-02-26T08:08:27Z</time>
      </trkpt>
      <trkpt lat="46.67379" lon="0.50822">
        <ele>100</ele>
        <time>2023-02-26T08:08:28Z</time>
      </trkpt>
      <trkpt lat="46.67402" lon="0.50795">
        <ele>98.8</ele>
        <time>2023-02-26T08:08:31Z</time>
      </trkpt>
      <trkpt lat="46.67414" lon="0.50782">
        <ele>97</ele>
        <time>2023-02-26T08:08:33Z</time>
      </trkpt>
      <trkpt lat="46.67419" lon="0.50775">
        <ele>96.4</ele>
        <time>2023-02-26T08:08:34Z</time>
      </trkpt>
      <trkpt lat="46.67423" lon="0.5077">
        <ele>95.8</ele>
        <time>2023-02-26T08:08:35Z</time>
      </trkpt>
      <trkpt lat="46.67428" lon="0.50765">
        <ele>95</ele>
        <time>2023-02-26T08:08:36Z</time>
      </trkpt>
      <trkpt lat="46.67433" lon="0.50762">
        <ele>94.6</ele>
        <time>2023-02-26T08:08:37Z</time>
      </trkpt>
      <trkpt lat="46.67436" lon="0.50758">
        <ele>93.8</ele>
        <time>2023-02-26T08:08:38Z</time>
      </trkpt>
      <trkpt lat="46.67439" lon="0.50755">
        <ele>92.8</ele>
        <time>2023-02-26T08:08:39Z</time>
      </trkpt>
      <trkpt lat="46.67442" lon="0.50751">
        <ele>92.4</ele>
        <time>2023-02-26T08:08:40Z</time>
      </trkpt>
      <trkpt lat="46.67447" lon="0.50743">
        <ele>91.8</ele>
        <time>2023-02-26T08:08:42Z</time>
      </trkpt>
      <trkpt lat="46.67448" lon="0.50738">
        <ele>91.4</ele>
        <time>2023-02-26T08:08:43Z</time>
      </trkpt>
      <trkpt lat="46.67459" lon="0.50728">
        <ele>91</ele>
        <time>2023-02-26T08:08:47Z</time>
      </trkpt>
      <trkpt lat="46.67468" lon="0.50714">
        <ele>92.2</ele>
        <time>2023-02-26T08:08:53Z</time>
      </trkpt>
      <trkpt lat="46.6747" lon="0.50712">
        <ele>92.8</ele>
        <time>2023-02-26T08:08:54Z</time>
      </trkpt>
      <trkpt lat="46.67486" lon="0.50701">
        <ele>94</ele>
        <time>2023-02-26T08:08:59Z</time>
      </trkpt>
      <trkpt lat="46.67489" lon="0.507">
        <ele>94</ele>
        <time>2023-02-26T08:09:00Z</time>
      </trkpt>
      <trkpt lat="46.67497" lon="0.50705">
        <ele>94.2</ele>
        <time>2023-02-26T08:09:03Z</time>
      </trkpt>
      <trkpt lat="46.67511" lon="0.50725">
        <ele>94.2</ele>
        <time>2023-02-26T08:09:08Z</time>
      </trkpt>
      <trkpt lat="46.67533" lon="0.50764">
        <ele>93.2</ele>
        <time>2023-02-26T08:09:15Z</time>
      </trkpt>
      <trkpt lat="46.67542" lon="0.50778">
        <ele>92.8</ele>
        <time>2023-02-26T08:09:17Z</time>
      </trkpt>
      <trkpt lat="46.67553" lon="0.508">
        <ele>91.6</ele>
        <time>2023-02-26T08:09:20Z</time>
      </trkpt>
      <trkpt lat="46.67559" lon="0.50809">
        <ele>91.2</ele>
        <time>2023-02-26T08:09:21Z</time>
      </trkpt>
      <trkpt lat="46.67569" lon="0.50828">
        <ele>90.4</ele>
        <time>2023-02-26T08:09:23Z</time>
      </trkpt>
      <trkpt lat="46.67579" lon="0.50847">
        <ele>89.2</ele>
        <time>2023-02-26T08:09:25Z</time>
      </trkpt>
      <trkpt lat="46.67586" lon="0.50863">
        <ele>88.8</ele>
        <time>2023-02-26T08:09:27Z</time>
      </trkpt>
      <trkpt lat="46.67606" lon="0.50899">
        <ele>88.2</ele>
        <time>2023-02-26T08:09:32Z</time>
      </trkpt>
      <trkpt lat="46.67611" lon="0.50907">
        <ele>88</ele>
        <time>2023-02-26T08:09:33Z</time>
      </trkpt>
      <trkpt lat="46.67633" lon="0.5095">
        <ele>86.6</ele>
        <time>2023-02-26T08:09:38Z</time>
      </trkpt>
      <trkpt lat="46.67637" lon="0.50958">
        <ele>86</ele>
        <time>2023-02-26T08:09:39Z</time>
      </trkpt>
      <trkpt lat="46.67648" lon="0.50983">
        <ele>85.4</ele>
        <time>2023-02-26T08:09:42Z</time>
      </trkpt>
      <trkpt lat="46.67655" lon="0.50997">
        <ele>85.2</ele>
        <time>2023-02-26T08:09:44Z</time>
      </trkpt>
      <trkpt lat="46.67662" lon="0.51011">
        <ele>85.8</ele>
        <time>2023-02-26T08:09:47Z</time>
      </trkpt>
      <trkpt lat="46.67664" lon="0.51014">
        <ele>86</ele>
        <time>2023-02-26T08:09:48Z</time>
      </trkpt>
      <trkpt lat="46.67666" lon="0.51015">
        <ele>86.2</ele>
        <time>2023-02-26T08:09:49Z</time>
      </trkpt>
      <trkpt lat="46.67668" lon="0.51016">
        <ele>86.4</ele>
        <time>2023-02-26T08:09:50Z</time>
      </trkpt>
      <trkpt lat="46.67676" lon="0.51016">
        <ele>87.4</ele>
        <time>2023-02-26T08:09:53Z</time>
      </trkpt>
      <trkpt lat="46.67678" lon="0.51015">
        <ele>87.8</ele>
        <time>2023-02-26T08:09:54Z</time>
      </trkpt>
      <trkpt lat="46.67684" lon="0.5101">
        <ele>89</ele>
        <time>2023-02-26T08:09:57Z</time>
      </trkpt>
      <trkpt lat="46.67686" lon="0.51007">
        <ele>89.4</ele>
        <time>2023-02-26T08:09:59Z</time>
      </trkpt>
      <trkpt lat="46.67688" lon="0.51004">
        <ele>90</ele>
        <time>2023-02-26T08:10:01Z</time>
      </trkpt>
      <trkpt lat="46.67697" lon="0.50996">
        <ele>91</ele>
        <time>2023-02-26T08:10:05Z</time>
      </trkpt>
      <trkpt lat="46.67713" lon="0.50987">
        <ele>92</ele>
        <time>2023-02-26T08:10:10Z</time>
      </trkpt>
      <trkpt lat="46.67715" lon="0.50985">
        <ele>92.2</ele>
        <time>2023-02-26T08:10:11Z</time>
      </trkpt>
      <trkpt lat="46.67732" lon="0.50968">
        <ele>93.2</ele>
        <time>2023-02-26T08:10:18Z</time>
      </trkpt>
      <trkpt lat="46.67735" lon="0.50966">
        <ele>93.4</ele>
        <time>2023-02-26T08:10:19Z</time>
      </trkpt>
      <trkpt lat="46.67753" lon="0.5095">
        <ele>94.2</ele>
        <time>2023-02-26T08:10:26Z</time>
      </trkpt>
      <trkpt lat="46.67771" lon="0.5093">
        <ele>94.4</ele>
        <time>2023-02-26T08:10:33Z</time>
      </trkpt>
      <trkpt lat="46.6779" lon="0.5091">
        <ele>94</ele>
        <time>2023-02-26T08:10:40Z</time>
      </trkpt>
      <trkpt lat="46.67795" lon="0.50903">
        <ele>94</ele>
        <time>2023-02-26T08:10:42Z</time>
      </trkpt>
      <trkpt lat="46.67803" lon="0.50894">
        <ele>94.2</ele>
        <time>2023-02-26T08:10:45Z</time>
      </trkpt>
      <trkpt lat="46.67812" lon="0.5088">
        <ele>94.6</ele>
        <time>2023-02-26T08:10:50Z</time>
      </trkpt>
      <trkpt lat="46.67828" lon="0.50863">
        <ele>94.8</ele>
        <time>2023-02-26T08:10:57Z</time>
      </trkpt>
      <trkpt lat="46.67836" lon="0.50848">
        <ele>95.4</ele>
        <time>2023-02-26T08:11:02Z</time>
      </trkpt>
      <trkpt lat="46.67841" lon="0.5084">
        <ele>95.8</ele>
        <time>2023-02-26T08:11:05Z</time>
      </trkpt>
      <trkpt lat="46.67845" lon="0.50834">
        <ele>96.8</ele>
        <time>2023-02-26T08:11:08Z</time>
      </trkpt>
      <trkpt lat="46.67849" lon="0.50825">
        <ele>97.8</ele>
        <time>2023-02-26T08:11:12Z</time>
      </trkpt>
      <trkpt lat="46.6785" lon="0.50823">
        <ele>98.2</ele>
        <time>2023-02-26T08:11:13Z</time>
      </trkpt>
      <trkpt lat="46.67855" lon="0.50816">
        <ele>99.2</ele>
        <time>2023-02-26T08:11:16Z</time>
      </trkpt>
      <trkpt lat="46.67862" lon="0.5081">
        <ele>99.6</ele>
        <time>2023-02-26T08:11:19Z</time>
      </trkpt>
      <trkpt lat="46.67879" lon="0.50799">
        <ele>100.2</ele>
        <time>2023-02-26T08:11:26Z</time>
      </trkpt>
      <trkpt lat="46.67882" lon="0.50795">
        <ele>100.6</ele>
        <time>2023-02-26T08:11:28Z</time>
      </trkpt>
      <trkpt lat="46.67886" lon="0.50789">
        <ele>101.6</ele>
        <time>2023-02-26T08:11:31Z</time>
      </trkpt>
      <trkpt lat="46.67893" lon="0.50779">
        <ele>102.4</ele>
        <time>2023-02-26T08:11:36Z</time>
      </trkpt>
      <trkpt lat="46.67896" lon="0.50775">
        <ele>102.6</ele>
        <time>2023-02-26T08:11:38Z</time>
      </trkpt>
      <trkpt lat="46.679" lon="0.50769">
        <ele>103.8</ele>
        <time>2023-02-26T08:11:43Z</time>
      </trkpt>
      <trkpt lat="46.67904" lon="0.50763">
        <ele>105.2</ele>
        <time>2023-02-26T08:11:47Z</time>
      </trkpt>
      <trkpt lat="46.67909" lon="0.50758">
        <ele>105.6</ele>
        <time>2023-02-26T08:11:50Z</time>
      </trkpt>
      <trkpt lat="46.67913" lon="0.50756">
        <ele>106.2</ele>
        <time>2023-02-26T08:11:52Z</time>
      </trkpt>
      <trkpt lat="46.67921" lon="0.50756">
        <ele>107.4</ele>
        <time>2023-02-26T08:11:55Z</time>
      </trkpt>
      <trkpt lat="46.67925" lon="0.50752">
        <ele>108.2</ele>
        <time>2023-02-26T08:11:58Z</time>
      </trkpt>
      <trkpt lat="46.67926" lon="0.5075">
        <ele>108.6</ele>
        <time>2023-02-26T08:11:59Z</time>
      </trkpt>
      <trkpt lat="46.67931" lon="0.50749">
        <ele>109</ele>
        <time>2023-02-26T08:12:01Z</time>
      </trkpt>
      <trkpt lat="46.67935" lon="0.50742">
        <ele>109.4</ele>
        <time>2023-02-26T08:12:04Z</time>
      </trkpt>
      <trkpt lat="46.67934" lon="0.50726">
        <ele>108.6</ele>
        <time>2023-02-26T08:12:10Z</time>
      </trkpt>
      <trkpt lat="46.67928" lon="0.5071">
        <ele>109.4</ele>
        <time>2023-02-26T08:12:17Z</time>
      </trkpt>
      <trkpt lat="46.67927" lon="0.50708">
        <ele>109.6</ele>
        <time>2023-02-26T08:12:18Z</time>
      </trkpt>
      <trkpt lat="46.67924" lon="0.50699">
        <ele>111</ele>
        <time>2023-02-26T08:12:23Z</time>
      </trkpt>
      <trkpt lat="46.67923" lon="0.50697">
        <ele>111.4</ele>
        <time>2023-02-26T08:12:24Z</time>
      </trkpt>
      <trkpt lat="46.67921" lon="0.50693">
        <ele>112</ele>
        <time>2023-02-26T08:12:26Z</time>
      </trkpt>
      <trkpt lat="46.67918" lon="0.50684">
        <ele>113.2</ele>
        <time>2023-02-26T08:12:30Z</time>
      </trkpt>
      <trkpt lat="46.67917" lon="0.50682">
        <ele>113.2</ele>
        <time>2023-02-26T08:12:31Z</time>
      </trkpt>
      <trkpt lat="46.67914" lon="0.50674">
        <ele>114</ele>
        <time>2023-02-26T08:12:35Z</time>
      </trkpt>
      <trkpt lat="46.67913" lon="0.50672">
        <ele>114.2</ele>
        <time>2023-02-26T08:12:36Z</time>
      </trkpt>
      <trkpt lat="46.67911" lon="0.50668">
        <ele>114.4</ele>
        <time>2023-02-26T08:12:38Z</time>
      </trkpt>
      <trkpt lat="46.67906" lon="0.50657">
        <ele>115.4</ele>
        <time>2023-02-26T08:12:44Z</time>
      </trkpt>
      <trkpt lat="46.67903" lon="0.50654">
        <ele>115.6</ele>
        <time>2023-02-26T08:12:46Z</time>
      </trkpt>
      <trkpt lat="46.67902" lon="0.50653">
        <ele>116</ele>
        <time>2023-02-26T08:12:47Z</time>
      </trkpt>
      <trkpt lat="46.679" lon="0.50647">
        <ele>116.4</ele>
        <time>2023-02-26T08:12:50Z</time>
      </trkpt>
      <trkpt lat="46.679" lon="0.50645">
        <ele>116.6</ele>
        <time>2023-02-26T08:12:51Z</time>
      </trkpt>
      <trkpt lat="46.67894" lon="0.50631">
        <ele>117.6</ele>
        <time>2023-02-26T08:12:58Z</time>
      </trkpt>
      <trkpt lat="46.67893" lon="0.50628">
        <ele>117.6</ele>
        <time>2023-02-26T08:12:59Z</time>
      </trkpt>
      <trkpt lat="46.67887" lon="0.50611">
        <ele>118.4</ele>
        <time>2023-02-26T08:13:07Z</time>
      </trkpt>
      <trkpt lat="46.67885" lon="0.50605">
        <ele>118.6</ele>
        <time>2023-02-26T08:13:09Z</time>
      </trkpt>
      <trkpt lat="46.67878" lon="0.50589">
        <ele>118.8</ele>
        <time>2023-02-26T08:13:15Z</time>
      </trkpt>
      <trkpt lat="46.6787" lon="0.50566">
        <ele>119.2</ele>
        <time>2023-02-26T08:13:21Z</time>
      </trkpt>
      <trkpt lat="46.67857" lon="0.50534">
        <ele>118.6</ele>
        <time>2023-02-26T08:13:28Z</time>
      </trkpt>
      <trkpt lat="46.67855" lon="0.50528">
        <ele>118.4</ele>
        <time>2023-02-26T08:13:29Z</time>
      </trkpt>
      <trkpt lat="46.67848" lon="0.5051">
        <ele>118.2</ele>
        <time>2023-02-26T08:13:32Z</time>
      </trkpt>
      <trkpt lat="46.67837" lon="0.50484">
        <ele>117.4</ele>
        <time>2023-02-26T08:13:35Z</time>
      </trkpt>
      <trkpt lat="46.67833" lon="0.50473">
        <ele>116.4</ele>
        <time>2023-02-26T08:13:36Z</time>
      </trkpt>
      <trkpt lat="46.67825" lon="0.50453">
        <ele>114.8</ele>
        <time>2023-02-26T08:13:38Z</time>
      </trkpt>
      <trkpt lat="46.67821" lon="0.50445">
        <ele>114</ele>
        <time>2023-02-26T08:13:39Z</time>
      </trkpt>
      <trkpt lat="46.67817" lon="0.50438">
        <ele>113.4</ele>
        <time>2023-02-26T08:13:40Z</time>
      </trkpt>
      <trkpt lat="46.67814" lon="0.50431">
        <ele>112.8</ele>
        <time>2023-02-26T08:13:41Z</time>
      </trkpt>
      <trkpt lat="46.67811" lon="0.50424">
        <ele>112.4</ele>
        <time>2023-02-26T08:13:42Z</time>
      </trkpt>
      <trkpt lat="46.67801" lon="0.50404">
        <ele>111</ele>
        <time>2023-02-26T08:13:45Z</time>
      </trkpt>
      <trkpt lat="46.67793" lon="0.50387">
        <ele>109</ele>
        <time>2023-02-26T08:13:48Z</time>
      </trkpt>
      <trkpt lat="46.67791" lon="0.50381">
        <ele>107.8</ele>
        <time>2023-02-26T08:13:49Z</time>
      </trkpt>
      <trkpt lat="46.6779" lon="0.50376">
        <ele>107</ele>
        <time>2023-02-26T08:13:50Z</time>
      </trkpt>
      <trkpt lat="46.67788" lon="0.50372">
        <ele>106.6</ele>
        <time>2023-02-26T08:13:51Z</time>
      </trkpt>
      <trkpt lat="46.67787" lon="0.50369">
        <ele>106.4</ele>
        <time>2023-02-26T08:13:52Z</time>
      </trkpt>
      <trkpt lat="46.67782" lon="0.50357">
        <ele>106.8</ele>
        <time>2023-02-26T08:13:57Z</time>
      </trkpt>
      <trkpt lat="46.67779" lon="0.50351">
        <ele>107.8</ele>
        <time>2023-02-26T08:13:59Z</time>
      </trkpt>
      <trkpt lat="46.6777" lon="0.50337">
        <ele>108.8</ele>
        <time>2023-02-26T08:14:04Z</time>
      </trkpt>
      <trkpt lat="46.67764" lon="0.50328">
        <ele>110.2</ele>
        <time>2023-02-26T08:14:08Z</time>
      </trkpt>
      <trkpt lat="46.67759" lon="0.5032">
        <ele>111.2</ele>
        <time>2023-02-26T08:14:11Z</time>
      </trkpt>
      <trkpt lat="46.67757" lon="0.50317">
        <ele>111.8</ele>
        <time>2023-02-26T08:14:12Z</time>
      </trkpt>
      <trkpt lat="46.67754" lon="0.50312">
        <ele>112.4</ele>
        <time>2023-02-26T08:14:14Z</time>
      </trkpt>
      <trkpt lat="46.67746" lon="0.50302">
        <ele>113.4</ele>
        <time>2023-02-26T08:14:18Z</time>
      </trkpt>
      <trkpt lat="46.67739" lon="0.50293">
        <ele>114.4</ele>
        <time>2023-02-26T08:14:22Z</time>
      </trkpt>
      <trkpt lat="46.67731" lon="0.50281">
        <ele>115.6</ele>
        <time>2023-02-26T08:14:27Z</time>
      </trkpt>
      <trkpt lat="46.67729" lon="0.50278">
        <ele>115.6</ele>
        <time>2023-02-26T08:14:28Z</time>
      </trkpt>
      <trkpt lat="46.67721" lon="0.50265">
        <ele>116.6</ele>
        <time>2023-02-26T08:14:33Z</time>
      </trkpt>
      <trkpt lat="46.67718" lon="0.5026">
        <ele>117</ele>
        <time>2023-02-26T08:14:35Z</time>
      </trkpt>
      <trkpt lat="46.6771" lon="0.50246">
        <ele>117.8</ele>
        <time>2023-02-26T08:14:41Z</time>
      </trkpt>
      <trkpt lat="46.67706" lon="0.50237">
        <ele>118.8</ele>
        <time>2023-02-26T08:14:44Z</time>
      </trkpt>
      <trkpt lat="46.67704" lon="0.50235">
        <ele>118.8</ele>
        <time>2023-02-26T08:14:45Z</time>
      </trkpt>
      <trkpt lat="46.67695" lon="0.50217">
        <ele>120</ele>
        <time>2023-02-26T08:14:52Z</time>
      </trkpt>
      <trkpt lat="46.67694" lon="0.50215">
        <ele>120.2</ele>
        <time>2023-02-26T08:14:53Z</time>
      </trkpt>
      <trkpt lat="46.67686" lon="0.50202">
        <ele>121.2</ele>
        <time>2023-02-26T08:14:58Z</time>
      </trkpt>
      <trkpt lat="46.67681" lon="0.50192">
        <ele>121.8</ele>
        <time>2023-02-26T08:15:02Z</time>
      </trkpt>
      <trkpt lat="46.67675" lon="0.50181">
        <ele>122.2</ele>
        <time>2023-02-26T08:15:06Z</time>
      </trkpt>
      <trkpt lat="46.67671" lon="0.50174">
        <ele>122.4</ele>
        <time>2023-02-26T08:15:09Z</time>
      </trkpt>
      <trkpt lat="46.67659" lon="0.50154">
        <ele>123.4</ele>
        <time>2023-02-26T08:15:17Z</time>
      </trkpt>
      <trkpt lat="46.67657" lon="0.50148">
        <ele>123.8</ele>
        <time>2023-02-26T08:15:19Z</time>
      </trkpt>
      <trkpt lat="46.67651" lon="0.50136">
        <ele>124.6</ele>
        <time>2023-02-26T08:15:24Z</time>
      </trkpt>
      <trkpt lat="46.67648" lon="0.50131">
        <ele>125</ele>
        <time>2023-02-26T08:15:26Z</time>
      </trkpt>
      <trkpt lat="46.67647" lon="0.50128">
        <ele>125</ele>
        <time>2023-02-26T08:15:27Z</time>
      </trkpt>
      <trkpt lat="46.67644" lon="0.5012">
        <ele>125.6</ele>
        <time>2023-02-26T08:15:30Z</time>
      </trkpt>
      <trkpt lat="46.67638" lon="0.50108">
        <ele>126</ele>
        <time>2023-02-26T08:15:35Z</time>
      </trkpt>
      <trkpt lat="46.6763" lon="0.50089">
        <ele>126.6</ele>
        <time>2023-02-26T08:15:42Z</time>
      </trkpt>
      <trkpt lat="46.67625" lon="0.50078">
        <ele>126.8</ele>
        <time>2023-02-26T08:15:46Z</time>
      </trkpt>
      <trkpt lat="46.6762" lon="0.50067">
        <ele>127</ele>
        <time>2023-02-26T08:15:49Z</time>
      </trkpt>
      <trkpt lat="46.67607" lon="0.50041">
        <ele>127.8</ele>
        <time>2023-02-26T08:15:56Z</time>
      </trkpt>
      <trkpt lat="46.67595" lon="0.50013">
        <ele>128.4</ele>
        <time>2023-02-26T08:16:03Z</time>
      </trkpt>
      <trkpt lat="46.67576" lon="0.49981">
        <ele>128.8</ele>
        <time>2023-02-26T08:16:11Z</time>
      </trkpt>
      <trkpt lat="46.67558" lon="0.4994">
        <ele>128.6</ele>
        <time>2023-02-26T08:16:19Z</time>
      </trkpt>
      <trkpt lat="46.67546" lon="0.49913">
        <ele>128.8</ele>
        <time>2023-02-26T08:16:25Z</time>
      </trkpt>
      <trkpt lat="46.67545" lon="0.49909">
        <ele>128.8</ele>
        <time>2023-02-26T08:16:26Z</time>
      </trkpt>
      <trkpt lat="46.67546" lon="0.49906">
        <ele>128.8</ele>
        <time>2023-02-26T08:16:27Z</time>
      </trkpt>
      <trkpt lat="46.6755" lon="0.49898">
        <ele>128.8</ele>
        <time>2023-02-26T08:16:30Z</time>
      </trkpt>
      <trkpt lat="46.67564" lon="0.49879">
        <ele>129.4</ele>
        <time>2023-02-26T08:16:37Z</time>
      </trkpt>
      <trkpt lat="46.6757" lon="0.4987">
        <ele>130</ele>
        <time>2023-02-26T08:16:40Z</time>
      </trkpt>
      <trkpt lat="46.67578" lon="0.49863">
        <ele>130.4</ele>
        <time>2023-02-26T08:16:43Z</time>
      </trkpt>
      <trkpt lat="46.67599" lon="0.49843">
        <ele>130.8</ele>
        <time>2023-02-26T08:16:51Z</time>
      </trkpt>
      <trkpt lat="46.67609" lon="0.49836">
        <ele>131.2</ele>
        <time>2023-02-26T08:16:55Z</time>
      </trkpt>
      <trkpt lat="46.67611" lon="0.49833">
        <ele>131.4</ele>
        <time>2023-02-26T08:16:56Z</time>
      </trkpt>
      <trkpt lat="46.67622" lon="0.49818">
        <ele>131.4</ele>
        <time>2023-02-26T08:17:02Z</time>
      </trkpt>
      <trkpt lat="46.67634" lon="0.49801">
        <ele>132.2</ele>
        <time>2023-02-26T08:17:08Z</time>
      </trkpt>
      <trkpt lat="46.67645" lon="0.49791">
        <ele>132.4</ele>
        <time>2023-02-26T08:17:13Z</time>
      </trkpt>
      <trkpt lat="46.67647" lon="0.49789">
        <ele>132.4</ele>
        <time>2023-02-26T08:17:14Z</time>
      </trkpt>
      <trkpt lat="46.67656" lon="0.49776">
        <ele>132.2</ele>
        <time>2023-02-26T08:17:19Z</time>
      </trkpt>
      <trkpt lat="46.67673" lon="0.49756">
        <ele>132.4</ele>
        <time>2023-02-26T08:17:27Z</time>
      </trkpt>
      <trkpt lat="46.6769" lon="0.49737">
        <ele>132.6</ele>
        <time>2023-02-26T08:17:34Z</time>
      </trkpt>
      <trkpt lat="46.67704" lon="0.49723">
        <ele>132.2</ele>
        <time>2023-02-26T08:17:40Z</time>
      </trkpt>
      <trkpt lat="46.67719" lon="0.49705">
        <ele>132.4</ele>
        <time>2023-02-26T08:17:46Z</time>
      </trkpt>
      <trkpt lat="46.67732" lon="0.49688">
        <ele>132.4</ele>
        <time>2023-02-26T08:17:52Z</time>
      </trkpt>
      <trkpt lat="46.67749" lon="0.49669">
        <ele>132.4</ele>
        <time>2023-02-26T08:17:58Z</time>
      </trkpt>
      <trkpt lat="46.67765" lon="0.49648">
        <ele>132.6</ele>
        <time>2023-02-26T08:18:04Z</time>
      </trkpt>
      <trkpt lat="46.67788" lon="0.49621">
        <ele>132.6</ele>
        <time>2023-02-26T08:18:13Z</time>
      </trkpt>
      <trkpt lat="46.67789" lon="0.49601">
        <ele>133</ele>
        <time>2023-02-26T08:18:18Z</time>
      </trkpt>
      <trkpt lat="46.67784" lon="0.49576">
        <ele>133.4</ele>
        <time>2023-02-26T08:18:23Z</time>
      </trkpt>
      <trkpt lat="46.67782" lon="0.4957">
        <ele>133.4</ele>
        <time>2023-02-26T08:18:24Z</time>
      </trkpt>
      <trkpt lat="46.6777" lon="0.49539">
        <ele>133.4</ele>
        <time>2023-02-26T08:18:30Z</time>
      </trkpt>
      <trkpt lat="46.67753" lon="0.49491">
        <ele>133.6</ele>
        <time>2023-02-26T08:18:38Z</time>
      </trkpt>
      <trkpt lat="46.67736" lon="0.49454">
        <ele>133</ele>
        <time>2023-02-26T08:18:45Z</time>
      </trkpt>
      <trkpt lat="46.67734" lon="0.49449">
        <ele>133</ele>
        <time>2023-02-26T08:18:46Z</time>
      </trkpt>
      <trkpt lat="46.6773" lon="0.49439">
        <ele>133</ele>
        <time>2023-02-26T08:18:48Z</time>
      </trkpt>
      <trkpt lat="46.67725" lon="0.49429">
        <ele>133.2</ele>
        <time>2023-02-26T08:18:50Z</time>
      </trkpt>
      <trkpt lat="46.67702" lon="0.49394">
        <ele>133.2</ele>
        <time>2023-02-26T08:18:55Z</time>
      </trkpt>
      <trkpt lat="46.67698" lon="0.49381">
        <ele>133.2</ele>
        <time>2023-02-26T08:18:57Z</time>
      </trkpt>
      <trkpt lat="46.67694" lon="0.49369">
        <ele>133.2</ele>
        <time>2023-02-26T08:18:59Z</time>
      </trkpt>
      <trkpt lat="46.67695" lon="0.49357">
        <ele>133.2</ele>
        <time>2023-02-26T08:19:01Z</time>
      </trkpt>
      <trkpt lat="46.67698" lon="0.49352">
        <ele>133.2</ele>
        <time>2023-02-26T08:19:02Z</time>
      </trkpt>
      <trkpt lat="46.67701" lon="0.49349">
        <ele>133.4</ele>
        <time>2023-02-26T08:19:03Z</time>
      </trkpt>
      <trkpt lat="46.67715" lon="0.49333">
        <ele>133.6</ele>
        <time>2023-02-26T08:19:07Z</time>
      </trkpt>
      <trkpt lat="46.6774" lon="0.49298">
        <ele>133.8</ele>
        <time>2023-02-26T08:19:14Z</time>
      </trkpt>
      <trkpt lat="46.67773" lon="0.49258">
        <ele>134.4</ele>
        <time>2023-02-26T08:19:22Z</time>
      </trkpt>
      <trkpt lat="46.67793" lon="0.49234">
        <ele>134.2</ele>
        <time>2023-02-26T08:19:28Z</time>
      </trkpt>
      <trkpt lat="46.67824" lon="0.49203">
        <ele>134</ele>
        <time>2023-02-26T08:19:34Z</time>
      </trkpt>
      <trkpt lat="46.67838" lon="0.49186">
        <ele>133.8</ele>
        <time>2023-02-26T08:19:38Z</time>
      </trkpt>
      <trkpt lat="46.67846" lon="0.49178">
        <ele>134.2</ele>
        <time>2023-02-26T08:19:40Z</time>
      </trkpt>
      <trkpt lat="46.67877" lon="0.49142">
        <ele>134.4</ele>
        <time>2023-02-26T08:19:48Z</time>
      </trkpt>
      <trkpt lat="46.67893" lon="0.49124">
        <ele>134.4</ele>
        <time>2023-02-26T08:19:52Z</time>
      </trkpt>
      <trkpt lat="46.67901" lon="0.49115">
        <ele>134.6</ele>
        <time>2023-02-26T08:19:54Z</time>
      </trkpt>
      <trkpt lat="46.67931" lon="0.49081">
        <ele>135</ele>
        <time>2023-02-26T08:20:02Z</time>
      </trkpt>
      <trkpt lat="46.67935" lon="0.49077">
        <ele>135</ele>
        <time>2023-02-26T08:20:03Z</time>
      </trkpt>
      <trkpt lat="46.67942" lon="0.49072">
        <ele>135</ele>
        <time>2023-02-26T08:20:05Z</time>
      </trkpt>
      <trkpt lat="46.67945" lon="0.49065">
        <ele>134.6</ele>
        <time>2023-02-26T08:20:07Z</time>
      </trkpt>
      <trkpt lat="46.67942" lon="0.49048">
        <ele>133.6</ele>
        <time>2023-02-26T08:20:11Z</time>
      </trkpt>
      <trkpt lat="46.67939" lon="0.49038">
        <ele>133.4</ele>
        <time>2023-02-26T08:20:13Z</time>
      </trkpt>
      <trkpt lat="46.67936" lon="0.49028">
        <ele>133.2</ele>
        <time>2023-02-26T08:20:15Z</time>
      </trkpt>
      <trkpt lat="46.67932" lon="0.49017">
        <ele>133.2</ele>
        <time>2023-02-26T08:20:17Z</time>
      </trkpt>
      <trkpt lat="46.67918" lon="0.48984">
        <ele>133.4</ele>
        <time>2023-02-26T08:20:23Z</time>
      </trkpt>
      <trkpt lat="46.67899" lon="0.48944">
        <ele>133.6</ele>
        <time>2023-02-26T08:20:30Z</time>
      </trkpt>
      <trkpt lat="46.67886" lon="0.48914">
        <ele>133</ele>
        <time>2023-02-26T08:20:35Z</time>
      </trkpt>
      <trkpt lat="46.6788" lon="0.48901">
        <ele>132.6</ele>
        <time>2023-02-26T08:20:37Z</time>
      </trkpt>
      <trkpt lat="46.67862" lon="0.48867">
        <ele>132.2</ele>
        <time>2023-02-26T08:20:42Z</time>
      </trkpt>
      <trkpt lat="46.67858" lon="0.4886">
        <ele>132</ele>
        <time>2023-02-26T08:20:43Z</time>
      </trkpt>
      <trkpt lat="46.67837" lon="0.48817">
        <ele>131.4</ele>
        <time>2023-02-26T08:20:49Z</time>
      </trkpt>
      <trkpt lat="46.6783" lon="0.48804">
        <ele>131.2</ele>
        <time>2023-02-26T08:20:51Z</time>
      </trkpt>
      <trkpt lat="46.67818" lon="0.48783">
        <ele>131</ele>
        <time>2023-02-26T08:20:54Z</time>
      </trkpt>
      <trkpt lat="46.67815" lon="0.48778">
        <ele>130.8</ele>
        <time>2023-02-26T08:20:55Z</time>
      </trkpt>
      <trkpt lat="46.67813" lon="0.48774">
        <ele>130.6</ele>
        <time>2023-02-26T08:20:56Z</time>
      </trkpt>
      <trkpt lat="46.67808" lon="0.48762">
        <ele>130.4</ele>
        <time>2023-02-26T08:20:58Z</time>
      </trkpt>
      <trkpt lat="46.67805" lon="0.48756">
        <ele>130</ele>
        <time>2023-02-26T08:20:59Z</time>
      </trkpt>
      <trkpt lat="46.67799" lon="0.48743">
        <ele>129</ele>
        <time>2023-02-26T08:21:01Z</time>
      </trkpt>
      <trkpt lat="46.67796" lon="0.48737">
        <ele>128.6</ele>
        <time>2023-02-26T08:21:02Z</time>
      </trkpt>
      <trkpt lat="46.67793" lon="0.48731">
        <ele>128.4</ele>
        <time>2023-02-26T08:21:03Z</time>
      </trkpt>
      <trkpt lat="46.67771" lon="0.48692">
        <ele>128</ele>
        <time>2023-02-26T08:21:09Z</time>
      </trkpt>
      <trkpt lat="46.67764" lon="0.4868">
        <ele>127.6</ele>
        <time>2023-02-26T08:21:11Z</time>
      </trkpt>
      <trkpt lat="46.67761" lon="0.48674">
        <ele>127.4</ele>
        <time>2023-02-26T08:21:12Z</time>
      </trkpt>
      <trkpt lat="46.67754" lon="0.48661">
        <ele>126.8</ele>
        <time>2023-02-26T08:21:14Z</time>
      </trkpt>
      <trkpt lat="46.67751" lon="0.48655">
        <ele>126.4</ele>
        <time>2023-02-26T08:21:15Z</time>
      </trkpt>
      <trkpt lat="46.6774" lon="0.48631">
        <ele>125.6</ele>
        <time>2023-02-26T08:21:19Z</time>
      </trkpt>
      <trkpt lat="46.67737" lon="0.48625">
        <ele>125.2</ele>
        <time>2023-02-26T08:21:20Z</time>
      </trkpt>
      <trkpt lat="46.67731" lon="0.48622">
        <ele>124</ele>
        <time>2023-02-26T08:21:22Z</time>
      </trkpt>
      <trkpt lat="46.6772" lon="0.48617">
        <ele>123.2</ele>
        <time>2023-02-26T08:21:26Z</time>
      </trkpt>
      <trkpt lat="46.67721" lon="0.48608">
        <ele>123.4</ele>
        <time>2023-02-26T08:21:29Z</time>
      </trkpt>
      <trkpt lat="46.67722" lon="0.48598">
        <ele>123.6</ele>
        <time>2023-02-26T08:21:32Z</time>
      </trkpt>
      <trkpt lat="46.6772" lon="0.48595">
        <ele>123.4</ele>
        <time>2023-02-26T08:21:33Z</time>
      </trkpt>
      <trkpt lat="46.67711" lon="0.48573">
        <ele>123</ele>
        <time>2023-02-26T08:21:39Z</time>
      </trkpt>
      <trkpt lat="46.67703" lon="0.48568">
        <ele>123.6</ele>
        <time>2023-02-26T08:21:42Z</time>
      </trkpt>
      <trkpt lat="46.67701" lon="0.48569">
        <ele>124.2</ele>
        <time>2023-02-26T08:21:43Z</time>
      </trkpt>
      <trkpt lat="46.67698" lon="0.48572">
        <ele>125</ele>
        <time>2023-02-26T08:21:45Z</time>
      </trkpt>
      <trkpt lat="46.67693" lon="0.48574">
        <ele>125.2</ele>
        <time>2023-02-26T08:21:47Z</time>
      </trkpt>
      <trkpt lat="46.67679" lon="0.48578">
        <ele>125.6</ele>
        <time>2023-02-26T08:21:53Z</time>
      </trkpt>
      <trkpt lat="46.67669" lon="0.48576">
        <ele>125.8</ele>
        <time>2023-02-26T08:21:57Z</time>
      </trkpt>
      <trkpt lat="46.67657" lon="0.48572">
        <ele>125</ele>
        <time>2023-02-26T08:22:03Z</time>
      </trkpt>
      <trkpt lat="46.67656" lon="0.48569">
        <ele>125.2</ele>
        <time>2023-02-26T08:22:05Z</time>
      </trkpt>
      <trkpt lat="46.67656" lon="0.48566">
        <ele>125.6</ele>
        <time>2023-02-26T08:22:07Z</time>
      </trkpt>
      <trkpt lat="46.67656" lon="0.48551">
        <ele>125.2</ele>
        <time>2023-02-26T08:22:13Z</time>
      </trkpt>
      <trkpt lat="46.67659" lon="0.48537">
        <ele>125.8</ele>
        <time>2023-02-26T08:22:19Z</time>
      </trkpt>
      <trkpt lat="46.67663" lon="0.48525">
        <ele>125.4</ele>
        <time>2023-02-26T08:22:24Z</time>
      </trkpt>
      <trkpt lat="46.67662" lon="0.48517">
        <ele>125.6</ele>
        <time>2023-02-26T08:22:28Z</time>
      </trkpt>
      <trkpt lat="46.6766" lon="0.48504">
        <ele>125.6</ele>
        <time>2023-02-26T08:22:32Z</time>
      </trkpt>
      <trkpt lat="46.67655" lon="0.48484">
        <ele>125.4</ele>
        <time>2023-02-26T08:22:37Z</time>
      </trkpt>
      <trkpt lat="46.67646" lon="0.48456">
        <ele>125.4</ele>
        <time>2023-02-26T08:22:44Z</time>
      </trkpt>
      <trkpt lat="46.67632" lon="0.48426">
        <ele>125.8</ele>
        <time>2023-02-26T08:22:50Z</time>
      </trkpt>
      <trkpt lat="46.67622" lon="0.48404">
        <ele>126</ele>
        <time>2023-02-26T08:22:55Z</time>
      </trkpt>
      <trkpt lat="46.6762" lon="0.484">
        <ele>126.2</ele>
        <time>2023-02-26T08:22:56Z</time>
      </trkpt>
      <trkpt lat="46.67608" lon="0.48378">
        <ele>126.2</ele>
        <time>2023-02-26T08:23:01Z</time>
      </trkpt>
      <trkpt lat="46.67597" lon="0.48354">
        <ele>126.2</ele>
        <time>2023-02-26T08:23:07Z</time>
      </trkpt>
      <trkpt lat="46.67584" lon="0.48325">
        <ele>126.2</ele>
        <time>2023-02-26T08:23:14Z</time>
      </trkpt>
      <trkpt lat="46.67583" lon="0.48315">
        <ele>125.8</ele>
        <time>2023-02-26T08:23:16Z</time>
      </trkpt>
      <trkpt lat="46.67586" lon="0.48308">
        <ele>125.6</ele>
        <time>2023-02-26T08:23:18Z</time>
      </trkpt>
      <trkpt lat="46.67589" lon="0.483">
        <ele>125.4</ele>
        <time>2023-02-26T08:23:20Z</time>
      </trkpt>
      <trkpt lat="46.67588" lon="0.48289">
        <ele>125.2</ele>
        <time>2023-02-26T08:23:22Z</time>
      </trkpt>
      <trkpt lat="46.67588" lon="0.48283">
        <ele>125</ele>
        <time>2023-02-26T08:23:23Z</time>
      </trkpt>
      <trkpt lat="46.67588" lon="0.48277">
        <ele>124.6</ele>
        <time>2023-02-26T08:23:24Z</time>
      </trkpt>
      <trkpt lat="46.67586" lon="0.48261">
        <ele>124</ele>
        <time>2023-02-26T08:23:27Z</time>
      </trkpt>
      <trkpt lat="46.67586" lon="0.48256">
        <ele>123.8</ele>
        <time>2023-02-26T08:23:28Z</time>
      </trkpt>
      <trkpt lat="46.67588" lon="0.48233">
        <ele>122.6</ele>
        <time>2023-02-26T08:23:32Z</time>
      </trkpt>
      <trkpt lat="46.67588" lon="0.48221">
        <ele>122.2</ele>
        <time>2023-02-26T08:23:34Z</time>
      </trkpt>
      <trkpt lat="46.67589" lon="0.48217">
        <ele>121.8</ele>
        <time>2023-02-26T08:23:35Z</time>
      </trkpt>
      <trkpt lat="46.67591" lon="0.48214">
        <ele>121.2</ele>
        <time>2023-02-26T08:23:36Z</time>
      </trkpt>
      <trkpt lat="46.67593" lon="0.48212">
        <ele>121</ele>
        <time>2023-02-26T08:23:37Z</time>
      </trkpt>
      <trkpt lat="46.67596" lon="0.48212">
        <ele>120.2</ele>
        <time>2023-02-26T08:23:39Z</time>
      </trkpt>
      <trkpt lat="46.67597" lon="0.48214">
        <ele>119.8</ele>
        <time>2023-02-26T08:23:40Z</time>
      </trkpt>
      <trkpt lat="46.67598" lon="0.48217">
        <ele>119.8</ele>
        <time>2023-02-26T08:23:41Z</time>
      </trkpt>
      <trkpt lat="46.67603" lon="0.48223">
        <ele>119.8</ele>
        <time>2023-02-26T08:23:44Z</time>
      </trkpt>
      <trkpt lat="46.67602" lon="0.48225">
        <ele>119.8</ele>
        <time>2023-02-26T08:23:45Z</time>
      </trkpt>
      <trkpt lat="46.67601" lon="0.48229">
        <ele>120.8</ele>
        <time>2023-02-26T08:23:49Z</time>
      </trkpt>
      <trkpt lat="46.67602" lon="0.48231">
        <ele>121.2</ele>
        <time>2023-02-26T08:23:50Z</time>
      </trkpt>
      <trkpt lat="46.67602" lon="0.48234">
        <ele>121.4</ele>
        <time>2023-02-26T08:23:51Z</time>
      </trkpt>
      <trkpt lat="46.67603" lon="0.48237">
        <ele>121.4</ele>
        <time>2023-02-26T08:23:52Z</time>
      </trkpt>
      <trkpt lat="46.67607" lon="0.48238">
        <ele>121.6</ele>
        <time>2023-02-26T08:23:54Z</time>
      </trkpt>
      <trkpt lat="46.67615" lon="0.48231">
        <ele>121.4</ele>
        <time>2023-02-26T08:23:58Z</time>
      </trkpt>
      <trkpt lat="46.67615" lon="0.48216">
        <ele>120</ele>
        <time>2023-02-26T08:24:02Z</time>
      </trkpt>
      <trkpt lat="46.67613" lon="0.48202">
        <ele>118.2</ele>
        <time>2023-02-26T08:24:06Z</time>
      </trkpt>
      <trkpt lat="46.67614" lon="0.48195">
        <ele>117.6</ele>
        <time>2023-02-26T08:24:08Z</time>
      </trkpt>
      <trkpt lat="46.67615" lon="0.48191">
        <ele>117.2</ele>
        <time>2023-02-26T08:24:09Z</time>
      </trkpt>
      <trkpt lat="46.67615" lon="0.48187">
        <ele>117</ele>
        <time>2023-02-26T08:24:10Z</time>
      </trkpt>
      <trkpt lat="46.67614" lon="0.48183">
        <ele>116.8</ele>
        <time>2023-02-26T08:24:11Z</time>
      </trkpt>
      <trkpt lat="46.67612" lon="0.48177">
        <ele>116.4</ele>
        <time>2023-02-26T08:24:13Z</time>
      </trkpt>
      <trkpt lat="46.67612" lon="0.48174">
        <ele>116.2</ele>
        <time>2023-02-26T08:24:14Z</time>
      </trkpt>
      <trkpt lat="46.6761" lon="0.4815">
        <ele>117</ele>
        <time>2023-02-26T08:24:20Z</time>
      </trkpt>
      <trkpt lat="46.67609" lon="0.48141">
        <ele>117</ele>
        <time>2023-02-26T08:24:22Z</time>
      </trkpt>
      <trkpt lat="46.67612" lon="0.48135">
        <ele>116.4</ele>
        <time>2023-02-26T08:24:24Z</time>
      </trkpt>
      <trkpt lat="46.67614" lon="0.48129">
        <ele>115.6</ele>
        <time>2023-02-26T08:24:26Z</time>
      </trkpt>
      <trkpt lat="46.67613" lon="0.48125">
        <ele>114.8</ele>
        <time>2023-02-26T08:24:27Z</time>
      </trkpt>
      <trkpt lat="46.67612" lon="0.48124">
        <ele>114.4</ele>
        <time>2023-02-26T08:24:28Z</time>
      </trkpt>
      <trkpt lat="46.67608" lon="0.48118">
        <ele>114</ele>
        <time>2023-02-26T08:24:31Z</time>
      </trkpt>
      <trkpt lat="46.67604" lon="0.48116">
        <ele>114.2</ele>
        <time>2023-02-26T08:24:33Z</time>
      </trkpt>
      <trkpt lat="46.67583" lon="0.48104">
        <ele>114.8</ele>
        <time>2023-02-26T08:24:40Z</time>
      </trkpt>
      <trkpt lat="46.67561" lon="0.48094">
        <ele>114.2</ele>
        <time>2023-02-26T08:24:46Z</time>
      </trkpt>
      <trkpt lat="46.67544" lon="0.48089">
        <ele>113.8</ele>
        <time>2023-02-26T08:24:51Z</time>
      </trkpt>
      <trkpt lat="46.67541" lon="0.48088">
        <ele>113.6</ele>
        <time>2023-02-26T08:24:52Z</time>
      </trkpt>
      <trkpt lat="46.67534" lon="0.48086">
        <ele>112.6</ele>
        <time>2023-02-26T08:24:55Z</time>
      </trkpt>
      <trkpt lat="46.67528" lon="0.48085">
        <ele>112</ele>
        <time>2023-02-26T08:24:58Z</time>
      </trkpt>
      <trkpt lat="46.67524" lon="0.48084">
        <ele>111.6</ele>
        <time>2023-02-26T08:25:01Z</time>
      </trkpt>
      <trkpt lat="46.67518" lon="0.48083">
        <ele>111.2</ele>
        <time>2023-02-26T08:25:05Z</time>
      </trkpt>
      <trkpt lat="46.67512" lon="0.48078">
        <ele>110.6</ele>
        <time>2023-02-26T08:25:08Z</time>
      </trkpt>
      <trkpt lat="46.67505" lon="0.48073">
        <ele>109.2</ele>
        <time>2023-02-26T08:25:11Z</time>
      </trkpt>
      <trkpt lat="46.67503" lon="0.48072">
        <ele>109</ele>
        <time>2023-02-26T08:25:12Z</time>
      </trkpt>
      <trkpt lat="46.67494" lon="0.4807">
        <ele>108.2</ele>
        <time>2023-02-26T08:25:15Z</time>
      </trkpt>
      <trkpt lat="46.67482" lon="0.48067">
        <ele>108.4</ele>
        <time>2023-02-26T08:25:20Z</time>
      </trkpt>
      <trkpt lat="46.67478" lon="0.48066">
        <ele>108.6</ele>
        <time>2023-02-26T08:25:22Z</time>
      </trkpt>
      <trkpt lat="46.6747" lon="0.48062">
        <ele>109.2</ele>
        <time>2023-02-26T08:25:26Z</time>
      </trkpt>
      <trkpt lat="46.67455" lon="0.48058">
        <ele>109.8</ele>
        <time>2023-02-26T08:25:32Z</time>
      </trkpt>
      <trkpt lat="46.67449" lon="0.48056">
        <ele>110.4</ele>
        <time>2023-02-26T08:25:34Z</time>
      </trkpt>
      <trkpt lat="46.67441" lon="0.48055">
        <ele>110.8</ele>
        <time>2023-02-26T08:25:37Z</time>
      </trkpt>
      <trkpt lat="46.67428" lon="0.48052">
        <ele>111.6</ele>
        <time>2023-02-26T08:25:44Z</time>
      </trkpt>
      <trkpt lat="46.67414" lon="0.48049">
        <ele>112</ele>
        <time>2023-02-26T08:25:51Z</time>
      </trkpt>
      <trkpt lat="46.67401" lon="0.48047">
        <ele>112.6</ele>
        <time>2023-02-26T08:25:57Z</time>
      </trkpt>
      <trkpt lat="46.67399" lon="0.48046">
        <ele>112.8</ele>
        <time>2023-02-26T08:25:58Z</time>
      </trkpt>
      <trkpt lat="46.67388" lon="0.48042">
        <ele>113.2</ele>
        <time>2023-02-26T08:26:04Z</time>
      </trkpt>
      <trkpt lat="46.67377" lon="0.48038">
        <ele>113.8</ele>
        <time>2023-02-26T08:26:10Z</time>
      </trkpt>
      <trkpt lat="46.67367" lon="0.48038">
        <ele>114.8</ele>
        <time>2023-02-26T08:26:16Z</time>
      </trkpt>
      <trkpt lat="46.67366" lon="0.48037">
        <ele>115</ele>
        <time>2023-02-26T08:26:17Z</time>
      </trkpt>
      <trkpt lat="46.67351" lon="0.48033">
        <ele>115.6</ele>
        <time>2023-02-26T08:26:25Z</time>
      </trkpt>
      <trkpt lat="46.67347" lon="0.48032">
        <ele>116</ele>
        <time>2023-02-26T08:26:27Z</time>
      </trkpt>
      <trkpt lat="46.67341" lon="0.4803">
        <ele>116.2</ele>
        <time>2023-02-26T08:26:31Z</time>
      </trkpt>
      <trkpt lat="46.67331" lon="0.48025">
        <ele>116.6</ele>
        <time>2023-02-26T08:26:38Z</time>
      </trkpt>
      <trkpt lat="46.67317" lon="0.48026">
        <ele>117</ele>
        <time>2023-02-26T08:26:46Z</time>
      </trkpt>
      <trkpt lat="46.67316" lon="0.48026">
        <ele>117.2</ele>
        <time>2023-02-26T08:26:47Z</time>
      </trkpt>
      <trkpt lat="46.67313" lon="0.48025">
        <ele>117</ele>
        <time>2023-02-26T08:26:50Z</time>
      </trkpt>
      <trkpt lat="46.67309" lon="0.48022">
        <ele>116.8</ele>
        <time>2023-02-26T08:26:54Z</time>
      </trkpt>
      <trkpt lat="46.67307" lon="0.4802">
        <ele>117</ele>
        <time>2023-02-26T08:26:57Z</time>
      </trkpt>
      <trkpt lat="46.67304" lon="0.48018">
        <ele>117.4</ele>
        <time>2023-02-26T08:27:00Z</time>
      </trkpt>
      <trkpt lat="46.67302" lon="0.48015">
        <ele>117.8</ele>
        <time>2023-02-26T08:27:03Z</time>
      </trkpt>
      <trkpt lat="46.67299" lon="0.48012">
        <ele>118</ele>
        <time>2023-02-26T08:27:05Z</time>
      </trkpt>
      <trkpt lat="46.67298" lon="0.48012">
        <ele>118.2</ele>
        <time>2023-02-26T08:27:06Z</time>
      </trkpt>
      <trkpt lat="46.67286" lon="0.48001">
        <ele>118.8</ele>
        <time>2023-02-26T08:27:17Z</time>
      </trkpt>
      <trkpt lat="46.67283" lon="0.48">
        <ele>119.2</ele>
        <time>2023-02-26T08:27:19Z</time>
      </trkpt>
      <trkpt lat="46.67274" lon="0.47993">
        <ele>120.4</ele>
        <time>2023-02-26T08:27:27Z</time>
      </trkpt>
      <trkpt lat="46.67273" lon="0.47992">
        <ele>120.4</ele>
        <time>2023-02-26T08:27:29Z</time>
      </trkpt>
      <trkpt lat="46.67266" lon="0.47987">
        <ele>121</ele>
        <time>2023-02-26T08:27:40Z</time>
      </trkpt>
      <trkpt lat="46.67265" lon="0.47986">
        <ele>121</ele>
        <time>2023-02-26T08:27:41Z</time>
      </trkpt>
      <trkpt lat="46.67254" lon="0.47976">
        <ele>121</ele>
        <time>2023-02-26T08:27:50Z</time>
      </trkpt>
      <trkpt lat="46.67237" lon="0.47961">
        <ele>121</ele>
        <time>2023-02-26T08:28:02Z</time>
      </trkpt>
      <trkpt lat="46.67223" lon="0.47952">
        <ele>120.2</ele>
        <time>2023-02-26T08:28:12Z</time>
      </trkpt>
      <trkpt lat="46.67213" lon="0.47942">
        <ele>119.6</ele>
        <time>2023-02-26T08:28:19Z</time>
      </trkpt>
      <trkpt lat="46.6721" lon="0.47938">
        <ele>119.2</ele>
        <time>2023-02-26T08:28:21Z</time>
      </trkpt>
      <trkpt lat="46.67206" lon="0.47932">
        <ele>118.8</ele>
        <time>2023-02-26T08:28:25Z</time>
      </trkpt>
      <trkpt lat="46.67195" lon="0.47919">
        <ele>118.2</ele>
        <time>2023-02-26T08:28:32Z</time>
      </trkpt>
      <trkpt lat="46.6718" lon="0.47906">
        <ele>117</ele>
        <time>2023-02-26T08:28:39Z</time>
      </trkpt>
      <trkpt lat="46.67177" lon="0.47903">
        <ele>116.6</ele>
        <time>2023-02-26T08:28:40Z</time>
      </trkpt>
      <trkpt lat="46.67169" lon="0.47895">
        <ele>115.6</ele>
        <time>2023-02-26T08:28:43Z</time>
      </trkpt>
      <trkpt lat="46.67161" lon="0.47886">
        <ele>114.8</ele>
        <time>2023-02-26T08:28:46Z</time>
      </trkpt>
      <trkpt lat="46.67154" lon="0.47882">
        <ele>114.4</ele>
        <time>2023-02-26T08:28:48Z</time>
      </trkpt>
      <trkpt lat="46.67145" lon="0.47873">
        <ele>113.4</ele>
        <time>2023-02-26T08:28:52Z</time>
      </trkpt>
      <trkpt lat="46.67138" lon="0.47863">
        <ele>112.2</ele>
        <time>2023-02-26T08:28:56Z</time>
      </trkpt>
      <trkpt lat="46.67135" lon="0.47858">
        <ele>111.8</ele>
        <time>2023-02-26T08:28:58Z</time>
      </trkpt>
      <trkpt lat="46.67122" lon="0.47836">
        <ele>111.4</ele>
        <time>2023-02-26T08:29:04Z</time>
      </trkpt>
      <trkpt lat="46.67118" lon="0.47828">
        <ele>111.2</ele>
        <time>2023-02-26T08:29:06Z</time>
      </trkpt>
      <trkpt lat="46.67111" lon="0.47812">
        <ele>111.2</ele>
        <time>2023-02-26T08:29:10Z</time>
      </trkpt>
      <trkpt lat="46.67101" lon="0.47788">
        <ele>111</ele>
        <time>2023-02-26T08:29:16Z</time>
      </trkpt>
      <trkpt lat="46.67092" lon="0.47771">
        <ele>112.2</ele>
        <time>2023-02-26T08:29:21Z</time>
      </trkpt>
      <trkpt lat="46.67092" lon="0.47771">
        <ele>112.4</ele>
        <time>2023-02-26T08:29:22Z</time>
      </trkpt>
      <trkpt lat="46.67072" lon="0.47739">
        <ele>112.2</ele>
        <time>2023-02-26T08:29:29Z</time>
      </trkpt>
      <trkpt lat="46.6706" lon="0.47717">
        <ele>112.2</ele>
        <time>2023-02-26T08:29:35Z</time>
      </trkpt>
      <trkpt lat="46.67051" lon="0.47697">
        <ele>112.4</ele>
        <time>2023-02-26T08:29:41Z</time>
      </trkpt>
      <trkpt lat="46.67039" lon="0.47678">
        <ele>112.4</ele>
        <time>2023-02-26T08:29:46Z</time>
      </trkpt>
      <trkpt lat="46.6703" lon="0.47663">
        <ele>112</ele>
        <time>2023-02-26T08:29:50Z</time>
      </trkpt>
      <trkpt lat="46.67028" lon="0.4766">
        <ele>112</ele>
        <time>2023-02-26T08:29:51Z</time>
      </trkpt>
      <trkpt lat="46.67008" lon="0.47631">
        <ele>111.8</ele>
        <time>2023-02-26T08:29:59Z</time>
      </trkpt>
      <trkpt lat="46.66987" lon="0.47607">
        <ele>111.6</ele>
        <time>2023-02-26T08:30:05Z</time>
      </trkpt>
      <trkpt lat="46.66975" lon="0.47594">
        <ele>111.2</ele>
        <time>2023-02-26T08:30:08Z</time>
      </trkpt>
      <trkpt lat="46.66965" lon="0.47583">
        <ele>111</ele>
        <time>2023-02-26T08:30:11Z</time>
      </trkpt>
      <trkpt lat="46.66948" lon="0.47569">
        <ele>110.8</ele>
        <time>2023-02-26T08:30:16Z</time>
      </trkpt>
      <trkpt lat="46.66939" lon="0.47562">
        <ele>110</ele>
        <time>2023-02-26T08:30:19Z</time>
      </trkpt>
      <trkpt lat="46.66932" lon="0.47554">
        <ele>109.4</ele>
        <time>2023-02-26T08:30:22Z</time>
      </trkpt>
      <trkpt lat="46.66912" lon="0.47533">
        <ele>109.4</ele>
        <time>2023-02-26T08:30:30Z</time>
      </trkpt>
      <trkpt lat="46.66897" lon="0.47516">
        <ele>109.6</ele>
        <time>2023-02-26T08:30:35Z</time>
      </trkpt>
      <trkpt lat="46.66882" lon="0.47495">
        <ele>109.8</ele>
        <time>2023-02-26T08:30:42Z</time>
      </trkpt>
      <trkpt lat="46.66873" lon="0.4748">
        <ele>109.6</ele>
        <time>2023-02-26T08:30:47Z</time>
      </trkpt>
      <trkpt lat="46.66868" lon="0.47475">
        <ele>109.8</ele>
        <time>2023-02-26T08:30:49Z</time>
      </trkpt>
      <trkpt lat="46.6685" lon="0.47452">
        <ele>110.2</ele>
        <time>2023-02-26T08:30:56Z</time>
      </trkpt>
      <trkpt lat="46.66835" lon="0.47429">
        <ele>110.2</ele>
        <time>2023-02-26T08:31:03Z</time>
      </trkpt>
      <trkpt lat="46.6682" lon="0.47408">
        <ele>109</ele>
        <time>2023-02-26T08:31:08Z</time>
      </trkpt>
      <trkpt lat="46.66817" lon="0.47404">
        <ele>108.4</ele>
        <time>2023-02-26T08:31:09Z</time>
      </trkpt>
      <trkpt lat="46.66808" lon="0.47392">
        <ele>107.2</ele>
        <time>2023-02-26T08:31:12Z</time>
      </trkpt>
      <trkpt lat="46.66801" lon="0.47383">
        <ele>106.8</ele>
        <time>2023-02-26T08:31:14Z</time>
      </trkpt>
      <trkpt lat="46.66793" lon="0.47369">
        <ele>106</ele>
        <time>2023-02-26T08:31:17Z</time>
      </trkpt>
      <trkpt lat="46.66789" lon="0.47359">
        <ele>105.6</ele>
        <time>2023-02-26T08:31:19Z</time>
      </trkpt>
      <trkpt lat="46.66786" lon="0.47349">
        <ele>104.8</ele>
        <time>2023-02-26T08:31:21Z</time>
      </trkpt>
      <trkpt lat="46.66783" lon="0.47341">
        <ele>103.8</ele>
        <time>2023-02-26T08:31:23Z</time>
      </trkpt>
      <trkpt lat="46.66781" lon="0.47337">
        <ele>103.6</ele>
        <time>2023-02-26T08:31:24Z</time>
      </trkpt>
      <trkpt lat="46.66769" lon="0.47318">
        <ele>102.8</ele>
        <time>2023-02-26T08:31:28Z</time>
      </trkpt>
      <trkpt lat="46.66766" lon="0.47314">
        <ele>102.4</ele>
        <time>2023-02-26T08:31:29Z</time>
      </trkpt>
      <trkpt lat="46.66761" lon="0.47309">
        <ele>102.2</ele>
        <time>2023-02-26T08:31:30Z</time>
      </trkpt>
      <trkpt lat="46.66746" lon="0.47296">
        <ele>101.6</ele>
        <time>2023-02-26T08:31:33Z</time>
      </trkpt>
      <trkpt lat="46.6674" lon="0.47292">
        <ele>101.4</ele>
        <time>2023-02-26T08:31:34Z</time>
      </trkpt>
      <trkpt lat="46.66708" lon="0.47278">
        <ele>100.6</ele>
        <time>2023-02-26T08:31:40Z</time>
      </trkpt>
      <trkpt lat="46.66702" lon="0.47277">
        <ele>100.4</ele>
        <time>2023-02-26T08:31:41Z</time>
      </trkpt>
      <trkpt lat="46.66697" lon="0.47276">
        <ele>100.4</ele>
        <time>2023-02-26T08:31:42Z</time>
      </trkpt>
      <trkpt lat="46.66689" lon="0.47271">
        <ele>99.6</ele>
        <time>2023-02-26T08:31:44Z</time>
      </trkpt>
      <trkpt lat="46.66686" lon="0.47271">
        <ele>99.2</ele>
        <time>2023-02-26T08:31:45Z</time>
      </trkpt>
      <trkpt lat="46.66679" lon="0.47272">
        <ele>98.8</ele>
        <time>2023-02-26T08:31:47Z</time>
      </trkpt>
      <trkpt lat="46.66669" lon="0.47288">
        <ele>98.2</ele>
        <time>2023-02-26T08:31:52Z</time>
      </trkpt>
      <trkpt lat="46.66668" lon="0.47291">
        <ele>98</ele>
        <time>2023-02-26T08:31:53Z</time>
      </trkpt>
      <trkpt lat="46.66663" lon="0.47303">
        <ele>98.2</ele>
        <time>2023-02-26T08:31:57Z</time>
      </trkpt>
      <trkpt lat="46.6666" lon="0.47305">
        <ele>98.2</ele>
        <time>2023-02-26T08:31:58Z</time>
      </trkpt>
      <trkpt lat="46.66655" lon="0.47304">
        <ele>98.6</ele>
        <time>2023-02-26T08:32:00Z</time>
      </trkpt>
      <trkpt lat="46.66645" lon="0.4729">
        <ele>98.4</ele>
        <time>2023-02-26T08:32:03Z</time>
      </trkpt>
      <trkpt lat="46.66643" lon="0.47284">
        <ele>98.6</ele>
        <time>2023-02-26T08:32:04Z</time>
      </trkpt>
      <trkpt lat="46.6664" lon="0.47277">
        <ele>98.6</ele>
        <time>2023-02-26T08:32:05Z</time>
      </trkpt>
      <trkpt lat="46.66624" lon="0.47253">
        <ele>98.2</ele>
        <time>2023-02-26T08:32:09Z</time>
      </trkpt>
      <trkpt lat="46.6662" lon="0.47248">
        <ele>98</ele>
        <time>2023-02-26T08:32:10Z</time>
      </trkpt>
      <trkpt lat="46.66609" lon="0.47235">
        <ele>97.4</ele>
        <time>2023-02-26T08:32:13Z</time>
      </trkpt>
      <trkpt lat="46.66608" lon="0.4723">
        <ele>97</ele>
        <time>2023-02-26T08:32:14Z</time>
      </trkpt>
      <trkpt lat="46.66609" lon="0.47225">
        <ele>96.6</ele>
        <time>2023-02-26T08:32:15Z</time>
      </trkpt>
      <trkpt lat="46.66612" lon="0.4722">
        <ele>96.6</ele>
        <time>2023-02-26T08:32:16Z</time>
      </trkpt>
      <trkpt lat="46.66618" lon="0.47212">
        <ele>95.8</ele>
        <time>2023-02-26T08:32:18Z</time>
      </trkpt>
      <trkpt lat="46.66627" lon="0.472">
        <ele>95.4</ele>
        <time>2023-02-26T08:32:21Z</time>
      </trkpt>
      <trkpt lat="46.6663" lon="0.47197">
        <ele>95.2</ele>
        <time>2023-02-26T08:32:22Z</time>
      </trkpt>
      <trkpt lat="46.6664" lon="0.47183">
        <ele>94.8</ele>
        <time>2023-02-26T08:32:26Z</time>
      </trkpt>
      <trkpt lat="46.6664" lon="0.47179">
        <ele>94.6</ele>
        <time>2023-02-26T08:32:27Z</time>
      </trkpt>
      <trkpt lat="46.66633" lon="0.47167">
        <ele>94.6</ele>
        <time>2023-02-26T08:32:30Z</time>
      </trkpt>
      <trkpt lat="46.66612" lon="0.47135">
        <ele>93.8</ele>
        <time>2023-02-26T08:32:36Z</time>
      </trkpt>
      <trkpt lat="46.66609" lon="0.47131">
        <ele>94</ele>
        <time>2023-02-26T08:32:37Z</time>
      </trkpt>
      <trkpt lat="46.66605" lon="0.4712">
        <ele>94.2</ele>
        <time>2023-02-26T08:32:39Z</time>
      </trkpt>
      <trkpt lat="46.66602" lon="0.47109">
        <ele>94.4</ele>
        <time>2023-02-26T08:32:41Z</time>
      </trkpt>
      <trkpt lat="46.66593" lon="0.47077">
        <ele>94.6</ele>
        <time>2023-02-26T08:32:47Z</time>
      </trkpt>
      <trkpt lat="46.66582" lon="0.4704">
        <ele>94.8</ele>
        <time>2023-02-26T08:32:55Z</time>
      </trkpt>
      <trkpt lat="46.66571" lon="0.47015">
        <ele>95.8</ele>
        <time>2023-02-26T08:33:01Z</time>
      </trkpt>
      <trkpt lat="46.66569" lon="0.47011">
        <ele>96</ele>
        <time>2023-02-26T08:33:02Z</time>
      </trkpt>
      <trkpt lat="46.66557" lon="0.46983">
        <ele>96.8</ele>
        <time>2023-02-26T08:33:09Z</time>
      </trkpt>
      <trkpt lat="46.66546" lon="0.46962">
        <ele>97.2</ele>
        <time>2023-02-26T08:33:15Z</time>
      </trkpt>
      <trkpt lat="46.66535" lon="0.46946">
        <ele>97.4</ele>
        <time>2023-02-26T08:33:21Z</time>
      </trkpt>
      <trkpt lat="46.66519" lon="0.46943">
        <ele>97.6</ele>
        <time>2023-02-26T08:33:27Z</time>
      </trkpt>
      <trkpt lat="46.66516" lon="0.46942">
        <ele>98</ele>
        <time>2023-02-26T08:33:28Z</time>
      </trkpt>
      <trkpt lat="46.66506" lon="0.46936">
        <ele>98.4</ele>
        <time>2023-02-26T08:33:32Z</time>
      </trkpt>
      <trkpt lat="46.66505" lon="0.46923">
        <ele>98.8</ele>
        <time>2023-02-26T08:33:36Z</time>
      </trkpt>
      <trkpt lat="46.66506" lon="0.46915">
        <ele>99</ele>
        <time>2023-02-26T08:33:38Z</time>
      </trkpt>
      <trkpt lat="46.66512" lon="0.469">
        <ele>99.2</ele>
        <time>2023-02-26T08:33:42Z</time>
      </trkpt>
      <trkpt lat="46.66514" lon="0.46874">
        <ele>98</ele>
        <time>2023-02-26T08:33:48Z</time>
      </trkpt>
      <trkpt lat="46.66504" lon="0.4686">
        <ele>97.8</ele>
        <time>2023-02-26T08:33:52Z</time>
      </trkpt>
      <trkpt lat="46.66492" lon="0.46851">
        <ele>97.4</ele>
        <time>2023-02-26T08:33:57Z</time>
      </trkpt>
      <trkpt lat="46.66477" lon="0.46842">
        <ele>97.8</ele>
        <time>2023-02-26T08:34:02Z</time>
      </trkpt>
      <trkpt lat="46.6647" lon="0.46838">
        <ele>97.8</ele>
        <time>2023-02-26T08:34:04Z</time>
      </trkpt>
      <trkpt lat="46.66453" lon="0.46828">
        <ele>97.8</ele>
        <time>2023-02-26T08:34:10Z</time>
      </trkpt>
      <trkpt lat="46.66434" lon="0.46813">
        <ele>98.2</ele>
        <time>2023-02-26T08:34:17Z</time>
      </trkpt>
      <trkpt lat="46.66421" lon="0.46803">
        <ele>98</ele>
        <time>2023-02-26T08:34:21Z</time>
      </trkpt>
      <trkpt lat="46.66408" lon="0.46792">
        <ele>97.2</ele>
        <time>2023-02-26T08:34:26Z</time>
      </trkpt>
      <trkpt lat="46.66399" lon="0.46788">
        <ele>96.8</ele>
        <time>2023-02-26T08:34:29Z</time>
      </trkpt>
      <trkpt lat="46.66389" lon="0.46783">
        <ele>95.8</ele>
        <time>2023-02-26T08:34:32Z</time>
      </trkpt>
      <trkpt lat="46.66386" lon="0.46782">
        <ele>95.8</ele>
        <time>2023-02-26T08:34:33Z</time>
      </trkpt>
      <trkpt lat="46.66378" lon="0.46778">
        <ele>95</ele>
        <time>2023-02-26T08:34:38Z</time>
      </trkpt>
      <trkpt lat="46.66365" lon="0.46776">
        <ele>95</ele>
        <time>2023-02-26T08:34:44Z</time>
      </trkpt>
      <trkpt lat="46.66363" lon="0.46776">
        <ele>94.6</ele>
        <time>2023-02-26T08:34:45Z</time>
      </trkpt>
      <trkpt lat="46.6635" lon="0.4677">
        <ele>94.6</ele>
        <time>2023-02-26T08:34:50Z</time>
      </trkpt>
      <trkpt lat="46.66332" lon="0.46764">
        <ele>95.4</ele>
        <time>2023-02-26T08:34:56Z</time>
      </trkpt>
      <trkpt lat="46.6633" lon="0.46764">
        <ele>95.6</ele>
        <time>2023-02-26T08:34:57Z</time>
      </trkpt>
      <trkpt lat="46.66315" lon="0.46759">
        <ele>96.2</ele>
        <time>2023-02-26T08:35:02Z</time>
      </trkpt>
      <trkpt lat="46.663" lon="0.46752">
        <ele>95.6</ele>
        <time>2023-02-26T08:35:07Z</time>
      </trkpt>
      <trkpt lat="46.66283" lon="0.46741">
        <ele>95.4</ele>
        <time>2023-02-26T08:35:13Z</time>
      </trkpt>
      <trkpt lat="46.6627" lon="0.46734">
        <ele>95</ele>
        <time>2023-02-26T08:35:18Z</time>
      </trkpt>
      <trkpt lat="46.66252" lon="0.46728">
        <ele>95</ele>
        <time>2023-02-26T08:35:24Z</time>
      </trkpt>
      <trkpt lat="46.66235" lon="0.46721">
        <ele>95.4</ele>
        <time>2023-02-26T08:35:29Z</time>
      </trkpt>
      <trkpt lat="46.66217" lon="0.46714">
        <ele>94.8</ele>
        <time>2023-02-26T08:35:34Z</time>
      </trkpt>
      <trkpt lat="46.662" lon="0.46708">
        <ele>94.8</ele>
        <time>2023-02-26T08:35:39Z</time>
      </trkpt>
      <trkpt lat="46.66193" lon="0.46705">
        <ele>94.6</ele>
        <time>2023-02-26T08:35:41Z</time>
      </trkpt>
      <trkpt lat="46.66179" lon="0.46699">
        <ele>94.4</ele>
        <time>2023-02-26T08:35:45Z</time>
      </trkpt>
      <trkpt lat="46.6616" lon="0.46692">
        <ele>94.4</ele>
        <time>2023-02-26T08:35:51Z</time>
      </trkpt>
      <trkpt lat="46.6614" lon="0.46687">
        <ele>94.2</ele>
        <time>2023-02-26T08:35:57Z</time>
      </trkpt>
      <trkpt lat="46.66123" lon="0.46685">
        <ele>94.8</ele>
        <time>2023-02-26T08:36:02Z</time>
      </trkpt>
      <trkpt lat="46.66102" lon="0.46685">
        <ele>95</ele>
        <time>2023-02-26T08:36:09Z</time>
      </trkpt>
      <trkpt lat="46.66088" lon="0.46685">
        <ele>95.6</ele>
        <time>2023-02-26T08:36:14Z</time>
      </trkpt>
      <trkpt lat="46.66082" lon="0.46683">
        <ele>96.2</ele>
        <time>2023-02-26T08:36:16Z</time>
      </trkpt>
      <trkpt lat="46.66073" lon="0.46683">
        <ele>96.8</ele>
        <time>2023-02-26T08:36:20Z</time>
      </trkpt>
      <trkpt lat="46.66068" lon="0.46683">
        <ele>97</ele>
        <time>2023-02-26T08:36:22Z</time>
      </trkpt>
      <trkpt lat="46.66051" lon="0.46678">
        <ele>97.2</ele>
        <time>2023-02-26T08:36:29Z</time>
      </trkpt>
      <trkpt lat="46.66047" lon="0.46677">
        <ele>97.8</ele>
        <time>2023-02-26T08:36:34Z</time>
      </trkpt>
      <trkpt lat="46.66036" lon="0.46675">
        <ele>97.8</ele>
        <time>2023-02-26T08:36:45Z</time>
      </trkpt>
      <trkpt lat="46.66029" lon="0.46672">
        <ele>97.8</ele>
        <time>2023-02-26T08:36:49Z</time>
      </trkpt>
      <trkpt lat="46.66022" lon="0.46669">
        <ele>97.8</ele>
        <time>2023-02-26T08:36:53Z</time>
      </trkpt>
      <trkpt lat="46.66013" lon="0.46666">
        <ele>98.2</ele>
        <time>2023-02-26T08:36:57Z</time>
      </trkpt>
      <trkpt lat="46.66011" lon="0.46661">
        <ele>98</ele>
        <time>2023-02-26T08:36:59Z</time>
      </trkpt>
      <trkpt lat="46.6601" lon="0.46643">
        <ele>97.4</ele>
        <time>2023-02-26T08:37:05Z</time>
      </trkpt>
      <trkpt lat="46.66009" lon="0.46635">
        <ele>97.2</ele>
        <time>2023-02-26T08:37:08Z</time>
      </trkpt>
      <trkpt lat="46.66009" lon="0.4663">
        <ele>97.2</ele>
        <time>2023-02-26T08:37:10Z</time>
      </trkpt>
      <trkpt lat="46.66007" lon="0.46623">
        <ele>97.2</ele>
        <time>2023-02-26T08:37:12Z</time>
      </trkpt>
      <trkpt lat="46.66001" lon="0.46612">
        <ele>97.2</ele>
        <time>2023-02-26T08:37:15Z</time>
      </trkpt>
      <trkpt lat="46.65995" lon="0.466">
        <ele>96.8</ele>
        <time>2023-02-26T08:37:18Z</time>
      </trkpt>
      <trkpt lat="46.6599" lon="0.46592">
        <ele>96.2</ele>
        <time>2023-02-26T08:37:21Z</time>
      </trkpt>
      <trkpt lat="46.65986" lon="0.46584">
        <ele>96</ele>
        <time>2023-02-26T08:37:24Z</time>
      </trkpt>
      <trkpt lat="46.65985" lon="0.46579">
        <ele>95.8</ele>
        <time>2023-02-26T08:37:26Z</time>
      </trkpt>
      <trkpt lat="46.65983" lon="0.46572">
        <ele>95.8</ele>
        <time>2023-02-26T08:37:28Z</time>
      </trkpt>
      <trkpt lat="46.65978" lon="0.46565">
        <ele>95.4</ele>
        <time>2023-02-26T08:37:30Z</time>
      </trkpt>
      <trkpt lat="46.65961" lon="0.46546">
        <ele>94.6</ele>
        <time>2023-02-26T08:37:37Z</time>
      </trkpt>
      <trkpt lat="46.65952" lon="0.46537">
        <ele>94.4</ele>
        <time>2023-02-26T08:37:41Z</time>
      </trkpt>
      <trkpt lat="46.65948" lon="0.46533">
        <ele>94.4</ele>
        <time>2023-02-26T08:37:43Z</time>
      </trkpt>
      <trkpt lat="46.65934" lon="0.46521">
        <ele>94.4</ele>
        <time>2023-02-26T08:37:49Z</time>
      </trkpt>
      <trkpt lat="46.6593" lon="0.46517">
        <ele>94.2</ele>
        <time>2023-02-26T08:37:52Z</time>
      </trkpt>
      <trkpt lat="46.65926" lon="0.46516">
        <ele>94.2</ele>
        <time>2023-02-26T08:37:54Z</time>
      </trkpt>
      <trkpt lat="46.65923" lon="0.46519">
        <ele>94.2</ele>
        <time>2023-02-26T08:37:56Z</time>
      </trkpt>
      <trkpt lat="46.65921" lon="0.46523">
        <ele>94.4</ele>
        <time>2023-02-26T08:37:57Z</time>
      </trkpt>
      <trkpt lat="46.65912" lon="0.46552">
        <ele>95.4</ele>
        <time>2023-02-26T08:38:02Z</time>
      </trkpt>
      <trkpt lat="46.65908" lon="0.46564">
        <ele>95.6</ele>
        <time>2023-02-26T08:38:04Z</time>
      </trkpt>
      <trkpt lat="46.65904" lon="0.46574">
        <ele>95.6</ele>
        <time>2023-02-26T08:38:06Z</time>
      </trkpt>
      <trkpt lat="46.659" lon="0.46582">
        <ele>95</ele>
        <time>2023-02-26T08:38:08Z</time>
      </trkpt>
      <trkpt lat="46.65895" lon="0.46585">
        <ele>95.4</ele>
        <time>2023-02-26T08:38:10Z</time>
      </trkpt>
      <trkpt lat="46.65893" lon="0.46584">
        <ele>95.2</ele>
        <time>2023-02-26T08:38:11Z</time>
      </trkpt>
      <trkpt lat="46.65885" lon="0.46575">
        <ele>94.4</ele>
        <time>2023-02-26T08:38:15Z</time>
      </trkpt>
      <trkpt lat="46.65884" lon="0.46574">
        <ele>94</ele>
        <time>2023-02-26T08:38:16Z</time>
      </trkpt>
      <trkpt lat="46.65883" lon="0.46573">
        <ele>93.8</ele>
        <time>2023-02-26T08:38:18Z</time>
      </trkpt>
      <trkpt lat="46.65883" lon="0.46573">
        <ele>93.8</ele>
        <time>2023-02-26T08:38:19Z</time>
      </trkpt>
      <trkpt lat="46.6588" lon="0.46565">
        <ele>93.6</ele>
        <time>2023-02-26T08:38:24Z</time>
      </trkpt>
      <trkpt lat="46.65881" lon="0.46552">
        <ele>93.4</ele>
        <time>2023-02-26T08:38:29Z</time>
      </trkpt>
      <trkpt lat="46.65881" lon="0.4655">
        <ele>93.2</ele>
        <time>2023-02-26T08:38:30Z</time>
      </trkpt>
      <trkpt lat="46.65878" lon="0.46538">
        <ele>93.8</ele>
        <time>2023-02-26T08:38:35Z</time>
      </trkpt>
      <trkpt lat="46.65874" lon="0.46517">
        <ele>94.4</ele>
        <time>2023-02-26T08:38:43Z</time>
      </trkpt>
      <trkpt lat="46.65868" lon="0.46499">
        <ele>95.2</ele>
        <time>2023-02-26T08:38:49Z</time>
      </trkpt>
      <trkpt lat="46.65858" lon="0.46489">
        <ele>95.4</ele>
        <time>2023-02-26T08:38:54Z</time>
      </trkpt>
      <trkpt lat="46.65849" lon="0.4648">
        <ele>95.6</ele>
        <time>2023-02-26T08:38:58Z</time>
      </trkpt>
      <trkpt lat="46.65846" lon="0.46479">
        <ele>95.6</ele>
        <time>2023-02-26T08:38:59Z</time>
      </trkpt>
      <trkpt lat="46.6583" lon="0.4647">
        <ele>96</ele>
        <time>2023-02-26T08:39:05Z</time>
      </trkpt>
      <trkpt lat="46.65817" lon="0.46457">
        <ele>96</ele>
        <time>2023-02-26T08:39:11Z</time>
      </trkpt>
      <trkpt lat="46.65808" lon="0.46442">
        <ele>96.2</ele>
        <time>2023-02-26T08:39:17Z</time>
      </trkpt>
      <trkpt lat="46.65807" lon="0.46432">
        <ele>96.6</ele>
        <time>2023-02-26T08:39:21Z</time>
      </trkpt>
      <trkpt lat="46.65807" lon="0.46429">
        <ele>96.6</ele>
        <time>2023-02-26T08:39:22Z</time>
      </trkpt>
      <trkpt lat="46.65801" lon="0.46409">
        <ele>96.8</ele>
        <time>2023-02-26T08:39:27Z</time>
      </trkpt>
      <trkpt lat="46.65798" lon="0.46405">
        <ele>97</ele>
        <time>2023-02-26T08:39:28Z</time>
      </trkpt>
      <trkpt lat="46.65791" lon="0.464">
        <ele>96.8</ele>
        <time>2023-02-26T08:39:30Z</time>
      </trkpt>
      <trkpt lat="46.65788" lon="0.46393">
        <ele>96.6</ele>
        <time>2023-02-26T08:39:32Z</time>
      </trkpt>
      <trkpt lat="46.6579" lon="0.46374">
        <ele>96.2</ele>
        <time>2023-02-26T08:39:38Z</time>
      </trkpt>
      <trkpt lat="46.65791" lon="0.46371">
        <ele>96</ele>
        <time>2023-02-26T08:39:39Z</time>
      </trkpt>
      <trkpt lat="46.65793" lon="0.46362">
        <ele>95.6</ele>
        <time>2023-02-26T08:39:41Z</time>
      </trkpt>
      <trkpt lat="46.65793" lon="0.46357">
        <ele>95.6</ele>
        <time>2023-02-26T08:39:42Z</time>
      </trkpt>
      <trkpt lat="46.6579" lon="0.46336">
        <ele>95.2</ele>
        <time>2023-02-26T08:39:47Z</time>
      </trkpt>
      <trkpt lat="46.65787" lon="0.46316">
        <ele>94.8</ele>
        <time>2023-02-26T08:39:52Z</time>
      </trkpt>
      <trkpt lat="46.65787" lon="0.46308">
        <ele>94.6</ele>
        <time>2023-02-26T08:39:54Z</time>
      </trkpt>
      <trkpt lat="46.65784" lon="0.46284">
        <ele>94.4</ele>
        <time>2023-02-26T08:39:59Z</time>
      </trkpt>
      <trkpt lat="46.65774" lon="0.4626">
        <ele>94.6</ele>
        <time>2023-02-26T08:40:05Z</time>
      </trkpt>
      <trkpt lat="46.65767" lon="0.46242">
        <ele>95</ele>
        <time>2023-02-26T08:40:10Z</time>
      </trkpt>
      <trkpt lat="46.65762" lon="0.46229">
        <ele>95.2</ele>
        <time>2023-02-26T08:40:15Z</time>
      </trkpt>
      <trkpt lat="46.65751" lon="0.46209">
        <ele>95.2</ele>
        <time>2023-02-26T08:40:22Z</time>
      </trkpt>
      <trkpt lat="46.65739" lon="0.46188">
        <ele>95</ele>
        <time>2023-02-26T08:40:28Z</time>
      </trkpt>
      <trkpt lat="46.65726" lon="0.4618">
        <ele>95</ele>
        <time>2023-02-26T08:40:33Z</time>
      </trkpt>
      <trkpt lat="46.65711" lon="0.46168">
        <ele>95</ele>
        <time>2023-02-26T08:40:39Z</time>
      </trkpt>
      <trkpt lat="46.65706" lon="0.46162">
        <ele>95</ele>
        <time>2023-02-26T08:40:41Z</time>
      </trkpt>
      <trkpt lat="46.657" lon="0.46153">
        <ele>95.2</ele>
        <time>2023-02-26T08:40:44Z</time>
      </trkpt>
      <trkpt lat="46.65684" lon="0.46139">
        <ele>95</ele>
        <time>2023-02-26T08:40:51Z</time>
      </trkpt>
      <trkpt lat="46.65675" lon="0.46129">
        <ele>94.8</ele>
        <time>2023-02-26T08:40:56Z</time>
      </trkpt>
      <trkpt lat="46.65667" lon="0.46116">
        <ele>95.2</ele>
        <time>2023-02-26T08:41:01Z</time>
      </trkpt>
      <trkpt lat="46.65651" lon="0.46103">
        <ele>95.4</ele>
        <time>2023-02-26T08:41:07Z</time>
      </trkpt>
      <trkpt lat="46.6564" lon="0.46091">
        <ele>95.4</ele>
        <time>2023-02-26T08:41:13Z</time>
      </trkpt>
      <trkpt lat="46.65637" lon="0.46083">
        <ele>95.4</ele>
        <time>2023-02-26T08:41:16Z</time>
      </trkpt>
      <trkpt lat="46.65636" lon="0.46081">
        <ele>95.6</ele>
        <time>2023-02-26T08:41:17Z</time>
      </trkpt>
      <trkpt lat="46.65632" lon="0.46076">
        <ele>95.6</ele>
        <time>2023-02-26T08:41:19Z</time>
      </trkpt>
      <trkpt lat="46.65619" lon="0.46064">
        <ele>95.8</ele>
        <time>2023-02-26T08:41:24Z</time>
      </trkpt>
      <trkpt lat="46.65618" lon="0.46061">
        <ele>96</ele>
        <time>2023-02-26T08:41:25Z</time>
      </trkpt>
      <trkpt lat="46.65617" lon="0.46059">
        <ele>96</ele>
        <time>2023-02-26T08:41:26Z</time>
      </trkpt>
      <trkpt lat="46.65617" lon="0.46051">
        <ele>96.2</ele>
        <time>2023-02-26T08:41:29Z</time>
      </trkpt>
      <trkpt lat="46.65613" lon="0.46039">
        <ele>96.4</ele>
        <time>2023-02-26T08:41:33Z</time>
      </trkpt>
      <trkpt lat="46.65611" lon="0.46035">
        <ele>96.4</ele>
        <time>2023-02-26T08:41:35Z</time>
      </trkpt>
      <trkpt lat="46.6561" lon="0.46032">
        <ele>96.6</ele>
        <time>2023-02-26T08:41:36Z</time>
      </trkpt>
      <trkpt lat="46.65606" lon="0.46027">
        <ele>96.4</ele>
        <time>2023-02-26T08:41:38Z</time>
      </trkpt>
      <trkpt lat="46.65595" lon="0.46021">
        <ele>96.2</ele>
        <time>2023-02-26T08:41:43Z</time>
      </trkpt>
      <trkpt lat="46.6559" lon="0.46021">
        <ele>96.2</ele>
        <time>2023-02-26T08:41:45Z</time>
      </trkpt>
      <trkpt lat="46.65588" lon="0.46022">
        <ele>96</ele>
        <time>2023-02-26T08:41:47Z</time>
      </trkpt>
      <trkpt lat="46.65585" lon="0.46022">
        <ele>96</ele>
        <time>2023-02-26T08:41:48Z</time>
      </trkpt>
      <trkpt lat="46.65583" lon="0.46022">
        <ele>96</ele>
        <time>2023-02-26T08:41:49Z</time>
      </trkpt>
      <trkpt lat="46.6557" lon="0.46022">
        <ele>96</ele>
        <time>2023-02-26T08:41:54Z</time>
      </trkpt>
      <trkpt lat="46.65553" lon="0.46017">
        <ele>96.8</ele>
        <time>2023-02-26T08:42:01Z</time>
      </trkpt>
      <trkpt lat="46.65551" lon="0.46013">
        <ele>96.8</ele>
        <time>2023-02-26T08:42:03Z</time>
      </trkpt>
      <trkpt lat="46.65552" lon="0.4601">
        <ele>97</ele>
        <time>2023-02-26T08:42:05Z</time>
      </trkpt>
      <trkpt lat="46.65553" lon="0.46005">
        <ele>97.2</ele>
        <time>2023-02-26T08:42:07Z</time>
      </trkpt>
      <trkpt lat="46.65551" lon="0.45995">
        <ele>97.4</ele>
        <time>2023-02-26T08:42:10Z</time>
      </trkpt>
      <trkpt lat="46.65544" lon="0.45986">
        <ele>97.2</ele>
        <time>2023-02-26T08:42:13Z</time>
      </trkpt>
      <trkpt lat="46.65541" lon="0.45984">
        <ele>97.2</ele>
        <time>2023-02-26T08:42:14Z</time>
      </trkpt>
      <trkpt lat="46.65525" lon="0.45979">
        <ele>97.4</ele>
        <time>2023-02-26T08:42:20Z</time>
      </trkpt>
      <trkpt lat="46.6552" lon="0.45975">
        <ele>97.4</ele>
        <time>2023-02-26T08:42:23Z</time>
      </trkpt>
      <trkpt lat="46.6552" lon="0.45973">
        <ele>97.4</ele>
        <time>2023-02-26T08:42:24Z</time>
      </trkpt>
      <trkpt lat="46.65519" lon="0.45971">
        <ele>97.6</ele>
        <time>2023-02-26T08:42:25Z</time>
      </trkpt>
      <trkpt lat="46.65514" lon="0.45969">
        <ele>97.8</ele>
        <time>2023-02-26T08:42:28Z</time>
      </trkpt>
      <trkpt lat="46.65509" lon="0.45968">
        <ele>97.6</ele>
        <time>2023-02-26T08:42:30Z</time>
      </trkpt>
      <trkpt lat="46.65503" lon="0.45963">
        <ele>97.6</ele>
        <time>2023-02-26T08:42:33Z</time>
      </trkpt>
      <trkpt lat="46.65495" lon="0.45955">
        <ele>97.6</ele>
        <time>2023-02-26T08:42:37Z</time>
      </trkpt>
      <trkpt lat="46.6549" lon="0.45953">
        <ele>97.6</ele>
        <time>2023-02-26T08:42:39Z</time>
      </trkpt>
      <trkpt lat="46.65478" lon="0.4595">
        <ele>98</ele>
        <time>2023-02-26T08:42:44Z</time>
      </trkpt>
      <trkpt lat="46.65475" lon="0.45951">
        <ele>98.2</ele>
        <time>2023-02-26T08:42:45Z</time>
      </trkpt>
      <trkpt lat="46.65468" lon="0.45955">
        <ele>98.4</ele>
        <time>2023-02-26T08:42:49Z</time>
      </trkpt>
      <trkpt lat="46.65463" lon="0.45959">
        <ele>98.6</ele>
        <time>2023-02-26T08:42:52Z</time>
      </trkpt>
      <trkpt lat="46.65456" lon="0.45961">
        <ele>99</ele>
        <time>2023-02-26T08:42:55Z</time>
      </trkpt>
      <trkpt lat="46.65445" lon="0.45963">
        <ele>99.6</ele>
        <time>2023-02-26T08:42:59Z</time>
      </trkpt>
      <trkpt lat="46.65444" lon="0.45962">
        <ele>99.8</ele>
        <time>2023-02-26T08:43:00Z</time>
      </trkpt>
      <trkpt lat="46.65433" lon="0.45961">
        <ele>100.2</ele>
        <time>2023-02-26T08:43:05Z</time>
      </trkpt>
      <trkpt lat="46.65419" lon="0.45964">
        <ele>100.2</ele>
        <time>2023-02-26T08:43:10Z</time>
      </trkpt>
      <trkpt lat="46.65403" lon="0.45969">
        <ele>100.8</ele>
        <time>2023-02-26T08:43:16Z</time>
      </trkpt>
      <trkpt lat="46.65394" lon="0.45977">
        <ele>101.4</ele>
        <time>2023-02-26T08:43:21Z</time>
      </trkpt>
      <trkpt lat="46.65393" lon="0.45985">
        <ele>101.8</ele>
        <time>2023-02-26T08:43:24Z</time>
      </trkpt>
      <trkpt lat="46.65389" lon="0.45991">
        <ele>102</ele>
        <time>2023-02-26T08:43:26Z</time>
      </trkpt>
      <trkpt lat="46.65381" lon="0.46004">
        <ele>102.2</ele>
        <time>2023-02-26T08:43:31Z</time>
      </trkpt>
      <trkpt lat="46.65372" lon="0.46019">
        <ele>102.4</ele>
        <time>2023-02-26T08:43:35Z</time>
      </trkpt>
      <trkpt lat="46.65367" lon="0.46027">
        <ele>103</ele>
        <time>2023-02-26T08:43:37Z</time>
      </trkpt>
      <trkpt lat="46.65363" lon="0.46032">
        <ele>103.4</ele>
        <time>2023-02-26T08:43:39Z</time>
      </trkpt>
      <trkpt lat="46.65364" lon="0.46045">
        <ele>104</ele>
        <time>2023-02-26T08:43:42Z</time>
      </trkpt>
      <trkpt lat="46.65365" lon="0.46051">
        <ele>104.4</ele>
        <time>2023-02-26T08:43:44Z</time>
      </trkpt>
      <trkpt lat="46.65365" lon="0.46051">
        <ele>104.6</ele>
        <time>2023-02-26T08:43:45Z</time>
      </trkpt>
      <trkpt lat="46.65363" lon="0.46058">
        <ele>104.6</ele>
        <time>2023-02-26T08:43:46Z</time>
      </trkpt>
      <trkpt lat="46.6536" lon="0.46067">
        <ele>104.4</ele>
        <time>2023-02-26T08:43:48Z</time>
      </trkpt>
      <trkpt lat="46.65354" lon="0.46082">
        <ele>105</ele>
        <time>2023-02-26T08:43:51Z</time>
      </trkpt>
      <trkpt lat="46.65351" lon="0.46086">
        <ele>105.2</ele>
        <time>2023-02-26T08:43:52Z</time>
      </trkpt>
      <trkpt lat="46.65349" lon="0.46091">
        <ele>105.4</ele>
        <time>2023-02-26T08:43:53Z</time>
      </trkpt>
      <trkpt lat="46.65345" lon="0.46106">
        <ele>105.6</ele>
        <time>2023-02-26T08:43:56Z</time>
      </trkpt>
      <trkpt lat="46.65344" lon="0.4611">
        <ele>105.6</ele>
        <time>2023-02-26T08:43:57Z</time>
      </trkpt>
      <trkpt lat="46.65334" lon="0.46131">
        <ele>105.8</ele>
        <time>2023-02-26T08:44:02Z</time>
      </trkpt>
      <trkpt lat="46.6533" lon="0.46141">
        <ele>106.4</ele>
        <time>2023-02-26T08:44:04Z</time>
      </trkpt>
      <trkpt lat="46.65324" lon="0.46153">
        <ele>106.8</ele>
        <time>2023-02-26T08:44:07Z</time>
      </trkpt>
      <trkpt lat="46.65318" lon="0.46162">
        <ele>107.6</ele>
        <time>2023-02-26T08:44:10Z</time>
      </trkpt>
      <trkpt lat="46.65307" lon="0.46172">
        <ele>108.2</ele>
        <time>2023-02-26T08:44:13Z</time>
      </trkpt>
      <trkpt lat="46.65299" lon="0.46182">
        <ele>108.8</ele>
        <time>2023-02-26T08:44:16Z</time>
      </trkpt>
      <trkpt lat="46.65295" lon="0.46191">
        <ele>109</ele>
        <time>2023-02-26T08:44:18Z</time>
      </trkpt>
      <trkpt lat="46.65293" lon="0.46201">
        <ele>109</ele>
        <time>2023-02-26T08:44:20Z</time>
      </trkpt>
      <trkpt lat="46.65296" lon="0.46205">
        <ele>109</ele>
        <time>2023-02-26T08:44:22Z</time>
      </trkpt>
      <trkpt lat="46.65298" lon="0.46211">
        <ele>108.8</ele>
        <time>2023-02-26T08:44:24Z</time>
      </trkpt>
      <trkpt lat="46.65298" lon="0.46214">
        <ele>108.8</ele>
        <time>2023-02-26T08:44:25Z</time>
      </trkpt>
      <trkpt lat="46.65296" lon="0.46234">
        <ele>109</ele>
        <time>2023-02-26T08:44:29Z</time>
      </trkpt>
      <trkpt lat="46.65297" lon="0.4624">
        <ele>109.2</ele>
        <time>2023-02-26T08:44:30Z</time>
      </trkpt>
      <trkpt lat="46.65303" lon="0.46258">
        <ele>109</ele>
        <time>2023-02-26T08:44:33Z</time>
      </trkpt>
      <trkpt lat="46.65307" lon="0.46269">
        <ele>108.6</ele>
        <time>2023-02-26T08:44:35Z</time>
      </trkpt>
      <trkpt lat="46.65313" lon="0.46288">
        <ele>108</ele>
        <time>2023-02-26T08:44:38Z</time>
      </trkpt>
      <trkpt lat="46.65315" lon="0.46293">
        <ele>108</ele>
        <time>2023-02-26T08:44:39Z</time>
      </trkpt>
      <trkpt lat="46.65322" lon="0.46303">
        <ele>107.8</ele>
        <time>2023-02-26T08:44:41Z</time>
      </trkpt>
      <trkpt lat="46.65325" lon="0.46309">
        <ele>107.8</ele>
        <time>2023-02-26T08:44:42Z</time>
      </trkpt>
      <trkpt lat="46.65335" lon="0.46331">
        <ele>107.2</ele>
        <time>2023-02-26T08:44:46Z</time>
      </trkpt>
      <trkpt lat="46.65335" lon="0.46336">
        <ele>106.8</ele>
        <time>2023-02-26T08:44:47Z</time>
      </trkpt>
      <trkpt lat="46.65334" lon="0.4634">
        <ele>106.8</ele>
        <time>2023-02-26T08:44:48Z</time>
      </trkpt>
      <trkpt lat="46.65327" lon="0.46353">
        <ele>106.2</ele>
        <time>2023-02-26T08:44:51Z</time>
      </trkpt>
      <trkpt lat="46.653" lon="0.4639">
        <ele>106.2</ele>
        <time>2023-02-26T08:44:58Z</time>
      </trkpt>
      <trkpt lat="46.65282" lon="0.4641">
        <ele>105.6</ele>
        <time>2023-02-26T08:45:02Z</time>
      </trkpt>
      <trkpt lat="46.65274" lon="0.46419">
        <ele>105.6</ele>
        <time>2023-02-26T08:45:04Z</time>
      </trkpt>
      <trkpt lat="46.65263" lon="0.46432">
        <ele>105.4</ele>
        <time>2023-02-26T08:45:07Z</time>
      </trkpt>
      <trkpt lat="46.65256" lon="0.46441">
        <ele>105</ele>
        <time>2023-02-26T08:45:09Z</time>
      </trkpt>
      <trkpt lat="46.65243" lon="0.46454">
        <ele>104.8</ele>
        <time>2023-02-26T08:45:12Z</time>
      </trkpt>
      <trkpt lat="46.65235" lon="0.46462">
        <ele>104.4</ele>
        <time>2023-02-26T08:45:14Z</time>
      </trkpt>
      <trkpt lat="46.65231" lon="0.46467">
        <ele>104.2</ele>
        <time>2023-02-26T08:45:15Z</time>
      </trkpt>
      <trkpt lat="46.65216" lon="0.46484">
        <ele>103.6</ele>
        <time>2023-02-26T08:45:19Z</time>
      </trkpt>
      <trkpt lat="46.65212" lon="0.46488">
        <ele>103.4</ele>
        <time>2023-02-26T08:45:20Z</time>
      </trkpt>
      <trkpt lat="46.65208" lon="0.46493">
        <ele>103.2</ele>
        <time>2023-02-26T08:45:21Z</time>
      </trkpt>
      <trkpt lat="46.65189" lon="0.46515">
        <ele>103</ele>
        <time>2023-02-26T08:45:26Z</time>
      </trkpt>
      <trkpt lat="46.65181" lon="0.46522">
        <ele>103.2</ele>
        <time>2023-02-26T08:45:28Z</time>
      </trkpt>
      <trkpt lat="46.65169" lon="0.46538">
        <ele>103.6</ele>
        <time>2023-02-26T08:45:32Z</time>
      </trkpt>
      <trkpt lat="46.65158" lon="0.46549">
        <ele>104.4</ele>
        <time>2023-02-26T08:45:35Z</time>
      </trkpt>
      <trkpt lat="46.65151" lon="0.46557">
        <ele>104.8</ele>
        <time>2023-02-26T08:45:37Z</time>
      </trkpt>
      <trkpt lat="46.65126" lon="0.46586">
        <ele>105.4</ele>
        <time>2023-02-26T08:45:43Z</time>
      </trkpt>
      <trkpt lat="46.6512" lon="0.46591">
        <ele>105.2</ele>
        <time>2023-02-26T08:45:45Z</time>
      </trkpt>
      <trkpt lat="46.65115" lon="0.46592">
        <ele>105.2</ele>
        <time>2023-02-26T08:45:47Z</time>
      </trkpt>
      <trkpt lat="46.65105" lon="0.46598">
        <ele>105</ele>
        <time>2023-02-26T08:45:52Z</time>
      </trkpt>
      <trkpt lat="46.65104" lon="0.46599">
        <ele>105.2</ele>
        <time>2023-02-26T08:45:53Z</time>
      </trkpt>
      <trkpt lat="46.65103" lon="0.46606">
        <ele>105.2</ele>
        <time>2023-02-26T08:45:56Z</time>
      </trkpt>
      <trkpt lat="46.65102" lon="0.46609">
        <ele>105.2</ele>
        <time>2023-02-26T08:45:57Z</time>
      </trkpt>
      <trkpt lat="46.65095" lon="0.46616">
        <ele>104.8</ele>
        <time>2023-02-26T08:46:01Z</time>
      </trkpt>
      <trkpt lat="46.65083" lon="0.46632">
        <ele>104.4</ele>
        <time>2023-02-26T08:46:08Z</time>
      </trkpt>
      <trkpt lat="46.6507" lon="0.46649">
        <ele>105.2</ele>
        <time>2023-02-26T08:46:13Z</time>
      </trkpt>
      <trkpt lat="46.65065" lon="0.46655">
        <ele>105.6</ele>
        <time>2023-02-26T08:46:15Z</time>
      </trkpt>
      <trkpt lat="46.65045" lon="0.46675">
        <ele>106.8</ele>
        <time>2023-02-26T08:46:22Z</time>
      </trkpt>
      <trkpt lat="46.65031" lon="0.4669">
        <ele>108</ele>
        <time>2023-02-26T08:46:28Z</time>
      </trkpt>
      <trkpt lat="46.65025" lon="0.46695">
        <ele>108.2</ele>
        <time>2023-02-26T08:46:29Z</time>
      </trkpt>
      <trkpt lat="46.65019" lon="0.46699">
        <ele>108.6</ele>
        <time>2023-02-26T08:46:31Z</time>
      </trkpt>
      <trkpt lat="46.65014" lon="0.46705">
        <ele>109.2</ele>
        <time>2023-02-26T08:46:33Z</time>
      </trkpt>
      <trkpt lat="46.64999" lon="0.46721">
        <ele>109.8</ele>
        <time>2023-02-26T08:46:39Z</time>
      </trkpt>
      <trkpt lat="46.64989" lon="0.46733">
        <ele>110.4</ele>
        <time>2023-02-26T08:46:43Z</time>
      </trkpt>
      <trkpt lat="46.64983" lon="0.46738">
        <ele>110.6</ele>
        <time>2023-02-26T08:46:45Z</time>
      </trkpt>
      <trkpt lat="46.64966" lon="0.46757">
        <ele>111.4</ele>
        <time>2023-02-26T08:46:52Z</time>
      </trkpt>
      <trkpt lat="46.64964" lon="0.46759">
        <ele>111.4</ele>
        <time>2023-02-26T08:46:53Z</time>
      </trkpt>
      <trkpt lat="46.64949" lon="0.46776">
        <ele>112.4</ele>
        <time>2023-02-26T08:47:00Z</time>
      </trkpt>
      <trkpt lat="46.64946" lon="0.46779">
        <ele>112.6</ele>
        <time>2023-02-26T08:47:01Z</time>
      </trkpt>
      <trkpt lat="46.64935" lon="0.46791">
        <ele>113.2</ele>
        <time>2023-02-26T08:47:05Z</time>
      </trkpt>
      <trkpt lat="46.64919" lon="0.46806">
        <ele>113.6</ele>
        <time>2023-02-26T08:47:10Z</time>
      </trkpt>
      <trkpt lat="46.64916" lon="0.4681">
        <ele>113.8</ele>
        <time>2023-02-26T08:47:11Z</time>
      </trkpt>
      <trkpt lat="46.64893" lon="0.46835">
        <ele>114.6</ele>
        <time>2023-02-26T08:47:19Z</time>
      </trkpt>
      <trkpt lat="46.64887" lon="0.46841">
        <ele>114.8</ele>
        <time>2023-02-26T08:47:21Z</time>
      </trkpt>
      <trkpt lat="46.64869" lon="0.4686">
        <ele>115.4</ele>
        <time>2023-02-26T08:47:27Z</time>
      </trkpt>
      <trkpt lat="46.64864" lon="0.46865">
        <ele>116.2</ele>
        <time>2023-02-26T08:47:29Z</time>
      </trkpt>
      <trkpt lat="46.6485" lon="0.4688">
        <ele>117.2</ele>
        <time>2023-02-26T08:47:34Z</time>
      </trkpt>
      <trkpt lat="46.64829" lon="0.46901">
        <ele>116</ele>
        <time>2023-02-26T08:47:41Z</time>
      </trkpt>
      <trkpt lat="46.64807" lon="0.46925">
        <ele>115.8</ele>
        <time>2023-02-26T08:47:48Z</time>
      </trkpt>
      <trkpt lat="46.64796" lon="0.46933">
        <ele>115.8</ele>
        <time>2023-02-26T08:47:51Z</time>
      </trkpt>
      <trkpt lat="46.64792" lon="0.46932">
        <ele>115.6</ele>
        <time>2023-02-26T08:47:52Z</time>
      </trkpt>
      <trkpt lat="46.64788" lon="0.46929">
        <ele>115.4</ele>
        <time>2023-02-26T08:47:53Z</time>
      </trkpt>
      <trkpt lat="46.64785" lon="0.46924">
        <ele>115.2</ele>
        <time>2023-02-26T08:47:54Z</time>
      </trkpt>
      <trkpt lat="46.64782" lon="0.46919">
        <ele>115</ele>
        <time>2023-02-26T08:47:55Z</time>
      </trkpt>
      <trkpt lat="46.64762" lon="0.46879">
        <ele>114.2</ele>
        <time>2023-02-26T08:48:01Z</time>
      </trkpt>
      <trkpt lat="46.64737" lon="0.46831">
        <ele>113.2</ele>
        <time>2023-02-26T08:48:07Z</time>
      </trkpt>
      <trkpt lat="46.64732" lon="0.46823">
        <ele>112.8</ele>
        <time>2023-02-26T08:48:08Z</time>
      </trkpt>
      <trkpt lat="46.64713" lon="0.46786">
        <ele>111.8</ele>
        <time>2023-02-26T08:48:13Z</time>
      </trkpt>
      <trkpt lat="46.64693" lon="0.46747">
        <ele>112.2</ele>
        <time>2023-02-26T08:48:19Z</time>
      </trkpt>
      <trkpt lat="46.64675" lon="0.46714">
        <ele>112.6</ele>
        <time>2023-02-26T08:48:25Z</time>
      </trkpt>
      <trkpt lat="46.64657" lon="0.46683">
        <ele>113.6</ele>
        <time>2023-02-26T08:48:32Z</time>
      </trkpt>
      <trkpt lat="46.64652" lon="0.46671">
        <ele>113.8</ele>
        <time>2023-02-26T08:48:35Z</time>
      </trkpt>
      <trkpt lat="46.6465" lon="0.46667">
        <ele>113.8</ele>
        <time>2023-02-26T08:48:36Z</time>
      </trkpt>
      <trkpt lat="46.64642" lon="0.46651">
        <ele>113.8</ele>
        <time>2023-02-26T08:48:41Z</time>
      </trkpt>
      <trkpt lat="46.64637" lon="0.46641">
        <ele>114</ele>
        <time>2023-02-26T08:48:44Z</time>
      </trkpt>
      <trkpt lat="46.64637" lon="0.46635">
        <ele>114.2</ele>
        <time>2023-02-26T08:48:46Z</time>
      </trkpt>
      <trkpt lat="46.64632" lon="0.46622">
        <ele>114.4</ele>
        <time>2023-02-26T08:48:50Z</time>
      </trkpt>
      <trkpt lat="46.64624" lon="0.46617">
        <ele>114.4</ele>
        <time>2023-02-26T08:48:54Z</time>
      </trkpt>
      <trkpt lat="46.64617" lon="0.46604">
        <ele>114.8</ele>
        <time>2023-02-26T08:48:58Z</time>
      </trkpt>
      <trkpt lat="46.64615" lon="0.466">
        <ele>114.8</ele>
        <time>2023-02-26T08:48:59Z</time>
      </trkpt>
      <trkpt lat="46.64606" lon="0.46583">
        <ele>115.2</ele>
        <time>2023-02-26T08:49:03Z</time>
      </trkpt>
      <trkpt lat="46.64602" lon="0.46575">
        <ele>114.8</ele>
        <time>2023-02-26T08:49:05Z</time>
      </trkpt>
      <trkpt lat="46.64594" lon="0.46569">
        <ele>114.8</ele>
        <time>2023-02-26T08:49:07Z</time>
      </trkpt>
      <trkpt lat="46.64576" lon="0.46572">
        <ele>115</ele>
        <time>2023-02-26T08:49:11Z</time>
      </trkpt>
      <trkpt lat="46.64572" lon="0.46573">
        <ele>115</ele>
        <time>2023-02-26T08:49:12Z</time>
      </trkpt>
      <trkpt lat="46.64564" lon="0.46575">
        <ele>115.2</ele>
        <time>2023-02-26T08:49:14Z</time>
      </trkpt>
      <trkpt lat="46.64556" lon="0.46579">
        <ele>115.2</ele>
        <time>2023-02-26T08:49:16Z</time>
      </trkpt>
      <trkpt lat="46.64551" lon="0.4658">
        <ele>114.8</ele>
        <time>2023-02-26T08:49:17Z</time>
      </trkpt>
      <trkpt lat="46.6452" lon="0.46586">
        <ele>114.2</ele>
        <time>2023-02-26T08:49:23Z</time>
      </trkpt>
      <trkpt lat="46.64491" lon="0.46591">
        <ele>114.4</ele>
        <time>2023-02-26T08:49:28Z</time>
      </trkpt>
      <trkpt lat="46.64455" lon="0.46599">
        <ele>114.2</ele>
        <time>2023-02-26T08:49:34Z</time>
      </trkpt>
      <trkpt lat="46.64422" lon="0.46606">
        <ele>114.8</ele>
        <time>2023-02-26T08:49:40Z</time>
      </trkpt>
      <trkpt lat="46.644" lon="0.46613">
        <ele>114.8</ele>
        <time>2023-02-26T08:49:44Z</time>
      </trkpt>
      <trkpt lat="46.64394" lon="0.46614">
        <ele>114.8</ele>
        <time>2023-02-26T08:49:45Z</time>
      </trkpt>
      <trkpt lat="46.64364" lon="0.46621">
        <ele>114.4</ele>
        <time>2023-02-26T08:49:50Z</time>
      </trkpt>
      <trkpt lat="46.64358" lon="0.46623">
        <ele>114</ele>
        <time>2023-02-26T08:49:51Z</time>
      </trkpt>
      <trkpt lat="46.64352" lon="0.46625">
        <ele>113.8</ele>
        <time>2023-02-26T08:49:52Z</time>
      </trkpt>
      <trkpt lat="46.64322" lon="0.46632">
        <ele>112.8</ele>
        <time>2023-02-26T08:49:57Z</time>
      </trkpt>
      <trkpt lat="46.64303" lon="0.46636">
        <ele>111.6</ele>
        <time>2023-02-26T08:50:00Z</time>
      </trkpt>
      <trkpt lat="46.64291" lon="0.46637">
        <ele>111</ele>
        <time>2023-02-26T08:50:02Z</time>
      </trkpt>
      <trkpt lat="46.64291" lon="0.46637">
        <ele>110.4</ele>
        <time>2023-02-26T08:50:03Z</time>
      </trkpt>
      <trkpt lat="46.64281" lon="0.4663">
        <ele>110</ele>
        <time>2023-02-26T08:50:04Z</time>
      </trkpt>
      <trkpt lat="46.64277" lon="0.46623">
        <ele>109.4</ele>
        <time>2023-02-26T08:50:05Z</time>
      </trkpt>
      <trkpt lat="46.64274" lon="0.46616">
        <ele>109</ele>
        <time>2023-02-26T08:50:06Z</time>
      </trkpt>
      <trkpt lat="46.64271" lon="0.46608">
        <ele>108.8</ele>
        <time>2023-02-26T08:50:07Z</time>
      </trkpt>
      <trkpt lat="46.6426" lon="0.46582">
        <ele>108.2</ele>
        <time>2023-02-26T08:50:10Z</time>
      </trkpt>
      <trkpt lat="46.64252" lon="0.46564">
        <ele>107.6</ele>
        <time>2023-02-26T08:50:12Z</time>
      </trkpt>
      <trkpt lat="46.6423" lon="0.46516">
        <ele>107.4</ele>
        <time>2023-02-26T08:50:17Z</time>
      </trkpt>
      <trkpt lat="46.64226" lon="0.46506">
        <ele>106.8</ele>
        <time>2023-02-26T08:50:18Z</time>
      </trkpt>
      <trkpt lat="46.64214" lon="0.46476">
        <ele>105.8</ele>
        <time>2023-02-26T08:50:21Z</time>
      </trkpt>
      <trkpt lat="46.64206" lon="0.46457">
        <ele>105.4</ele>
        <time>2023-02-26T08:50:23Z</time>
      </trkpt>
      <trkpt lat="46.64192" lon="0.4643">
        <ele>104.4</ele>
        <time>2023-02-26T08:50:26Z</time>
      </trkpt>
      <trkpt lat="46.64184" lon="0.46412">
        <ele>103.8</ele>
        <time>2023-02-26T08:50:28Z</time>
      </trkpt>
      <trkpt lat="46.64168" lon="0.46374">
        <ele>103.4</ele>
        <time>2023-02-26T08:50:33Z</time>
      </trkpt>
      <trkpt lat="46.64165" lon="0.46368">
        <ele>103</ele>
        <time>2023-02-26T08:50:34Z</time>
      </trkpt>
      <trkpt lat="46.64155" lon="0.46343">
        <ele>102.6</ele>
        <time>2023-02-26T08:50:38Z</time>
      </trkpt>
      <trkpt lat="46.64154" lon="0.46337">
        <ele>102.4</ele>
        <time>2023-02-26T08:50:39Z</time>
      </trkpt>
      <trkpt lat="46.6414" lon="0.46289">
        <ele>103.2</ele>
        <time>2023-02-26T08:50:46Z</time>
      </trkpt>
      <trkpt lat="46.64124" lon="0.46238">
        <ele>104.2</ele>
        <time>2023-02-26T08:50:54Z</time>
      </trkpt>
      <trkpt lat="46.64112" lon="0.46197">
        <ele>104.2</ele>
        <time>2023-02-26T08:51:01Z</time>
      </trkpt>
      <trkpt lat="46.64097" lon="0.46165">
        <ele>103.4</ele>
        <time>2023-02-26T08:51:06Z</time>
      </trkpt>
      <trkpt lat="46.64073" lon="0.46115">
        <ele>104</ele>
        <time>2023-02-26T08:51:13Z</time>
      </trkpt>
      <trkpt lat="46.64049" lon="0.46071">
        <ele>104.8</ele>
        <time>2023-02-26T08:51:20Z</time>
      </trkpt>
      <trkpt lat="46.64023" lon="0.46033">
        <ele>105.4</ele>
        <time>2023-02-26T08:51:28Z</time>
      </trkpt>
      <trkpt lat="46.64" lon="0.46011">
        <ele>106</ele>
        <time>2023-02-26T08:51:34Z</time>
      </trkpt>
      <trkpt lat="46.63992" lon="0.46004">
        <ele>106.2</ele>
        <time>2023-02-26T08:51:36Z</time>
      </trkpt>
      <trkpt lat="46.63985" lon="0.45997">
        <ele>106.2</ele>
        <time>2023-02-26T08:51:38Z</time>
      </trkpt>
      <trkpt lat="46.63978" lon="0.45989">
        <ele>106.4</ele>
        <time>2023-02-26T08:51:40Z</time>
      </trkpt>
      <trkpt lat="46.63973" lon="0.45981">
        <ele>106.2</ele>
        <time>2023-02-26T08:51:42Z</time>
      </trkpt>
      <trkpt lat="46.63954" lon="0.45962">
        <ele>107</ele>
        <time>2023-02-26T08:51:48Z</time>
      </trkpt>
      <trkpt lat="46.6393" lon="0.45945">
        <ele>107.6</ele>
        <time>2023-02-26T08:51:55Z</time>
      </trkpt>
      <trkpt lat="46.63919" lon="0.45938">
        <ele>108</ele>
        <time>2023-02-26T08:51:58Z</time>
      </trkpt>
      <trkpt lat="46.63903" lon="0.45926">
        <ele>108.6</ele>
        <time>2023-02-26T08:52:02Z</time>
      </trkpt>
      <trkpt lat="46.63893" lon="0.45919">
        <ele>108.6</ele>
        <time>2023-02-26T08:52:05Z</time>
      </trkpt>
      <trkpt lat="46.6388" lon="0.45912">
        <ele>108.8</ele>
        <time>2023-02-26T08:52:08Z</time>
      </trkpt>
      <trkpt lat="46.63863" lon="0.45903">
        <ele>109.2</ele>
        <time>2023-02-26T08:52:12Z</time>
      </trkpt>
      <trkpt lat="46.6385" lon="0.45897">
        <ele>109.4</ele>
        <time>2023-02-26T08:52:15Z</time>
      </trkpt>
      <trkpt lat="46.63816" lon="0.4588">
        <ele>109.8</ele>
        <time>2023-02-26T08:52:22Z</time>
      </trkpt>
      <trkpt lat="46.63805" lon="0.45876">
        <ele>109.6</ele>
        <time>2023-02-26T08:52:24Z</time>
      </trkpt>
      <trkpt lat="46.63789" lon="0.45872">
        <ele>109.4</ele>
        <time>2023-02-26T08:52:27Z</time>
      </trkpt>
      <trkpt lat="46.63776" lon="0.4587">
        <ele>108.6</ele>
        <time>2023-02-26T08:52:29Z</time>
      </trkpt>
      <trkpt lat="46.63764" lon="0.45864">
        <ele>108</ele>
        <time>2023-02-26T08:52:31Z</time>
      </trkpt>
      <trkpt lat="46.63758" lon="0.45861">
        <ele>108</ele>
        <time>2023-02-26T08:52:32Z</time>
      </trkpt>
      <trkpt lat="46.6373" lon="0.45838">
        <ele>107.2</ele>
        <time>2023-02-26T08:52:37Z</time>
      </trkpt>
      <trkpt lat="46.63725" lon="0.45833">
        <ele>106.6</ele>
        <time>2023-02-26T08:52:38Z</time>
      </trkpt>
      <trkpt lat="46.6372" lon="0.45827">
        <ele>106</ele>
        <time>2023-02-26T08:52:39Z</time>
      </trkpt>
      <trkpt lat="46.63709" lon="0.45816">
        <ele>105.4</ele>
        <time>2023-02-26T08:52:41Z</time>
      </trkpt>
      <trkpt lat="46.63699" lon="0.45803">
        <ele>104.6</ele>
        <time>2023-02-26T08:52:43Z</time>
      </trkpt>
      <trkpt lat="46.63694" lon="0.45798">
        <ele>104.4</ele>
        <time>2023-02-26T08:52:44Z</time>
      </trkpt>
      <trkpt lat="46.63672" lon="0.45775">
        <ele>103</ele>
        <time>2023-02-26T08:52:48Z</time>
      </trkpt>
      <trkpt lat="46.63666" lon="0.45771">
        <ele>102.8</ele>
        <time>2023-02-26T08:52:49Z</time>
      </trkpt>
      <trkpt lat="46.63655" lon="0.45764">
        <ele>102.6</ele>
        <time>2023-02-26T08:52:51Z</time>
      </trkpt>
      <trkpt lat="46.63645" lon="0.45758">
        <ele>102.4</ele>
        <time>2023-02-26T08:52:53Z</time>
      </trkpt>
      <trkpt lat="46.63611" lon="0.45734">
        <ele>102.4</ele>
        <time>2023-02-26T08:53:00Z</time>
      </trkpt>
      <trkpt lat="46.63588" lon="0.45719">
        <ele>101.8</ele>
        <time>2023-02-26T08:53:04Z</time>
      </trkpt>
      <trkpt lat="46.63577" lon="0.45709">
        <ele>101.2</ele>
        <time>2023-02-26T08:53:06Z</time>
      </trkpt>
      <trkpt lat="46.6355" lon="0.45674">
        <ele>101</ele>
        <time>2023-02-26T08:53:11Z</time>
      </trkpt>
      <trkpt lat="46.6354" lon="0.45655">
        <ele>100</ele>
        <time>2023-02-26T08:53:13Z</time>
      </trkpt>
      <trkpt lat="46.63525" lon="0.45628">
        <ele>98.8</ele>
        <time>2023-02-26T08:53:16Z</time>
      </trkpt>
      <trkpt lat="46.6352" lon="0.4562">
        <ele>98.6</ele>
        <time>2023-02-26T08:53:17Z</time>
      </trkpt>
      <trkpt lat="46.63503" lon="0.45594">
        <ele>97.8</ele>
        <time>2023-02-26T08:53:21Z</time>
      </trkpt>
      <trkpt lat="46.635" lon="0.45588">
        <ele>97.6</ele>
        <time>2023-02-26T08:53:22Z</time>
      </trkpt>
      <trkpt lat="46.6348" lon="0.45552">
        <ele>97.2</ele>
        <time>2023-02-26T08:53:28Z</time>
      </trkpt>
      <trkpt lat="46.63466" lon="0.45524">
        <ele>97.2</ele>
        <time>2023-02-26T08:53:33Z</time>
      </trkpt>
      <trkpt lat="46.63463" lon="0.45517">
        <ele>97.2</ele>
        <time>2023-02-26T08:53:34Z</time>
      </trkpt>
      <trkpt lat="46.63456" lon="0.45498">
        <ele>97.4</ele>
        <time>2023-02-26T08:53:37Z</time>
      </trkpt>
      <trkpt lat="46.63451" lon="0.45487">
        <ele>98</ele>
        <time>2023-02-26T08:53:39Z</time>
      </trkpt>
      <trkpt lat="46.63448" lon="0.45482">
        <ele>98.2</ele>
        <time>2023-02-26T08:53:40Z</time>
      </trkpt>
      <trkpt lat="46.63444" lon="0.45471">
        <ele>98.8</ele>
        <time>2023-02-26T08:53:42Z</time>
      </trkpt>
      <trkpt lat="46.63438" lon="0.45456">
        <ele>100</ele>
        <time>2023-02-26T08:53:45Z</time>
      </trkpt>
      <trkpt lat="46.63436" lon="0.45452">
        <ele>100.2</ele>
        <time>2023-02-26T08:53:46Z</time>
      </trkpt>
      <trkpt lat="46.63435" lon="0.45447">
        <ele>100.4</ele>
        <time>2023-02-26T08:53:47Z</time>
      </trkpt>
      <trkpt lat="46.63431" lon="0.45431">
        <ele>101</ele>
        <time>2023-02-26T08:53:50Z</time>
      </trkpt>
      <trkpt lat="46.63424" lon="0.45416">
        <ele>101.6</ele>
        <time>2023-02-26T08:53:53Z</time>
      </trkpt>
      <trkpt lat="46.63417" lon="0.45399">
        <ele>102.2</ele>
        <time>2023-02-26T08:53:57Z</time>
      </trkpt>
      <trkpt lat="46.6341" lon="0.45384">
        <ele>103</ele>
        <time>2023-02-26T08:54:01Z</time>
      </trkpt>
      <trkpt lat="46.63402" lon="0.45366">
        <ele>103.4</ele>
        <time>2023-02-26T08:54:05Z</time>
      </trkpt>
      <trkpt lat="46.63398" lon="0.45355">
        <ele>103.8</ele>
        <time>2023-02-26T08:54:09Z</time>
      </trkpt>
      <trkpt lat="46.6339" lon="0.45337">
        <ele>104.4</ele>
        <time>2023-02-26T08:54:14Z</time>
      </trkpt>
      <trkpt lat="46.63389" lon="0.45334">
        <ele>104.4</ele>
        <time>2023-02-26T08:54:15Z</time>
      </trkpt>
      <trkpt lat="46.63379" lon="0.45309">
        <ele>105.2</ele>
        <time>2023-02-26T08:54:21Z</time>
      </trkpt>
      <trkpt lat="46.63377" lon="0.45305">
        <ele>105.4</ele>
        <time>2023-02-26T08:54:22Z</time>
      </trkpt>
      <trkpt lat="46.6337" lon="0.45287">
        <ele>106.2</ele>
        <time>2023-02-26T08:54:26Z</time>
      </trkpt>
      <trkpt lat="46.63366" lon="0.45277">
        <ele>106.4</ele>
        <time>2023-02-26T08:54:29Z</time>
      </trkpt>
      <trkpt lat="46.63363" lon="0.4527">
        <ele>106.8</ele>
        <time>2023-02-26T08:54:31Z</time>
      </trkpt>
      <trkpt lat="46.63356" lon="0.45257">
        <ele>107.8</ele>
        <time>2023-02-26T08:54:35Z</time>
      </trkpt>
      <trkpt lat="46.63353" lon="0.45251">
        <ele>108</ele>
        <time>2023-02-26T08:54:37Z</time>
      </trkpt>
      <trkpt lat="46.63345" lon="0.45234">
        <ele>108.8</ele>
        <time>2023-02-26T08:54:42Z</time>
      </trkpt>
      <trkpt lat="46.63342" lon="0.45225">
        <ele>109</ele>
        <time>2023-02-26T08:54:44Z</time>
      </trkpt>
      <trkpt lat="46.63335" lon="0.45201">
        <ele>109.8</ele>
        <time>2023-02-26T08:54:50Z</time>
      </trkpt>
      <trkpt lat="46.63334" lon="0.45198">
        <ele>110</ele>
        <time>2023-02-26T08:54:51Z</time>
      </trkpt>
      <trkpt lat="46.63326" lon="0.45173">
        <ele>110.6</ele>
        <time>2023-02-26T08:54:57Z</time>
      </trkpt>
      <trkpt lat="46.63321" lon="0.45145">
        <ele>110.8</ele>
        <time>2023-02-26T08:55:03Z</time>
      </trkpt>
      <trkpt lat="46.6332" lon="0.45134">
        <ele>110.8</ele>
        <time>2023-02-26T08:55:05Z</time>
      </trkpt>
      <trkpt lat="46.63316" lon="0.45104">
        <ele>110.6</ele>
        <time>2023-02-26T08:55:10Z</time>
      </trkpt>
      <trkpt lat="46.63314" lon="0.45093">
        <ele>110.6</ele>
        <time>2023-02-26T08:55:12Z</time>
      </trkpt>
      <trkpt lat="46.63314" lon="0.45087">
        <ele>110.6</ele>
        <time>2023-02-26T08:55:13Z</time>
      </trkpt>
      <trkpt lat="46.63315" lon="0.45072">
        <ele>110.6</ele>
        <time>2023-02-26T08:55:15Z</time>
      </trkpt>
      <trkpt lat="46.63316" lon="0.45066">
        <ele>110.6</ele>
        <time>2023-02-26T08:55:16Z</time>
      </trkpt>
      <trkpt lat="46.63318" lon="0.4506">
        <ele>110.6</ele>
        <time>2023-02-26T08:55:17Z</time>
      </trkpt>
      <trkpt lat="46.63323" lon="0.45051">
        <ele>110.6</ele>
        <time>2023-02-26T08:55:19Z</time>
      </trkpt>
      <trkpt lat="46.63326" lon="0.45047">
        <ele>110.6</ele>
        <time>2023-02-26T08:55:20Z</time>
      </trkpt>
      <trkpt lat="46.63336" lon="0.4503">
        <ele>110.8</ele>
        <time>2023-02-26T08:55:24Z</time>
      </trkpt>
      <trkpt lat="46.63343" lon="0.45017">
        <ele>111</ele>
        <time>2023-02-26T08:55:27Z</time>
      </trkpt>
      <trkpt lat="46.63348" lon="0.45008">
        <ele>110.8</ele>
        <time>2023-02-26T08:55:29Z</time>
      </trkpt>
      <trkpt lat="46.63354" lon="0.44999">
        <ele>110.6</ele>
        <time>2023-02-26T08:55:31Z</time>
      </trkpt>
      <trkpt lat="46.63359" lon="0.4499">
        <ele>110.4</ele>
        <time>2023-02-26T08:55:33Z</time>
      </trkpt>
      <trkpt lat="46.63376" lon="0.44967">
        <ele>110.4</ele>
        <time>2023-02-26T08:55:39Z</time>
      </trkpt>
      <trkpt lat="46.63398" lon="0.4494">
        <ele>111.2</ele>
        <time>2023-02-26T08:55:46Z</time>
      </trkpt>
      <trkpt lat="46.63415" lon="0.44919">
        <ele>112</ele>
        <time>2023-02-26T08:55:51Z</time>
      </trkpt>
      <trkpt lat="46.63418" lon="0.44915">
        <ele>112</ele>
        <time>2023-02-26T08:55:52Z</time>
      </trkpt>
      <trkpt lat="46.63426" lon="0.44907">
        <ele>112.2</ele>
        <time>2023-02-26T08:55:54Z</time>
      </trkpt>
      <trkpt lat="46.63436" lon="0.44899">
        <ele>112.8</ele>
        <time>2023-02-26T08:55:56Z</time>
      </trkpt>
      <trkpt lat="46.63442" lon="0.44895">
        <ele>113</ele>
        <time>2023-02-26T08:55:57Z</time>
      </trkpt>
      <trkpt lat="46.63472" lon="0.44883">
        <ele>113.4</ele>
        <time>2023-02-26T08:56:03Z</time>
      </trkpt>
      <trkpt lat="46.63502" lon="0.44872">
        <ele>113.4</ele>
        <time>2023-02-26T08:56:10Z</time>
      </trkpt>
      <trkpt lat="46.6351" lon="0.4487">
        <ele>113.6</ele>
        <time>2023-02-26T08:56:12Z</time>
      </trkpt>
      <trkpt lat="46.63522" lon="0.44867">
        <ele>113.6</ele>
        <time>2023-02-26T08:56:15Z</time>
      </trkpt>
      <trkpt lat="46.63526" lon="0.44865">
        <ele>113.6</ele>
        <time>2023-02-26T08:56:16Z</time>
      </trkpt>
      <trkpt lat="46.63543" lon="0.44857">
        <ele>114</ele>
        <time>2023-02-26T08:56:20Z</time>
      </trkpt>
      <trkpt lat="46.63546" lon="0.44854">
        <ele>114.2</ele>
        <time>2023-02-26T08:56:21Z</time>
      </trkpt>
      <trkpt lat="46.6356" lon="0.44831">
        <ele>114.2</ele>
        <time>2023-02-26T08:56:26Z</time>
      </trkpt>
      <trkpt lat="46.63569" lon="0.44802">
        <ele>114.4</ele>
        <time>2023-02-26T08:56:31Z</time>
      </trkpt>
      <trkpt lat="46.63573" lon="0.44791">
        <ele>114.4</ele>
        <time>2023-02-26T08:56:33Z</time>
      </trkpt>
      <trkpt lat="46.63588" lon="0.44742">
        <ele>115</ele>
        <time>2023-02-26T08:56:41Z</time>
      </trkpt>
      <trkpt lat="46.63591" lon="0.44731">
        <ele>115</ele>
        <time>2023-02-26T08:56:43Z</time>
      </trkpt>
      <trkpt lat="46.63588" lon="0.44715">
        <ele>115</ele>
        <time>2023-02-26T08:56:46Z</time>
      </trkpt>
      <trkpt lat="46.63582" lon="0.44707">
        <ele>115</ele>
        <time>2023-02-26T08:56:48Z</time>
      </trkpt>
      <trkpt lat="46.63574" lon="0.44701">
        <ele>115</ele>
        <time>2023-02-26T08:56:50Z</time>
      </trkpt>
      <trkpt lat="46.63566" lon="0.44694">
        <ele>115</ele>
        <time>2023-02-26T08:56:52Z</time>
      </trkpt>
      <trkpt lat="46.63561" lon="0.44683">
        <ele>115</ele>
        <time>2023-02-26T08:56:54Z</time>
      </trkpt>
      <trkpt lat="46.63561" lon="0.44669">
        <ele>114.8</ele>
        <time>2023-02-26T08:56:56Z</time>
      </trkpt>
      <trkpt lat="46.63562" lon="0.44662">
        <ele>114.8</ele>
        <time>2023-02-26T08:56:57Z</time>
      </trkpt>
      <trkpt lat="46.63575" lon="0.4462">
        <ele>114.6</ele>
        <time>2023-02-26T08:57:04Z</time>
      </trkpt>
      <trkpt lat="46.63586" lon="0.4459">
        <ele>114.4</ele>
        <time>2023-02-26T08:57:10Z</time>
      </trkpt>
      <trkpt lat="46.63592" lon="0.44571">
        <ele>114.8</ele>
        <time>2023-02-26T08:57:16Z</time>
      </trkpt>
      <trkpt lat="46.63594" lon="0.44568">
        <ele>114.6</ele>
        <time>2023-02-26T08:57:19Z</time>
      </trkpt>
      <trkpt lat="46.63594" lon="0.44567">
        <ele>114.6</ele>
        <time>2023-02-26T08:57:21Z</time>
      </trkpt>
      <trkpt lat="46.63591" lon="0.44574">
        <ele>114.4</ele>
        <time>2023-02-26T08:57:28Z</time>
      </trkpt>
      <trkpt lat="46.63591" lon="0.4458">
        <ele>114.4</ele>
        <time>2023-02-26T08:57:34Z</time>
      </trkpt>
      <trkpt lat="46.63592" lon="0.4458">
        <ele>114.4</ele>
        <time>2023-02-26T08:57:35Z</time>
      </trkpt>
      <trkpt lat="46.63593" lon="0.44582">
        <ele>114.4</ele>
        <time>2023-02-26T08:57:39Z</time>
      </trkpt>
      <trkpt lat="46.63593" lon="0.44582">
        <ele>114.4</ele>
        <time>2023-02-26T08:57:47Z</time>
      </trkpt>
      <trkpt lat="46.63593" lon="0.44582">
        <ele>114.4</ele>
        <time>2023-02-26T08:57:51Z</time>
      </trkpt>
      <trkpt lat="46.63593" lon="0.44582">
        <ele>114</ele>
        <time>2023-02-26T08:58:05Z</time>
      </trkpt>
      <trkpt lat="46.63593" lon="0.44581">
        <ele>113.6</ele>
        <time>2023-02-26T08:58:21Z</time>
      </trkpt>
      <trkpt lat="46.63593" lon="0.44581">
        <ele>114</ele>
        <time>2023-02-26T08:58:38Z</time>
      </trkpt>
      <trkpt lat="46.63594" lon="0.44581">
        <ele>114</ele>
        <time>2023-02-26T08:58:41Z</time>
      </trkpt>
      <trkpt lat="46.63594" lon="0.44581">
        <ele>114</ele>
        <time>2023-02-26T08:58:56Z</time>
      </trkpt>
      <trkpt lat="46.63594" lon="0.4458">
        <ele>114</ele>
        <time>2023-02-26T08:59:14Z</time>
      </trkpt>
      <trkpt lat="46.63594" lon="0.4458">
        <ele>114</ele>
        <time>2023-02-26T08:59:26Z</time>
      </trkpt>
      <trkpt lat="46.63593" lon="0.4458">
        <ele>114</ele>
        <time>2023-02-26T08:59:33Z</time>
      </trkpt>
      <trkpt lat="46.63593" lon="0.4458">
        <ele>114</ele>
        <time>2023-02-26T08:59:52Z</time>
      </trkpt>
      <trkpt lat="46.63593" lon="0.4458">
        <ele>114</ele>
        <time>2023-02-26T09:00:05Z</time>
      </trkpt>
      <trkpt lat="46.63593" lon="0.4458">
        <ele>114</ele>
        <time>2023-02-26T09:00:12Z</time>
      </trkpt>
      <trkpt lat="46.63592" lon="0.44579">
        <ele>114</ele>
        <time>2023-02-26T09:00:28Z</time>
      </trkpt>
      <trkpt lat="46.63592" lon="0.44579">
        <ele>114</ele>
        <time>2023-02-26T09:00:41Z</time>
      </trkpt>
      <trkpt lat="46.63592" lon="0.44579">
        <ele>114</ele>
        <time>2023-02-26T09:01:17Z</time>
      </trkpt>
      <trkpt lat="46.63592" lon="0.44579">
        <ele>114</ele>
        <time>2023-02-26T09:01:20Z</time>
      </trkpt>
      <trkpt lat="46.63592" lon="0.4458">
        <ele>114</ele>
        <time>2023-02-26T09:01:57Z</time>
      </trkpt>
      <trkpt lat="46.63592" lon="0.4458">
        <ele>114</ele>
        <time>2023-02-26T09:02:02Z</time>
      </trkpt>
      <trkpt lat="46.63592" lon="0.44581">
        <ele>114</ele>
        <time>2023-02-26T09:02:25Z</time>
      </trkpt>
      <trkpt lat="46.63592" lon="0.4458">
        <ele>114</ele>
        <time>2023-02-26T09:02:44Z</time>
      </trkpt>
      <trkpt lat="46.63592" lon="0.4458">
        <ele>114</ele>
        <time>2023-02-26T09:02:49Z</time>
      </trkpt>
      <trkpt lat="46.63592" lon="0.4458">
        <ele>114</ele>
        <time>2023-02-26T09:03:32Z</time>
      </trkpt>
      <trkpt lat="46.63592" lon="0.4458">
        <ele>114</ele>
        <time>2023-02-26T09:03:57Z</time>
      </trkpt>
      <trkpt lat="46.63592" lon="0.4458">
        <ele>114</ele>
        <time>2023-02-26T09:04:32Z</time>
      </trkpt>
      <trkpt lat="46.63593" lon="0.44581">
        <ele>114</ele>
        <time>2023-02-26T09:05:03Z</time>
      </trkpt>
      <trkpt lat="46.63593" lon="0.4458">
        <ele>114</ele>
        <time>2023-02-26T09:05:14Z</time>
      </trkpt>
      <trkpt lat="46.63592" lon="0.44579">
        <ele>114</ele>
        <time>2023-02-26T09:06:30Z</time>
      </trkpt>
      <trkpt lat="46.63591" lon="0.44579">
        <ele>114</ele>
        <time>2023-02-26T09:06:36Z</time>
      </trkpt>
      <trkpt lat="46.63591" lon="0.44578">
        <ele>114</ele>
        <time>2023-02-26T09:07:09Z</time>
      </trkpt>
      <trkpt lat="46.63592" lon="0.44578">
        <ele>114</ele>
        <time>2023-02-26T09:07:38Z</time>
      </trkpt>
      <trkpt lat="46.63592" lon="0.44578">
        <ele>114</ele>
        <time>2023-02-26T09:08:31Z</time>
      </trkpt>
      <trkpt lat="46.63591" lon="0.44578">
        <ele>114</ele>
        <time>2023-02-26T09:09:37Z</time>
      </trkpt>
      <trkpt lat="46.6359" lon="0.44575">
        <ele>114</ele>
        <time>2023-02-26T09:09:51Z</time>
      </trkpt>
      <trkpt lat="46.6359" lon="0.4457">
        <ele>114</ele>
        <time>2023-02-26T09:09:56Z</time>
      </trkpt>
      <trkpt lat="46.63592" lon="0.44567">
        <ele>114</ele>
        <time>2023-02-26T09:09:58Z</time>
      </trkpt>
      <trkpt lat="46.63593" lon="0.44563">
        <ele>113.8</ele>
        <time>2023-02-26T09:10:00Z</time>
      </trkpt>
      <trkpt lat="46.63596" lon="0.44558">
        <ele>113.8</ele>
        <time>2023-02-26T09:10:05Z</time>
      </trkpt>
      <trkpt lat="46.63596" lon="0.44558">
        <ele>114</ele>
        <time>2023-02-26T09:10:08Z</time>
      </trkpt>
      <trkpt lat="46.63596" lon="0.44557">
        <ele>113.4</ele>
        <time>2023-02-26T09:10:26Z</time>
      </trkpt>
      <trkpt lat="46.63596" lon="0.44551">
        <ele>113.8</ele>
        <time>2023-02-26T09:10:32Z</time>
      </trkpt>
      <trkpt lat="46.63599" lon="0.44539">
        <ele>114.8</ele>
        <time>2023-02-26T09:10:38Z</time>
      </trkpt>
      <trkpt lat="46.63608" lon="0.4452">
        <ele>115.2</ele>
        <time>2023-02-26T09:10:45Z</time>
      </trkpt>
      <trkpt lat="46.63611" lon="0.4451">
        <ele>116.2</ele>
        <time>2023-02-26T09:10:49Z</time>
      </trkpt>
      <trkpt lat="46.63613" lon="0.44503">
        <ele>115.8</ele>
        <time>2023-02-26T09:10:52Z</time>
      </trkpt>
      <trkpt lat="46.63606" lon="0.44493">
        <ele>115.4</ele>
        <time>2023-02-26T09:10:56Z</time>
      </trkpt>
      <trkpt lat="46.63598" lon="0.44483">
        <ele>114.8</ele>
        <time>2023-02-26T09:10:59Z</time>
      </trkpt>
      <trkpt lat="46.63593" lon="0.44473">
        <ele>114.4</ele>
        <time>2023-02-26T09:11:01Z</time>
      </trkpt>
      <trkpt lat="46.63581" lon="0.4445">
        <ele>113.8</ele>
        <time>2023-02-26T09:11:05Z</time>
      </trkpt>
      <trkpt lat="46.63576" lon="0.44437">
        <ele>113.4</ele>
        <time>2023-02-26T09:11:07Z</time>
      </trkpt>
      <trkpt lat="46.63566" lon="0.44409">
        <ele>112.8</ele>
        <time>2023-02-26T09:11:11Z</time>
      </trkpt>
      <trkpt lat="46.63558" lon="0.44389">
        <ele>112.4</ele>
        <time>2023-02-26T09:11:14Z</time>
      </trkpt>
      <trkpt lat="46.63554" lon="0.44375">
        <ele>112</ele>
        <time>2023-02-26T09:11:16Z</time>
      </trkpt>
      <trkpt lat="46.63547" lon="0.44355">
        <ele>111.6</ele>
        <time>2023-02-26T09:11:19Z</time>
      </trkpt>
      <trkpt lat="46.63537" lon="0.44321">
        <ele>110.8</ele>
        <time>2023-02-26T09:11:24Z</time>
      </trkpt>
      <trkpt lat="46.6353" lon="0.44299">
        <ele>110.6</ele>
        <time>2023-02-26T09:11:27Z</time>
      </trkpt>
      <trkpt lat="46.6352" lon="0.44269">
        <ele>110.8</ele>
        <time>2023-02-26T09:11:31Z</time>
      </trkpt>
      <trkpt lat="46.63505" lon="0.44217">
        <ele>111.4</ele>
        <time>2023-02-26T09:11:38Z</time>
      </trkpt>
      <trkpt lat="46.63491" lon="0.44168">
        <ele>111.2</ele>
        <time>2023-02-26T09:11:45Z</time>
      </trkpt>
      <trkpt lat="46.63482" lon="0.44138">
        <ele>111.6</ele>
        <time>2023-02-26T09:11:49Z</time>
      </trkpt>
      <trkpt lat="46.63477" lon="0.44123">
        <ele>112</ele>
        <time>2023-02-26T09:11:51Z</time>
      </trkpt>
      <trkpt lat="46.6347" lon="0.441">
        <ele>112.6</ele>
        <time>2023-02-26T09:11:54Z</time>
      </trkpt>
      <trkpt lat="46.63467" lon="0.44093">
        <ele>112.8</ele>
        <time>2023-02-26T09:11:55Z</time>
      </trkpt>
      <trkpt lat="46.6346" lon="0.44071">
        <ele>113.2</ele>
        <time>2023-02-26T09:11:58Z</time>
      </trkpt>
      <trkpt lat="46.63453" lon="0.44049">
        <ele>113.6</ele>
        <time>2023-02-26T09:12:01Z</time>
      </trkpt>
      <trkpt lat="46.63446" lon="0.44027">
        <ele>114</ele>
        <time>2023-02-26T09:12:04Z</time>
      </trkpt>
      <trkpt lat="46.63444" lon="0.4402">
        <ele>114</ele>
        <time>2023-02-26T09:12:05Z</time>
      </trkpt>
      <trkpt lat="46.63434" lon="0.43986">
        <ele>114.6</ele>
        <time>2023-02-26T09:12:10Z</time>
      </trkpt>
      <trkpt lat="46.63432" lon="0.4398">
        <ele>114.8</ele>
        <time>2023-02-26T09:12:11Z</time>
      </trkpt>
      <trkpt lat="46.63418" lon="0.43935">
        <ele>115.2</ele>
        <time>2023-02-26T09:12:19Z</time>
      </trkpt>
      <trkpt lat="46.6341" lon="0.43907">
        <ele>115.8</ele>
        <time>2023-02-26T09:12:24Z</time>
      </trkpt>
      <trkpt lat="46.63408" lon="0.43902">
        <ele>116</ele>
        <time>2023-02-26T09:12:25Z</time>
      </trkpt>
      <trkpt lat="46.63406" lon="0.43896">
        <ele>116.4</ele>
        <time>2023-02-26T09:12:26Z</time>
      </trkpt>
      <trkpt lat="46.63401" lon="0.4388">
        <ele>117.2</ele>
        <time>2023-02-26T09:12:29Z</time>
      </trkpt>
      <trkpt lat="46.634" lon="0.43874">
        <ele>117.2</ele>
        <time>2023-02-26T09:12:30Z</time>
      </trkpt>
      <trkpt lat="46.63394" lon="0.43857">
        <ele>117.6</ele>
        <time>2023-02-26T09:12:33Z</time>
      </trkpt>
      <trkpt lat="46.63391" lon="0.43848">
        <ele>118.2</ele>
        <time>2023-02-26T09:12:35Z</time>
      </trkpt>
      <trkpt lat="46.63384" lon="0.4383">
        <ele>119.2</ele>
        <time>2023-02-26T09:12:39Z</time>
      </trkpt>
      <trkpt lat="46.63382" lon="0.43828">
        <ele>119.2</ele>
        <time>2023-02-26T09:12:40Z</time>
      </trkpt>
      <trkpt lat="46.63377" lon="0.43829">
        <ele>119.6</ele>
        <time>2023-02-26T09:12:42Z</time>
      </trkpt>
      <trkpt lat="46.6337" lon="0.43845">
        <ele>119.6</ele>
        <time>2023-02-26T09:12:46Z</time>
      </trkpt>
      <trkpt lat="46.63362" lon="0.43862">
        <ele>119.6</ele>
        <time>2023-02-26T09:12:50Z</time>
      </trkpt>
      <trkpt lat="46.6336" lon="0.43873">
        <ele>119.6</ele>
        <time>2023-02-26T09:12:52Z</time>
      </trkpt>
      <trkpt lat="46.6335" lon="0.43913">
        <ele>119.8</ele>
        <time>2023-02-26T09:12:58Z</time>
      </trkpt>
      <trkpt lat="46.63336" lon="0.43953">
        <ele>119.6</ele>
        <time>2023-02-26T09:13:04Z</time>
      </trkpt>
      <trkpt lat="46.63321" lon="0.43998">
        <ele>118.2</ele>
        <time>2023-02-26T09:13:10Z</time>
      </trkpt>
      <trkpt lat="46.63319" lon="0.44006">
        <ele>118</ele>
        <time>2023-02-26T09:13:11Z</time>
      </trkpt>
      <trkpt lat="46.63316" lon="0.44014">
        <ele>117.8</ele>
        <time>2023-02-26T09:13:12Z</time>
      </trkpt>
      <trkpt lat="46.63308" lon="0.44043">
        <ele>117.6</ele>
        <time>2023-02-26T09:13:16Z</time>
      </trkpt>
      <trkpt lat="46.63291" lon="0.44094">
        <ele>117</ele>
        <time>2023-02-26T09:13:23Z</time>
      </trkpt>
      <trkpt lat="46.63276" lon="0.44142">
        <ele>116.4</ele>
        <time>2023-02-26T09:13:29Z</time>
      </trkpt>
      <trkpt lat="46.63274" lon="0.44149">
        <ele>116.4</ele>
        <time>2023-02-26T09:13:30Z</time>
      </trkpt>
      <trkpt lat="46.63258" lon="0.442">
        <ele>116.4</ele>
        <time>2023-02-26T09:13:37Z</time>
      </trkpt>
      <trkpt lat="46.63245" lon="0.44252">
        <ele>116</ele>
        <time>2023-02-26T09:13:43Z</time>
      </trkpt>
      <trkpt lat="46.63238" lon="0.44277">
        <ele>115.8</ele>
        <time>2023-02-26T09:13:46Z</time>
      </trkpt>
      <trkpt lat="46.63236" lon="0.44285">
        <ele>115.6</ele>
        <time>2023-02-26T09:13:47Z</time>
      </trkpt>
      <trkpt lat="46.63233" lon="0.44293">
        <ele>115.4</ele>
        <time>2023-02-26T09:13:48Z</time>
      </trkpt>
      <trkpt lat="46.63224" lon="0.44323">
        <ele>114.8</ele>
        <time>2023-02-26T09:13:52Z</time>
      </trkpt>
      <trkpt lat="46.63216" lon="0.44356">
        <ele>113.8</ele>
        <time>2023-02-26T09:13:56Z</time>
      </trkpt>
      <trkpt lat="46.6321" lon="0.4438">
        <ele>113.6</ele>
        <time>2023-02-26T09:13:59Z</time>
      </trkpt>
      <trkpt lat="46.63207" lon="0.44407">
        <ele>112.4</ele>
        <time>2023-02-26T09:14:02Z</time>
      </trkpt>
      <trkpt lat="46.63203" lon="0.44433">
        <ele>111.4</ele>
        <time>2023-02-26T09:14:05Z</time>
      </trkpt>
      <trkpt lat="46.63202" lon="0.44461">
        <ele>110.2</ele>
        <time>2023-02-26T09:14:08Z</time>
      </trkpt>
      <trkpt lat="46.63204" lon="0.44489">
        <ele>109</ele>
        <time>2023-02-26T09:14:11Z</time>
      </trkpt>
      <trkpt lat="46.63207" lon="0.44513">
        <ele>108</ele>
        <time>2023-02-26T09:14:14Z</time>
      </trkpt>
      <trkpt lat="46.63208" lon="0.44533">
        <ele>107.2</ele>
        <time>2023-02-26T09:14:17Z</time>
      </trkpt>
      <trkpt lat="46.63208" lon="0.44538">
        <ele>107</ele>
        <time>2023-02-26T09:14:18Z</time>
      </trkpt>
      <trkpt lat="46.63208" lon="0.44544">
        <ele>106.4</ele>
        <time>2023-02-26T09:14:19Z</time>
      </trkpt>
      <trkpt lat="46.63209" lon="0.44557">
        <ele>106</ele>
        <time>2023-02-26T09:14:21Z</time>
      </trkpt>
      <trkpt lat="46.63209" lon="0.44564">
        <ele>106</ele>
        <time>2023-02-26T09:14:22Z</time>
      </trkpt>
      <trkpt lat="46.6321" lon="0.4457">
        <ele>105.8</ele>
        <time>2023-02-26T09:14:23Z</time>
      </trkpt>
      <trkpt lat="46.6321" lon="0.44581">
        <ele>106.2</ele>
        <time>2023-02-26T09:14:25Z</time>
      </trkpt>
      <trkpt lat="46.63209" lon="0.44597">
        <ele>106.8</ele>
        <time>2023-02-26T09:14:28Z</time>
      </trkpt>
      <trkpt lat="46.63209" lon="0.44601">
        <ele>107</ele>
        <time>2023-02-26T09:14:29Z</time>
      </trkpt>
      <trkpt lat="46.63203" lon="0.44628">
        <ele>107.2</ele>
        <time>2023-02-26T09:14:33Z</time>
      </trkpt>
      <trkpt lat="46.63197" lon="0.44669">
        <ele>107</ele>
        <time>2023-02-26T09:14:39Z</time>
      </trkpt>
      <trkpt lat="46.63195" lon="0.44685">
        <ele>106.8</ele>
        <time>2023-02-26T09:14:41Z</time>
      </trkpt>
      <trkpt lat="46.63192" lon="0.44709">
        <ele>106.6</ele>
        <time>2023-02-26T09:14:44Z</time>
      </trkpt>
      <trkpt lat="46.63191" lon="0.44717">
        <ele>106.6</ele>
        <time>2023-02-26T09:14:45Z</time>
      </trkpt>
      <trkpt lat="46.63189" lon="0.44739">
        <ele>106.6</ele>
        <time>2023-02-26T09:14:48Z</time>
      </trkpt>
      <trkpt lat="46.63187" lon="0.44763">
        <ele>106.4</ele>
        <time>2023-02-26T09:14:51Z</time>
      </trkpt>
      <trkpt lat="46.63186" lon="0.44789">
        <ele>106.6</ele>
        <time>2023-02-26T09:14:54Z</time>
      </trkpt>
      <trkpt lat="46.63184" lon="0.44813">
        <ele>106</ele>
        <time>2023-02-26T09:14:57Z</time>
      </trkpt>
      <trkpt lat="46.63184" lon="0.44821">
        <ele>105.8</ele>
        <time>2023-02-26T09:14:58Z</time>
      </trkpt>
      <trkpt lat="46.63184" lon="0.44857">
        <ele>106.8</ele>
        <time>2023-02-26T09:15:03Z</time>
      </trkpt>
      <trkpt lat="46.63184" lon="0.44863">
        <ele>107</ele>
        <time>2023-02-26T09:15:04Z</time>
      </trkpt>
      <trkpt lat="46.63181" lon="0.44873">
        <ele>107</ele>
        <time>2023-02-26T09:15:05Z</time>
      </trkpt>
      <trkpt lat="46.63174" lon="0.4488">
        <ele>107</ele>
        <time>2023-02-26T09:15:07Z</time>
      </trkpt>
      <trkpt lat="46.63168" lon="0.44879">
        <ele>107</ele>
        <time>2023-02-26T09:15:09Z</time>
      </trkpt>
      <trkpt lat="46.63159" lon="0.44877">
        <ele>107</ele>
        <time>2023-02-26T09:15:11Z</time>
      </trkpt>
      <trkpt lat="46.63156" lon="0.44876">
        <ele>106.8</ele>
        <time>2023-02-26T09:15:12Z</time>
      </trkpt>
      <trkpt lat="46.63144" lon="0.44872">
        <ele>105.8</ele>
        <time>2023-02-26T09:15:15Z</time>
      </trkpt>
      <trkpt lat="46.6314" lon="0.44871">
        <ele>105.2</ele>
        <time>2023-02-26T09:15:16Z</time>
      </trkpt>
      <trkpt lat="46.6313" lon="0.44868">
        <ele>104.6</ele>
        <time>2023-02-26T09:15:18Z</time>
      </trkpt>
      <trkpt lat="46.63125" lon="0.44866">
        <ele>104.2</ele>
        <time>2023-02-26T09:15:19Z</time>
      </trkpt>
      <trkpt lat="46.63116" lon="0.4486">
        <ele>103.4</ele>
        <time>2023-02-26T09:15:21Z</time>
      </trkpt>
      <trkpt lat="46.63097" lon="0.44846">
        <ele>102.2</ele>
        <time>2023-02-26T09:15:25Z</time>
      </trkpt>
      <trkpt lat="46.63091" lon="0.44842">
        <ele>102</ele>
        <time>2023-02-26T09:15:26Z</time>
      </trkpt>
      <trkpt lat="46.63048" lon="0.44816">
        <ele>101.6</ele>
        <time>2023-02-26T09:15:33Z</time>
      </trkpt>
      <trkpt lat="46.63041" lon="0.44813">
        <ele>101</ele>
        <time>2023-02-26T09:15:34Z</time>
      </trkpt>
      <trkpt lat="46.63027" lon="0.44808">
        <ele>100</ele>
        <time>2023-02-26T09:15:36Z</time>
      </trkpt>
      <trkpt lat="46.63014" lon="0.44804">
        <ele>99.2</ele>
        <time>2023-02-26T09:15:38Z</time>
      </trkpt>
      <trkpt lat="46.63008" lon="0.44801">
        <ele>99</ele>
        <time>2023-02-26T09:15:39Z</time>
      </trkpt>
      <trkpt lat="46.63003" lon="0.44799">
        <ele>98.4</ele>
        <time>2023-02-26T09:15:40Z</time>
      </trkpt>
      <trkpt lat="46.62992" lon="0.44792">
        <ele>97.4</ele>
        <time>2023-02-26T09:15:42Z</time>
      </trkpt>
      <trkpt lat="46.62987" lon="0.4479">
        <ele>97.2</ele>
        <time>2023-02-26T09:15:43Z</time>
      </trkpt>
      <trkpt lat="46.62984" lon="0.44788">
        <ele>97</ele>
        <time>2023-02-26T09:15:44Z</time>
      </trkpt>
      <trkpt lat="46.62977" lon="0.44783">
        <ele>96</ele>
        <time>2023-02-26T09:15:47Z</time>
      </trkpt>
      <trkpt lat="46.62963" lon="0.44772">
        <ele>95.6</ele>
        <time>2023-02-26T09:15:52Z</time>
      </trkpt>
      <trkpt lat="46.62944" lon="0.44753">
        <ele>95.6</ele>
        <time>2023-02-26T09:15:58Z</time>
      </trkpt>
      <trkpt lat="46.62941" lon="0.44749">
        <ele>95.4</ele>
        <time>2023-02-26T09:15:59Z</time>
      </trkpt>
      <trkpt lat="46.62929" lon="0.4473">
        <ele>95.4</ele>
        <time>2023-02-26T09:16:03Z</time>
      </trkpt>
      <trkpt lat="46.62923" lon="0.44724">
        <ele>95.2</ele>
        <time>2023-02-26T09:16:05Z</time>
      </trkpt>
      <trkpt lat="46.62914" lon="0.44715">
        <ele>94.8</ele>
        <time>2023-02-26T09:16:08Z</time>
      </trkpt>
      <trkpt lat="46.62909" lon="0.44709">
        <ele>95</ele>
        <time>2023-02-26T09:16:10Z</time>
      </trkpt>
      <trkpt lat="46.62885" lon="0.44691">
        <ele>94.8</ele>
        <time>2023-02-26T09:16:16Z</time>
      </trkpt>
      <trkpt lat="46.6286" lon="0.44675">
        <ele>94.6</ele>
        <time>2023-02-26T09:16:22Z</time>
      </trkpt>
      <trkpt lat="46.62843" lon="0.44663">
        <ele>93.8</ele>
        <time>2023-02-26T09:16:26Z</time>
      </trkpt>
      <trkpt lat="46.62839" lon="0.4466">
        <ele>93.6</ele>
        <time>2023-02-26T09:16:27Z</time>
      </trkpt>
      <trkpt lat="46.62834" lon="0.44658">
        <ele>93.4</ele>
        <time>2023-02-26T09:16:28Z</time>
      </trkpt>
      <trkpt lat="46.62818" lon="0.44653">
        <ele>92.8</ele>
        <time>2023-02-26T09:16:31Z</time>
      </trkpt>
      <trkpt lat="46.62812" lon="0.44651">
        <ele>92.2</ele>
        <time>2023-02-26T09:16:32Z</time>
      </trkpt>
      <trkpt lat="46.62807" lon="0.44648">
        <ele>91.6</ele>
        <time>2023-02-26T09:16:33Z</time>
      </trkpt>
      <trkpt lat="46.62798" lon="0.44645">
        <ele>90.8</ele>
        <time>2023-02-26T09:16:35Z</time>
      </trkpt>
      <trkpt lat="46.62793" lon="0.44643">
        <ele>90.6</ele>
        <time>2023-02-26T09:16:36Z</time>
      </trkpt>
      <trkpt lat="46.62778" lon="0.44638">
        <ele>89.4</ele>
        <time>2023-02-26T09:16:39Z</time>
      </trkpt>
      <trkpt lat="46.62768" lon="0.44633">
        <ele>89</ele>
        <time>2023-02-26T09:16:41Z</time>
      </trkpt>
      <trkpt lat="46.62757" lon="0.44626">
        <ele>88.2</ele>
        <time>2023-02-26T09:16:43Z</time>
      </trkpt>
      <trkpt lat="46.62739" lon="0.44615">
        <ele>87</ele>
        <time>2023-02-26T09:16:46Z</time>
      </trkpt>
      <trkpt lat="46.62734" lon="0.44611">
        <ele>86.8</ele>
        <time>2023-02-26T09:16:47Z</time>
      </trkpt>
      <trkpt lat="46.62714" lon="0.44592">
        <ele>86</ele>
        <time>2023-02-26T09:16:51Z</time>
      </trkpt>
      <trkpt lat="46.62708" lon="0.44586">
        <ele>85.6</ele>
        <time>2023-02-26T09:16:52Z</time>
      </trkpt>
      <trkpt lat="46.62692" lon="0.4456">
        <ele>84.6</ele>
        <time>2023-02-26T09:16:56Z</time>
      </trkpt>
      <trkpt lat="46.62684" lon="0.44547">
        <ele>84</ele>
        <time>2023-02-26T09:16:58Z</time>
      </trkpt>
      <trkpt lat="46.6266" lon="0.44514">
        <ele>83.8</ele>
        <time>2023-02-26T09:17:04Z</time>
      </trkpt>
      <trkpt lat="46.62639" lon="0.44492">
        <ele>83.8</ele>
        <time>2023-02-26T09:17:09Z</time>
      </trkpt>
      <trkpt lat="46.62635" lon="0.44488">
        <ele>83.6</ele>
        <time>2023-02-26T09:17:10Z</time>
      </trkpt>
      <trkpt lat="46.62625" lon="0.44478">
        <ele>83.2</ele>
        <time>2023-02-26T09:17:12Z</time>
      </trkpt>
      <trkpt lat="46.62615" lon="0.44469">
        <ele>83.2</ele>
        <time>2023-02-26T09:17:14Z</time>
      </trkpt>
      <trkpt lat="46.62607" lon="0.44462">
        <ele>83</ele>
        <time>2023-02-26T09:17:16Z</time>
      </trkpt>
      <trkpt lat="46.626" lon="0.44455">
        <ele>83</ele>
        <time>2023-02-26T09:17:18Z</time>
      </trkpt>
      <trkpt lat="46.62594" lon="0.4445">
        <ele>82.8</ele>
        <time>2023-02-26T09:17:20Z</time>
      </trkpt>
      <trkpt lat="46.62592" lon="0.44444">
        <ele>82.6</ele>
        <time>2023-02-26T09:17:22Z</time>
      </trkpt>
      <trkpt lat="46.62591" lon="0.4444">
        <ele>82.6</ele>
        <time>2023-02-26T09:17:23Z</time>
      </trkpt>
      <trkpt lat="46.62592" lon="0.4442">
        <ele>82.6</ele>
        <time>2023-02-26T09:17:28Z</time>
      </trkpt>
      <trkpt lat="46.62598" lon="0.444">
        <ele>83.4</ele>
        <time>2023-02-26T09:17:34Z</time>
      </trkpt>
      <trkpt lat="46.62599" lon="0.44395">
        <ele>83.8</ele>
        <time>2023-02-26T09:17:36Z</time>
      </trkpt>
      <trkpt lat="46.626" lon="0.44387">
        <ele>85</ele>
        <time>2023-02-26T09:17:39Z</time>
      </trkpt>
      <trkpt lat="46.62601" lon="0.44382">
        <ele>85.8</ele>
        <time>2023-02-26T09:17:41Z</time>
      </trkpt>
      <trkpt lat="46.62601" lon="0.44379">
        <ele>86</ele>
        <time>2023-02-26T09:17:42Z</time>
      </trkpt>
      <trkpt lat="46.62607" lon="0.44362">
        <ele>87.4</ele>
        <time>2023-02-26T09:17:46Z</time>
      </trkpt>
      <trkpt lat="46.62609" lon="0.44354">
        <ele>88.4</ele>
        <time>2023-02-26T09:17:48Z</time>
      </trkpt>
      <trkpt lat="46.6261" lon="0.44351">
        <ele>88.6</ele>
        <time>2023-02-26T09:17:49Z</time>
      </trkpt>
      <trkpt lat="46.62613" lon="0.44339">
        <ele>89.8</ele>
        <time>2023-02-26T09:17:53Z</time>
      </trkpt>
      <trkpt lat="46.62614" lon="0.44333">
        <ele>90.4</ele>
        <time>2023-02-26T09:17:55Z</time>
      </trkpt>
      <trkpt lat="46.62616" lon="0.44328">
        <ele>91.2</ele>
        <time>2023-02-26T09:17:57Z</time>
      </trkpt>
      <trkpt lat="46.62619" lon="0.4432">
        <ele>91.4</ele>
        <time>2023-02-26T09:18:01Z</time>
      </trkpt>
      <trkpt lat="46.62626" lon="0.44302">
        <ele>92.2</ele>
        <time>2023-02-26T09:18:08Z</time>
      </trkpt>
      <trkpt lat="46.62631" lon="0.4429">
        <ele>93.4</ele>
        <time>2023-02-26T09:18:14Z</time>
      </trkpt>
      <trkpt lat="46.62631" lon="0.44288">
        <ele>93.4</ele>
        <time>2023-02-26T09:18:15Z</time>
      </trkpt>
      <trkpt lat="46.62632" lon="0.44279">
        <ele>94.4</ele>
        <time>2023-02-26T09:18:19Z</time>
      </trkpt>
      <trkpt lat="46.62634" lon="0.44277">
        <ele>94.8</ele>
        <time>2023-02-26T09:18:20Z</time>
      </trkpt>
      <trkpt lat="46.62636" lon="0.44272">
        <ele>95.2</ele>
        <time>2023-02-26T09:18:22Z</time>
      </trkpt>
      <trkpt lat="46.62636" lon="0.4427">
        <ele>95.4</ele>
        <time>2023-02-26T09:18:23Z</time>
      </trkpt>
      <trkpt lat="46.62646" lon="0.44252">
        <ele>96.4</ele>
        <time>2023-02-26T09:18:32Z</time>
      </trkpt>
      <trkpt lat="46.62649" lon="0.44248">
        <ele>97</ele>
        <time>2023-02-26T09:18:34Z</time>
      </trkpt>
      <trkpt lat="46.62652" lon="0.44242">
        <ele>97.6</ele>
        <time>2023-02-26T09:18:37Z</time>
      </trkpt>
      <trkpt lat="46.6266" lon="0.44228">
        <ele>98.8</ele>
        <time>2023-02-26T09:18:45Z</time>
      </trkpt>
      <trkpt lat="46.62663" lon="0.44219">
        <ele>100</ele>
        <time>2023-02-26T09:18:50Z</time>
      </trkpt>
      <trkpt lat="46.62666" lon="0.44213">
        <ele>101</ele>
        <time>2023-02-26T09:18:54Z</time>
      </trkpt>
      <trkpt lat="46.62669" lon="0.44209">
        <ele>101.4</ele>
        <time>2023-02-26T09:18:56Z</time>
      </trkpt>
      <trkpt lat="46.62676" lon="0.44199">
        <ele>102.2</ele>
        <time>2023-02-26T09:19:01Z</time>
      </trkpt>
      <trkpt lat="46.62682" lon="0.44187">
        <ele>103.2</ele>
        <time>2023-02-26T09:19:07Z</time>
      </trkpt>
      <trkpt lat="46.62683" lon="0.44186">
        <ele>103.4</ele>
        <time>2023-02-26T09:19:08Z</time>
      </trkpt>
      <trkpt lat="46.62691" lon="0.44172">
        <ele>104.4</ele>
        <time>2023-02-26T09:19:16Z</time>
      </trkpt>
      <trkpt lat="46.62696" lon="0.44166">
        <ele>105</ele>
        <time>2023-02-26T09:19:19Z</time>
      </trkpt>
      <trkpt lat="46.62697" lon="0.44165">
        <ele>105.4</ele>
        <time>2023-02-26T09:19:20Z</time>
      </trkpt>
      <trkpt lat="46.62708" lon="0.44148">
        <ele>106</ele>
        <time>2023-02-26T09:19:27Z</time>
      </trkpt>
      <trkpt lat="46.6271" lon="0.44143">
        <ele>106</ele>
        <time>2023-02-26T09:19:29Z</time>
      </trkpt>
      <trkpt lat="46.62712" lon="0.44135">
        <ele>106</ele>
        <time>2023-02-26T09:19:32Z</time>
      </trkpt>
      <trkpt lat="46.62711" lon="0.44132">
        <ele>106.2</ele>
        <time>2023-02-26T09:19:33Z</time>
      </trkpt>
      <trkpt lat="46.62709" lon="0.44129">
        <ele>106.4</ele>
        <time>2023-02-26T09:19:35Z</time>
      </trkpt>
      <trkpt lat="46.62707" lon="0.44127">
        <ele>107.6</ele>
        <time>2023-02-26T09:19:37Z</time>
      </trkpt>
      <trkpt lat="46.62699" lon="0.44124">
        <ele>108.6</ele>
        <time>2023-02-26T09:19:42Z</time>
      </trkpt>
      <trkpt lat="46.62695" lon="0.44122">
        <ele>108.8</ele>
        <time>2023-02-26T09:19:44Z</time>
      </trkpt>
      <trkpt lat="46.62684" lon="0.44123">
        <ele>108.6</ele>
        <time>2023-02-26T09:19:49Z</time>
      </trkpt>
      <trkpt lat="46.62682" lon="0.44126">
        <ele>108.6</ele>
        <time>2023-02-26T09:19:51Z</time>
      </trkpt>
      <trkpt lat="46.6268" lon="0.4413">
        <ele>108.4</ele>
        <time>2023-02-26T09:19:53Z</time>
      </trkpt>
      <trkpt lat="46.62678" lon="0.44133">
        <ele>108.4</ele>
        <time>2023-02-26T09:19:54Z</time>
      </trkpt>
      <trkpt lat="46.62675" lon="0.44136">
        <ele>108.2</ele>
        <time>2023-02-26T09:19:56Z</time>
      </trkpt>
      <trkpt lat="46.62673" lon="0.44136">
        <ele>108.2</ele>
        <time>2023-02-26T09:19:57Z</time>
      </trkpt>
      <trkpt lat="46.62668" lon="0.44135">
        <ele>107.6</ele>
        <time>2023-02-26T09:19:59Z</time>
      </trkpt>
      <trkpt lat="46.62654" lon="0.44138">
        <ele>107</ele>
        <time>2023-02-26T09:20:04Z</time>
      </trkpt>
      <trkpt lat="46.6264" lon="0.4414">
        <ele>107.6</ele>
        <time>2023-02-26T09:20:09Z</time>
      </trkpt>
      <trkpt lat="46.62622" lon="0.44143">
        <ele>108.2</ele>
        <time>2023-02-26T09:20:15Z</time>
      </trkpt>
      <trkpt lat="46.62617" lon="0.44144">
        <ele>108.6</ele>
        <time>2023-02-26T09:20:17Z</time>
      </trkpt>
      <trkpt lat="46.62606" lon="0.44147">
        <ele>108.4</ele>
        <time>2023-02-26T09:20:21Z</time>
      </trkpt>
      <trkpt lat="46.6259" lon="0.44153">
        <ele>108.4</ele>
        <time>2023-02-26T09:20:26Z</time>
      </trkpt>
      <trkpt lat="46.62577" lon="0.44163">
        <ele>108.6</ele>
        <time>2023-02-26T09:20:31Z</time>
      </trkpt>
      <trkpt lat="46.62556" lon="0.44175">
        <ele>107.8</ele>
        <time>2023-02-26T09:20:37Z</time>
      </trkpt>
      <trkpt lat="46.6254" lon="0.44182">
        <ele>107.6</ele>
        <time>2023-02-26T09:20:41Z</time>
      </trkpt>
      <trkpt lat="46.62532" lon="0.44185">
        <ele>107.6</ele>
        <time>2023-02-26T09:20:43Z</time>
      </trkpt>
      <trkpt lat="46.62524" lon="0.44187">
        <ele>107.4</ele>
        <time>2023-02-26T09:20:45Z</time>
      </trkpt>
      <trkpt lat="46.62515" lon="0.44186">
        <ele>106.4</ele>
        <time>2023-02-26T09:20:47Z</time>
      </trkpt>
      <trkpt lat="46.62509" lon="0.44184">
        <ele>106.2</ele>
        <time>2023-02-26T09:20:49Z</time>
      </trkpt>
      <trkpt lat="46.62499" lon="0.44184">
        <ele>105.8</ele>
        <time>2023-02-26T09:20:52Z</time>
      </trkpt>
      <trkpt lat="46.62496" lon="0.44184">
        <ele>105.6</ele>
        <time>2023-02-26T09:20:53Z</time>
      </trkpt>
      <trkpt lat="46.62484" lon="0.44183">
        <ele>105.4</ele>
        <time>2023-02-26T09:20:56Z</time>
      </trkpt>
      <trkpt lat="46.6248" lon="0.44182">
        <ele>105.2</ele>
        <time>2023-02-26T09:20:57Z</time>
      </trkpt>
      <trkpt lat="46.62459" lon="0.44179">
        <ele>104.4</ele>
        <time>2023-02-26T09:21:03Z</time>
      </trkpt>
      <trkpt lat="46.62454" lon="0.44179">
        <ele>104.2</ele>
        <time>2023-02-26T09:21:05Z</time>
      </trkpt>
      <trkpt lat="46.62451" lon="0.4418">
        <ele>104</ele>
        <time>2023-02-26T09:21:06Z</time>
      </trkpt>
      <trkpt lat="46.62445" lon="0.4418">
        <ele>103.4</ele>
        <time>2023-02-26T09:21:08Z</time>
      </trkpt>
      <trkpt lat="46.6244" lon="0.44176">
        <ele>103.2</ele>
        <time>2023-02-26T09:21:10Z</time>
      </trkpt>
      <trkpt lat="46.62434" lon="0.44175">
        <ele>103</ele>
        <time>2023-02-26T09:21:12Z</time>
      </trkpt>
      <trkpt lat="46.62423" lon="0.44174">
        <ele>102.8</ele>
        <time>2023-02-26T09:21:15Z</time>
      </trkpt>
      <trkpt lat="46.62419" lon="0.44173">
        <ele>102.6</ele>
        <time>2023-02-26T09:21:16Z</time>
      </trkpt>
      <trkpt lat="46.6241" lon="0.44171">
        <ele>102.2</ele>
        <time>2023-02-26T09:21:18Z</time>
      </trkpt>
      <trkpt lat="46.62404" lon="0.44169">
        <ele>101.4</ele>
        <time>2023-02-26T09:21:19Z</time>
      </trkpt>
      <trkpt lat="46.62399" lon="0.44168">
        <ele>101</ele>
        <time>2023-02-26T09:21:20Z</time>
      </trkpt>
      <trkpt lat="46.62389" lon="0.44167">
        <ele>100.2</ele>
        <time>2023-02-26T09:21:22Z</time>
      </trkpt>
      <trkpt lat="46.62381" lon="0.44164">
        <ele>98.8</ele>
        <time>2023-02-26T09:21:24Z</time>
      </trkpt>
      <trkpt lat="46.62373" lon="0.44159">
        <ele>97.4</ele>
        <time>2023-02-26T09:21:26Z</time>
      </trkpt>
      <trkpt lat="46.62369" lon="0.44156">
        <ele>96.6</ele>
        <time>2023-02-26T09:21:27Z</time>
      </trkpt>
      <trkpt lat="46.62366" lon="0.44153">
        <ele>96.2</ele>
        <time>2023-02-26T09:21:28Z</time>
      </trkpt>
      <trkpt lat="46.62357" lon="0.44142">
        <ele>95</ele>
        <time>2023-02-26T09:21:31Z</time>
      </trkpt>
      <trkpt lat="46.62354" lon="0.44139">
        <ele>94.4</ele>
        <time>2023-02-26T09:21:32Z</time>
      </trkpt>
      <trkpt lat="46.62349" lon="0.44136">
        <ele>93.4</ele>
        <time>2023-02-26T09:21:34Z</time>
      </trkpt>
      <trkpt lat="46.6234" lon="0.44133">
        <ele>92</ele>
        <time>2023-02-26T09:21:36Z</time>
      </trkpt>
      <trkpt lat="46.6234" lon="0.44133">
        <ele>91</ele>
        <time>2023-02-26T09:21:37Z</time>
      </trkpt>
      <trkpt lat="46.62332" lon="0.44127">
        <ele>91</ele>
        <time>2023-02-26T09:21:38Z</time>
      </trkpt>
      <trkpt lat="46.62324" lon="0.44119">
        <ele>90.4</ele>
        <time>2023-02-26T09:21:40Z</time>
      </trkpt>
      <trkpt lat="46.62321" lon="0.44115">
        <ele>90</ele>
        <time>2023-02-26T09:21:41Z</time>
      </trkpt>
      <trkpt lat="46.62318" lon="0.4411">
        <ele>89.6</ele>
        <time>2023-02-26T09:21:42Z</time>
      </trkpt>
      <trkpt lat="46.62315" lon="0.44107">
        <ele>89.2</ele>
        <time>2023-02-26T09:21:43Z</time>
      </trkpt>
      <trkpt lat="46.6231" lon="0.44101">
        <ele>88</ele>
        <time>2023-02-26T09:21:45Z</time>
      </trkpt>
      <trkpt lat="46.62302" lon="0.44097">
        <ele>87</ele>
        <time>2023-02-26T09:21:48Z</time>
      </trkpt>
      <trkpt lat="46.62299" lon="0.44095">
        <ele>85.4</ele>
        <time>2023-02-26T09:21:50Z</time>
      </trkpt>
      <trkpt lat="46.62297" lon="0.4409">
        <ele>84</ele>
        <time>2023-02-26T09:21:52Z</time>
      </trkpt>
      <trkpt lat="46.62295" lon="0.44089">
        <ele>83.4</ele>
        <time>2023-02-26T09:21:53Z</time>
      </trkpt>
      <trkpt lat="46.62294" lon="0.44087">
        <ele>83</ele>
        <time>2023-02-26T09:21:54Z</time>
      </trkpt>
      <trkpt lat="46.62291" lon="0.44086">
        <ele>82.4</ele>
        <time>2023-02-26T09:21:55Z</time>
      </trkpt>
      <trkpt lat="46.62289" lon="0.44085">
        <ele>81.8</ele>
        <time>2023-02-26T09:21:56Z</time>
      </trkpt>
      <trkpt lat="46.62283" lon="0.44086">
        <ele>81</ele>
        <time>2023-02-26T09:21:58Z</time>
      </trkpt>
      <trkpt lat="46.6228" lon="0.44084">
        <ele>80.4</ele>
        <time>2023-02-26T09:21:59Z</time>
      </trkpt>
      <trkpt lat="46.62278" lon="0.44079">
        <ele>80</ele>
        <time>2023-02-26T09:22:00Z</time>
      </trkpt>
      <trkpt lat="46.62273" lon="0.44068">
        <ele>79.6</ele>
        <time>2023-02-26T09:22:02Z</time>
      </trkpt>
      <trkpt lat="46.62255" lon="0.4402">
        <ele>80</ele>
        <time>2023-02-26T09:22:10Z</time>
      </trkpt>
      <trkpt lat="46.62247" lon="0.43999">
        <ele>79.4</ele>
        <time>2023-02-26T09:22:14Z</time>
      </trkpt>
      <trkpt lat="46.62242" lon="0.43976">
        <ele>79.2</ele>
        <time>2023-02-26T09:22:18Z</time>
      </trkpt>
      <trkpt lat="46.6224" lon="0.43966">
        <ele>79.2</ele>
        <time>2023-02-26T09:22:20Z</time>
      </trkpt>
      <trkpt lat="46.62237" lon="0.43955">
        <ele>79.4</ele>
        <time>2023-02-26T09:22:22Z</time>
      </trkpt>
      <trkpt lat="46.62234" lon="0.43943">
        <ele>79.6</ele>
        <time>2023-02-26T09:22:24Z</time>
      </trkpt>
      <trkpt lat="46.62231" lon="0.43932">
        <ele>79.6</ele>
        <time>2023-02-26T09:22:26Z</time>
      </trkpt>
      <trkpt lat="46.62225" lon="0.43918">
        <ele>80.2</ele>
        <time>2023-02-26T09:22:29Z</time>
      </trkpt>
      <trkpt lat="46.62222" lon="0.43913">
        <ele>80.6</ele>
        <time>2023-02-26T09:22:30Z</time>
      </trkpt>
      <trkpt lat="46.6222" lon="0.43908">
        <ele>80.6</ele>
        <time>2023-02-26T09:22:31Z</time>
      </trkpt>
      <trkpt lat="46.6221" lon="0.43896">
        <ele>80.8</ele>
        <time>2023-02-26T09:22:34Z</time>
      </trkpt>
      <trkpt lat="46.62208" lon="0.43892">
        <ele>80.8</ele>
        <time>2023-02-26T09:22:35Z</time>
      </trkpt>
      <trkpt lat="46.62202" lon="0.43876">
        <ele>80.8</ele>
        <time>2023-02-26T09:22:38Z</time>
      </trkpt>
      <trkpt lat="46.62193" lon="0.43838">
        <ele>80</ele>
        <time>2023-02-26T09:22:43Z</time>
      </trkpt>
      <trkpt lat="46.62183" lon="0.43801">
        <ele>79</ele>
        <time>2023-02-26T09:22:47Z</time>
      </trkpt>
      <trkpt lat="46.62176" lon="0.43775">
        <ele>78.4</ele>
        <time>2023-02-26T09:22:50Z</time>
      </trkpt>
      <trkpt lat="46.62169" lon="0.43735">
        <ele>78.6</ele>
        <time>2023-02-26T09:22:55Z</time>
      </trkpt>
      <trkpt lat="46.62169" lon="0.43728">
        <ele>78.8</ele>
        <time>2023-02-26T09:22:56Z</time>
      </trkpt>
      <trkpt lat="46.6217" lon="0.43716">
        <ele>78.8</ele>
        <time>2023-02-26T09:22:58Z</time>
      </trkpt>
      <trkpt lat="46.62173" lon="0.43712">
        <ele>78.8</ele>
        <time>2023-02-26T09:22:59Z</time>
      </trkpt>
      <trkpt lat="46.62176" lon="0.4371">
        <ele>79</ele>
        <time>2023-02-26T09:23:00Z</time>
      </trkpt>
      <trkpt lat="46.62184" lon="0.43712">
        <ele>79.2</ele>
        <time>2023-02-26T09:23:02Z</time>
      </trkpt>
      <trkpt lat="46.62196" lon="0.43723">
        <ele>80.6</ele>
        <time>2023-02-26T09:23:06Z</time>
      </trkpt>
      <trkpt lat="46.62205" lon="0.43723">
        <ele>81.6</ele>
        <time>2023-02-26T09:23:09Z</time>
      </trkpt>
      <trkpt lat="46.62207" lon="0.4372">
        <ele>81.8</ele>
        <time>2023-02-26T09:23:10Z</time>
      </trkpt>
      <trkpt lat="46.62209" lon="0.4371">
        <ele>83</ele>
        <time>2023-02-26T09:23:13Z</time>
      </trkpt>
      <trkpt lat="46.62209" lon="0.43707">
        <ele>83.4</ele>
        <time>2023-02-26T09:23:14Z</time>
      </trkpt>
      <trkpt lat="46.62208" lon="0.43691">
        <ele>84.4</ele>
        <time>2023-02-26T09:23:18Z</time>
      </trkpt>
      <trkpt lat="46.62207" lon="0.4368">
        <ele>85.4</ele>
        <time>2023-02-26T09:23:21Z</time>
      </trkpt>
      <trkpt lat="46.62207" lon="0.43676">
        <ele>85.8</ele>
        <time>2023-02-26T09:23:22Z</time>
      </trkpt>
      <trkpt lat="46.62206" lon="0.43666">
        <ele>86.6</ele>
        <time>2023-02-26T09:23:25Z</time>
      </trkpt>
      <trkpt lat="46.62206" lon="0.43659">
        <ele>87.8</ele>
        <time>2023-02-26T09:23:27Z</time>
      </trkpt>
      <trkpt lat="46.62205" lon="0.43652">
        <ele>89</ele>
        <time>2023-02-26T09:23:29Z</time>
      </trkpt>
      <trkpt lat="46.62205" lon="0.43639">
        <ele>90</ele>
        <time>2023-02-26T09:23:33Z</time>
      </trkpt>
      <trkpt lat="46.62205" lon="0.43625">
        <ele>91</ele>
        <time>2023-02-26T09:23:37Z</time>
      </trkpt>
      <trkpt lat="46.62204" lon="0.43616">
        <ele>92.4</ele>
        <time>2023-02-26T09:23:40Z</time>
      </trkpt>
      <trkpt lat="46.62205" lon="0.436">
        <ele>93.6</ele>
        <time>2023-02-26T09:23:45Z</time>
      </trkpt>
      <trkpt lat="46.62209" lon="0.43593">
        <ele>94.8</ele>
        <time>2023-02-26T09:23:48Z</time>
      </trkpt>
      <trkpt lat="46.62212" lon="0.43591">
        <ele>95.2</ele>
        <time>2023-02-26T09:23:50Z</time>
      </trkpt>
      <trkpt lat="46.62216" lon="0.43591">
        <ele>96</ele>
        <time>2023-02-26T09:23:52Z</time>
      </trkpt>
      <trkpt lat="46.62224" lon="0.43592">
        <ele>97</ele>
        <time>2023-02-26T09:23:56Z</time>
      </trkpt>
      <trkpt lat="46.62226" lon="0.43593">
        <ele>97.4</ele>
        <time>2023-02-26T09:23:57Z</time>
      </trkpt>
      <trkpt lat="46.62232" lon="0.43593">
        <ele>98.4</ele>
        <time>2023-02-26T09:24:00Z</time>
      </trkpt>
      <trkpt lat="46.6224" lon="0.43589">
        <ele>99.2</ele>
        <time>2023-02-26T09:24:04Z</time>
      </trkpt>
      <trkpt lat="46.62245" lon="0.43588">
        <ele>99.6</ele>
        <time>2023-02-26T09:24:06Z</time>
      </trkpt>
      <trkpt lat="46.62248" lon="0.43592">
        <ele>100</ele>
        <time>2023-02-26T09:24:08Z</time>
      </trkpt>
      <trkpt lat="46.62262" lon="0.43619">
        <ele>100.6</ele>
        <time>2023-02-26T09:24:15Z</time>
      </trkpt>
      <trkpt lat="46.62281" lon="0.43655">
        <ele>100.4</ele>
        <time>2023-02-26T09:24:24Z</time>
      </trkpt>
      <trkpt lat="46.62296" lon="0.43681">
        <ele>99.8</ele>
        <time>2023-02-26T09:24:31Z</time>
      </trkpt>
      <trkpt lat="46.62301" lon="0.4368">
        <ele>99.8</ele>
        <time>2023-02-26T09:24:33Z</time>
      </trkpt>
      <trkpt lat="46.62305" lon="0.43677">
        <ele>99.8</ele>
        <time>2023-02-26T09:24:35Z</time>
      </trkpt>
      <trkpt lat="46.62317" lon="0.43661">
        <ele>101.6</ele>
        <time>2023-02-26T09:24:41Z</time>
      </trkpt>
      <trkpt lat="46.62319" lon="0.43658">
        <ele>102</ele>
        <time>2023-02-26T09:24:42Z</time>
      </trkpt>
      <trkpt lat="46.62331" lon="0.43643">
        <ele>103.2</ele>
        <time>2023-02-26T09:24:48Z</time>
      </trkpt>
      <trkpt lat="46.62333" lon="0.4364">
        <ele>103.6</ele>
        <time>2023-02-26T09:24:49Z</time>
      </trkpt>
      <trkpt lat="46.62339" lon="0.43632">
        <ele>104.2</ele>
        <time>2023-02-26T09:24:52Z</time>
      </trkpt>
      <trkpt lat="46.62349" lon="0.43617">
        <ele>105</ele>
        <time>2023-02-26T09:24:58Z</time>
      </trkpt>
      <trkpt lat="46.62351" lon="0.43615">
        <ele>105.2</ele>
        <time>2023-02-26T09:24:59Z</time>
      </trkpt>
      <trkpt lat="46.62361" lon="0.43601">
        <ele>106.2</ele>
        <time>2023-02-26T09:25:05Z</time>
      </trkpt>
      <trkpt lat="46.62363" lon="0.43598">
        <ele>106.2</ele>
        <time>2023-02-26T09:25:06Z</time>
      </trkpt>
      <trkpt lat="46.62375" lon="0.43592">
        <ele>107</ele>
        <time>2023-02-26T09:25:11Z</time>
      </trkpt>
      <trkpt lat="46.62379" lon="0.43594">
        <ele>107.4</ele>
        <time>2023-02-26T09:25:13Z</time>
      </trkpt>
      <trkpt lat="46.62385" lon="0.436">
        <ele>107.6</ele>
        <time>2023-02-26T09:25:16Z</time>
      </trkpt>
      <trkpt lat="46.62396" lon="0.436">
        <ele>108</ele>
        <time>2023-02-26T09:25:20Z</time>
      </trkpt>
      <trkpt lat="46.62405" lon="0.43586">
        <ele>108.2</ele>
        <time>2023-02-26T09:25:25Z</time>
      </trkpt>
      <trkpt lat="46.62415" lon="0.43572">
        <ele>108.4</ele>
        <time>2023-02-26T09:25:30Z</time>
      </trkpt>
      <trkpt lat="46.62421" lon="0.43563">
        <ele>108.8</ele>
        <time>2023-02-26T09:25:33Z</time>
      </trkpt>
      <trkpt lat="46.62428" lon="0.43548">
        <ele>109.6</ele>
        <time>2023-02-26T09:25:37Z</time>
      </trkpt>
      <trkpt lat="46.62437" lon="0.43531">
        <ele>110.6</ele>
        <time>2023-02-26T09:25:41Z</time>
      </trkpt>
      <trkpt lat="46.62441" lon="0.43524">
        <ele>110.8</ele>
        <time>2023-02-26T09:25:43Z</time>
      </trkpt>
      <trkpt lat="46.62451" lon="0.43511">
        <ele>111</ele>
        <time>2023-02-26T09:25:47Z</time>
      </trkpt>
      <trkpt lat="46.62463" lon="0.4351">
        <ele>110.8</ele>
        <time>2023-02-26T09:25:51Z</time>
      </trkpt>
      <trkpt lat="46.62484" lon="0.43511">
        <ele>109.8</ele>
        <time>2023-02-26T09:25:57Z</time>
      </trkpt>
      <trkpt lat="46.62489" lon="0.43508">
        <ele>109.2</ele>
        <time>2023-02-26T09:25:59Z</time>
      </trkpt>
      <trkpt lat="46.6249" lon="0.43502">
        <ele>108.8</ele>
        <time>2023-02-26T09:26:01Z</time>
      </trkpt>
      <trkpt lat="46.62491" lon="0.43492">
        <ele>108.8</ele>
        <time>2023-02-26T09:26:03Z</time>
      </trkpt>
      <trkpt lat="46.62492" lon="0.43476">
        <ele>108.8</ele>
        <time>2023-02-26T09:26:06Z</time>
      </trkpt>
      <trkpt lat="46.62493" lon="0.43465">
        <ele>110.2</ele>
        <time>2023-02-26T09:26:08Z</time>
      </trkpt>
      <trkpt lat="46.62496" lon="0.43444">
        <ele>111</ele>
        <time>2023-02-26T09:26:12Z</time>
      </trkpt>
      <trkpt lat="46.62499" lon="0.43441">
        <ele>111</ele>
        <time>2023-02-26T09:26:13Z</time>
      </trkpt>
      <trkpt lat="46.62506" lon="0.43438">
        <ele>111</ele>
        <time>2023-02-26T09:26:15Z</time>
      </trkpt>
      <trkpt lat="46.62516" lon="0.43439">
        <ele>111.4</ele>
        <time>2023-02-26T09:26:18Z</time>
      </trkpt>
      <trkpt lat="46.62523" lon="0.43436">
        <ele>111.4</ele>
        <time>2023-02-26T09:26:20Z</time>
      </trkpt>
      <trkpt lat="46.62536" lon="0.4342">
        <ele>112</ele>
        <time>2023-02-26T09:26:25Z</time>
      </trkpt>
      <trkpt lat="46.62543" lon="0.4341">
        <ele>112.6</ele>
        <time>2023-02-26T09:26:28Z</time>
      </trkpt>
      <trkpt lat="46.62556" lon="0.43391">
        <ele>113</ele>
        <time>2023-02-26T09:26:33Z</time>
      </trkpt>
      <trkpt lat="46.62568" lon="0.43384">
        <ele>114.2</ele>
        <time>2023-02-26T09:26:37Z</time>
      </trkpt>
      <trkpt lat="46.62571" lon="0.43383">
        <ele>114.4</ele>
        <time>2023-02-26T09:26:38Z</time>
      </trkpt>
      <trkpt lat="46.62584" lon="0.43373">
        <ele>115.4</ele>
        <time>2023-02-26T09:26:42Z</time>
      </trkpt>
      <trkpt lat="46.62595" lon="0.43364">
        <ele>115.4</ele>
        <time>2023-02-26T09:26:45Z</time>
      </trkpt>
      <trkpt lat="46.62626" lon="0.43337">
        <ele>115.4</ele>
        <time>2023-02-26T09:26:54Z</time>
      </trkpt>
      <trkpt lat="46.62646" lon="0.4331">
        <ele>116.2</ele>
        <time>2023-02-26T09:27:02Z</time>
      </trkpt>
      <trkpt lat="46.62657" lon="0.43284">
        <ele>116.6</ele>
        <time>2023-02-26T09:27:06Z</time>
      </trkpt>
      <trkpt lat="46.6266" lon="0.43273">
        <ele>117</ele>
        <time>2023-02-26T09:27:08Z</time>
      </trkpt>
      <trkpt lat="46.62663" lon="0.43229">
        <ele>117.2</ele>
        <time>2023-02-26T09:27:15Z</time>
      </trkpt>
      <trkpt lat="46.62656" lon="0.43188">
        <ele>117.4</ele>
        <time>2023-02-26T09:27:22Z</time>
      </trkpt>
      <trkpt lat="46.62647" lon="0.43156">
        <ele>116.6</ele>
        <time>2023-02-26T09:27:28Z</time>
      </trkpt>
      <trkpt lat="46.62644" lon="0.43144">
        <ele>116.8</ele>
        <time>2023-02-26T09:27:31Z</time>
      </trkpt>
      <trkpt lat="46.62645" lon="0.43135">
        <ele>117</ele>
        <time>2023-02-26T09:27:33Z</time>
      </trkpt>
      <trkpt lat="46.62649" lon="0.43118">
        <ele>116.6</ele>
        <time>2023-02-26T09:27:37Z</time>
      </trkpt>
      <trkpt lat="46.62648" lon="0.43114">
        <ele>116.4</ele>
        <time>2023-02-26T09:27:38Z</time>
      </trkpt>
      <trkpt lat="46.62646" lon="0.43112">
        <ele>116.4</ele>
        <time>2023-02-26T09:27:39Z</time>
      </trkpt>
      <trkpt lat="46.62638" lon="0.43107">
        <ele>116.4</ele>
        <time>2023-02-26T09:27:41Z</time>
      </trkpt>
      <trkpt lat="46.62614" lon="0.43091">
        <ele>116.2</ele>
        <time>2023-02-26T09:27:46Z</time>
      </trkpt>
      <trkpt lat="46.62586" lon="0.43076">
        <ele>115.8</ele>
        <time>2023-02-26T09:27:51Z</time>
      </trkpt>
      <trkpt lat="46.62564" lon="0.43057">
        <ele>115.4</ele>
        <time>2023-02-26T09:27:55Z</time>
      </trkpt>
      <trkpt lat="46.62552" lon="0.43047">
        <ele>115.2</ele>
        <time>2023-02-26T09:27:57Z</time>
      </trkpt>
      <trkpt lat="46.62526" lon="0.43032">
        <ele>114.4</ele>
        <time>2023-02-26T09:28:01Z</time>
      </trkpt>
      <trkpt lat="46.62512" lon="0.43027">
        <ele>114.2</ele>
        <time>2023-02-26T09:28:03Z</time>
      </trkpt>
      <trkpt lat="46.625" lon="0.43018">
        <ele>114.2</ele>
        <time>2023-02-26T09:28:05Z</time>
      </trkpt>
      <trkpt lat="46.62491" lon="0.43008">
        <ele>114</ele>
        <time>2023-02-26T09:28:07Z</time>
      </trkpt>
      <trkpt lat="46.62488" lon="0.42994">
        <ele>113.8</ele>
        <time>2023-02-26T09:28:09Z</time>
      </trkpt>
      <trkpt lat="46.62489" lon="0.42987">
        <ele>113.6</ele>
        <time>2023-02-26T09:28:10Z</time>
      </trkpt>
      <trkpt lat="46.62491" lon="0.4298">
        <ele>113.6</ele>
        <time>2023-02-26T09:28:11Z</time>
      </trkpt>
      <trkpt lat="46.62497" lon="0.42968">
        <ele>113.6</ele>
        <time>2023-02-26T09:28:13Z</time>
      </trkpt>
      <trkpt lat="46.62517" lon="0.42935">
        <ele>114.4</ele>
        <time>2023-02-26T09:28:19Z</time>
      </trkpt>
      <trkpt lat="46.6252" lon="0.42922">
        <ele>114.6</ele>
        <time>2023-02-26T09:28:21Z</time>
      </trkpt>
      <trkpt lat="46.62519" lon="0.42916">
        <ele>114.4</ele>
        <time>2023-02-26T09:28:22Z</time>
      </trkpt>
      <trkpt lat="46.62515" lon="0.42911">
        <ele>114.2</ele>
        <time>2023-02-26T09:28:23Z</time>
      </trkpt>
      <trkpt lat="46.62507" lon="0.42903">
        <ele>113.6</ele>
        <time>2023-02-26T09:28:25Z</time>
      </trkpt>
      <trkpt lat="46.62499" lon="0.42894">
        <ele>113.4</ele>
        <time>2023-02-26T09:28:27Z</time>
      </trkpt>
      <trkpt lat="46.62483" lon="0.42876">
        <ele>113</ele>
        <time>2023-02-26T09:28:31Z</time>
      </trkpt>
      <trkpt lat="46.62456" lon="0.42844">
        <ele>112.4</ele>
        <time>2023-02-26T09:28:37Z</time>
      </trkpt>
      <trkpt lat="46.62451" lon="0.42838">
        <ele>112.2</ele>
        <time>2023-02-26T09:28:38Z</time>
      </trkpt>
      <trkpt lat="46.62437" lon="0.42823">
        <ele>112</ele>
        <time>2023-02-26T09:28:41Z</time>
      </trkpt>
      <trkpt lat="46.62432" lon="0.42822">
        <ele>112</ele>
        <time>2023-02-26T09:28:42Z</time>
      </trkpt>
      <trkpt lat="46.62427" lon="0.42824">
        <ele>112</ele>
        <time>2023-02-26T09:28:43Z</time>
      </trkpt>
      <trkpt lat="46.62419" lon="0.42833">
        <ele>112</ele>
        <time>2023-02-26T09:28:45Z</time>
      </trkpt>
      <trkpt lat="46.62401" lon="0.42857">
        <ele>111.6</ele>
        <time>2023-02-26T09:28:50Z</time>
      </trkpt>
      <trkpt lat="46.62397" lon="0.42858">
        <ele>111.4</ele>
        <time>2023-02-26T09:28:51Z</time>
      </trkpt>
      <trkpt lat="46.62392" lon="0.42853">
        <ele>111.2</ele>
        <time>2023-02-26T09:28:53Z</time>
      </trkpt>
      <trkpt lat="46.62391" lon="0.42849">
        <ele>111.2</ele>
        <time>2023-02-26T09:28:54Z</time>
      </trkpt>
      <trkpt lat="46.62397" lon="0.42826">
        <ele>110.4</ele>
        <time>2023-02-26T09:28:58Z</time>
      </trkpt>
      <trkpt lat="46.62399" lon="0.42805">
        <ele>110.2</ele>
        <time>2023-02-26T09:29:01Z</time>
      </trkpt>
      <trkpt lat="46.624" lon="0.42783">
        <ele>110.2</ele>
        <time>2023-02-26T09:29:04Z</time>
      </trkpt>
      <trkpt lat="46.624" lon="0.42767">
        <ele>110</ele>
        <time>2023-02-26T09:29:06Z</time>
      </trkpt>
      <trkpt lat="46.62395" lon="0.42733">
        <ele>109.8</ele>
        <time>2023-02-26T09:29:10Z</time>
      </trkpt>
      <trkpt lat="46.62384" lon="0.42685">
        <ele>109.2</ele>
        <time>2023-02-26T09:29:16Z</time>
      </trkpt>
      <trkpt lat="46.62375" lon="0.42648">
        <ele>108</ele>
        <time>2023-02-26T09:29:21Z</time>
      </trkpt>
      <trkpt lat="46.6237" lon="0.42633">
        <ele>107.6</ele>
        <time>2023-02-26T09:29:23Z</time>
      </trkpt>
      <trkpt lat="46.62362" lon="0.42608">
        <ele>106.8</ele>
        <time>2023-02-26T09:29:26Z</time>
      </trkpt>
      <trkpt lat="46.62351" lon="0.42575">
        <ele>105.4</ele>
        <time>2023-02-26T09:29:30Z</time>
      </trkpt>
      <trkpt lat="46.62344" lon="0.42551">
        <ele>104.6</ele>
        <time>2023-02-26T09:29:34Z</time>
      </trkpt>
      <trkpt lat="46.62343" lon="0.42547">
        <ele>104.2</ele>
        <time>2023-02-26T09:29:35Z</time>
      </trkpt>
      <trkpt lat="46.62332" lon="0.42534">
        <ele>103.6</ele>
        <time>2023-02-26T09:29:40Z</time>
      </trkpt>
      <trkpt lat="46.6233" lon="0.42532">
        <ele>103.2</ele>
        <time>2023-02-26T09:29:41Z</time>
      </trkpt>
      <trkpt lat="46.62322" lon="0.42526">
        <ele>102.6</ele>
        <time>2023-02-26T09:29:45Z</time>
      </trkpt>
      <trkpt lat="46.62324" lon="0.4253">
        <ele>102.8</ele>
        <time>2023-02-26T09:29:48Z</time>
      </trkpt>
      <trkpt lat="46.62324" lon="0.42524">
        <ele>103.2</ele>
        <time>2023-02-26T09:29:51Z</time>
      </trkpt>
      <trkpt lat="46.62312" lon="0.42517">
        <ele>103.4</ele>
        <time>2023-02-26T09:29:55Z</time>
      </trkpt>
      <trkpt lat="46.62292" lon="0.42495">
        <ele>103</ele>
        <time>2023-02-26T09:30:00Z</time>
      </trkpt>
      <trkpt lat="46.62259" lon="0.42454">
        <ele>103.2</ele>
        <time>2023-02-26T09:30:07Z</time>
      </trkpt>
      <trkpt lat="46.62231" lon="0.42418">
        <ele>103.4</ele>
        <time>2023-02-26T09:30:13Z</time>
      </trkpt>
      <trkpt lat="46.62201" lon="0.42377">
        <ele>104.2</ele>
        <time>2023-02-26T09:30:20Z</time>
      </trkpt>
      <trkpt lat="46.62179" lon="0.42339">
        <ele>104</ele>
        <time>2023-02-26T09:30:26Z</time>
      </trkpt>
      <trkpt lat="46.62161" lon="0.42307">
        <ele>104.2</ele>
        <time>2023-02-26T09:30:31Z</time>
      </trkpt>
      <trkpt lat="46.62147" lon="0.4229">
        <ele>103.8</ele>
        <time>2023-02-26T09:30:34Z</time>
      </trkpt>
      <trkpt lat="46.62131" lon="0.42265">
        <ele>103.4</ele>
        <time>2023-02-26T09:30:38Z</time>
      </trkpt>
      <trkpt lat="46.62124" lon="0.4225">
        <ele>103.2</ele>
        <time>2023-02-26T09:30:40Z</time>
      </trkpt>
      <trkpt lat="46.62108" lon="0.42204">
        <ele>102.2</ele>
        <time>2023-02-26T09:30:46Z</time>
      </trkpt>
      <trkpt lat="46.62102" lon="0.42187">
        <ele>101.8</ele>
        <time>2023-02-26T09:30:48Z</time>
      </trkpt>
      <trkpt lat="46.62093" lon="0.42161">
        <ele>101</ele>
        <time>2023-02-26T09:30:51Z</time>
      </trkpt>
      <trkpt lat="46.62082" lon="0.42135">
        <ele>100</ele>
        <time>2023-02-26T09:30:54Z</time>
      </trkpt>
      <trkpt lat="46.62079" lon="0.42126">
        <ele>99.6</ele>
        <time>2023-02-26T09:30:55Z</time>
      </trkpt>
      <trkpt lat="46.62071" lon="0.42109">
        <ele>99</ele>
        <time>2023-02-26T09:30:57Z</time>
      </trkpt>
      <trkpt lat="46.62066" lon="0.42101">
        <ele>98.6</ele>
        <time>2023-02-26T09:30:58Z</time>
      </trkpt>
      <trkpt lat="46.62061" lon="0.42091">
        <ele>98.2</ele>
        <time>2023-02-26T09:30:59Z</time>
      </trkpt>
      <trkpt lat="46.62057" lon="0.42082">
        <ele>97.6</ele>
        <time>2023-02-26T09:31:00Z</time>
      </trkpt>
      <trkpt lat="46.62053" lon="0.42072">
        <ele>97.4</ele>
        <time>2023-02-26T09:31:01Z</time>
      </trkpt>
      <trkpt lat="46.62034" lon="0.42037">
        <ele>96.4</ele>
        <time>2023-02-26T09:31:05Z</time>
      </trkpt>
      <trkpt lat="46.6202" lon="0.42014">
        <ele>95.2</ele>
        <time>2023-02-26T09:31:08Z</time>
      </trkpt>
      <trkpt lat="46.61991" lon="0.41973">
        <ele>94.6</ele>
        <time>2023-02-26T09:31:14Z</time>
      </trkpt>
      <trkpt lat="46.61972" lon="0.41946">
        <ele>94</ele>
        <time>2023-02-26T09:31:18Z</time>
      </trkpt>
      <trkpt lat="46.61958" lon="0.41925">
        <ele>92.6</ele>
        <time>2023-02-26T09:31:21Z</time>
      </trkpt>
      <trkpt lat="46.61954" lon="0.41917">
        <ele>92.4</ele>
        <time>2023-02-26T09:31:22Z</time>
      </trkpt>
      <trkpt lat="46.61948" lon="0.41901">
        <ele>92.2</ele>
        <time>2023-02-26T09:31:24Z</time>
      </trkpt>
      <trkpt lat="46.61947" lon="0.41882">
        <ele>92.2</ele>
        <time>2023-02-26T09:31:26Z</time>
      </trkpt>
      <trkpt lat="46.61951" lon="0.41854">
        <ele>91.8</ele>
        <time>2023-02-26T09:31:30Z</time>
      </trkpt>
      <trkpt lat="46.61951" lon="0.41848">
        <ele>91.6</ele>
        <time>2023-02-26T09:31:31Z</time>
      </trkpt>
      <trkpt lat="46.61952" lon="0.41843">
        <ele>90.8</ele>
        <time>2023-02-26T09:31:32Z</time>
      </trkpt>
      <trkpt lat="46.61956" lon="0.41825">
        <ele>89.8</ele>
        <time>2023-02-26T09:31:35Z</time>
      </trkpt>
      <trkpt lat="46.61958" lon="0.41817">
        <ele>89.4</ele>
        <time>2023-02-26T09:31:36Z</time>
      </trkpt>
      <trkpt lat="46.61964" lon="0.41781">
        <ele>88.2</ele>
        <time>2023-02-26T09:31:40Z</time>
      </trkpt>
      <trkpt lat="46.61966" lon="0.41761">
        <ele>86.4</ele>
        <time>2023-02-26T09:31:42Z</time>
      </trkpt>
      <trkpt lat="46.61964" lon="0.41739">
        <ele>85.2</ele>
        <time>2023-02-26T09:31:44Z</time>
      </trkpt>
      <trkpt lat="46.61954" lon="0.41705">
        <ele>84.2</ele>
        <time>2023-02-26T09:31:47Z</time>
      </trkpt>
      <trkpt lat="46.61947" lon="0.41681">
        <ele>81.8</ele>
        <time>2023-02-26T09:31:49Z</time>
      </trkpt>
      <trkpt lat="46.61944" lon="0.41668">
        <ele>79.8</ele>
        <time>2023-02-26T09:31:50Z</time>
      </trkpt>
      <trkpt lat="46.6194" lon="0.41654">
        <ele>78.8</ele>
        <time>2023-02-26T09:31:51Z</time>
      </trkpt>
      <trkpt lat="46.61932" lon="0.41626">
        <ele>77.4</ele>
        <time>2023-02-26T09:31:53Z</time>
      </trkpt>
      <trkpt lat="46.61929" lon="0.41611">
        <ele>76.6</ele>
        <time>2023-02-26T09:31:54Z</time>
      </trkpt>
      <trkpt lat="46.61926" lon="0.41597">
        <ele>75.8</ele>
        <time>2023-02-26T09:31:55Z</time>
      </trkpt>
      <trkpt lat="46.61923" lon="0.41582">
        <ele>74.6</ele>
        <time>2023-02-26T09:31:56Z</time>
      </trkpt>
      <trkpt lat="46.61917" lon="0.41556">
        <ele>72.8</ele>
        <time>2023-02-26T09:31:58Z</time>
      </trkpt>
      <trkpt lat="46.61914" lon="0.41544">
        <ele>71.8</ele>
        <time>2023-02-26T09:31:59Z</time>
      </trkpt>
      <trkpt lat="46.61912" lon="0.41534">
        <ele>71.4</ele>
        <time>2023-02-26T09:32:00Z</time>
      </trkpt>
      <trkpt lat="46.61905" lon="0.41509">
        <ele>70.6</ele>
        <time>2023-02-26T09:32:03Z</time>
      </trkpt>
      <trkpt lat="46.61903" lon="0.41501">
        <ele>70.8</ele>
        <time>2023-02-26T09:32:05Z</time>
      </trkpt>
      <trkpt lat="46.61902" lon="0.41498">
        <ele>71</ele>
        <time>2023-02-26T09:32:06Z</time>
      </trkpt>
      <trkpt lat="46.61901" lon="0.4149">
        <ele>73</ele>
        <time>2023-02-26T09:32:09Z</time>
      </trkpt>
      <trkpt lat="46.619" lon="0.41488">
        <ele>74</ele>
        <time>2023-02-26T09:32:10Z</time>
      </trkpt>
      <trkpt lat="46.619" lon="0.41486">
        <ele>75.6</ele>
        <time>2023-02-26T09:32:11Z</time>
      </trkpt>
      <trkpt lat="46.619" lon="0.41484">
        <ele>76.6</ele>
        <time>2023-02-26T09:32:12Z</time>
      </trkpt>
      <trkpt lat="46.619" lon="0.41481">
        <ele>77.4</ele>
        <time>2023-02-26T09:32:13Z</time>
      </trkpt>
      <trkpt lat="46.61899" lon="0.41477">
        <ele>78.8</ele>
        <time>2023-02-26T09:32:15Z</time>
      </trkpt>
      <trkpt lat="46.61899" lon="0.41475">
        <ele>80</ele>
        <time>2023-02-26T09:32:17Z</time>
      </trkpt>
      <trkpt lat="46.61899" lon="0.41475">
        <ele>80.4</ele>
        <time>2023-02-26T09:32:18Z</time>
      </trkpt>
      <trkpt lat="46.61901" lon="0.41474">
        <ele>80.8</ele>
        <time>2023-02-26T09:32:20Z</time>
      </trkpt>
      <trkpt lat="46.61903" lon="0.41474">
        <ele>81</ele>
        <time>2023-02-26T09:32:22Z</time>
      </trkpt>
      <trkpt lat="46.61905" lon="0.41475">
        <ele>81.2</ele>
        <time>2023-02-26T09:32:23Z</time>
      </trkpt>
      <trkpt lat="46.61915" lon="0.41477">
        <ele>81.8</ele>
        <time>2023-02-26T09:32:29Z</time>
      </trkpt>
      <trkpt lat="46.61918" lon="0.41479">
        <ele>82.4</ele>
        <time>2023-02-26T09:32:31Z</time>
      </trkpt>
      <trkpt lat="46.61923" lon="0.41482">
        <ele>83</ele>
        <time>2023-02-26T09:32:34Z</time>
      </trkpt>
      <trkpt lat="46.61924" lon="0.41482">
        <ele>83</ele>
        <time>2023-02-26T09:32:35Z</time>
      </trkpt>
      <trkpt lat="46.61932" lon="0.41483">
        <ele>83.4</ele>
        <time>2023-02-26T09:32:39Z</time>
      </trkpt>
      <trkpt lat="46.61938" lon="0.41486">
        <ele>83.4</ele>
        <time>2023-02-26T09:32:42Z</time>
      </trkpt>
      <trkpt lat="46.61944" lon="0.41487">
        <ele>82.4</ele>
        <time>2023-02-26T09:32:44Z</time>
      </trkpt>
      <trkpt lat="46.61949" lon="0.41488">
        <ele>81.2</ele>
        <time>2023-02-26T09:32:45Z</time>
      </trkpt>
      <trkpt lat="46.61953" lon="0.41489">
        <ele>80.2</ele>
        <time>2023-02-26T09:32:46Z</time>
      </trkpt>
      <trkpt lat="46.61956" lon="0.41489">
        <ele>79.2</ele>
        <time>2023-02-26T09:32:47Z</time>
      </trkpt>
      <trkpt lat="46.61962" lon="0.41487">
        <ele>78.2</ele>
        <time>2023-02-26T09:32:50Z</time>
      </trkpt>
      <trkpt lat="46.61966" lon="0.41487">
        <ele>78</ele>
        <time>2023-02-26T09:32:52Z</time>
      </trkpt>
      <trkpt lat="46.61972" lon="0.41488">
        <ele>78.6</ele>
        <time>2023-02-26T09:32:56Z</time>
      </trkpt>
      <trkpt lat="46.61978" lon="0.41489">
        <ele>79.2</ele>
        <time>2023-02-26T09:33:06Z</time>
      </trkpt>
      <trkpt lat="46.61978" lon="0.41489">
        <ele>79.4</ele>
        <time>2023-02-26T09:33:08Z</time>
      </trkpt>
      <trkpt lat="46.61984" lon="0.41489">
        <ele>79.6</ele>
        <time>2023-02-26T09:33:18Z</time>
      </trkpt>
      <trkpt lat="46.61991" lon="0.41489">
        <ele>80.4</ele>
        <time>2023-02-26T09:33:23Z</time>
      </trkpt>
      <trkpt lat="46.61993" lon="0.41489">
        <ele>81.6</ele>
        <time>2023-02-26T09:33:25Z</time>
      </trkpt>
      <trkpt lat="46.61995" lon="0.41489">
        <ele>82.6</ele>
        <time>2023-02-26T09:33:27Z</time>
      </trkpt>
      <trkpt lat="46.61995" lon="0.41489">
        <ele>83.6</ele>
        <time>2023-02-26T09:33:28Z</time>
      </trkpt>
      <trkpt lat="46.61999" lon="0.41488">
        <ele>84</ele>
        <time>2023-02-26T09:33:30Z</time>
      </trkpt>
      <trkpt lat="46.62" lon="0.41488">
        <ele>84.2</ele>
        <time>2023-02-26T09:33:31Z</time>
      </trkpt>
      <trkpt lat="46.62004" lon="0.41487">
        <ele>84.4</ele>
        <time>2023-02-26T09:33:37Z</time>
      </trkpt>
      <trkpt lat="46.62011" lon="0.41489">
        <ele>84.6</ele>
        <time>2023-02-26T09:33:46Z</time>
      </trkpt>
      <trkpt lat="46.62011" lon="0.41491">
        <ele>84.4</ele>
        <time>2023-02-26T09:33:47Z</time>
      </trkpt>
      <trkpt lat="46.62015" lon="0.415">
        <ele>82.4</ele>
        <time>2023-02-26T09:33:51Z</time>
      </trkpt>
      <trkpt lat="46.62017" lon="0.41502">
        <ele>81.2</ele>
        <time>2023-02-26T09:33:52Z</time>
      </trkpt>
      <trkpt lat="46.62019" lon="0.41504">
        <ele>80.6</ele>
        <time>2023-02-26T09:33:53Z</time>
      </trkpt>
      <trkpt lat="46.6202" lon="0.41506">
        <ele>79.8</ele>
        <time>2023-02-26T09:33:54Z</time>
      </trkpt>
      <trkpt lat="46.62024" lon="0.41508">
        <ele>78.4</ele>
        <time>2023-02-26T09:33:56Z</time>
      </trkpt>
      <trkpt lat="46.62027" lon="0.4151">
        <ele>77.8</ele>
        <time>2023-02-26T09:33:58Z</time>
      </trkpt>
      <trkpt lat="46.62031" lon="0.41517">
        <ele>77.4</ele>
        <time>2023-02-26T09:34:01Z</time>
      </trkpt>
      <trkpt lat="46.62034" lon="0.41522">
        <ele>77</ele>
        <time>2023-02-26T09:34:03Z</time>
      </trkpt>
      <trkpt lat="46.62038" lon="0.41526">
        <ele>76</ele>
        <time>2023-02-26T09:34:05Z</time>
      </trkpt>
      <trkpt lat="46.6204" lon="0.41527">
        <ele>75.4</ele>
        <time>2023-02-26T09:34:06Z</time>
      </trkpt>
      <trkpt lat="46.62043" lon="0.41529">
        <ele>74.8</ele>
        <time>2023-02-26T09:34:08Z</time>
      </trkpt>
      <trkpt lat="46.62056" lon="0.41537">
        <ele>74.4</ele>
        <time>2023-02-26T09:34:15Z</time>
      </trkpt>
      <trkpt lat="46.62066" lon="0.41547">
        <ele>74.2</ele>
        <time>2023-02-26T09:34:21Z</time>
      </trkpt>
      <trkpt lat="46.62072" lon="0.41553">
        <ele>74.6</ele>
        <time>2023-02-26T09:34:28Z</time>
      </trkpt>
      <trkpt lat="46.62076" lon="0.41555">
        <ele>76</ele>
        <time>2023-02-26T09:34:32Z</time>
      </trkpt>
      <trkpt lat="46.62078" lon="0.41556">
        <ele>76.6</ele>
        <time>2023-02-26T09:34:34Z</time>
      </trkpt>
      <trkpt lat="46.6208" lon="0.41556">
        <ele>77.4</ele>
        <time>2023-02-26T09:34:36Z</time>
      </trkpt>
      <trkpt lat="46.62083" lon="0.41557">
        <ele>78.4</ele>
        <time>2023-02-26T09:34:40Z</time>
      </trkpt>
      <trkpt lat="46.62083" lon="0.41557">
        <ele>78.4</ele>
        <time>2023-02-26T09:34:41Z</time>
      </trkpt>
      <trkpt lat="46.6209" lon="0.41554">
        <ele>79.8</ele>
        <time>2023-02-26T09:34:49Z</time>
      </trkpt>
      <trkpt lat="46.6209" lon="0.41553">
        <ele>80.2</ele>
        <time>2023-02-26T09:34:50Z</time>
      </trkpt>
      <trkpt lat="46.6209" lon="0.41549">
        <ele>80.8</ele>
        <time>2023-02-26T09:34:52Z</time>
      </trkpt>
      <trkpt lat="46.62087" lon="0.41539">
        <ele>81.8</ele>
        <time>2023-02-26T09:34:58Z</time>
      </trkpt>
      <trkpt lat="46.62087" lon="0.41538">
        <ele>82</ele>
        <time>2023-02-26T09:34:59Z</time>
      </trkpt>
      <trkpt lat="46.62088" lon="0.41529">
        <ele>83</ele>
        <time>2023-02-26T09:35:04Z</time>
      </trkpt>
      <trkpt lat="46.62088" lon="0.41528">
        <ele>83.2</ele>
        <time>2023-02-26T09:35:05Z</time>
      </trkpt>
      <trkpt lat="46.62089" lon="0.41526">
        <ele>84</ele>
        <time>2023-02-26T09:35:08Z</time>
      </trkpt>
      <trkpt lat="46.6209" lon="0.41526">
        <ele>84.2</ele>
        <time>2023-02-26T09:35:09Z</time>
      </trkpt>
      <trkpt lat="46.62091" lon="0.41526">
        <ele>84.2</ele>
        <time>2023-02-26T09:35:10Z</time>
      </trkpt>
      <trkpt lat="46.62093" lon="0.41527">
        <ele>84.4</ele>
        <time>2023-02-26T09:35:12Z</time>
      </trkpt>
      <trkpt lat="46.621" lon="0.41538">
        <ele>83.8</ele>
        <time>2023-02-26T09:35:19Z</time>
      </trkpt>
      <trkpt lat="46.62104" lon="0.41544">
        <ele>82.8</ele>
        <time>2023-02-26T09:35:22Z</time>
      </trkpt>
      <trkpt lat="46.62106" lon="0.41545">
        <ele>82.4</ele>
        <time>2023-02-26T09:35:24Z</time>
      </trkpt>
      <trkpt lat="46.62108" lon="0.41545">
        <ele>82.6</ele>
        <time>2023-02-26T09:35:27Z</time>
      </trkpt>
      <trkpt lat="46.62111" lon="0.41543">
        <ele>83.2</ele>
        <time>2023-02-26T09:35:32Z</time>
      </trkpt>
      <trkpt lat="46.62113" lon="0.41542">
        <ele>83.6</ele>
        <time>2023-02-26T09:35:34Z</time>
      </trkpt>
      <trkpt lat="46.62114" lon="0.41541">
        <ele>84</ele>
        <time>2023-02-26T09:35:35Z</time>
      </trkpt>
      <trkpt lat="46.62116" lon="0.4154">
        <ele>85</ele>
        <time>2023-02-26T09:35:38Z</time>
      </trkpt>
      <trkpt lat="46.62117" lon="0.4154">
        <ele>85.2</ele>
        <time>2023-02-26T09:35:40Z</time>
      </trkpt>
      <trkpt lat="46.6212" lon="0.41541">
        <ele>85.6</ele>
        <time>2023-02-26T09:35:42Z</time>
      </trkpt>
      <trkpt lat="46.62121" lon="0.41541">
        <ele>85.8</ele>
        <time>2023-02-26T09:35:43Z</time>
      </trkpt>
      <trkpt lat="46.62124" lon="0.4154">
        <ele>86</ele>
        <time>2023-02-26T09:35:45Z</time>
      </trkpt>
      <trkpt lat="46.62132" lon="0.41541">
        <ele>86.8</ele>
        <time>2023-02-26T09:35:51Z</time>
      </trkpt>
      <trkpt lat="46.62136" lon="0.41542">
        <ele>87</ele>
        <time>2023-02-26T09:35:54Z</time>
      </trkpt>
      <trkpt lat="46.62144" lon="0.41543">
        <ele>87.6</ele>
        <time>2023-02-26T09:36:00Z</time>
      </trkpt>
      <trkpt lat="46.62145" lon="0.41542">
        <ele>87.6</ele>
        <time>2023-02-26T09:36:01Z</time>
      </trkpt>
      <trkpt lat="46.62151" lon="0.4154">
        <ele>88.2</ele>
        <time>2023-02-26T09:36:05Z</time>
      </trkpt>
      <trkpt lat="46.62156" lon="0.41541">
        <ele>88.6</ele>
        <time>2023-02-26T09:36:09Z</time>
      </trkpt>
      <trkpt lat="46.62157" lon="0.41541">
        <ele>88.8</ele>
        <time>2023-02-26T09:36:10Z</time>
      </trkpt>
      <trkpt lat="46.62168" lon="0.41546">
        <ele>89.4</ele>
        <time>2023-02-26T09:36:19Z</time>
      </trkpt>
      <trkpt lat="46.62174" lon="0.41557">
        <ele>89.4</ele>
        <time>2023-02-26T09:36:23Z</time>
      </trkpt>
      <trkpt lat="46.62184" lon="0.41565">
        <ele>88.2</ele>
        <time>2023-02-26T09:36:28Z</time>
      </trkpt>
      <trkpt lat="46.62194" lon="0.41579">
        <ele>87</ele>
        <time>2023-02-26T09:36:33Z</time>
      </trkpt>
      <trkpt lat="46.62199" lon="0.41584">
        <ele>86.2</ele>
        <time>2023-02-26T09:36:35Z</time>
      </trkpt>
      <trkpt lat="46.62199" lon="0.41584">
        <ele>85.4</ele>
        <time>2023-02-26T09:36:36Z</time>
      </trkpt>
      <trkpt lat="46.6221" lon="0.41595">
        <ele>84.4</ele>
        <time>2023-02-26T09:36:41Z</time>
      </trkpt>
      <trkpt lat="46.62213" lon="0.41596">
        <ele>84</ele>
        <time>2023-02-26T09:36:42Z</time>
      </trkpt>
      <trkpt lat="46.62224" lon="0.41603">
        <ele>83</ele>
        <time>2023-02-26T09:36:47Z</time>
      </trkpt>
      <trkpt lat="46.62234" lon="0.41607">
        <ele>81.8</ele>
        <time>2023-02-26T09:36:51Z</time>
      </trkpt>
      <trkpt lat="46.62239" lon="0.41609">
        <ele>81.4</ele>
        <time>2023-02-26T09:36:53Z</time>
      </trkpt>
      <trkpt lat="46.62248" lon="0.41613">
        <ele>81</ele>
        <time>2023-02-26T09:36:57Z</time>
      </trkpt>
      <trkpt lat="46.62251" lon="0.41618">
        <ele>80.8</ele>
        <time>2023-02-26T09:36:59Z</time>
      </trkpt>
      <trkpt lat="46.62252" lon="0.4162">
        <ele>80.8</ele>
        <time>2023-02-26T09:37:00Z</time>
      </trkpt>
      <trkpt lat="46.62252" lon="0.41625">
        <ele>79.6</ele>
        <time>2023-02-26T09:37:03Z</time>
      </trkpt>
      <trkpt lat="46.6225" lon="0.41632">
        <ele>78.4</ele>
        <time>2023-02-26T09:37:06Z</time>
      </trkpt>
      <trkpt lat="46.6225" lon="0.41633">
        <ele>78</ele>
        <time>2023-02-26T09:37:07Z</time>
      </trkpt>
      <trkpt lat="46.62251" lon="0.41637">
        <ele>77</ele>
        <time>2023-02-26T09:37:09Z</time>
      </trkpt>
      <trkpt lat="46.62252" lon="0.41641">
        <ele>75.4</ele>
        <time>2023-02-26T09:37:11Z</time>
      </trkpt>
      <trkpt lat="46.62253" lon="0.41645">
        <ele>74.4</ele>
        <time>2023-02-26T09:37:13Z</time>
      </trkpt>
      <trkpt lat="46.62256" lon="0.41646">
        <ele>73.6</ele>
        <time>2023-02-26T09:37:15Z</time>
      </trkpt>
      <trkpt lat="46.62257" lon="0.41646">
        <ele>73.2</ele>
        <time>2023-02-26T09:37:16Z</time>
      </trkpt>
      <trkpt lat="46.62259" lon="0.41644">
        <ele>72.6</ele>
        <time>2023-02-26T09:37:19Z</time>
      </trkpt>
      <trkpt lat="46.62263" lon="0.41636">
        <ele>74.4</ele>
        <time>2023-02-26T09:37:25Z</time>
      </trkpt>
      <trkpt lat="46.62264" lon="0.41633">
        <ele>75.2</ele>
        <time>2023-02-26T09:37:27Z</time>
      </trkpt>
      <trkpt lat="46.62264" lon="0.41631">
        <ele>75.4</ele>
        <time>2023-02-26T09:37:28Z</time>
      </trkpt>
      <trkpt lat="46.62265" lon="0.41628">
        <ele>76.4</ele>
        <time>2023-02-26T09:37:30Z</time>
      </trkpt>
      <trkpt lat="46.62266" lon="0.41625">
        <ele>77.8</ele>
        <time>2023-02-26T09:37:32Z</time>
      </trkpt>
      <trkpt lat="46.62268" lon="0.4162">
        <ele>78.8</ele>
        <time>2023-02-26T09:37:35Z</time>
      </trkpt>
      <trkpt lat="46.6227" lon="0.41614">
        <ele>80</ele>
        <time>2023-02-26T09:37:39Z</time>
      </trkpt>
      <trkpt lat="46.62271" lon="0.41609">
        <ele>80.6</ele>
        <time>2023-02-26T09:37:42Z</time>
      </trkpt>
      <trkpt lat="46.62272" lon="0.41605">
        <ele>81</ele>
        <time>2023-02-26T09:37:44Z</time>
      </trkpt>
      <trkpt lat="46.62274" lon="0.41599">
        <ele>82.2</ele>
        <time>2023-02-26T09:37:47Z</time>
      </trkpt>
      <trkpt lat="46.62277" lon="0.41594">
        <ele>83.2</ele>
        <time>2023-02-26T09:37:50Z</time>
      </trkpt>
      <trkpt lat="46.62279" lon="0.4158">
        <ele>84.2</ele>
        <time>2023-02-26T09:37:56Z</time>
      </trkpt>
      <trkpt lat="46.6228" lon="0.41574">
        <ele>84.6</ele>
        <time>2023-02-26T09:37:58Z</time>
      </trkpt>
      <trkpt lat="46.62279" lon="0.41564">
        <ele>85.8</ele>
        <time>2023-02-26T09:38:02Z</time>
      </trkpt>
      <trkpt lat="46.62279" lon="0.41555">
        <ele>86.4</ele>
        <time>2023-02-26T09:38:05Z</time>
      </trkpt>
      <trkpt lat="46.62279" lon="0.41543">
        <ele>86.8</ele>
        <time>2023-02-26T09:38:09Z</time>
      </trkpt>
      <trkpt lat="46.62281" lon="0.41525">
        <ele>87.6</ele>
        <time>2023-02-26T09:38:14Z</time>
      </trkpt>
      <trkpt lat="46.62281" lon="0.41522">
        <ele>88</ele>
        <time>2023-02-26T09:38:15Z</time>
      </trkpt>
      <trkpt lat="46.62281" lon="0.41515">
        <ele>88.2</ele>
        <time>2023-02-26T09:38:17Z</time>
      </trkpt>
      <trkpt lat="46.62282" lon="0.41504">
        <ele>89.2</ele>
        <time>2023-02-26T09:38:20Z</time>
      </trkpt>
      <trkpt lat="46.62283" lon="0.41484">
        <ele>89.6</ele>
        <time>2023-02-26T09:38:25Z</time>
      </trkpt>
      <trkpt lat="46.62285" lon="0.41447">
        <ele>90.2</ele>
        <time>2023-02-26T09:38:33Z</time>
      </trkpt>
      <trkpt lat="46.62285" lon="0.41442">
        <ele>90.4</ele>
        <time>2023-02-26T09:38:34Z</time>
      </trkpt>
      <trkpt lat="46.62287" lon="0.41402">
        <ele>90.2</ele>
        <time>2023-02-26T09:38:41Z</time>
      </trkpt>
      <trkpt lat="46.62291" lon="0.41357">
        <ele>89.2</ele>
        <time>2023-02-26T09:38:47Z</time>
      </trkpt>
      <trkpt lat="46.62292" lon="0.41349">
        <ele>89</ele>
        <time>2023-02-26T09:38:48Z</time>
      </trkpt>
      <trkpt lat="46.62296" lon="0.41314">
        <ele>88</ele>
        <time>2023-02-26T09:38:52Z</time>
      </trkpt>
      <trkpt lat="46.623" lon="0.41294">
        <ele>87.6</ele>
        <time>2023-02-26T09:38:54Z</time>
      </trkpt>
      <trkpt lat="46.62304" lon="0.41272">
        <ele>87</ele>
        <time>2023-02-26T09:38:56Z</time>
      </trkpt>
      <trkpt lat="46.62309" lon="0.41249">
        <ele>85.4</ele>
        <time>2023-02-26T09:38:58Z</time>
      </trkpt>
      <trkpt lat="46.62312" lon="0.41238">
        <ele>84.6</ele>
        <time>2023-02-26T09:38:59Z</time>
      </trkpt>
      <trkpt lat="46.62316" lon="0.41227">
        <ele>84</ele>
        <time>2023-02-26T09:39:00Z</time>
      </trkpt>
      <trkpt lat="46.6232" lon="0.41217">
        <ele>83.6</ele>
        <time>2023-02-26T09:39:01Z</time>
      </trkpt>
      <trkpt lat="46.62328" lon="0.41198">
        <ele>82.8</ele>
        <time>2023-02-26T09:39:03Z</time>
      </trkpt>
      <trkpt lat="46.62332" lon="0.41189">
        <ele>82.6</ele>
        <time>2023-02-26T09:39:04Z</time>
      </trkpt>
      <trkpt lat="46.62345" lon="0.41161">
        <ele>82.4</ele>
        <time>2023-02-26T09:39:08Z</time>
      </trkpt>
      <trkpt lat="46.62348" lon="0.41156">
        <ele>82.4</ele>
        <time>2023-02-26T09:39:09Z</time>
      </trkpt>
      <trkpt lat="46.62358" lon="0.41137">
        <ele>82.6</ele>
        <time>2023-02-26T09:39:13Z</time>
      </trkpt>
      <trkpt lat="46.62369" lon="0.41115">
        <ele>84</ele>
        <time>2023-02-26T09:39:18Z</time>
      </trkpt>
      <trkpt lat="46.6238" lon="0.41095">
        <ele>85.6</ele>
        <time>2023-02-26T09:39:23Z</time>
      </trkpt>
      <trkpt lat="46.62389" lon="0.41073">
        <ele>86.8</ele>
        <time>2023-02-26T09:39:28Z</time>
      </trkpt>
      <trkpt lat="46.62389" lon="0.41073">
        <ele>87.8</ele>
        <time>2023-02-26T09:39:31Z</time>
      </trkpt>
      <trkpt lat="46.62396" lon="0.41054">
        <ele>87.8</ele>
        <time>2023-02-26T09:39:32Z</time>
      </trkpt>
      <trkpt lat="46.624" lon="0.41039">
        <ele>89</ele>
        <time>2023-02-26T09:39:35Z</time>
      </trkpt>
      <trkpt lat="46.62407" lon="0.41017">
        <ele>89.4</ele>
        <time>2023-02-26T09:39:39Z</time>
      </trkpt>
      <trkpt lat="46.62419" lon="0.40989">
        <ele>90</ele>
        <time>2023-02-26T09:39:45Z</time>
      </trkpt>
      <trkpt lat="46.62432" lon="0.40966">
        <ele>90.4</ele>
        <time>2023-02-26T09:39:51Z</time>
      </trkpt>
      <trkpt lat="46.62439" lon="0.40952">
        <ele>90.8</ele>
        <time>2023-02-26T09:39:54Z</time>
      </trkpt>
      <trkpt lat="46.62445" lon="0.40942">
        <ele>91</ele>
        <time>2023-02-26T09:39:56Z</time>
      </trkpt>
      <trkpt lat="46.62448" lon="0.40937">
        <ele>91</ele>
        <time>2023-02-26T09:39:57Z</time>
      </trkpt>
      <trkpt lat="46.62453" lon="0.40919">
        <ele>90</ele>
        <time>2023-02-26T09:40:00Z</time>
      </trkpt>
      <trkpt lat="46.62454" lon="0.40912">
        <ele>89.8</ele>
        <time>2023-02-26T09:40:01Z</time>
      </trkpt>
      <trkpt lat="46.62453" lon="0.40906">
        <ele>89.6</ele>
        <time>2023-02-26T09:40:02Z</time>
      </trkpt>
      <trkpt lat="46.6245" lon="0.40894">
        <ele>89.2</ele>
        <time>2023-02-26T09:40:04Z</time>
      </trkpt>
      <trkpt lat="46.62447" lon="0.40888">
        <ele>89</ele>
        <time>2023-02-26T09:40:05Z</time>
      </trkpt>
      <trkpt lat="46.62441" lon="0.40873">
        <ele>88.8</ele>
        <time>2023-02-26T09:40:08Z</time>
      </trkpt>
      <trkpt lat="46.6244" lon="0.40863">
        <ele>88.8</ele>
        <time>2023-02-26T09:40:10Z</time>
      </trkpt>
      <trkpt lat="46.62451" lon="0.40854">
        <ele>88.8</ele>
        <time>2023-02-26T09:40:13Z</time>
      </trkpt>
      <trkpt lat="46.62484" lon="0.40837">
        <ele>87.8</ele>
        <time>2023-02-26T09:40:19Z</time>
      </trkpt>
      <trkpt lat="46.62503" lon="0.40828">
        <ele>87</ele>
        <time>2023-02-26T09:40:22Z</time>
      </trkpt>
      <trkpt lat="46.62516" lon="0.40821">
        <ele>86.2</ele>
        <time>2023-02-26T09:40:24Z</time>
      </trkpt>
      <trkpt lat="46.62529" lon="0.40815">
        <ele>84.8</ele>
        <time>2023-02-26T09:40:26Z</time>
      </trkpt>
      <trkpt lat="46.62536" lon="0.40812">
        <ele>83.8</ele>
        <time>2023-02-26T09:40:27Z</time>
      </trkpt>
      <trkpt lat="46.62551" lon="0.40806">
        <ele>81.8</ele>
        <time>2023-02-26T09:40:29Z</time>
      </trkpt>
      <trkpt lat="46.62558" lon="0.40803">
        <ele>79.8</ele>
        <time>2023-02-26T09:40:30Z</time>
      </trkpt>
      <trkpt lat="46.62565" lon="0.408">
        <ele>78.4</ele>
        <time>2023-02-26T09:40:31Z</time>
      </trkpt>
      <trkpt lat="46.62573" lon="0.40796">
        <ele>76.6</ele>
        <time>2023-02-26T09:40:32Z</time>
      </trkpt>
      <trkpt lat="46.62581" lon="0.40792">
        <ele>75.4</ele>
        <time>2023-02-26T09:40:33Z</time>
      </trkpt>
      <trkpt lat="46.62589" lon="0.40787">
        <ele>74.4</ele>
        <time>2023-02-26T09:40:34Z</time>
      </trkpt>
      <trkpt lat="46.62598" lon="0.40781">
        <ele>72.6</ele>
        <time>2023-02-26T09:40:35Z</time>
      </trkpt>
      <trkpt lat="46.62606" lon="0.40775">
        <ele>71</ele>
        <time>2023-02-26T09:40:36Z</time>
      </trkpt>
      <trkpt lat="46.62622" lon="0.4076">
        <ele>69.4</ele>
        <time>2023-02-26T09:40:38Z</time>
      </trkpt>
      <trkpt lat="46.6263" lon="0.40752">
        <ele>69</ele>
        <time>2023-02-26T09:40:39Z</time>
      </trkpt>
      <trkpt lat="46.62644" lon="0.40739">
        <ele>68.2</ele>
        <time>2023-02-26T09:40:41Z</time>
      </trkpt>
      <trkpt lat="46.6265" lon="0.40733">
        <ele>67.2</ele>
        <time>2023-02-26T09:40:42Z</time>
      </trkpt>
      <trkpt lat="46.62663" lon="0.40725">
        <ele>66.2</ele>
        <time>2023-02-26T09:40:44Z</time>
      </trkpt>
      <trkpt lat="46.62668" lon="0.40721">
        <ele>66</ele>
        <time>2023-02-26T09:40:45Z</time>
      </trkpt>
      <trkpt lat="46.62689" lon="0.40712">
        <ele>66.8</ele>
        <time>2023-02-26T09:40:49Z</time>
      </trkpt>
      <trkpt lat="46.62694" lon="0.40711">
        <ele>67.2</ele>
        <time>2023-02-26T09:40:50Z</time>
      </trkpt>
      <trkpt lat="46.62727" lon="0.40705">
        <ele>67.8</ele>
        <time>2023-02-26T09:40:57Z</time>
      </trkpt>
      <trkpt lat="46.62747" lon="0.40702">
        <ele>68.2</ele>
        <time>2023-02-26T09:41:01Z</time>
      </trkpt>
      <trkpt lat="46.62752" lon="0.40701">
        <ele>68.4</ele>
        <time>2023-02-26T09:41:02Z</time>
      </trkpt>
      <trkpt lat="46.62757" lon="0.40699">
        <ele>68.4</ele>
        <time>2023-02-26T09:41:03Z</time>
      </trkpt>
      <trkpt lat="46.62791" lon="0.4068">
        <ele>67.2</ele>
        <time>2023-02-26T09:41:09Z</time>
      </trkpt>
      <trkpt lat="46.62828" lon="0.40664">
        <ele>66.4</ele>
        <time>2023-02-26T09:41:15Z</time>
      </trkpt>
      <trkpt lat="46.62834" lon="0.40663">
        <ele>66</ele>
        <time>2023-02-26T09:41:16Z</time>
      </trkpt>
      <trkpt lat="46.6286" lon="0.40664">
        <ele>64.8</ele>
        <time>2023-02-26T09:41:20Z</time>
      </trkpt>
      <trkpt lat="46.62866" lon="0.40665">
        <ele>64.8</ele>
        <time>2023-02-26T09:41:21Z</time>
      </trkpt>
      <trkpt lat="46.62906" lon="0.4067">
        <ele>65.6</ele>
        <time>2023-02-26T09:41:28Z</time>
      </trkpt>
      <trkpt lat="46.62946" lon="0.40674">
        <ele>64.8</ele>
        <time>2023-02-26T09:41:36Z</time>
      </trkpt>
      <trkpt lat="46.62991" lon="0.40676">
        <ele>64.4</ele>
        <time>2023-02-26T09:41:45Z</time>
      </trkpt>
      <trkpt lat="46.63024" lon="0.4067">
        <ele>65</ele>
        <time>2023-02-26T09:41:52Z</time>
      </trkpt>
      <trkpt lat="46.63058" lon="0.40652">
        <ele>64.6</ele>
        <time>2023-02-26T09:42:00Z</time>
      </trkpt>
      <trkpt lat="46.63074" lon="0.40639">
        <ele>64</ele>
        <time>2023-02-26T09:42:04Z</time>
      </trkpt>
      <trkpt lat="46.63079" lon="0.4063">
        <ele>63.8</ele>
        <time>2023-02-26T09:42:06Z</time>
      </trkpt>
      <trkpt lat="46.63089" lon="0.40608">
        <ele>65.6</ele>
        <time>2023-02-26T09:42:12Z</time>
      </trkpt>
      <trkpt lat="46.63102" lon="0.4059">
        <ele>64.8</ele>
        <time>2023-02-26T09:42:20Z</time>
      </trkpt>
      <trkpt lat="46.6311" lon="0.40577">
        <ele>65.4</ele>
        <time>2023-02-26T09:42:27Z</time>
      </trkpt>
      <trkpt lat="46.63113" lon="0.40571">
        <ele>66</ele>
        <time>2023-02-26T09:42:30Z</time>
      </trkpt>
      <trkpt lat="46.63116" lon="0.40565">
        <ele>66.8</ele>
        <time>2023-02-26T09:42:33Z</time>
      </trkpt>
      <trkpt lat="46.63117" lon="0.40561">
        <ele>67.2</ele>
        <time>2023-02-26T09:42:35Z</time>
      </trkpt>
      <trkpt lat="46.6312" lon="0.40551">
        <ele>68</ele>
        <time>2023-02-26T09:42:39Z</time>
      </trkpt>
      <trkpt lat="46.63121" lon="0.40545">
        <ele>68.2</ele>
        <time>2023-02-26T09:42:42Z</time>
      </trkpt>
      <trkpt lat="46.63122" lon="0.40532">
        <ele>69.6</ele>
        <time>2023-02-26T09:42:47Z</time>
      </trkpt>
      <trkpt lat="46.63121" lon="0.40522">
        <ele>71</ele>
        <time>2023-02-26T09:42:51Z</time>
      </trkpt>
      <trkpt lat="46.63121" lon="0.40511">
        <ele>72</ele>
        <time>2023-02-26T09:42:56Z</time>
      </trkpt>
      <trkpt lat="46.63119" lon="0.40497">
        <ele>72.6</ele>
        <time>2023-02-26T09:43:03Z</time>
      </trkpt>
      <trkpt lat="46.63119" lon="0.40493">
        <ele>73.2</ele>
        <time>2023-02-26T09:43:05Z</time>
      </trkpt>
      <trkpt lat="46.63117" lon="0.40483">
        <ele>74</ele>
        <time>2023-02-26T09:43:10Z</time>
      </trkpt>
      <trkpt lat="46.63117" lon="0.40481">
        <ele>74.2</ele>
        <time>2023-02-26T09:43:11Z</time>
      </trkpt>
      <trkpt lat="46.63114" lon="0.40468">
        <ele>75.4</ele>
        <time>2023-02-26T09:43:16Z</time>
      </trkpt>
      <trkpt lat="46.63114" lon="0.40465">
        <ele>75.6</ele>
        <time>2023-02-26T09:43:17Z</time>
      </trkpt>
      <trkpt lat="46.63114" lon="0.40458">
        <ele>76.6</ele>
        <time>2023-02-26T09:43:20Z</time>
      </trkpt>
      <trkpt lat="46.63113" lon="0.40448">
        <ele>77.6</ele>
        <time>2023-02-26T09:43:24Z</time>
      </trkpt>
      <trkpt lat="46.63112" lon="0.40446">
        <ele>77.8</ele>
        <time>2023-02-26T09:43:25Z</time>
      </trkpt>
      <trkpt lat="46.6311" lon="0.40431">
        <ele>78.6</ele>
        <time>2023-02-26T09:43:31Z</time>
      </trkpt>
      <trkpt lat="46.6311" lon="0.40429">
        <ele>78.8</ele>
        <time>2023-02-26T09:43:32Z</time>
      </trkpt>
      <trkpt lat="46.63105" lon="0.40409">
        <ele>79.6</ele>
        <time>2023-02-26T09:43:40Z</time>
      </trkpt>
      <trkpt lat="46.63105" lon="0.40406">
        <ele>79.6</ele>
        <time>2023-02-26T09:43:41Z</time>
      </trkpt>
      <trkpt lat="46.63101" lon="0.40397">
        <ele>80.6</ele>
        <time>2023-02-26T09:43:46Z</time>
      </trkpt>
      <trkpt lat="46.631" lon="0.40393">
        <ele>81</ele>
        <time>2023-02-26T09:43:48Z</time>
      </trkpt>
      <trkpt lat="46.63098" lon="0.40389">
        <ele>81.8</ele>
        <time>2023-02-26T09:43:50Z</time>
      </trkpt>
      <trkpt lat="46.63095" lon="0.40378">
        <ele>82.8</ele>
        <time>2023-02-26T09:43:54Z</time>
      </trkpt>
      <trkpt lat="46.63091" lon="0.40365">
        <ele>83.6</ele>
        <time>2023-02-26T09:44:01Z</time>
      </trkpt>
      <trkpt lat="46.6309" lon="0.40362">
        <ele>83.8</ele>
        <time>2023-02-26T09:44:02Z</time>
      </trkpt>
      <trkpt lat="46.63089" lon="0.40357">
        <ele>84.4</ele>
        <time>2023-02-26T09:44:04Z</time>
      </trkpt>
      <trkpt lat="46.63089" lon="0.40352">
        <ele>85</ele>
        <time>2023-02-26T09:44:06Z</time>
      </trkpt>
      <trkpt lat="46.6309" lon="0.40346">
        <ele>85.2</ele>
        <time>2023-02-26T09:44:08Z</time>
      </trkpt>
      <trkpt lat="46.6309" lon="0.4034">
        <ele>85</ele>
        <time>2023-02-26T09:44:10Z</time>
      </trkpt>
      <trkpt lat="46.6309" lon="0.40333">
        <ele>84.4</ele>
        <time>2023-02-26T09:44:12Z</time>
      </trkpt>
      <trkpt lat="46.63089" lon="0.40326">
        <ele>84</ele>
        <time>2023-02-26T09:44:14Z</time>
      </trkpt>
      <trkpt lat="46.63088" lon="0.40324">
        <ele>83.6</ele>
        <time>2023-02-26T09:44:15Z</time>
      </trkpt>
      <trkpt lat="46.63088" lon="0.4032">
        <ele>82.6</ele>
        <time>2023-02-26T09:44:17Z</time>
      </trkpt>
      <trkpt lat="46.63087" lon="0.40316">
        <ele>81.6</ele>
        <time>2023-02-26T09:44:18Z</time>
      </trkpt>
      <trkpt lat="46.63087" lon="0.40314">
        <ele>81</ele>
        <time>2023-02-26T09:44:19Z</time>
      </trkpt>
      <trkpt lat="46.63087" lon="0.40311">
        <ele>80.4</ele>
        <time>2023-02-26T09:44:20Z</time>
      </trkpt>
      <trkpt lat="46.63086" lon="0.40306">
        <ele>79.6</ele>
        <time>2023-02-26T09:44:22Z</time>
      </trkpt>
      <trkpt lat="46.63086" lon="0.40298">
        <ele>78</ele>
        <time>2023-02-26T09:44:26Z</time>
      </trkpt>
      <trkpt lat="46.63084" lon="0.40293">
        <ele>77.4</ele>
        <time>2023-02-26T09:44:28Z</time>
      </trkpt>
      <trkpt lat="46.63082" lon="0.40283">
        <ele>77</ele>
        <time>2023-02-26T09:44:31Z</time>
      </trkpt>
      <trkpt lat="46.63081" lon="0.4027">
        <ele>76.4</ele>
        <time>2023-02-26T09:44:34Z</time>
      </trkpt>
      <trkpt lat="46.63081" lon="0.40264">
        <ele>76</ele>
        <time>2023-02-26T09:44:36Z</time>
      </trkpt>
      <trkpt lat="46.63079" lon="0.40256">
        <ele>74.8</ele>
        <time>2023-02-26T09:44:39Z</time>
      </trkpt>
      <trkpt lat="46.63081" lon="0.4024">
        <ele>74.2</ele>
        <time>2023-02-26T09:44:44Z</time>
      </trkpt>
      <trkpt lat="46.6308" lon="0.40237">
        <ele>73.6</ele>
        <time>2023-02-26T09:44:45Z</time>
      </trkpt>
      <trkpt lat="46.63078" lon="0.40221">
        <ele>72.8</ele>
        <time>2023-02-26T09:44:49Z</time>
      </trkpt>
      <trkpt lat="46.63078" lon="0.40217">
        <ele>72.6</ele>
        <time>2023-02-26T09:44:50Z</time>
      </trkpt>
      <trkpt lat="46.63081" lon="0.40212">
        <ele>72.2</ele>
        <time>2023-02-26T09:44:53Z</time>
      </trkpt>
      <trkpt lat="46.63081" lon="0.40211">
        <ele>71.8</ele>
        <time>2023-02-26T09:44:54Z</time>
      </trkpt>
      <trkpt lat="46.63082" lon="0.40211">
        <ele>70.8</ele>
        <time>2023-02-26T09:44:55Z</time>
      </trkpt>
      <trkpt lat="46.63084" lon="0.40212">
        <ele>69.4</ele>
        <time>2023-02-26T09:44:57Z</time>
      </trkpt>
      <trkpt lat="46.63085" lon="0.40213">
        <ele>67.4</ele>
        <time>2023-02-26T09:44:59Z</time>
      </trkpt>
      <trkpt lat="46.63088" lon="0.40214">
        <ele>66.2</ele>
        <time>2023-02-26T09:45:02Z</time>
      </trkpt>
      <trkpt lat="46.6309" lon="0.40214">
        <ele>66</ele>
        <time>2023-02-26T09:45:03Z</time>
      </trkpt>
      <trkpt lat="46.63093" lon="0.40215">
        <ele>64.8</ele>
        <time>2023-02-26T09:45:05Z</time>
      </trkpt>
      <trkpt lat="46.63097" lon="0.40217">
        <ele>63.8</ele>
        <time>2023-02-26T09:45:07Z</time>
      </trkpt>
      <trkpt lat="46.63098" lon="0.4022">
        <ele>63.4</ele>
        <time>2023-02-26T09:45:08Z</time>
      </trkpt>
      <trkpt lat="46.63098" lon="0.40226">
        <ele>62.4</ele>
        <time>2023-02-26T09:45:10Z</time>
      </trkpt>
      <trkpt lat="46.63102" lon="0.40237">
        <ele>61.8</ele>
        <time>2023-02-26T09:45:13Z</time>
      </trkpt>
      <trkpt lat="46.63122" lon="0.40244">
        <ele>61.2</ele>
        <time>2023-02-26T09:45:17Z</time>
      </trkpt>
      <trkpt lat="46.63156" lon="0.40246">
        <ele>60.8</ele>
        <time>2023-02-26T09:45:23Z</time>
      </trkpt>
      <trkpt lat="46.63191" lon="0.40249">
        <ele>61</ele>
        <time>2023-02-26T09:45:31Z</time>
      </trkpt>
      <trkpt lat="46.63215" lon="0.40251">
        <ele>61</ele>
        <time>2023-02-26T09:45:38Z</time>
      </trkpt>
      <trkpt lat="46.63243" lon="0.40253">
        <ele>61</ele>
        <time>2023-02-26T09:45:47Z</time>
      </trkpt>
      <trkpt lat="46.63253" lon="0.40238">
        <ele>61.6</ele>
        <time>2023-02-26T09:45:51Z</time>
      </trkpt>
      <trkpt lat="46.63258" lon="0.40229">
        <ele>62.2</ele>
        <time>2023-02-26T09:45:53Z</time>
      </trkpt>
      <trkpt lat="46.63267" lon="0.40208">
        <ele>63.2</ele>
        <time>2023-02-26T09:45:57Z</time>
      </trkpt>
      <trkpt lat="46.63269" lon="0.40203">
        <ele>63.4</ele>
        <time>2023-02-26T09:45:58Z</time>
      </trkpt>
      <trkpt lat="46.63281" lon="0.4018">
        <ele>64.4</ele>
        <time>2023-02-26T09:46:03Z</time>
      </trkpt>
      <trkpt lat="46.63285" lon="0.40173">
        <ele>64.6</ele>
        <time>2023-02-26T09:46:05Z</time>
      </trkpt>
      <trkpt lat="46.63289" lon="0.40166">
        <ele>65.8</ele>
        <time>2023-02-26T09:46:07Z</time>
      </trkpt>
      <trkpt lat="46.63295" lon="0.40154">
        <ele>66.8</ele>
        <time>2023-02-26T09:46:11Z</time>
      </trkpt>
      <trkpt lat="46.63298" lon="0.40148">
        <ele>67.2</ele>
        <time>2023-02-26T09:46:13Z</time>
      </trkpt>
      <trkpt lat="46.63311" lon="0.40122">
        <ele>68</ele>
        <time>2023-02-26T09:46:22Z</time>
      </trkpt>
      <trkpt lat="46.63318" lon="0.40114">
        <ele>69</ele>
        <time>2023-02-26T09:46:26Z</time>
      </trkpt>
      <trkpt lat="46.63326" lon="0.40107">
        <ele>70.2</ele>
        <time>2023-02-26T09:46:30Z</time>
      </trkpt>
      <trkpt lat="46.63334" lon="0.40102">
        <ele>71.4</ele>
        <time>2023-02-26T09:46:34Z</time>
      </trkpt>
      <trkpt lat="46.63338" lon="0.40099">
        <ele>72.6</ele>
        <time>2023-02-26T09:46:36Z</time>
      </trkpt>
      <trkpt lat="46.63341" lon="0.40094">
        <ele>73.4</ele>
        <time>2023-02-26T09:46:38Z</time>
      </trkpt>
      <trkpt lat="46.63345" lon="0.40087">
        <ele>73.8</ele>
        <time>2023-02-26T09:46:40Z</time>
      </trkpt>
      <trkpt lat="46.63355" lon="0.40072">
        <ele>73.6</ele>
        <time>2023-02-26T09:46:44Z</time>
      </trkpt>
      <trkpt lat="46.63376" lon="0.4004">
        <ele>73.6</ele>
        <time>2023-02-26T09:46:50Z</time>
      </trkpt>
      <trkpt lat="46.63401" lon="0.40002">
        <ele>73.2</ele>
        <time>2023-02-26T09:46:55Z</time>
      </trkpt>
      <trkpt lat="46.63406" lon="0.39993">
        <ele>72.6</ele>
        <time>2023-02-26T09:46:56Z</time>
      </trkpt>
      <trkpt lat="46.63419" lon="0.39973">
        <ele>70.8</ele>
        <time>2023-02-26T09:46:58Z</time>
      </trkpt>
      <trkpt lat="46.63432" lon="0.39953">
        <ele>69.2</ele>
        <time>2023-02-26T09:47:00Z</time>
      </trkpt>
      <trkpt lat="46.63439" lon="0.39943">
        <ele>68.4</ele>
        <time>2023-02-26T09:47:01Z</time>
      </trkpt>
      <trkpt lat="46.63447" lon="0.39934">
        <ele>67.8</ele>
        <time>2023-02-26T09:47:02Z</time>
      </trkpt>
      <trkpt lat="46.63469" lon="0.39908">
        <ele>66.6</ele>
        <time>2023-02-26T09:47:05Z</time>
      </trkpt>
      <trkpt lat="46.63482" lon="0.39891">
        <ele>65.4</ele>
        <time>2023-02-26T09:47:07Z</time>
      </trkpt>
      <trkpt lat="46.63499" lon="0.39871">
        <ele>64.2</ele>
        <time>2023-02-26T09:47:10Z</time>
      </trkpt>
      <trkpt lat="46.63509" lon="0.39862">
        <ele>62.8</ele>
        <time>2023-02-26T09:47:12Z</time>
      </trkpt>
      <trkpt lat="46.63513" lon="0.39856">
        <ele>62.4</ele>
        <time>2023-02-26T09:47:13Z</time>
      </trkpt>
      <trkpt lat="46.6352" lon="0.39843">
        <ele>61.6</ele>
        <time>2023-02-26T09:47:15Z</time>
      </trkpt>
      <trkpt lat="46.63527" lon="0.39823">
        <ele>60.6</ele>
        <time>2023-02-26T09:47:18Z</time>
      </trkpt>
      <trkpt lat="46.63529" lon="0.39816">
        <ele>60.4</ele>
        <time>2023-02-26T09:47:19Z</time>
      </trkpt>
      <trkpt lat="46.63531" lon="0.39809">
        <ele>60</ele>
        <time>2023-02-26T09:47:20Z</time>
      </trkpt>
      <trkpt lat="46.63541" lon="0.39775">
        <ele>60.4</ele>
        <time>2023-02-26T09:47:26Z</time>
      </trkpt>
      <trkpt lat="46.63543" lon="0.39769">
        <ele>60.6</ele>
        <time>2023-02-26T09:47:27Z</time>
      </trkpt>
      <trkpt lat="46.63549" lon="0.39752">
        <ele>61.4</ele>
        <time>2023-02-26T09:47:30Z</time>
      </trkpt>
      <trkpt lat="46.63554" lon="0.39736">
        <ele>62.6</ele>
        <time>2023-02-26T09:47:33Z</time>
      </trkpt>
      <trkpt lat="46.63555" lon="0.3973">
        <ele>63</ele>
        <time>2023-02-26T09:47:34Z</time>
      </trkpt>
      <trkpt lat="46.63559" lon="0.39719">
        <ele>63.6</ele>
        <time>2023-02-26T09:47:36Z</time>
      </trkpt>
      <trkpt lat="46.63568" lon="0.39713">
        <ele>63.8</ele>
        <time>2023-02-26T09:47:38Z</time>
      </trkpt>
      <trkpt lat="46.63578" lon="0.39713">
        <ele>64.2</ele>
        <time>2023-02-26T09:47:40Z</time>
      </trkpt>
      <trkpt lat="46.63589" lon="0.39715">
        <ele>64</ele>
        <time>2023-02-26T09:47:42Z</time>
      </trkpt>
      <trkpt lat="46.63628" lon="0.39717">
        <ele>63.4</ele>
        <time>2023-02-26T09:47:49Z</time>
      </trkpt>
      <trkpt lat="46.63645" lon="0.39715">
        <ele>62.6</ele>
        <time>2023-02-26T09:47:52Z</time>
      </trkpt>
      <trkpt lat="46.63663" lon="0.39712">
        <ele>61.4</ele>
        <time>2023-02-26T09:47:55Z</time>
      </trkpt>
      <trkpt lat="46.63676" lon="0.39712">
        <ele>61.2</ele>
        <time>2023-02-26T09:47:57Z</time>
      </trkpt>
      <trkpt lat="46.637" lon="0.39713">
        <ele>60.4</ele>
        <time>2023-02-26T09:48:01Z</time>
      </trkpt>
      <trkpt lat="46.63716" lon="0.39714">
        <ele>60.2</ele>
        <time>2023-02-26T09:48:04Z</time>
      </trkpt>
      <trkpt lat="46.63754" lon="0.3972">
        <ele>60.2</ele>
        <time>2023-02-26T09:48:11Z</time>
      </trkpt>
      <trkpt lat="46.63764" lon="0.3972">
        <ele>60.4</ele>
        <time>2023-02-26T09:48:13Z</time>
      </trkpt>
      <trkpt lat="46.63781" lon="0.39719">
        <ele>60.6</ele>
        <time>2023-02-26T09:48:17Z</time>
      </trkpt>
      <trkpt lat="46.63789" lon="0.39715">
        <ele>60.4</ele>
        <time>2023-02-26T09:48:19Z</time>
      </trkpt>
      <trkpt lat="46.63798" lon="0.39706">
        <ele>60.2</ele>
        <time>2023-02-26T09:48:22Z</time>
      </trkpt>
      <trkpt lat="46.63804" lon="0.39683">
        <ele>60.2</ele>
        <time>2023-02-26T09:48:27Z</time>
      </trkpt>
      <trkpt lat="46.63805" lon="0.39649">
        <ele>59.2</ele>
        <time>2023-02-26T09:48:33Z</time>
      </trkpt>
      <trkpt lat="46.63805" lon="0.39643">
        <ele>59</ele>
        <time>2023-02-26T09:48:34Z</time>
      </trkpt>
      <trkpt lat="46.63804" lon="0.39621">
        <ele>58.8</ele>
        <time>2023-02-26T09:48:39Z</time>
      </trkpt>
      <trkpt lat="46.63791" lon="0.39596">
        <ele>58.2</ele>
        <time>2023-02-26T09:48:46Z</time>
      </trkpt>
      <trkpt lat="46.63791" lon="0.39596">
        <ele>58</ele>
        <time>2023-02-26T09:48:47Z</time>
      </trkpt>
      <trkpt lat="46.63786" lon="0.39578">
        <ele>57.8</ele>
        <time>2023-02-26T09:48:52Z</time>
      </trkpt>
      <trkpt lat="46.63784" lon="0.39574">
        <ele>58</ele>
        <time>2023-02-26T09:48:54Z</time>
      </trkpt>
      <trkpt lat="46.63777" lon="0.39567">
        <ele>59.2</ele>
        <time>2023-02-26T09:48:58Z</time>
      </trkpt>
      <trkpt lat="46.6377" lon="0.39558">
        <ele>60.2</ele>
        <time>2023-02-26T09:49:02Z</time>
      </trkpt>
      <trkpt lat="46.63765" lon="0.39552">
        <ele>61</ele>
        <time>2023-02-26T09:49:05Z</time>
      </trkpt>
      <trkpt lat="46.6376" lon="0.39546">
        <ele>61.6</ele>
        <time>2023-02-26T09:49:08Z</time>
      </trkpt>
      <trkpt lat="46.63755" lon="0.39541">
        <ele>62.8</ele>
        <time>2023-02-26T09:49:11Z</time>
      </trkpt>
      <trkpt lat="46.63752" lon="0.39538">
        <ele>63.4</ele>
        <time>2023-02-26T09:49:13Z</time>
      </trkpt>
      <trkpt lat="46.63751" lon="0.39538">
        <ele>63.8</ele>
        <time>2023-02-26T09:49:14Z</time>
      </trkpt>
      <trkpt lat="46.6375" lon="0.39536">
        <ele>64.2</ele>
        <time>2023-02-26T09:49:15Z</time>
      </trkpt>
      <trkpt lat="46.63745" lon="0.39532">
        <ele>65.4</ele>
        <time>2023-02-26T09:49:19Z</time>
      </trkpt>
      <trkpt lat="46.63742" lon="0.3953">
        <ele>65.8</ele>
        <time>2023-02-26T09:49:21Z</time>
      </trkpt>
      <trkpt lat="46.63737" lon="0.39527">
        <ele>66.4</ele>
        <time>2023-02-26T09:49:25Z</time>
      </trkpt>
      <trkpt lat="46.63733" lon="0.39523">
        <ele>67.8</ele>
        <time>2023-02-26T09:49:28Z</time>
      </trkpt>
      <trkpt lat="46.63731" lon="0.39521">
        <ele>68</ele>
        <time>2023-02-26T09:49:29Z</time>
      </trkpt>
      <trkpt lat="46.63725" lon="0.39516">
        <ele>68.8</ele>
        <time>2023-02-26T09:49:32Z</time>
      </trkpt>
      <trkpt lat="46.63717" lon="0.39509">
        <ele>69</ele>
        <time>2023-02-26T09:49:36Z</time>
      </trkpt>
      <trkpt lat="46.63712" lon="0.39494">
        <ele>69</ele>
        <time>2023-02-26T09:49:40Z</time>
      </trkpt>
      <trkpt lat="46.63711" lon="0.39485">
        <ele>69</ele>
        <time>2023-02-26T09:49:44Z</time>
      </trkpt>
      <trkpt lat="46.63712" lon="0.39484">
        <ele>69.2</ele>
        <time>2023-02-26T09:49:45Z</time>
      </trkpt>
      <trkpt lat="46.63712" lon="0.39481">
        <ele>70.2</ele>
        <time>2023-02-26T09:49:47Z</time>
      </trkpt>
      <trkpt lat="46.63714" lon="0.39474">
        <ele>71.2</ele>
        <time>2023-02-26T09:49:51Z</time>
      </trkpt>
      <trkpt lat="46.63714" lon="0.39472">
        <ele>71.6</ele>
        <time>2023-02-26T09:49:52Z</time>
      </trkpt>
      <trkpt lat="46.63716" lon="0.39466">
        <ele>72.2</ele>
        <time>2023-02-26T09:49:55Z</time>
      </trkpt>
      <trkpt lat="46.6372" lon="0.39456">
        <ele>72.6</ele>
        <time>2023-02-26T09:49:59Z</time>
      </trkpt>
      <trkpt lat="46.63729" lon="0.39443">
        <ele>73</ele>
        <time>2023-02-26T09:50:04Z</time>
      </trkpt>
      <trkpt lat="46.63742" lon="0.39441">
        <ele>73</ele>
        <time>2023-02-26T09:50:09Z</time>
      </trkpt>
      <trkpt lat="46.63746" lon="0.39439">
        <ele>73.4</ele>
        <time>2023-02-26T09:50:11Z</time>
      </trkpt>
      <trkpt lat="46.63762" lon="0.39439">
        <ele>74.4</ele>
        <time>2023-02-26T09:50:19Z</time>
      </trkpt>
      <trkpt lat="46.63764" lon="0.3944">
        <ele>74.6</ele>
        <time>2023-02-26T09:50:20Z</time>
      </trkpt>
      <trkpt lat="46.6377" lon="0.3944">
        <ele>75.6</ele>
        <time>2023-02-26T09:50:23Z</time>
      </trkpt>
      <trkpt lat="46.63772" lon="0.3944">
        <ele>75.8</ele>
        <time>2023-02-26T09:50:24Z</time>
      </trkpt>
      <trkpt lat="46.6378" lon="0.39442">
        <ele>76.2</ele>
        <time>2023-02-26T09:50:28Z</time>
      </trkpt>
      <trkpt lat="46.63784" lon="0.39442">
        <ele>76.8</ele>
        <time>2023-02-26T09:50:30Z</time>
      </trkpt>
      <trkpt lat="46.63796" lon="0.39439">
        <ele>77.4</ele>
        <time>2023-02-26T09:50:36Z</time>
      </trkpt>
      <trkpt lat="46.63802" lon="0.39428">
        <ele>77.8</ele>
        <time>2023-02-26T09:50:40Z</time>
      </trkpt>
      <trkpt lat="46.63803" lon="0.39425">
        <ele>77.8</ele>
        <time>2023-02-26T09:50:41Z</time>
      </trkpt>
      <trkpt lat="46.63803" lon="0.39405">
        <ele>77.8</ele>
        <time>2023-02-26T09:50:47Z</time>
      </trkpt>
      <trkpt lat="46.63793" lon="0.39391">
        <ele>78.8</ele>
        <time>2023-02-26T09:50:52Z</time>
      </trkpt>
      <trkpt lat="46.63781" lon="0.39367">
        <ele>77.4</ele>
        <time>2023-02-26T09:50:59Z</time>
      </trkpt>
      <trkpt lat="46.63775" lon="0.39344">
        <ele>77.6</ele>
        <time>2023-02-26T09:51:05Z</time>
      </trkpt>
      <trkpt lat="46.63776" lon="0.39341">
        <ele>77.8</ele>
        <time>2023-02-26T09:51:06Z</time>
      </trkpt>
      <trkpt lat="46.63781" lon="0.39336">
        <ele>78.8</ele>
        <time>2023-02-26T09:51:09Z</time>
      </trkpt>
      <trkpt lat="46.63784" lon="0.39335">
        <ele>79.2</ele>
        <time>2023-02-26T09:51:10Z</time>
      </trkpt>
      <trkpt lat="46.63804" lon="0.39328">
        <ele>80</ele>
        <time>2023-02-26T09:51:16Z</time>
      </trkpt>
      <trkpt lat="46.63814" lon="0.39327">
        <ele>80.2</ele>
        <time>2023-02-26T09:51:19Z</time>
      </trkpt>
      <trkpt lat="46.63824" lon="0.39327">
        <ele>80.2</ele>
        <time>2023-02-26T09:51:22Z</time>
      </trkpt>
      <trkpt lat="46.63845" lon="0.3933">
        <ele>81</ele>
        <time>2023-02-26T09:51:28Z</time>
      </trkpt>
      <trkpt lat="46.63847" lon="0.39328">
        <ele>81.2</ele>
        <time>2023-02-26T09:51:29Z</time>
      </trkpt>
      <trkpt lat="46.63848" lon="0.39325">
        <ele>81.4</ele>
        <time>2023-02-26T09:51:30Z</time>
      </trkpt>
      <trkpt lat="46.63847" lon="0.39319">
        <ele>81.6</ele>
        <time>2023-02-26T09:51:32Z</time>
      </trkpt>
      <trkpt lat="46.63844" lon="0.39316">
        <ele>81.6</ele>
        <time>2023-02-26T09:51:33Z</time>
      </trkpt>
      <trkpt lat="46.63835" lon="0.39312">
        <ele>81.6</ele>
        <time>2023-02-26T09:51:36Z</time>
      </trkpt>
      <trkpt lat="46.63821" lon="0.39308">
        <ele>82.4</ele>
        <time>2023-02-26T09:51:40Z</time>
      </trkpt>
      <trkpt lat="46.63807" lon="0.39305">
        <ele>82.8</ele>
        <time>2023-02-26T09:51:44Z</time>
      </trkpt>
      <trkpt lat="46.63793" lon="0.39301">
        <ele>83</ele>
        <time>2023-02-26T09:51:49Z</time>
      </trkpt>
      <trkpt lat="46.63782" lon="0.39291">
        <ele>83</ele>
        <time>2023-02-26T09:51:53Z</time>
      </trkpt>
      <trkpt lat="46.63775" lon="0.39281">
        <ele>82.4</ele>
        <time>2023-02-26T09:51:56Z</time>
      </trkpt>
      <trkpt lat="46.63772" lon="0.3928">
        <ele>82.4</ele>
        <time>2023-02-26T09:51:57Z</time>
      </trkpt>
      <trkpt lat="46.6377" lon="0.39281">
        <ele>82.4</ele>
        <time>2023-02-26T09:51:58Z</time>
      </trkpt>
      <trkpt lat="46.63769" lon="0.39286">
        <ele>82.6</ele>
        <time>2023-02-26T09:52:00Z</time>
      </trkpt>
      <trkpt lat="46.63768" lon="0.39288">
        <ele>83</ele>
        <time>2023-02-26T09:52:01Z</time>
      </trkpt>
      <trkpt lat="46.63767" lon="0.39293">
        <ele>83.6</ele>
        <time>2023-02-26T09:52:03Z</time>
      </trkpt>
      <trkpt lat="46.63766" lon="0.39295">
        <ele>83.8</ele>
        <time>2023-02-26T09:52:04Z</time>
      </trkpt>
      <trkpt lat="46.63762" lon="0.39296">
        <ele>84.6</ele>
        <time>2023-02-26T09:52:06Z</time>
      </trkpt>
      <trkpt lat="46.63754" lon="0.39295">
        <ele>86</ele>
        <time>2023-02-26T09:52:10Z</time>
      </trkpt>
      <trkpt lat="46.63745" lon="0.39296">
        <ele>86.8</ele>
        <time>2023-02-26T09:52:15Z</time>
      </trkpt>
      <trkpt lat="46.63743" lon="0.39297">
        <ele>87</ele>
        <time>2023-02-26T09:52:16Z</time>
      </trkpt>
      <trkpt lat="46.63732" lon="0.39298">
        <ele>88.2</ele>
        <time>2023-02-26T09:52:21Z</time>
      </trkpt>
      <trkpt lat="46.63727" lon="0.39299">
        <ele>88.2</ele>
        <time>2023-02-26T09:52:23Z</time>
      </trkpt>
      <trkpt lat="46.63712" lon="0.393">
        <ele>89.2</ele>
        <time>2023-02-26T09:52:30Z</time>
      </trkpt>
      <trkpt lat="46.6371" lon="0.39301">
        <ele>89.4</ele>
        <time>2023-02-26T09:52:31Z</time>
      </trkpt>
      <trkpt lat="46.6371" lon="0.39316">
        <ele>90.4</ele>
        <time>2023-02-26T09:52:36Z</time>
      </trkpt>
      <trkpt lat="46.63711" lon="0.39326">
        <ele>91</ele>
        <time>2023-02-26T09:52:39Z</time>
      </trkpt>
      <trkpt lat="46.63712" lon="0.39329">
        <ele>91.4</ele>
        <time>2023-02-26T09:52:40Z</time>
      </trkpt>
      <trkpt lat="46.63713" lon="0.3933">
        <ele>91.6</ele>
        <time>2023-02-26T09:52:41Z</time>
      </trkpt>
      <trkpt lat="46.63715" lon="0.39331">
        <ele>91.8</ele>
        <time>2023-02-26T09:52:42Z</time>
      </trkpt>
      <trkpt lat="46.63723" lon="0.3933">
        <ele>91.2</ele>
        <time>2023-02-26T09:52:45Z</time>
      </trkpt>
      <trkpt lat="46.63735" lon="0.39335">
        <ele>89.4</ele>
        <time>2023-02-26T09:52:49Z</time>
      </trkpt>
      <trkpt lat="46.63739" lon="0.39336">
        <ele>87.6</ele>
        <time>2023-02-26T09:52:50Z</time>
      </trkpt>
      <trkpt lat="46.63742" lon="0.39337">
        <ele>86.6</ele>
        <time>2023-02-26T09:52:51Z</time>
      </trkpt>
      <trkpt lat="46.63746" lon="0.39341">
        <ele>84.8</ele>
        <time>2023-02-26T09:52:53Z</time>
      </trkpt>
      <trkpt lat="46.63747" lon="0.39344">
        <ele>83.4</ele>
        <time>2023-02-26T09:52:54Z</time>
      </trkpt>
      <trkpt lat="46.63748" lon="0.39353">
        <ele>82.2</ele>
        <time>2023-02-26T09:52:56Z</time>
      </trkpt>
      <trkpt lat="46.63746" lon="0.39355">
        <ele>80.8</ele>
        <time>2023-02-26T09:52:57Z</time>
      </trkpt>
      <trkpt lat="46.63744" lon="0.39357">
        <ele>79.8</ele>
        <time>2023-02-26T09:52:58Z</time>
      </trkpt>
      <trkpt lat="46.63742" lon="0.39359">
        <ele>78.8</ele>
        <time>2023-02-26T09:52:59Z</time>
      </trkpt>
      <trkpt lat="46.63732" lon="0.39368">
        <ele>77.6</ele>
        <time>2023-02-26T09:53:03Z</time>
      </trkpt>
      <trkpt lat="46.63728" lon="0.39377">
        <ele>77.8</ele>
        <time>2023-02-26T09:53:05Z</time>
      </trkpt>
      <trkpt lat="46.63725" lon="0.39387">
        <ele>78</ele>
        <time>2023-02-26T09:53:07Z</time>
      </trkpt>
      <trkpt lat="46.63722" lon="0.39392">
        <ele>78.2</ele>
        <time>2023-02-26T09:53:08Z</time>
      </trkpt>
      <trkpt lat="46.6372" lon="0.39397">
        <ele>78.4</ele>
        <time>2023-02-26T09:53:09Z</time>
      </trkpt>
      <trkpt lat="46.63719" lon="0.39401">
        <ele>78.8</ele>
        <time>2023-02-26T09:53:10Z</time>
      </trkpt>
      <trkpt lat="46.63718" lon="0.3941">
        <ele>79.4</ele>
        <time>2023-02-26T09:53:12Z</time>
      </trkpt>
      <trkpt lat="46.63715" lon="0.39422">
        <ele>80</ele>
        <time>2023-02-26T09:53:16Z</time>
      </trkpt>
      <trkpt lat="46.63713" lon="0.39427">
        <ele>80.2</ele>
        <time>2023-02-26T09:53:18Z</time>
      </trkpt>
      <trkpt lat="46.63708" lon="0.39433">
        <ele>81.2</ele>
        <time>2023-02-26T09:53:21Z</time>
      </trkpt>
      <trkpt lat="46.63705" lon="0.39435">
        <ele>81.6</ele>
        <time>2023-02-26T09:53:22Z</time>
      </trkpt>
      <trkpt lat="46.63703" lon="0.39435">
        <ele>81.8</ele>
        <time>2023-02-26T09:53:23Z</time>
      </trkpt>
      <trkpt lat="46.63701" lon="0.39436">
        <ele>82.4</ele>
        <time>2023-02-26T09:53:24Z</time>
      </trkpt>
      <trkpt lat="46.63689" lon="0.39438">
        <ele>83.2</ele>
        <time>2023-02-26T09:53:28Z</time>
      </trkpt>
      <trkpt lat="46.63682" lon="0.39435">
        <ele>83.2</ele>
        <time>2023-02-26T09:53:30Z</time>
      </trkpt>
      <trkpt lat="46.63682" lon="0.39432">
        <ele>83</ele>
        <time>2023-02-26T09:53:31Z</time>
      </trkpt>
      <trkpt lat="46.63689" lon="0.39413">
        <ele>81.8</ele>
        <time>2023-02-26T09:53:36Z</time>
      </trkpt>
      <trkpt lat="46.637" lon="0.39397">
        <ele>81.6</ele>
        <time>2023-02-26T09:53:39Z</time>
      </trkpt>
      <trkpt lat="46.63702" lon="0.39393">
        <ele>81.8</ele>
        <time>2023-02-26T09:53:40Z</time>
      </trkpt>
      <trkpt lat="46.63703" lon="0.3939">
        <ele>81.8</ele>
        <time>2023-02-26T09:53:41Z</time>
      </trkpt>
      <trkpt lat="46.63701" lon="0.39387">
        <ele>82</ele>
        <time>2023-02-26T09:53:43Z</time>
      </trkpt>
      <trkpt lat="46.63695" lon="0.39376">
        <ele>83.2</ele>
        <time>2023-02-26T09:53:49Z</time>
      </trkpt>
      <trkpt lat="46.63691" lon="0.3936">
        <ele>83</ele>
        <time>2023-02-26T09:53:54Z</time>
      </trkpt>
      <trkpt lat="46.63692" lon="0.39347">
        <ele>82.4</ele>
        <time>2023-02-26T09:53:58Z</time>
      </trkpt>
      <trkpt lat="46.63693" lon="0.39332">
        <ele>82.2</ele>
        <time>2023-02-26T09:54:04Z</time>
      </trkpt>
      <trkpt lat="46.63695" lon="0.39325">
        <ele>83.6</ele>
        <time>2023-02-26T09:54:09Z</time>
      </trkpt>
      <trkpt lat="46.63694" lon="0.39324">
        <ele>84</ele>
        <time>2023-02-26T09:54:10Z</time>
      </trkpt>
      <trkpt lat="46.63694" lon="0.39322">
        <ele>85.4</ele>
        <time>2023-02-26T09:54:12Z</time>
      </trkpt>
      <trkpt lat="46.63694" lon="0.39319">
        <ele>85.4</ele>
        <time>2023-02-26T09:54:15Z</time>
      </trkpt>
      <trkpt lat="46.63694" lon="0.39314">
        <ele>85.6</ele>
        <time>2023-02-26T09:54:21Z</time>
      </trkpt>
      <trkpt lat="46.63694" lon="0.3931">
        <ele>86.4</ele>
        <time>2023-02-26T09:54:25Z</time>
      </trkpt>
      <trkpt lat="46.63694" lon="0.39305">
        <ele>87.8</ele>
        <time>2023-02-26T09:54:29Z</time>
      </trkpt>
      <trkpt lat="46.63696" lon="0.39303">
        <ele>88.2</ele>
        <time>2023-02-26T09:54:32Z</time>
      </trkpt>
      <trkpt lat="46.63698" lon="0.39302">
        <ele>88.4</ele>
        <time>2023-02-26T09:54:35Z</time>
      </trkpt>
      <trkpt lat="46.63698" lon="0.39301">
        <ele>88.8</ele>
        <time>2023-02-26T09:54:38Z</time>
      </trkpt>
      <trkpt lat="46.63704" lon="0.39302">
        <ele>89.2</ele>
        <time>2023-02-26T09:54:43Z</time>
      </trkpt>
      <trkpt lat="46.63705" lon="0.393">
        <ele>89.2</ele>
        <time>2023-02-26T09:54:44Z</time>
      </trkpt>
      <trkpt lat="46.63705" lon="0.39292">
        <ele>88.8</ele>
        <time>2023-02-26T09:54:46Z</time>
      </trkpt>
      <trkpt lat="46.63703" lon="0.39278">
        <ele>87.4</ele>
        <time>2023-02-26T09:54:49Z</time>
      </trkpt>
      <trkpt lat="46.63701" lon="0.39266">
        <ele>86.2</ele>
        <time>2023-02-26T09:54:51Z</time>
      </trkpt>
      <trkpt lat="46.637" lon="0.39254">
        <ele>85.4</ele>
        <time>2023-02-26T09:54:53Z</time>
      </trkpt>
      <trkpt lat="46.63699" lon="0.39248">
        <ele>84.8</ele>
        <time>2023-02-26T09:54:54Z</time>
      </trkpt>
      <trkpt lat="46.63695" lon="0.39238">
        <ele>83.4</ele>
        <time>2023-02-26T09:54:56Z</time>
      </trkpt>
      <trkpt lat="46.63689" lon="0.39235">
        <ele>81.8</ele>
        <time>2023-02-26T09:54:58Z</time>
      </trkpt>
      <trkpt lat="46.63684" lon="0.39232">
        <ele>81</ele>
        <time>2023-02-26T09:55:00Z</time>
      </trkpt>
      <trkpt lat="46.63681" lon="0.39229">
        <ele>80.6</ele>
        <time>2023-02-26T09:55:01Z</time>
      </trkpt>
      <trkpt lat="46.63677" lon="0.39229">
        <ele>80.4</ele>
        <time>2023-02-26T09:55:02Z</time>
      </trkpt>
      <trkpt lat="46.63674" lon="0.39231">
        <ele>80.4</ele>
        <time>2023-02-26T09:55:03Z</time>
      </trkpt>
      <trkpt lat="46.63671" lon="0.39234">
        <ele>80.4</ele>
        <time>2023-02-26T09:55:04Z</time>
      </trkpt>
      <trkpt lat="46.63664" lon="0.39236">
        <ele>79.8</ele>
        <time>2023-02-26T09:55:06Z</time>
      </trkpt>
      <trkpt lat="46.63659" lon="0.39233">
        <ele>79.4</ele>
        <time>2023-02-26T09:55:07Z</time>
      </trkpt>
      <trkpt lat="46.63656" lon="0.3923">
        <ele>79</ele>
        <time>2023-02-26T09:55:08Z</time>
      </trkpt>
      <trkpt lat="46.63653" lon="0.39226">
        <ele>79</ele>
        <time>2023-02-26T09:55:09Z</time>
      </trkpt>
      <trkpt lat="46.63649" lon="0.39222">
        <ele>78.8</ele>
        <time>2023-02-26T09:55:10Z</time>
      </trkpt>
      <trkpt lat="46.63641" lon="0.39218">
        <ele>78.8</ele>
        <time>2023-02-26T09:55:12Z</time>
      </trkpt>
      <trkpt lat="46.63637" lon="0.39219">
        <ele>78.8</ele>
        <time>2023-02-26T09:55:13Z</time>
      </trkpt>
      <trkpt lat="46.63627" lon="0.39222">
        <ele>79</ele>
        <time>2023-02-26T09:55:15Z</time>
      </trkpt>
      <trkpt lat="46.63619" lon="0.39222">
        <ele>79</ele>
        <time>2023-02-26T09:55:17Z</time>
      </trkpt>
      <trkpt lat="46.63616" lon="0.3922">
        <ele>78.6</ele>
        <time>2023-02-26T09:55:18Z</time>
      </trkpt>
      <trkpt lat="46.63613" lon="0.39216">
        <ele>78.4</ele>
        <time>2023-02-26T09:55:19Z</time>
      </trkpt>
      <trkpt lat="46.63611" lon="0.3921">
        <ele>77.8</ele>
        <time>2023-02-26T09:55:20Z</time>
      </trkpt>
      <trkpt lat="46.63611" lon="0.39203">
        <ele>77.6</ele>
        <time>2023-02-26T09:55:21Z</time>
      </trkpt>
      <trkpt lat="46.63613" lon="0.39189">
        <ele>76.8</ele>
        <time>2023-02-26T09:55:23Z</time>
      </trkpt>
      <trkpt lat="46.63616" lon="0.39182">
        <ele>76.4</ele>
        <time>2023-02-26T09:55:24Z</time>
      </trkpt>
      <trkpt lat="46.63621" lon="0.39169">
        <ele>75.2</ele>
        <time>2023-02-26T09:55:26Z</time>
      </trkpt>
      <trkpt lat="46.63624" lon="0.39156">
        <ele>73.4</ele>
        <time>2023-02-26T09:55:28Z</time>
      </trkpt>
      <trkpt lat="46.6362" lon="0.39147">
        <ele>72</ele>
        <time>2023-02-26T09:55:30Z</time>
      </trkpt>
      <trkpt lat="46.63616" lon="0.39144">
        <ele>71.4</ele>
        <time>2023-02-26T09:55:31Z</time>
      </trkpt>
      <trkpt lat="46.63611" lon="0.39142">
        <ele>70.4</ele>
        <time>2023-02-26T09:55:32Z</time>
      </trkpt>
      <trkpt lat="46.63599" lon="0.39144">
        <ele>69.2</ele>
        <time>2023-02-26T09:55:34Z</time>
      </trkpt>
      <trkpt lat="46.63592" lon="0.39145">
        <ele>68.8</ele>
        <time>2023-02-26T09:55:35Z</time>
      </trkpt>
      <trkpt lat="46.63578" lon="0.3915">
        <ele>68</ele>
        <time>2023-02-26T09:55:37Z</time>
      </trkpt>
      <trkpt lat="46.63563" lon="0.39156">
        <ele>67.2</ele>
        <time>2023-02-26T09:55:39Z</time>
      </trkpt>
      <trkpt lat="46.63556" lon="0.39159">
        <ele>66.8</ele>
        <time>2023-02-26T09:55:40Z</time>
      </trkpt>
      <trkpt lat="46.63541" lon="0.39165">
        <ele>65.4</ele>
        <time>2023-02-26T09:55:42Z</time>
      </trkpt>
      <trkpt lat="46.63527" lon="0.3917">
        <ele>64</ele>
        <time>2023-02-26T09:55:44Z</time>
      </trkpt>
      <trkpt lat="46.6352" lon="0.39173">
        <ele>63</ele>
        <time>2023-02-26T09:55:45Z</time>
      </trkpt>
      <trkpt lat="46.63506" lon="0.39179">
        <ele>61.4</ele>
        <time>2023-02-26T09:55:47Z</time>
      </trkpt>
      <trkpt lat="46.63501" lon="0.39183">
        <ele>60.2</ele>
        <time>2023-02-26T09:55:48Z</time>
      </trkpt>
      <trkpt lat="46.63496" lon="0.39188">
        <ele>59.2</ele>
        <time>2023-02-26T09:55:49Z</time>
      </trkpt>
      <trkpt lat="46.63493" lon="0.39195">
        <ele>58.6</ele>
        <time>2023-02-26T09:55:50Z</time>
      </trkpt>
      <trkpt lat="46.63487" lon="0.39209">
        <ele>58</ele>
        <time>2023-02-26T09:55:52Z</time>
      </trkpt>
      <trkpt lat="46.63485" lon="0.39217">
        <ele>57.6</ele>
        <time>2023-02-26T09:55:53Z</time>
      </trkpt>
      <trkpt lat="46.63475" lon="0.39262">
        <ele>56.8</ele>
        <time>2023-02-26T09:55:58Z</time>
      </trkpt>
      <trkpt lat="46.63474" lon="0.39271">
        <ele>56.6</ele>
        <time>2023-02-26T09:55:59Z</time>
      </trkpt>
      <trkpt lat="46.63465" lon="0.39329">
        <ele>57.4</ele>
        <time>2023-02-26T09:56:06Z</time>
      </trkpt>
      <trkpt lat="46.63464" lon="0.39386">
        <ele>57.2</ele>
        <time>2023-02-26T09:56:13Z</time>
      </trkpt>
      <trkpt lat="46.63466" lon="0.394">
        <ele>57</ele>
        <time>2023-02-26T09:56:15Z</time>
      </trkpt>
      <trkpt lat="46.63469" lon="0.3942">
        <ele>57</ele>
        <time>2023-02-26T09:56:18Z</time>
      </trkpt>
      <trkpt lat="46.63475" lon="0.39467">
        <ele>57.2</ele>
        <time>2023-02-26T09:56:24Z</time>
      </trkpt>
      <trkpt lat="46.63476" lon="0.39476">
        <ele>57.2</ele>
        <time>2023-02-26T09:56:25Z</time>
      </trkpt>
      <trkpt lat="46.63482" lon="0.39528">
        <ele>57</ele>
        <time>2023-02-26T09:56:31Z</time>
      </trkpt>
      <trkpt lat="46.63488" lon="0.3958">
        <ele>57</ele>
        <time>2023-02-26T09:56:38Z</time>
      </trkpt>
      <trkpt lat="46.63492" lon="0.39611">
        <ele>57.2</ele>
        <time>2023-02-26T09:56:43Z</time>
      </trkpt>
      <trkpt lat="46.63493" lon="0.39616">
        <ele>57.2</ele>
        <time>2023-02-26T09:56:44Z</time>
      </trkpt>
      <trkpt lat="46.63494" lon="0.39625">
        <ele>57.8</ele>
        <time>2023-02-26T09:56:46Z</time>
      </trkpt>
      <trkpt lat="46.63498" lon="0.3964">
        <ele>58.6</ele>
        <time>2023-02-26T09:56:50Z</time>
      </trkpt>
      <trkpt lat="46.63501" lon="0.39646">
        <ele>58.8</ele>
        <time>2023-02-26T09:56:52Z</time>
      </trkpt>
      <trkpt lat="46.63505" lon="0.39655">
        <ele>60</ele>
        <time>2023-02-26T09:56:55Z</time>
      </trkpt>
      <trkpt lat="46.63509" lon="0.39662">
        <ele>61.2</ele>
        <time>2023-02-26T09:56:58Z</time>
      </trkpt>
      <trkpt lat="46.63516" lon="0.39677">
        <ele>62.4</ele>
        <time>2023-02-26T09:57:04Z</time>
      </trkpt>
      <trkpt lat="46.63515" lon="0.39681">
        <ele>62.6</ele>
        <time>2023-02-26T09:57:06Z</time>
      </trkpt>
      <trkpt lat="46.63512" lon="0.3968">
        <ele>63</ele>
        <time>2023-02-26T09:57:08Z</time>
      </trkpt>
      <trkpt lat="46.63504" lon="0.39677">
        <ele>63.4</ele>
        <time>2023-02-26T09:57:12Z</time>
      </trkpt>
      <trkpt lat="46.63499" lon="0.39674">
        <ele>63.8</ele>
        <time>2023-02-26T09:57:15Z</time>
      </trkpt>
      <trkpt lat="46.63491" lon="0.3967">
        <ele>64.6</ele>
        <time>2023-02-26T09:57:19Z</time>
      </trkpt>
      <trkpt lat="46.63485" lon="0.39667">
        <ele>65.6</ele>
        <time>2023-02-26T09:57:22Z</time>
      </trkpt>
      <trkpt lat="46.63483" lon="0.39666">
        <ele>66</ele>
        <time>2023-02-26T09:57:23Z</time>
      </trkpt>
      <trkpt lat="46.63473" lon="0.3966">
        <ele>67</ele>
        <time>2023-02-26T09:57:28Z</time>
      </trkpt>
      <trkpt lat="46.63458" lon="0.39651">
        <ele>68</ele>
        <time>2023-02-26T09:57:36Z</time>
      </trkpt>
      <trkpt lat="46.63453" lon="0.39647">
        <ele>69.2</ele>
        <time>2023-02-26T09:57:39Z</time>
      </trkpt>
      <trkpt lat="46.63447" lon="0.39642">
        <ele>69.4</ele>
        <time>2023-02-26T09:57:43Z</time>
      </trkpt>
      <trkpt lat="46.63443" lon="0.39638">
        <ele>70.2</ele>
        <time>2023-02-26T09:57:46Z</time>
      </trkpt>
      <trkpt lat="46.63433" lon="0.39632">
        <ele>71.2</ele>
        <time>2023-02-26T09:57:52Z</time>
      </trkpt>
      <trkpt lat="46.63427" lon="0.39627">
        <ele>72.4</ele>
        <time>2023-02-26T09:57:56Z</time>
      </trkpt>
      <trkpt lat="46.63421" lon="0.39623">
        <ele>72.8</ele>
        <time>2023-02-26T09:58:00Z</time>
      </trkpt>
      <trkpt lat="46.63408" lon="0.39613">
        <ele>73.6</ele>
        <time>2023-02-26T09:58:08Z</time>
      </trkpt>
      <trkpt lat="46.63405" lon="0.3961">
        <ele>73.8</ele>
        <time>2023-02-26T09:58:10Z</time>
      </trkpt>
      <trkpt lat="46.63398" lon="0.39604">
        <ele>74.6</ele>
        <time>2023-02-26T09:58:14Z</time>
      </trkpt>
      <trkpt lat="46.6339" lon="0.39597">
        <ele>75.2</ele>
        <time>2023-02-26T09:58:19Z</time>
      </trkpt>
      <trkpt lat="46.63387" lon="0.39593">
        <ele>75.8</ele>
        <time>2023-02-26T09:58:21Z</time>
      </trkpt>
      <trkpt lat="46.6338" lon="0.39588">
        <ele>76.4</ele>
        <time>2023-02-26T09:58:25Z</time>
      </trkpt>
      <trkpt lat="46.63376" lon="0.39584">
        <ele>76.8</ele>
        <time>2023-02-26T09:58:28Z</time>
      </trkpt>
      <trkpt lat="46.63367" lon="0.39577">
        <ele>77.8</ele>
        <time>2023-02-26T09:58:34Z</time>
      </trkpt>
      <trkpt lat="46.63362" lon="0.39574">
        <ele>78.2</ele>
        <time>2023-02-26T09:58:37Z</time>
      </trkpt>
      <trkpt lat="46.6336" lon="0.39571">
        <ele>78.2</ele>
        <time>2023-02-26T09:58:39Z</time>
      </trkpt>
      <trkpt lat="46.63355" lon="0.39568">
        <ele>79</ele>
        <time>2023-02-26T09:58:42Z</time>
      </trkpt>
      <trkpt lat="46.63354" lon="0.39567">
        <ele>79.2</ele>
        <time>2023-02-26T09:58:43Z</time>
      </trkpt>
      <trkpt lat="46.63347" lon="0.39562">
        <ele>80</ele>
        <time>2023-02-26T09:58:48Z</time>
      </trkpt>
      <trkpt lat="46.63344" lon="0.3956">
        <ele>80.2</ele>
        <time>2023-02-26T09:58:50Z</time>
      </trkpt>
      <trkpt lat="46.6334" lon="0.39557">
        <ele>81.2</ele>
        <time>2023-02-26T09:58:54Z</time>
      </trkpt>
      <trkpt lat="46.63338" lon="0.39555">
        <ele>81.4</ele>
        <time>2023-02-26T09:58:56Z</time>
      </trkpt>
      <trkpt lat="46.63334" lon="0.39551">
        <ele>82.6</ele>
        <time>2023-02-26T09:58:59Z</time>
      </trkpt>
      <trkpt lat="46.63328" lon="0.39546">
        <ele>83.4</ele>
        <time>2023-02-26T09:59:04Z</time>
      </trkpt>
      <trkpt lat="46.63326" lon="0.39544">
        <ele>83.6</ele>
        <time>2023-02-26T09:59:06Z</time>
      </trkpt>
      <trkpt lat="46.63323" lon="0.39538">
        <ele>84.4</ele>
        <time>2023-02-26T09:59:11Z</time>
      </trkpt>
      <trkpt lat="46.63317" lon="0.3953">
        <ele>84.4</ele>
        <time>2023-02-26T09:59:18Z</time>
      </trkpt>
      <trkpt lat="46.63315" lon="0.39527">
        <ele>84.8</ele>
        <time>2023-02-26T09:59:20Z</time>
      </trkpt>
      <trkpt lat="46.63312" lon="0.39523">
        <ele>85.8</ele>
        <time>2023-02-26T09:59:23Z</time>
      </trkpt>
      <trkpt lat="46.63309" lon="0.39519">
        <ele>87.2</ele>
        <time>2023-02-26T09:59:26Z</time>
      </trkpt>
      <trkpt lat="46.63308" lon="0.39518">
        <ele>87.6</ele>
        <time>2023-02-26T09:59:27Z</time>
      </trkpt>
      <trkpt lat="46.63306" lon="0.39517">
        <ele>88.2</ele>
        <time>2023-02-26T09:59:29Z</time>
      </trkpt>
      <trkpt lat="46.63304" lon="0.39515">
        <ele>88.4</ele>
        <time>2023-02-26T09:59:31Z</time>
      </trkpt>
      <trkpt lat="46.633" lon="0.39509">
        <ele>88.8</ele>
        <time>2023-02-26T09:59:35Z</time>
      </trkpt>
      <trkpt lat="46.63296" lon="0.39506">
        <ele>89.6</ele>
        <time>2023-02-26T09:59:38Z</time>
      </trkpt>
      <trkpt lat="46.63291" lon="0.39499">
        <ele>90.8</ele>
        <time>2023-02-26T09:59:43Z</time>
      </trkpt>
      <trkpt lat="46.63288" lon="0.39495">
        <ele>92</ele>
        <time>2023-02-26T09:59:46Z</time>
      </trkpt>
      <trkpt lat="46.63284" lon="0.39489">
        <ele>92.4</ele>
        <time>2023-02-26T09:59:50Z</time>
      </trkpt>
      <trkpt lat="46.63278" lon="0.39482">
        <ele>93.2</ele>
        <time>2023-02-26T09:59:55Z</time>
      </trkpt>
      <trkpt lat="46.63275" lon="0.39478">
        <ele>93.6</ele>
        <time>2023-02-26T09:59:58Z</time>
      </trkpt>
      <trkpt lat="46.6327" lon="0.39475">
        <ele>94.2</ele>
        <time>2023-02-26T10:00:01Z</time>
      </trkpt>
      <trkpt lat="46.63263" lon="0.39469">
        <ele>95.2</ele>
        <time>2023-02-26T10:00:06Z</time>
      </trkpt>
      <trkpt lat="46.63261" lon="0.39468">
        <ele>95.6</ele>
        <time>2023-02-26T10:00:07Z</time>
      </trkpt>
      <trkpt lat="46.63261" lon="0.39468">
        <ele>96.2</ele>
        <time>2023-02-26T10:00:08Z</time>
      </trkpt>
      <trkpt lat="46.63249" lon="0.39461">
        <ele>97.2</ele>
        <time>2023-02-26T10:00:14Z</time>
      </trkpt>
      <trkpt lat="46.63244" lon="0.39456">
        <ele>97.4</ele>
        <time>2023-02-26T10:00:17Z</time>
      </trkpt>
      <trkpt lat="46.63238" lon="0.3945">
        <ele>98.4</ele>
        <time>2023-02-26T10:00:21Z</time>
      </trkpt>
      <trkpt lat="46.63232" lon="0.39441">
        <ele>99.4</ele>
        <time>2023-02-26T10:00:25Z</time>
      </trkpt>
      <trkpt lat="46.63219" lon="0.39423">
        <ele>100</ele>
        <time>2023-02-26T10:00:33Z</time>
      </trkpt>
      <trkpt lat="46.63214" lon="0.39415">
        <ele>100.6</ele>
        <time>2023-02-26T10:00:36Z</time>
      </trkpt>
      <trkpt lat="46.63208" lon="0.39408">
        <ele>100.8</ele>
        <time>2023-02-26T10:00:39Z</time>
      </trkpt>
      <trkpt lat="46.63201" lon="0.39401">
        <ele>101.6</ele>
        <time>2023-02-26T10:00:42Z</time>
      </trkpt>
      <trkpt lat="46.63193" lon="0.39392">
        <ele>102.6</ele>
        <time>2023-02-26T10:00:46Z</time>
      </trkpt>
      <trkpt lat="46.63188" lon="0.39388">
        <ele>102.8</ele>
        <time>2023-02-26T10:00:48Z</time>
      </trkpt>
      <trkpt lat="46.63183" lon="0.39384">
        <ele>103</ele>
        <time>2023-02-26T10:00:50Z</time>
      </trkpt>
      <trkpt lat="46.63171" lon="0.39372">
        <ele>103.2</ele>
        <time>2023-02-26T10:00:55Z</time>
      </trkpt>
      <trkpt lat="46.63167" lon="0.39368">
        <ele>103.8</ele>
        <time>2023-02-26T10:00:57Z</time>
      </trkpt>
      <trkpt lat="46.63155" lon="0.39356">
        <ele>104.2</ele>
        <time>2023-02-26T10:01:02Z</time>
      </trkpt>
      <trkpt lat="46.63141" lon="0.39343">
        <ele>105</ele>
        <time>2023-02-26T10:01:07Z</time>
      </trkpt>
      <trkpt lat="46.63129" lon="0.39332">
        <ele>105.2</ele>
        <time>2023-02-26T10:01:11Z</time>
      </trkpt>
      <trkpt lat="46.63102" lon="0.3931">
        <ele>106.2</ele>
        <time>2023-02-26T10:01:19Z</time>
      </trkpt>
      <trkpt lat="46.63095" lon="0.39305">
        <ele>106.4</ele>
        <time>2023-02-26T10:01:21Z</time>
      </trkpt>
      <trkpt lat="46.63073" lon="0.39289">
        <ele>107.2</ele>
        <time>2023-02-26T10:01:27Z</time>
      </trkpt>
      <trkpt lat="46.63065" lon="0.39284">
        <ele>107.4</ele>
        <time>2023-02-26T10:01:29Z</time>
      </trkpt>
      <trkpt lat="46.63048" lon="0.39275">
        <ele>108</ele>
        <time>2023-02-26T10:01:33Z</time>
      </trkpt>
      <trkpt lat="46.63034" lon="0.39272">
        <ele>108</ele>
        <time>2023-02-26T10:01:36Z</time>
      </trkpt>
      <trkpt lat="46.6302" lon="0.39269">
        <ele>108.2</ele>
        <time>2023-02-26T10:01:39Z</time>
      </trkpt>
      <trkpt lat="46.62995" lon="0.39269">
        <ele>108.6</ele>
        <time>2023-02-26T10:01:44Z</time>
      </trkpt>
      <trkpt lat="46.62957" lon="0.39272">
        <ele>108.8</ele>
        <time>2023-02-26T10:01:52Z</time>
      </trkpt>
      <trkpt lat="46.62947" lon="0.39273">
        <ele>109.2</ele>
        <time>2023-02-26T10:01:54Z</time>
      </trkpt>
      <trkpt lat="46.6291" lon="0.39278">
        <ele>110.2</ele>
        <time>2023-02-26T10:02:01Z</time>
      </trkpt>
      <trkpt lat="46.62899" lon="0.3928">
        <ele>110.4</ele>
        <time>2023-02-26T10:02:03Z</time>
      </trkpt>
      <trkpt lat="46.6286" lon="0.39287">
        <ele>110.6</ele>
        <time>2023-02-26T10:02:10Z</time>
      </trkpt>
      <trkpt lat="46.62811" lon="0.39297">
        <ele>111</ele>
        <time>2023-02-26T10:02:19Z</time>
      </trkpt>
      <trkpt lat="46.62774" lon="0.39303">
        <ele>110.4</ele>
        <time>2023-02-26T10:02:26Z</time>
      </trkpt>
      <trkpt lat="46.6274" lon="0.39306">
        <ele>111.4</ele>
        <time>2023-02-26T10:02:32Z</time>
      </trkpt>
      <trkpt lat="46.62723" lon="0.39308">
        <ele>111.8</ele>
        <time>2023-02-26T10:02:35Z</time>
      </trkpt>
      <trkpt lat="46.62678" lon="0.39314">
        <ele>111.8</ele>
        <time>2023-02-26T10:02:43Z</time>
      </trkpt>
      <trkpt lat="46.62645" lon="0.39315">
        <ele>111.2</ele>
        <time>2023-02-26T10:02:49Z</time>
      </trkpt>
      <trkpt lat="46.62627" lon="0.39315">
        <ele>111</ele>
        <time>2023-02-26T10:02:53Z</time>
      </trkpt>
      <trkpt lat="46.62625" lon="0.39318">
        <ele>111</ele>
        <time>2023-02-26T10:02:54Z</time>
      </trkpt>
      <trkpt lat="46.62625" lon="0.39323">
        <ele>110.8</ele>
        <time>2023-02-26T10:02:55Z</time>
      </trkpt>
      <trkpt lat="46.62628" lon="0.39331">
        <ele>110.8</ele>
        <time>2023-02-26T10:02:57Z</time>
      </trkpt>
      <trkpt lat="46.62642" lon="0.39352">
        <ele>111</ele>
        <time>2023-02-26T10:03:02Z</time>
      </trkpt>
      <trkpt lat="46.62667" lon="0.39391">
        <ele>110.8</ele>
        <time>2023-02-26T10:03:11Z</time>
      </trkpt>
      <trkpt lat="46.62682" lon="0.39414">
        <ele>111.6</ele>
        <time>2023-02-26T10:03:16Z</time>
      </trkpt>
      <trkpt lat="46.62691" lon="0.39428">
        <ele>111.8</ele>
        <time>2023-02-26T10:03:19Z</time>
      </trkpt>
      <trkpt lat="46.62722" lon="0.39476">
        <ele>111.8</ele>
        <time>2023-02-26T10:03:30Z</time>
      </trkpt>
      <trkpt lat="46.6275" lon="0.3951">
        <ele>111.8</ele>
        <time>2023-02-26T10:03:39Z</time>
      </trkpt>
      <trkpt lat="46.62782" lon="0.39542">
        <ele>111.4</ele>
        <time>2023-02-26T10:03:49Z</time>
      </trkpt>
      <trkpt lat="46.62811" lon="0.39571">
        <ele>110.6</ele>
        <time>2023-02-26T10:03:58Z</time>
      </trkpt>
      <trkpt lat="46.62838" lon="0.39599">
        <ele>110.4</ele>
        <time>2023-02-26T10:04:06Z</time>
      </trkpt>
      <trkpt lat="46.62848" lon="0.3961">
        <ele>110.4</ele>
        <time>2023-02-26T10:04:09Z</time>
      </trkpt>
      <trkpt lat="46.62869" lon="0.39639">
        <ele>110.8</ele>
        <time>2023-02-26T10:04:16Z</time>
      </trkpt>
      <trkpt lat="46.62871" lon="0.39645">
        <ele>110.8</ele>
        <time>2023-02-26T10:04:17Z</time>
      </trkpt>
      <trkpt lat="46.62872" lon="0.39651">
        <ele>110.2</ele>
        <time>2023-02-26T10:04:18Z</time>
      </trkpt>
      <trkpt lat="46.6287" lon="0.39664">
        <ele>109.4</ele>
        <time>2023-02-26T10:04:20Z</time>
      </trkpt>
      <trkpt lat="46.62868" lon="0.3967">
        <ele>108.4</ele>
        <time>2023-02-26T10:04:21Z</time>
      </trkpt>
      <trkpt lat="46.62863" lon="0.39682">
        <ele>107.4</ele>
        <time>2023-02-26T10:04:23Z</time>
      </trkpt>
      <trkpt lat="46.62856" lon="0.39699">
        <ele>106.8</ele>
        <time>2023-02-26T10:04:26Z</time>
      </trkpt>
      <trkpt lat="46.6284" lon="0.39738">
        <ele>107</ele>
        <time>2023-02-26T10:04:33Z</time>
      </trkpt>
      <trkpt lat="46.62822" lon="0.39783">
        <ele>107</ele>
        <time>2023-02-26T10:04:41Z</time>
      </trkpt>
      <trkpt lat="46.62822" lon="0.39795">
        <ele>107.2</ele>
        <time>2023-02-26T10:04:43Z</time>
      </trkpt>
      <trkpt lat="46.62827" lon="0.39805">
        <ele>107.6</ele>
        <time>2023-02-26T10:04:45Z</time>
      </trkpt>
      <trkpt lat="46.62834" lon="0.39814">
        <ele>107.6</ele>
        <time>2023-02-26T10:04:47Z</time>
      </trkpt>
      <trkpt lat="46.62859" lon="0.39847">
        <ele>107.6</ele>
        <time>2023-02-26T10:04:54Z</time>
      </trkpt>
      <trkpt lat="46.62862" lon="0.39853">
        <ele>107.6</ele>
        <time>2023-02-26T10:04:55Z</time>
      </trkpt>
      <trkpt lat="46.62863" lon="0.39859">
        <ele>106.2</ele>
        <time>2023-02-26T10:04:56Z</time>
      </trkpt>
      <trkpt lat="46.6286" lon="0.39873">
        <ele>105.2</ele>
        <time>2023-02-26T10:04:58Z</time>
      </trkpt>
      <trkpt lat="46.62834" lon="0.39921">
        <ele>104.2</ele>
        <time>2023-02-26T10:05:06Z</time>
      </trkpt>
      <trkpt lat="46.62819" lon="0.39948">
        <ele>104</ele>
        <time>2023-02-26T10:05:11Z</time>
      </trkpt>
      <trkpt lat="46.62813" lon="0.3996">
        <ele>104.2</ele>
        <time>2023-02-26T10:05:13Z</time>
      </trkpt>
      <trkpt lat="46.62784" lon="0.40017">
        <ele>104.6</ele>
        <time>2023-02-26T10:05:23Z</time>
      </trkpt>
      <trkpt lat="46.62759" lon="0.40075">
        <ele>103</ele>
        <time>2023-02-26T10:05:32Z</time>
      </trkpt>
      <trkpt lat="46.62756" lon="0.40081">
        <ele>102.8</ele>
        <time>2023-02-26T10:05:33Z</time>
      </trkpt>
      <trkpt lat="46.62753" lon="0.40088">
        <ele>102.8</ele>
        <time>2023-02-26T10:05:34Z</time>
      </trkpt>
      <trkpt lat="46.62731" lon="0.40136">
        <ele>102.8</ele>
        <time>2023-02-26T10:05:41Z</time>
      </trkpt>
      <trkpt lat="46.62715" lon="0.40169">
        <ele>101.8</ele>
        <time>2023-02-26T10:05:46Z</time>
      </trkpt>
      <trkpt lat="46.62708" lon="0.40182">
        <ele>101.2</ele>
        <time>2023-02-26T10:05:48Z</time>
      </trkpt>
      <trkpt lat="46.627" lon="0.40195">
        <ele>100.8</ele>
        <time>2023-02-26T10:05:50Z</time>
      </trkpt>
      <trkpt lat="46.6269" lon="0.40206">
        <ele>100.6</ele>
        <time>2023-02-26T10:05:52Z</time>
      </trkpt>
      <trkpt lat="46.62685" lon="0.4021">
        <ele>100</ele>
        <time>2023-02-26T10:05:53Z</time>
      </trkpt>
      <trkpt lat="46.6268" lon="0.40214">
        <ele>99.6</ele>
        <time>2023-02-26T10:05:54Z</time>
      </trkpt>
      <trkpt lat="46.6266" lon="0.40227">
        <ele>99.4</ele>
        <time>2023-02-26T10:05:58Z</time>
      </trkpt>
      <trkpt lat="46.62655" lon="0.40232">
        <ele>99.4</ele>
        <time>2023-02-26T10:05:59Z</time>
      </trkpt>
      <trkpt lat="46.62633" lon="0.40266">
        <ele>99.8</ele>
        <time>2023-02-26T10:06:05Z</time>
      </trkpt>
      <trkpt lat="46.62599" lon="0.40314">
        <ele>100.2</ele>
        <time>2023-02-26T10:06:14Z</time>
      </trkpt>
      <trkpt lat="46.62566" lon="0.40359">
        <ele>99.6</ele>
        <time>2023-02-26T10:06:22Z</time>
      </trkpt>
      <trkpt lat="46.62527" lon="0.40417">
        <ele>99</ele>
        <time>2023-02-26T10:06:31Z</time>
      </trkpt>
      <trkpt lat="46.62517" lon="0.40429">
        <ele>99</ele>
        <time>2023-02-26T10:06:33Z</time>
      </trkpt>
      <trkpt lat="46.62505" lon="0.40433">
        <ele>99.4</ele>
        <time>2023-02-26T10:06:35Z</time>
      </trkpt>
      <trkpt lat="46.62495" lon="0.40427">
        <ele>99</ele>
        <time>2023-02-26T10:06:37Z</time>
      </trkpt>
      <trkpt lat="46.6249" lon="0.40422">
        <ele>98.6</ele>
        <time>2023-02-26T10:06:38Z</time>
      </trkpt>
      <trkpt lat="46.62486" lon="0.40416">
        <ele>98.4</ele>
        <time>2023-02-26T10:06:39Z</time>
      </trkpt>
      <trkpt lat="46.62482" lon="0.40411">
        <ele>98.2</ele>
        <time>2023-02-26T10:06:40Z</time>
      </trkpt>
      <trkpt lat="46.62473" lon="0.40402">
        <ele>98</ele>
        <time>2023-02-26T10:06:42Z</time>
      </trkpt>
      <trkpt lat="46.62468" lon="0.40399">
        <ele>98</ele>
        <time>2023-02-26T10:06:43Z</time>
      </trkpt>
      <trkpt lat="46.6243" lon="0.4037">
        <ele>98.8</ele>
        <time>2023-02-26T10:06:51Z</time>
      </trkpt>
      <trkpt lat="46.624" lon="0.40346">
        <ele>98.8</ele>
        <time>2023-02-26T10:06:58Z</time>
      </trkpt>
      <trkpt lat="46.62373" lon="0.40325">
        <ele>99.4</ele>
        <time>2023-02-26T10:07:04Z</time>
      </trkpt>
      <trkpt lat="46.62363" lon="0.40318">
        <ele>99.6</ele>
        <time>2023-02-26T10:07:06Z</time>
      </trkpt>
      <trkpt lat="46.62354" lon="0.40311">
        <ele>99.6</ele>
        <time>2023-02-26T10:07:08Z</time>
      </trkpt>
      <trkpt lat="46.62344" lon="0.40311">
        <ele>99.8</ele>
        <time>2023-02-26T10:07:10Z</time>
      </trkpt>
      <trkpt lat="46.62337" lon="0.4032">
        <ele>100</ele>
        <time>2023-02-26T10:07:12Z</time>
      </trkpt>
      <trkpt lat="46.62335" lon="0.40327">
        <ele>100.2</ele>
        <time>2023-02-26T10:07:13Z</time>
      </trkpt>
      <trkpt lat="46.62333" lon="0.40334">
        <ele>100.4</ele>
        <time>2023-02-26T10:07:14Z</time>
      </trkpt>
      <trkpt lat="46.62328" lon="0.40366">
        <ele>100.4</ele>
        <time>2023-02-26T10:07:18Z</time>
      </trkpt>
      <trkpt lat="46.62315" lon="0.4043">
        <ele>98.6</ele>
        <time>2023-02-26T10:07:26Z</time>
      </trkpt>
      <trkpt lat="46.62314" lon="0.40438">
        <ele>98.4</ele>
        <time>2023-02-26T10:07:27Z</time>
      </trkpt>
      <trkpt lat="46.62309" lon="0.40463">
        <ele>97</ele>
        <time>2023-02-26T10:07:30Z</time>
      </trkpt>
      <trkpt lat="46.62302" lon="0.40494">
        <ele>96.6</ele>
        <time>2023-02-26T10:07:34Z</time>
      </trkpt>
      <trkpt lat="46.62298" lon="0.40516">
        <ele>96.6</ele>
        <time>2023-02-26T10:07:37Z</time>
      </trkpt>
      <trkpt lat="46.62294" lon="0.40538">
        <ele>96</ele>
        <time>2023-02-26T10:07:40Z</time>
      </trkpt>
      <trkpt lat="46.62293" lon="0.40546">
        <ele>95.6</ele>
        <time>2023-02-26T10:07:41Z</time>
      </trkpt>
      <trkpt lat="46.62288" lon="0.40588">
        <ele>95.2</ele>
        <time>2023-02-26T10:07:46Z</time>
      </trkpt>
      <trkpt lat="46.62288" lon="0.40597">
        <ele>95</ele>
        <time>2023-02-26T10:07:47Z</time>
      </trkpt>
      <trkpt lat="46.62288" lon="0.40606">
        <ele>95</ele>
        <time>2023-02-26T10:07:48Z</time>
      </trkpt>
      <trkpt lat="46.62289" lon="0.40658">
        <ele>94.2</ele>
        <time>2023-02-26T10:07:54Z</time>
      </trkpt>
      <trkpt lat="46.62284" lon="0.40715">
        <ele>93.4</ele>
        <time>2023-02-26T10:08:00Z</time>
      </trkpt>
      <trkpt lat="46.62283" lon="0.40725">
        <ele>93</ele>
        <time>2023-02-26T10:08:01Z</time>
      </trkpt>
      <trkpt lat="46.6228" lon="0.40744">
        <ele>92</ele>
        <time>2023-02-26T10:08:03Z</time>
      </trkpt>
      <trkpt lat="46.62276" lon="0.4078">
        <ele>91</ele>
        <time>2023-02-26T10:08:07Z</time>
      </trkpt>
      <trkpt lat="46.62275" lon="0.40789">
        <ele>91</ele>
        <time>2023-02-26T10:08:08Z</time>
      </trkpt>
      <trkpt lat="46.62274" lon="0.40805">
        <ele>90.6</ele>
        <time>2023-02-26T10:08:10Z</time>
      </trkpt>
      <trkpt lat="46.62276" lon="0.40818">
        <ele>90.6</ele>
        <time>2023-02-26T10:08:12Z</time>
      </trkpt>
      <trkpt lat="46.62283" lon="0.40826">
        <ele>90.6</ele>
        <time>2023-02-26T10:08:14Z</time>
      </trkpt>
      <trkpt lat="46.62287" lon="0.40828">
        <ele>90.4</ele>
        <time>2023-02-26T10:08:15Z</time>
      </trkpt>
      <trkpt lat="46.62322" lon="0.40852">
        <ele>90.2</ele>
        <time>2023-02-26T10:08:23Z</time>
      </trkpt>
      <trkpt lat="46.62326" lon="0.40855">
        <ele>90</ele>
        <time>2023-02-26T10:08:24Z</time>
      </trkpt>
      <trkpt lat="46.62346" lon="0.40867">
        <ele>89.8</ele>
        <time>2023-02-26T10:08:28Z</time>
      </trkpt>
      <trkpt lat="46.62356" lon="0.4087">
        <ele>90</ele>
        <time>2023-02-26T10:08:30Z</time>
      </trkpt>
      <trkpt lat="46.6237" lon="0.40871">
        <ele>90.6</ele>
        <time>2023-02-26T10:08:33Z</time>
      </trkpt>
      <trkpt lat="46.62405" lon="0.40869">
        <ele>90</ele>
        <time>2023-02-26T10:08:40Z</time>
      </trkpt>
      <trkpt lat="46.62425" lon="0.40867">
        <ele>89.2</ele>
        <time>2023-02-26T10:08:44Z</time>
      </trkpt>
      <trkpt lat="46.62428" lon="0.40868">
        <ele>89.2</ele>
        <time>2023-02-26T10:08:45Z</time>
      </trkpt>
      <trkpt lat="46.62431" lon="0.4087">
        <ele>88.8</ele>
        <time>2023-02-26T10:08:46Z</time>
      </trkpt>
      <trkpt lat="46.62436" lon="0.40874">
        <ele>87.8</ele>
        <time>2023-02-26T10:08:48Z</time>
      </trkpt>
      <trkpt lat="46.6244" lon="0.40878">
        <ele>87.6</ele>
        <time>2023-02-26T10:08:49Z</time>
      </trkpt>
      <trkpt lat="46.6245" lon="0.40895">
        <ele>87.6</ele>
        <time>2023-02-26T10:08:52Z</time>
      </trkpt>
      <trkpt lat="46.62452" lon="0.40903">
        <ele>87.8</ele>
        <time>2023-02-26T10:08:53Z</time>
      </trkpt>
      <trkpt lat="46.62453" lon="0.4091">
        <ele>88</ele>
        <time>2023-02-26T10:08:54Z</time>
      </trkpt>
      <trkpt lat="46.62451" lon="0.40925">
        <ele>88</ele>
        <time>2023-02-26T10:08:56Z</time>
      </trkpt>
      <trkpt lat="46.62439" lon="0.40946">
        <ele>87.6</ele>
        <time>2023-02-26T10:09:00Z</time>
      </trkpt>
      <trkpt lat="46.62426" lon="0.40968">
        <ele>89.2</ele>
        <time>2023-02-26T10:09:04Z</time>
      </trkpt>
      <trkpt lat="46.62421" lon="0.4098">
        <ele>89.4</ele>
        <time>2023-02-26T10:09:06Z</time>
      </trkpt>
      <trkpt lat="46.62411" lon="0.41003">
        <ele>89.2</ele>
        <time>2023-02-26T10:09:10Z</time>
      </trkpt>
      <trkpt lat="46.62409" lon="0.4101">
        <ele>88.6</ele>
        <time>2023-02-26T10:09:11Z</time>
      </trkpt>
      <trkpt lat="46.62406" lon="0.41017">
        <ele>88.2</ele>
        <time>2023-02-26T10:09:12Z</time>
      </trkpt>
      <trkpt lat="46.62392" lon="0.41057">
        <ele>87.6</ele>
        <time>2023-02-26T10:09:17Z</time>
      </trkpt>
      <trkpt lat="46.62374" lon="0.41102">
        <ele>87</ele>
        <time>2023-02-26T10:09:22Z</time>
      </trkpt>
      <trkpt lat="46.6237" lon="0.41111">
        <ele>86.4</ele>
        <time>2023-02-26T10:09:23Z</time>
      </trkpt>
      <trkpt lat="46.62366" lon="0.4112">
        <ele>85.8</ele>
        <time>2023-02-26T10:09:24Z</time>
      </trkpt>
      <trkpt lat="46.62347" lon="0.41158">
        <ele>84.6</ele>
        <time>2023-02-26T10:09:28Z</time>
      </trkpt>
      <trkpt lat="46.62333" lon="0.41187">
        <ele>83.2</ele>
        <time>2023-02-26T10:09:31Z</time>
      </trkpt>
      <trkpt lat="46.6232" lon="0.41221">
        <ele>82</ele>
        <time>2023-02-26T10:09:35Z</time>
      </trkpt>
      <trkpt lat="46.62306" lon="0.41265">
        <ele>80.8</ele>
        <time>2023-02-26T10:09:42Z</time>
      </trkpt>
      <trkpt lat="46.62302" lon="0.41284">
        <ele>82.4</ele>
        <time>2023-02-26T10:09:46Z</time>
      </trkpt>
      <trkpt lat="46.62301" lon="0.41292">
        <ele>83.4</ele>
        <time>2023-02-26T10:09:48Z</time>
      </trkpt>
      <trkpt lat="46.623" lon="0.41296">
        <ele>83.8</ele>
        <time>2023-02-26T10:09:49Z</time>
      </trkpt>
      <trkpt lat="46.62295" lon="0.41326">
        <ele>85</ele>
        <time>2023-02-26T10:09:56Z</time>
      </trkpt>
      <trkpt lat="46.62295" lon="0.4133">
        <ele>85</ele>
        <time>2023-02-26T10:09:57Z</time>
      </trkpt>
      <trkpt lat="46.62293" lon="0.41343">
        <ele>86.2</ele>
        <time>2023-02-26T10:10:00Z</time>
      </trkpt>
      <trkpt lat="46.62291" lon="0.41364">
        <ele>87</ele>
        <time>2023-02-26T10:10:05Z</time>
      </trkpt>
      <trkpt lat="46.6229" lon="0.41368">
        <ele>87.2</ele>
        <time>2023-02-26T10:10:06Z</time>
      </trkpt>
      <trkpt lat="46.62289" lon="0.41393">
        <ele>88.2</ele>
        <time>2023-02-26T10:10:12Z</time>
      </trkpt>
      <trkpt lat="46.62288" lon="0.41401">
        <ele>88.4</ele>
        <time>2023-02-26T10:10:14Z</time>
      </trkpt>
      <trkpt lat="46.62286" lon="0.41435">
        <ele>88.6</ele>
        <time>2023-02-26T10:10:22Z</time>
      </trkpt>
      <trkpt lat="46.62285" lon="0.41456">
        <ele>89.2</ele>
        <time>2023-02-26T10:10:27Z</time>
      </trkpt>
      <trkpt lat="46.62285" lon="0.41473">
        <ele>89.4</ele>
        <time>2023-02-26T10:10:31Z</time>
      </trkpt>
      <trkpt lat="46.62283" lon="0.41522">
        <ele>88.2</ele>
        <time>2023-02-26T10:10:41Z</time>
      </trkpt>
      <trkpt lat="46.62283" lon="0.41528">
        <ele>88</ele>
        <time>2023-02-26T10:10:42Z</time>
      </trkpt>
      <trkpt lat="46.62282" lon="0.41551">
        <ele>86.8</ele>
        <time>2023-02-26T10:10:46Z</time>
      </trkpt>
      <trkpt lat="46.6228" lon="0.41556">
        <ele>86.6</ele>
        <time>2023-02-26T10:10:47Z</time>
      </trkpt>
      <trkpt lat="46.62277" lon="0.4156">
        <ele>86.4</ele>
        <time>2023-02-26T10:10:48Z</time>
      </trkpt>
      <trkpt lat="46.62267" lon="0.41562">
        <ele>85.8</ele>
        <time>2023-02-26T10:10:51Z</time>
      </trkpt>
      <trkpt lat="46.62264" lon="0.41561">
        <ele>85.6</ele>
        <time>2023-02-26T10:10:52Z</time>
      </trkpt>
      <trkpt lat="46.62237" lon="0.41557">
        <ele>86.4</ele>
        <time>2023-02-26T10:11:00Z</time>
      </trkpt>
      <trkpt lat="46.62229" lon="0.41555">
        <ele>87</ele>
        <time>2023-02-26T10:11:02Z</time>
      </trkpt>
      <trkpt lat="46.62213" lon="0.41548">
        <ele>88.2</ele>
        <time>2023-02-26T10:11:06Z</time>
      </trkpt>
      <trkpt lat="46.62202" lon="0.41543">
        <ele>89</ele>
        <time>2023-02-26T10:11:09Z</time>
      </trkpt>
      <trkpt lat="46.62198" lon="0.41541">
        <ele>89.4</ele>
        <time>2023-02-26T10:11:10Z</time>
      </trkpt>
      <trkpt lat="46.62174" lon="0.41528">
        <ele>90</ele>
        <time>2023-02-26T10:11:17Z</time>
      </trkpt>
      <trkpt lat="46.6214" lon="0.41509">
        <ele>89</ele>
        <time>2023-02-26T10:11:25Z</time>
      </trkpt>
      <trkpt lat="46.62121" lon="0.41498">
        <ele>88.2</ele>
        <time>2023-02-26T10:11:29Z</time>
      </trkpt>
      <trkpt lat="46.621" lon="0.41486">
        <ele>87</ele>
        <time>2023-02-26T10:11:33Z</time>
      </trkpt>
      <trkpt lat="46.62094" lon="0.41485">
        <ele>86.6</ele>
        <time>2023-02-26T10:11:34Z</time>
      </trkpt>
      <trkpt lat="46.62082" lon="0.4148">
        <ele>85.8</ele>
        <time>2023-02-26T10:11:36Z</time>
      </trkpt>
      <trkpt lat="46.62071" lon="0.41473">
        <ele>85.4</ele>
        <time>2023-02-26T10:11:38Z</time>
      </trkpt>
      <trkpt lat="46.62041" lon="0.41458">
        <ele>85.6</ele>
        <time>2023-02-26T10:11:44Z</time>
      </trkpt>
      <trkpt lat="46.62003" lon="0.4144">
        <ele>87</ele>
        <time>2023-02-26T10:11:52Z</time>
      </trkpt>
      <trkpt lat="46.61998" lon="0.41438">
        <ele>87</ele>
        <time>2023-02-26T10:11:53Z</time>
      </trkpt>
      <trkpt lat="46.61975" lon="0.4143">
        <ele>88</ele>
        <time>2023-02-26T10:11:58Z</time>
      </trkpt>
      <trkpt lat="46.6197" lon="0.41429">
        <ele>88.2</ele>
        <time>2023-02-26T10:11:59Z</time>
      </trkpt>
      <trkpt lat="46.61965" lon="0.41428">
        <ele>88.4</ele>
        <time>2023-02-26T10:12:00Z</time>
      </trkpt>
      <trkpt lat="46.61952" lon="0.41425">
        <ele>89.2</ele>
        <time>2023-02-26T10:12:03Z</time>
      </trkpt>
      <trkpt lat="46.61935" lon="0.41419">
        <ele>89</ele>
        <time>2023-02-26T10:12:07Z</time>
      </trkpt>
      <trkpt lat="46.61902" lon="0.41403">
        <ele>88.2</ele>
        <time>2023-02-26T10:12:14Z</time>
      </trkpt>
      <trkpt lat="46.61883" lon="0.41395">
        <ele>87</ele>
        <time>2023-02-26T10:12:19Z</time>
      </trkpt>
      <trkpt lat="46.6188" lon="0.41394">
        <ele>86.8</ele>
        <time>2023-02-26T10:12:20Z</time>
      </trkpt>
      <trkpt lat="46.61867" lon="0.41393">
        <ele>87.2</ele>
        <time>2023-02-26T10:12:25Z</time>
      </trkpt>
      <trkpt lat="46.61861" lon="0.41399">
        <ele>88.8</ele>
        <time>2023-02-26T10:12:28Z</time>
      </trkpt>
      <trkpt lat="46.61858" lon="0.41404">
        <ele>89.4</ele>
        <time>2023-02-26T10:12:29Z</time>
      </trkpt>
      <trkpt lat="46.61854" lon="0.41414">
        <ele>90</ele>
        <time>2023-02-26T10:12:31Z</time>
      </trkpt>
      <trkpt lat="46.61847" lon="0.41437">
        <ele>90.8</ele>
        <time>2023-02-26T10:12:35Z</time>
      </trkpt>
      <trkpt lat="46.61843" lon="0.41449">
        <ele>91</ele>
        <time>2023-02-26T10:12:37Z</time>
      </trkpt>
      <trkpt lat="46.61832" lon="0.41483">
        <ele>91.4</ele>
        <time>2023-02-26T10:12:42Z</time>
      </trkpt>
      <trkpt lat="46.61813" lon="0.41546">
        <ele>89.4</ele>
        <time>2023-02-26T10:12:50Z</time>
      </trkpt>
      <trkpt lat="46.61805" lon="0.41572">
        <ele>88.4</ele>
        <time>2023-02-26T10:12:53Z</time>
      </trkpt>
      <trkpt lat="46.61797" lon="0.41598">
        <ele>87.2</ele>
        <time>2023-02-26T10:12:56Z</time>
      </trkpt>
      <trkpt lat="46.61792" lon="0.41616">
        <ele>87</ele>
        <time>2023-02-26T10:12:58Z</time>
      </trkpt>
      <trkpt lat="46.61779" lon="0.41658">
        <ele>86.2</ele>
        <time>2023-02-26T10:13:03Z</time>
      </trkpt>
      <trkpt lat="46.61776" lon="0.41667">
        <ele>85.6</ele>
        <time>2023-02-26T10:13:04Z</time>
      </trkpt>
      <trkpt lat="46.61771" lon="0.41684">
        <ele>84.4</ele>
        <time>2023-02-26T10:13:06Z</time>
      </trkpt>
      <trkpt lat="46.61763" lon="0.41709">
        <ele>83</ele>
        <time>2023-02-26T10:13:09Z</time>
      </trkpt>
      <trkpt lat="46.61754" lon="0.41734">
        <ele>82.4</ele>
        <time>2023-02-26T10:13:12Z</time>
      </trkpt>
      <trkpt lat="46.6175" lon="0.4174">
        <ele>81.6</ele>
        <time>2023-02-26T10:13:13Z</time>
      </trkpt>
      <trkpt lat="46.61745" lon="0.41745">
        <ele>81</ele>
        <time>2023-02-26T10:13:14Z</time>
      </trkpt>
      <trkpt lat="46.6174" lon="0.41748">
        <ele>80</ele>
        <time>2023-02-26T10:13:15Z</time>
      </trkpt>
      <trkpt lat="46.61734" lon="0.4175">
        <ele>79.2</ele>
        <time>2023-02-26T10:13:16Z</time>
      </trkpt>
      <trkpt lat="46.61728" lon="0.41749">
        <ele>79</ele>
        <time>2023-02-26T10:13:17Z</time>
      </trkpt>
      <trkpt lat="46.61724" lon="0.41745">
        <ele>78.8</ele>
        <time>2023-02-26T10:13:18Z</time>
      </trkpt>
      <trkpt lat="46.61716" lon="0.41737">
        <ele>78.6</ele>
        <time>2023-02-26T10:13:20Z</time>
      </trkpt>
      <trkpt lat="46.61704" lon="0.41724">
        <ele>80.2</ele>
        <time>2023-02-26T10:13:23Z</time>
      </trkpt>
      <trkpt lat="46.61693" lon="0.41713">
        <ele>81.4</ele>
        <time>2023-02-26T10:13:26Z</time>
      </trkpt>
      <trkpt lat="46.61689" lon="0.4171">
        <ele>81.8</ele>
        <time>2023-02-26T10:13:27Z</time>
      </trkpt>
      <trkpt lat="46.61678" lon="0.417">
        <ele>82.6</ele>
        <time>2023-02-26T10:13:30Z</time>
      </trkpt>
      <trkpt lat="46.6167" lon="0.41692">
        <ele>83.6</ele>
        <time>2023-02-26T10:13:32Z</time>
      </trkpt>
      <trkpt lat="46.61662" lon="0.41686">
        <ele>84.4</ele>
        <time>2023-02-26T10:13:34Z</time>
      </trkpt>
      <trkpt lat="46.61658" lon="0.41683">
        <ele>85</ele>
        <time>2023-02-26T10:13:35Z</time>
      </trkpt>
      <trkpt lat="46.61644" lon="0.41671">
        <ele>86.2</ele>
        <time>2023-02-26T10:13:39Z</time>
      </trkpt>
      <trkpt lat="46.61633" lon="0.41663">
        <ele>87.4</ele>
        <time>2023-02-26T10:13:42Z</time>
      </trkpt>
      <trkpt lat="46.61629" lon="0.4166">
        <ele>87.6</ele>
        <time>2023-02-26T10:13:43Z</time>
      </trkpt>
      <trkpt lat="46.6161" lon="0.41644">
        <ele>88.6</ele>
        <time>2023-02-26T10:13:48Z</time>
      </trkpt>
      <trkpt lat="46.61606" lon="0.41641">
        <ele>88.8</ele>
        <time>2023-02-26T10:13:49Z</time>
      </trkpt>
      <trkpt lat="46.61603" lon="0.41637">
        <ele>89</ele>
        <time>2023-02-26T10:13:50Z</time>
      </trkpt>
      <trkpt lat="46.61591" lon="0.41627">
        <ele>89.6</ele>
        <time>2023-02-26T10:13:53Z</time>
      </trkpt>
      <trkpt lat="46.61572" lon="0.41611">
        <ele>90.4</ele>
        <time>2023-02-26T10:13:58Z</time>
      </trkpt>
      <trkpt lat="46.61568" lon="0.41607">
        <ele>90.6</ele>
        <time>2023-02-26T10:13:59Z</time>
      </trkpt>
      <trkpt lat="46.61539" lon="0.41586">
        <ele>91.6</ele>
        <time>2023-02-26T10:14:06Z</time>
      </trkpt>
      <trkpt lat="46.61535" lon="0.41583">
        <ele>91.8</ele>
        <time>2023-02-26T10:14:07Z</time>
      </trkpt>
      <trkpt lat="46.61509" lon="0.41565">
        <ele>92.8</ele>
        <time>2023-02-26T10:14:13Z</time>
      </trkpt>
      <trkpt lat="46.61501" lon="0.41558">
        <ele>93</ele>
        <time>2023-02-26T10:14:15Z</time>
      </trkpt>
      <trkpt lat="46.61492" lon="0.41551">
        <ele>93.4</ele>
        <time>2023-02-26T10:14:17Z</time>
      </trkpt>
      <trkpt lat="46.61473" lon="0.41531">
        <ele>93.8</ele>
        <time>2023-02-26T10:14:22Z</time>
      </trkpt>
      <trkpt lat="46.61449" lon="0.41508">
        <ele>94.4</ele>
        <time>2023-02-26T10:14:29Z</time>
      </trkpt>
      <trkpt lat="46.61446" lon="0.41509">
        <ele>94.6</ele>
        <time>2023-02-26T10:14:30Z</time>
      </trkpt>
      <trkpt lat="46.61439" lon="0.41523">
        <ele>94.8</ele>
        <time>2023-02-26T10:14:34Z</time>
      </trkpt>
      <trkpt lat="46.61436" lon="0.41528">
        <ele>94.8</ele>
        <time>2023-02-26T10:14:35Z</time>
      </trkpt>
      <trkpt lat="46.61418" lon="0.41562">
        <ele>95</ele>
        <time>2023-02-26T10:14:42Z</time>
      </trkpt>
      <trkpt lat="46.61415" lon="0.41567">
        <ele>95.2</ele>
        <time>2023-02-26T10:14:43Z</time>
      </trkpt>
      <trkpt lat="46.61408" lon="0.41581">
        <ele>95.2</ele>
        <time>2023-02-26T10:14:46Z</time>
      </trkpt>
      <trkpt lat="46.61406" lon="0.41585">
        <ele>95.2</ele>
        <time>2023-02-26T10:14:47Z</time>
      </trkpt>
      <trkpt lat="46.61386" lon="0.4162">
        <ele>95.2</ele>
        <time>2023-02-26T10:14:55Z</time>
      </trkpt>
      <trkpt lat="46.61361" lon="0.41663">
        <ele>95.4</ele>
        <time>2023-02-26T10:15:04Z</time>
      </trkpt>
      <trkpt lat="46.61358" lon="0.41668">
        <ele>95.4</ele>
        <time>2023-02-26T10:15:05Z</time>
      </trkpt>
      <trkpt lat="46.61343" lon="0.417">
        <ele>96</ele>
        <time>2023-02-26T10:15:11Z</time>
      </trkpt>
      <trkpt lat="46.61341" lon="0.41706">
        <ele>96.2</ele>
        <time>2023-02-26T10:15:12Z</time>
      </trkpt>
      <trkpt lat="46.61327" lon="0.41745">
        <ele>96.6</ele>
        <time>2023-02-26T10:15:19Z</time>
      </trkpt>
      <trkpt lat="46.61319" lon="0.41764">
        <ele>97</ele>
        <time>2023-02-26T10:15:23Z</time>
      </trkpt>
      <trkpt lat="46.61313" lon="0.41776">
        <ele>97</ele>
        <time>2023-02-26T10:15:26Z</time>
      </trkpt>
      <trkpt lat="46.61305" lon="0.41802">
        <ele>96.4</ele>
        <time>2023-02-26T10:15:31Z</time>
      </trkpt>
      <trkpt lat="46.61297" lon="0.4185">
        <ele>95.8</ele>
        <time>2023-02-26T10:15:39Z</time>
      </trkpt>
      <trkpt lat="46.61296" lon="0.41856">
        <ele>95.8</ele>
        <time>2023-02-26T10:15:40Z</time>
      </trkpt>
      <trkpt lat="46.61284" lon="0.4191">
        <ele>96.4</ele>
        <time>2023-02-26T10:15:49Z</time>
      </trkpt>
      <trkpt lat="46.61274" lon="0.4196">
        <ele>96.8</ele>
        <time>2023-02-26T10:15:57Z</time>
      </trkpt>
      <trkpt lat="46.61272" lon="0.41966">
        <ele>97</ele>
        <time>2023-02-26T10:15:58Z</time>
      </trkpt>
      <trkpt lat="46.61264" lon="0.42006">
        <ele>96.8</ele>
        <time>2023-02-26T10:16:05Z</time>
      </trkpt>
      <trkpt lat="46.61254" lon="0.42055">
        <ele>97.2</ele>
        <time>2023-02-26T10:16:14Z</time>
      </trkpt>
      <trkpt lat="46.61249" lon="0.42099">
        <ele>97.4</ele>
        <time>2023-02-26T10:16:22Z</time>
      </trkpt>
      <trkpt lat="46.61244" lon="0.42149">
        <ele>97.8</ele>
        <time>2023-02-26T10:16:31Z</time>
      </trkpt>
      <trkpt lat="46.61242" lon="0.42166">
        <ele>98</ele>
        <time>2023-02-26T10:16:34Z</time>
      </trkpt>
      <trkpt lat="46.61239" lon="0.42202">
        <ele>97.8</ele>
        <time>2023-02-26T10:16:40Z</time>
      </trkpt>
      <trkpt lat="46.61233" lon="0.42245">
        <ele>97</ele>
        <time>2023-02-26T10:16:48Z</time>
      </trkpt>
      <trkpt lat="46.61228" lon="0.42254">
        <ele>97</ele>
        <time>2023-02-26T10:16:50Z</time>
      </trkpt>
      <trkpt lat="46.61224" lon="0.42257">
        <ele>96.8</ele>
        <time>2023-02-26T10:16:51Z</time>
      </trkpt>
      <trkpt lat="46.61199" lon="0.42269">
        <ele>96.8</ele>
        <time>2023-02-26T10:16:57Z</time>
      </trkpt>
      <trkpt lat="46.61177" lon="0.42277">
        <ele>97.6</ele>
        <time>2023-02-26T10:17:02Z</time>
      </trkpt>
      <trkpt lat="46.61172" lon="0.42275">
        <ele>97.6</ele>
        <time>2023-02-26T10:17:03Z</time>
      </trkpt>
      <trkpt lat="46.61141" lon="0.42249">
        <ele>97.6</ele>
        <time>2023-02-26T10:17:11Z</time>
      </trkpt>
      <trkpt lat="46.61123" lon="0.42234">
        <ele>98</ele>
        <time>2023-02-26T10:17:16Z</time>
      </trkpt>
      <trkpt lat="46.6112" lon="0.4223">
        <ele>98.2</ele>
        <time>2023-02-26T10:17:17Z</time>
      </trkpt>
      <trkpt lat="46.61117" lon="0.42226">
        <ele>98.4</ele>
        <time>2023-02-26T10:17:18Z</time>
      </trkpt>
      <trkpt lat="46.61113" lon="0.42215">
        <ele>98.6</ele>
        <time>2023-02-26T10:17:20Z</time>
      </trkpt>
      <trkpt lat="46.61113" lon="0.42209">
        <ele>98.8</ele>
        <time>2023-02-26T10:17:21Z</time>
      </trkpt>
      <trkpt lat="46.61112" lon="0.42196">
        <ele>99.2</ele>
        <time>2023-02-26T10:17:23Z</time>
      </trkpt>
      <trkpt lat="46.61112" lon="0.42184">
        <ele>99.8</ele>
        <time>2023-02-26T10:17:25Z</time>
      </trkpt>
      <trkpt lat="46.61109" lon="0.42171">
        <ele>100.2</ele>
        <time>2023-02-26T10:17:27Z</time>
      </trkpt>
      <trkpt lat="46.61103" lon="0.4216">
        <ele>99.6</ele>
        <time>2023-02-26T10:17:29Z</time>
      </trkpt>
      <trkpt lat="46.61095" lon="0.42152">
        <ele>99.6</ele>
        <time>2023-02-26T10:17:31Z</time>
      </trkpt>
      <trkpt lat="46.61078" lon="0.42138">
        <ele>100.4</ele>
        <time>2023-02-26T10:17:35Z</time>
      </trkpt>
      <trkpt lat="46.6106" lon="0.42125">
        <ele>101.4</ele>
        <time>2023-02-26T10:17:39Z</time>
      </trkpt>
      <trkpt lat="46.61056" lon="0.42122">
        <ele>101.6</ele>
        <time>2023-02-26T10:17:40Z</time>
      </trkpt>
      <trkpt lat="46.61021" lon="0.42096">
        <ele>102.6</ele>
        <time>2023-02-26T10:17:48Z</time>
      </trkpt>
      <trkpt lat="46.60994" lon="0.42076">
        <ele>104</ele>
        <time>2023-02-26T10:17:54Z</time>
      </trkpt>
      <trkpt lat="46.6098" lon="0.42067">
        <ele>104.6</ele>
        <time>2023-02-26T10:17:57Z</time>
      </trkpt>
      <trkpt lat="46.60946" lon="0.42049">
        <ele>104.4</ele>
        <time>2023-02-26T10:18:04Z</time>
      </trkpt>
      <trkpt lat="46.60912" lon="0.42024">
        <ele>104.6</ele>
        <time>2023-02-26T10:18:11Z</time>
      </trkpt>
      <trkpt lat="46.60894" lon="0.42005">
        <ele>104.8</ele>
        <time>2023-02-26T10:18:15Z</time>
      </trkpt>
      <trkpt lat="46.60891" lon="0.41999">
        <ele>105.2</ele>
        <time>2023-02-26T10:18:16Z</time>
      </trkpt>
      <trkpt lat="46.60888" lon="0.41992">
        <ele>105.4</ele>
        <time>2023-02-26T10:18:17Z</time>
      </trkpt>
      <trkpt lat="46.60883" lon="0.41968">
        <ele>105.4</ele>
        <time>2023-02-26T10:18:20Z</time>
      </trkpt>
      <trkpt lat="46.60877" lon="0.41955">
        <ele>104.8</ele>
        <time>2023-02-26T10:18:22Z</time>
      </trkpt>
      <trkpt lat="46.6085" lon="0.41924">
        <ele>104.2</ele>
        <time>2023-02-26T10:18:28Z</time>
      </trkpt>
      <trkpt lat="46.60845" lon="0.41919">
        <ele>104.2</ele>
        <time>2023-02-26T10:18:29Z</time>
      </trkpt>
      <trkpt lat="46.6082" lon="0.41893">
        <ele>104</ele>
        <time>2023-02-26T10:18:34Z</time>
      </trkpt>
      <trkpt lat="46.60812" lon="0.4188">
        <ele>104</ele>
        <time>2023-02-26T10:18:36Z</time>
      </trkpt>
      <trkpt lat="46.60809" lon="0.41863">
        <ele>103.8</ele>
        <time>2023-02-26T10:18:38Z</time>
      </trkpt>
      <trkpt lat="46.60813" lon="0.41826">
        <ele>103.6</ele>
        <time>2023-02-26T10:18:42Z</time>
      </trkpt>
      <trkpt lat="46.60815" lon="0.41816">
        <ele>103</ele>
        <time>2023-02-26T10:18:43Z</time>
      </trkpt>
      <trkpt lat="46.60821" lon="0.41775">
        <ele>101.4</ele>
        <time>2023-02-26T10:18:47Z</time>
      </trkpt>
      <trkpt lat="46.60822" lon="0.41766">
        <ele>100.8</ele>
        <time>2023-02-26T10:18:48Z</time>
      </trkpt>
      <trkpt lat="46.60823" lon="0.41749">
        <ele>99.6</ele>
        <time>2023-02-26T10:18:50Z</time>
      </trkpt>
      <trkpt lat="46.60819" lon="0.41735">
        <ele>98.4</ele>
        <time>2023-02-26T10:18:52Z</time>
      </trkpt>
      <trkpt lat="46.6081" lon="0.41724">
        <ele>97.2</ele>
        <time>2023-02-26T10:18:54Z</time>
      </trkpt>
      <trkpt lat="46.60799" lon="0.41715">
        <ele>96.8</ele>
        <time>2023-02-26T10:18:56Z</time>
      </trkpt>
      <trkpt lat="46.60755" lon="0.41692">
        <ele>96.6</ele>
        <time>2023-02-26T10:19:03Z</time>
      </trkpt>
      <trkpt lat="46.60723" lon="0.41675">
        <ele>97.4</ele>
        <time>2023-02-26T10:19:09Z</time>
      </trkpt>
      <trkpt lat="46.60692" lon="0.41661">
        <ele>98.2</ele>
        <time>2023-02-26T10:19:16Z</time>
      </trkpt>
      <trkpt lat="46.60688" lon="0.41659">
        <ele>98.4</ele>
        <time>2023-02-26T10:19:17Z</time>
      </trkpt>
      <trkpt lat="46.60669" lon="0.41649">
        <ele>99</ele>
        <time>2023-02-26T10:19:21Z</time>
      </trkpt>
      <trkpt lat="46.6066" lon="0.41644">
        <ele>99.2</ele>
        <time>2023-02-26T10:19:23Z</time>
      </trkpt>
      <trkpt lat="46.60614" lon="0.41622">
        <ele>99.2</ele>
        <time>2023-02-26T10:19:32Z</time>
      </trkpt>
      <trkpt lat="46.60604" lon="0.41625">
        <ele>98.8</ele>
        <time>2023-02-26T10:19:34Z</time>
      </trkpt>
      <trkpt lat="46.606" lon="0.41631">
        <ele>98.6</ele>
        <time>2023-02-26T10:19:35Z</time>
      </trkpt>
      <trkpt lat="46.60598" lon="0.41638">
        <ele>98.4</ele>
        <time>2023-02-26T10:19:36Z</time>
      </trkpt>
      <trkpt lat="46.6059" lon="0.41661">
        <ele>98.2</ele>
        <time>2023-02-26T10:19:39Z</time>
      </trkpt>
      <trkpt lat="46.60569" lon="0.41705">
        <ele>97.8</ele>
        <time>2023-02-26T10:19:45Z</time>
      </trkpt>
      <trkpt lat="46.60562" lon="0.41719">
        <ele>97.2</ele>
        <time>2023-02-26T10:19:47Z</time>
      </trkpt>
      <trkpt lat="46.60552" lon="0.41742">
        <ele>97</ele>
        <time>2023-02-26T10:19:50Z</time>
      </trkpt>
      <trkpt lat="46.60548" lon="0.41757">
        <ele>97</ele>
        <time>2023-02-26T10:19:52Z</time>
      </trkpt>
      <trkpt lat="46.60546" lon="0.41765">
        <ele>97.2</ele>
        <time>2023-02-26T10:19:53Z</time>
      </trkpt>
      <trkpt lat="46.60547" lon="0.41794">
        <ele>97.4</ele>
        <time>2023-02-26T10:19:56Z</time>
      </trkpt>
      <trkpt lat="46.60545" lon="0.41845">
        <ele>96.2</ele>
        <time>2023-02-26T10:20:01Z</time>
      </trkpt>
      <trkpt lat="46.60544" lon="0.41854">
        <ele>95.8</ele>
        <time>2023-02-26T10:20:02Z</time>
      </trkpt>
      <trkpt lat="46.60539" lon="0.419">
        <ele>95.8</ele>
        <time>2023-02-26T10:20:08Z</time>
      </trkpt>
      <trkpt lat="46.60538" lon="0.4191">
        <ele>96</ele>
        <time>2023-02-26T10:20:10Z</time>
      </trkpt>
      <trkpt lat="46.60538" lon="0.4192">
        <ele>96.2</ele>
        <time>2023-02-26T10:20:12Z</time>
      </trkpt>
      <trkpt lat="46.60538" lon="0.41925">
        <ele>96.4</ele>
        <time>2023-02-26T10:20:13Z</time>
      </trkpt>
      <trkpt lat="46.60536" lon="0.41946">
        <ele>96</ele>
        <time>2023-02-26T10:20:17Z</time>
      </trkpt>
      <trkpt lat="46.60535" lon="0.41965">
        <ele>97.2</ele>
        <time>2023-02-26T10:20:21Z</time>
      </trkpt>
      <trkpt lat="46.60534" lon="0.41973">
        <ele>97.8</ele>
        <time>2023-02-26T10:20:23Z</time>
      </trkpt>
      <trkpt lat="46.60532" lon="0.41988">
        <ele>98.8</ele>
        <time>2023-02-26T10:20:26Z</time>
      </trkpt>
      <trkpt lat="46.60531" lon="0.42006">
        <ele>99.6</ele>
        <time>2023-02-26T10:20:30Z</time>
      </trkpt>
      <trkpt lat="46.60529" lon="0.42015">
        <ele>99.8</ele>
        <time>2023-02-26T10:20:32Z</time>
      </trkpt>
      <trkpt lat="46.60528" lon="0.42026">
        <ele>100.6</ele>
        <time>2023-02-26T10:20:35Z</time>
      </trkpt>
      <trkpt lat="46.60528" lon="0.42036">
        <ele>100.8</ele>
        <time>2023-02-26T10:20:37Z</time>
      </trkpt>
      <trkpt lat="46.60525" lon="0.42055">
        <ele>101.4</ele>
        <time>2023-02-26T10:20:42Z</time>
      </trkpt>
      <trkpt lat="46.60522" lon="0.42076">
        <ele>102</ele>
        <time>2023-02-26T10:20:47Z</time>
      </trkpt>
      <trkpt lat="46.60522" lon="0.4208">
        <ele>102.4</ele>
        <time>2023-02-26T10:20:48Z</time>
      </trkpt>
      <trkpt lat="46.6052" lon="0.42091">
        <ele>103</ele>
        <time>2023-02-26T10:20:51Z</time>
      </trkpt>
      <trkpt lat="46.6052" lon="0.42103">
        <ele>104.2</ele>
        <time>2023-02-26T10:20:54Z</time>
      </trkpt>
      <trkpt lat="46.6052" lon="0.42106">
        <ele>105</ele>
        <time>2023-02-26T10:20:55Z</time>
      </trkpt>
      <trkpt lat="46.60519" lon="0.4211">
        <ele>105.4</ele>
        <time>2023-02-26T10:20:56Z</time>
      </trkpt>
      <trkpt lat="46.60517" lon="0.42126">
        <ele>104.4</ele>
        <time>2023-02-26T10:21:00Z</time>
      </trkpt>
      <trkpt lat="46.60514" lon="0.42152">
        <ele>103.4</ele>
        <time>2023-02-26T10:21:06Z</time>
      </trkpt>
      <trkpt lat="46.60513" lon="0.42182">
        <ele>103.8</ele>
        <time>2023-02-26T10:21:12Z</time>
      </trkpt>
      <trkpt lat="46.6051" lon="0.42218">
        <ele>104.4</ele>
        <time>2023-02-26T10:21:18Z</time>
      </trkpt>
      <trkpt lat="46.60509" lon="0.42253">
        <ele>104.8</ele>
        <time>2023-02-26T10:21:24Z</time>
      </trkpt>
      <trkpt lat="46.60508" lon="0.4228">
        <ele>104.6</ele>
        <time>2023-02-26T10:21:29Z</time>
      </trkpt>
      <trkpt lat="46.60507" lon="0.42288">
        <ele>104.6</ele>
        <time>2023-02-26T10:21:30Z</time>
      </trkpt>
      <trkpt lat="46.60506" lon="0.42296">
        <ele>104.4</ele>
        <time>2023-02-26T10:21:31Z</time>
      </trkpt>
      <trkpt lat="46.60503" lon="0.42324">
        <ele>104.8</ele>
        <time>2023-02-26T10:21:36Z</time>
      </trkpt>
      <trkpt lat="46.60504" lon="0.42357">
        <ele>105.2</ele>
        <time>2023-02-26T10:21:42Z</time>
      </trkpt>
      <trkpt lat="46.605" lon="0.42388">
        <ele>105.2</ele>
        <time>2023-02-26T10:21:47Z</time>
      </trkpt>
      <trkpt lat="46.605" lon="0.4242">
        <ele>105.4</ele>
        <time>2023-02-26T10:21:54Z</time>
      </trkpt>
      <trkpt lat="46.60495" lon="0.42456">
        <ele>106</ele>
        <time>2023-02-26T10:22:00Z</time>
      </trkpt>
      <trkpt lat="46.60492" lon="0.42481">
        <ele>106.6</ele>
        <time>2023-02-26T10:22:04Z</time>
      </trkpt>
      <trkpt lat="46.60489" lon="0.42496">
        <ele>107.2</ele>
        <time>2023-02-26T10:22:07Z</time>
      </trkpt>
      <trkpt lat="46.60488" lon="0.4253">
        <ele>107.2</ele>
        <time>2023-02-26T10:22:13Z</time>
      </trkpt>
      <trkpt lat="46.60486" lon="0.42548">
        <ele>107</ele>
        <time>2023-02-26T10:22:16Z</time>
      </trkpt>
      <trkpt lat="46.60483" lon="0.42572">
        <ele>106.6</ele>
        <time>2023-02-26T10:22:20Z</time>
      </trkpt>
      <trkpt lat="46.60479" lon="0.42607">
        <ele>106.8</ele>
        <time>2023-02-26T10:22:26Z</time>
      </trkpt>
      <trkpt lat="46.60478" lon="0.42612">
        <ele>107</ele>
        <time>2023-02-26T10:22:27Z</time>
      </trkpt>
      <trkpt lat="46.60474" lon="0.42639">
        <ele>107</ele>
        <time>2023-02-26T10:22:32Z</time>
      </trkpt>
      <trkpt lat="46.60473" lon="0.42644">
        <ele>107</ele>
        <time>2023-02-26T10:22:33Z</time>
      </trkpt>
      <trkpt lat="46.60473" lon="0.42657">
        <ele>106.6</ele>
        <time>2023-02-26T10:22:35Z</time>
      </trkpt>
      <trkpt lat="46.60472" lon="0.42675">
        <ele>106.4</ele>
        <time>2023-02-26T10:22:38Z</time>
      </trkpt>
      <trkpt lat="46.60465" lon="0.42692">
        <ele>107</ele>
        <time>2023-02-26T10:22:41Z</time>
      </trkpt>
      <trkpt lat="46.60463" lon="0.42702">
        <ele>107</ele>
        <time>2023-02-26T10:22:43Z</time>
      </trkpt>
      <trkpt lat="46.60466" lon="0.42727">
        <ele>107.2</ele>
        <time>2023-02-26T10:22:48Z</time>
      </trkpt>
      <trkpt lat="46.60466" lon="0.42739">
        <ele>107.2</ele>
        <time>2023-02-26T10:22:50Z</time>
      </trkpt>
      <trkpt lat="46.60468" lon="0.42757">
        <ele>107.4</ele>
        <time>2023-02-26T10:22:53Z</time>
      </trkpt>
      <trkpt lat="46.60466" lon="0.42762">
        <ele>107.4</ele>
        <time>2023-02-26T10:22:54Z</time>
      </trkpt>
      <trkpt lat="46.60461" lon="0.42792">
        <ele>106.6</ele>
        <time>2023-02-26T10:23:00Z</time>
      </trkpt>
      <trkpt lat="46.60458" lon="0.42804">
        <ele>106.6</ele>
        <time>2023-02-26T10:23:02Z</time>
      </trkpt>
      <trkpt lat="46.60455" lon="0.42844">
        <ele>107</ele>
        <time>2023-02-26T10:23:09Z</time>
      </trkpt>
      <trkpt lat="46.60451" lon="0.42864">
        <ele>106</ele>
        <time>2023-02-26T10:23:13Z</time>
      </trkpt>
      <trkpt lat="46.6045" lon="0.42869">
        <ele>105.8</ele>
        <time>2023-02-26T10:23:14Z</time>
      </trkpt>
      <trkpt lat="46.60447" lon="0.42878">
        <ele>105.4</ele>
        <time>2023-02-26T10:23:16Z</time>
      </trkpt>
      <trkpt lat="46.60441" lon="0.42886">
        <ele>105</ele>
        <time>2023-02-26T10:23:18Z</time>
      </trkpt>
      <trkpt lat="46.60431" lon="0.42892">
        <ele>104.6</ele>
        <time>2023-02-26T10:23:20Z</time>
      </trkpt>
      <trkpt lat="46.60426" lon="0.42894">
        <ele>104.6</ele>
        <time>2023-02-26T10:23:21Z</time>
      </trkpt>
      <trkpt lat="46.60421" lon="0.42896">
        <ele>104.2</ele>
        <time>2023-02-26T10:23:22Z</time>
      </trkpt>
      <trkpt lat="46.60416" lon="0.42896">
        <ele>104</ele>
        <time>2023-02-26T10:23:23Z</time>
      </trkpt>
      <trkpt lat="46.60411" lon="0.42894">
        <ele>103.2</ele>
        <time>2023-02-26T10:23:24Z</time>
      </trkpt>
      <trkpt lat="46.60405" lon="0.42892">
        <ele>102.6</ele>
        <time>2023-02-26T10:23:25Z</time>
      </trkpt>
      <trkpt lat="46.60403" lon="0.42887">
        <ele>102.2</ele>
        <time>2023-02-26T10:23:26Z</time>
      </trkpt>
      <trkpt lat="46.60399" lon="0.42883">
        <ele>102</ele>
        <time>2023-02-26T10:23:27Z</time>
      </trkpt>
      <trkpt lat="46.6039" lon="0.4288">
        <ele>102.8</ele>
        <time>2023-02-26T10:23:29Z</time>
      </trkpt>
      <trkpt lat="46.60385" lon="0.4288">
        <ele>103.2</ele>
        <time>2023-02-26T10:23:30Z</time>
      </trkpt>
      <trkpt lat="46.6038" lon="0.42881">
        <ele>103.4</ele>
        <time>2023-02-26T10:23:31Z</time>
      </trkpt>
      <trkpt lat="46.60372" lon="0.42885">
        <ele>103.2</ele>
        <time>2023-02-26T10:23:33Z</time>
      </trkpt>
      <trkpt lat="46.60368" lon="0.42885">
        <ele>102.8</ele>
        <time>2023-02-26T10:23:34Z</time>
      </trkpt>
      <trkpt lat="46.60367" lon="0.42886">
        <ele>102</ele>
        <time>2023-02-26T10:23:35Z</time>
      </trkpt>
      <trkpt lat="46.60365" lon="0.42888">
        <ele>101</ele>
        <time>2023-02-26T10:23:36Z</time>
      </trkpt>
      <trkpt lat="46.60362" lon="0.42893">
        <ele>99.6</ele>
        <time>2023-02-26T10:23:38Z</time>
      </trkpt>
      <trkpt lat="46.60354" lon="0.42903">
        <ele>98.8</ele>
        <time>2023-02-26T10:23:41Z</time>
      </trkpt>
      <trkpt lat="46.6035" lon="0.42904">
        <ele>98.4</ele>
        <time>2023-02-26T10:23:42Z</time>
      </trkpt>
      <trkpt lat="46.60344" lon="0.42905">
        <ele>98.2</ele>
        <time>2023-02-26T10:23:43Z</time>
      </trkpt>
      <trkpt lat="46.60338" lon="0.42909">
        <ele>98.2</ele>
        <time>2023-02-26T10:23:45Z</time>
      </trkpt>
      <trkpt lat="46.60336" lon="0.42913">
        <ele>98</ele>
        <time>2023-02-26T10:23:46Z</time>
      </trkpt>
      <trkpt lat="46.6033" lon="0.42925">
        <ele>98.2</ele>
        <time>2023-02-26T10:23:49Z</time>
      </trkpt>
      <trkpt lat="46.60324" lon="0.42938">
        <ele>99.2</ele>
        <time>2023-02-26T10:23:52Z</time>
      </trkpt>
      <trkpt lat="46.60322" lon="0.42944">
        <ele>99.6</ele>
        <time>2023-02-26T10:23:54Z</time>
      </trkpt>
      <trkpt lat="46.60317" lon="0.42956">
        <ele>100.4</ele>
        <time>2023-02-26T10:23:58Z</time>
      </trkpt>
      <trkpt lat="46.60315" lon="0.4296">
        <ele>100.6</ele>
        <time>2023-02-26T10:23:59Z</time>
      </trkpt>
      <trkpt lat="46.60315" lon="0.42973">
        <ele>101.2</ele>
        <time>2023-02-26T10:24:02Z</time>
      </trkpt>
      <trkpt lat="46.60318" lon="0.42986">
        <ele>101.6</ele>
        <time>2023-02-26T10:24:05Z</time>
      </trkpt>
      <trkpt lat="46.60321" lon="0.42995">
        <ele>101.8</ele>
        <time>2023-02-26T10:24:07Z</time>
      </trkpt>
      <trkpt lat="46.60336" lon="0.43028">
        <ele>102.8</ele>
        <time>2023-02-26T10:24:15Z</time>
      </trkpt>
      <trkpt lat="46.60346" lon="0.43045">
        <ele>103.8</ele>
        <time>2023-02-26T10:24:20Z</time>
      </trkpt>
      <trkpt lat="46.60349" lon="0.43049">
        <ele>104</ele>
        <time>2023-02-26T10:24:21Z</time>
      </trkpt>
      <trkpt lat="46.60366" lon="0.43076">
        <ele>104.2</ele>
        <time>2023-02-26T10:24:28Z</time>
      </trkpt>
      <trkpt lat="46.60381" lon="0.43096">
        <ele>105</ele>
        <time>2023-02-26T10:24:34Z</time>
      </trkpt>
      <trkpt lat="46.60383" lon="0.43099">
        <ele>105</ele>
        <time>2023-02-26T10:24:35Z</time>
      </trkpt>
      <trkpt lat="46.60391" lon="0.43113">
        <ele>106</ele>
        <time>2023-02-26T10:24:40Z</time>
      </trkpt>
      <trkpt lat="46.60393" lon="0.43116">
        <ele>106</ele>
        <time>2023-02-26T10:24:41Z</time>
      </trkpt>
      <trkpt lat="46.604" lon="0.43138">
        <ele>106.8</ele>
        <time>2023-02-26T10:24:48Z</time>
      </trkpt>
      <trkpt lat="46.60414" lon="0.43157">
        <ele>107.2</ele>
        <time>2023-02-26T10:24:54Z</time>
      </trkpt>
      <trkpt lat="46.60416" lon="0.4316">
        <ele>107.4</ele>
        <time>2023-02-26T10:24:55Z</time>
      </trkpt>
      <trkpt lat="46.60435" lon="0.43172">
        <ele>108</ele>
        <time>2023-02-26T10:25:01Z</time>
      </trkpt>
      <trkpt lat="46.60437" lon="0.43174">
        <ele>108.2</ele>
        <time>2023-02-26T10:25:02Z</time>
      </trkpt>
      <trkpt lat="46.60449" lon="0.4318">
        <ele>108.6</ele>
        <time>2023-02-26T10:25:05Z</time>
      </trkpt>
      <trkpt lat="46.60458" lon="0.43185">
        <ele>108.6</ele>
        <time>2023-02-26T10:25:07Z</time>
      </trkpt>
      <trkpt lat="46.60468" lon="0.4319">
        <ele>108.8</ele>
        <time>2023-02-26T10:25:09Z</time>
      </trkpt>
      <trkpt lat="46.60473" lon="0.43196">
        <ele>108.6</ele>
        <time>2023-02-26T10:25:11Z</time>
      </trkpt>
      <trkpt lat="46.60477" lon="0.43203">
        <ele>108.4</ele>
        <time>2023-02-26T10:25:13Z</time>
      </trkpt>
      <trkpt lat="46.60484" lon="0.43226">
        <ele>108.6</ele>
        <time>2023-02-26T10:25:19Z</time>
      </trkpt>
      <trkpt lat="46.60485" lon="0.43237">
        <ele>109.4</ele>
        <time>2023-02-26T10:25:22Z</time>
      </trkpt>
      <trkpt lat="46.60488" lon="0.43254">
        <ele>109.8</ele>
        <time>2023-02-26T10:25:26Z</time>
      </trkpt>
      <trkpt lat="46.60494" lon="0.43279">
        <ele>109.8</ele>
        <time>2023-02-26T10:25:32Z</time>
      </trkpt>
      <trkpt lat="46.60496" lon="0.43304">
        <ele>110</ele>
        <time>2023-02-26T10:25:37Z</time>
      </trkpt>
      <trkpt lat="46.60497" lon="0.43309">
        <ele>110.4</ele>
        <time>2023-02-26T10:25:38Z</time>
      </trkpt>
      <trkpt lat="46.60496" lon="0.43331">
        <ele>110.8</ele>
        <time>2023-02-26T10:25:42Z</time>
      </trkpt>
      <trkpt lat="46.60504" lon="0.43366">
        <ele>110.2</ele>
        <time>2023-02-26T10:25:48Z</time>
      </trkpt>
      <trkpt lat="46.60506" lon="0.43371">
        <ele>110</ele>
        <time>2023-02-26T10:25:49Z</time>
      </trkpt>
      <trkpt lat="46.60509" lon="0.43405">
        <ele>109.8</ele>
        <time>2023-02-26T10:25:55Z</time>
      </trkpt>
      <trkpt lat="46.60512" lon="0.43445">
        <ele>110.4</ele>
        <time>2023-02-26T10:26:02Z</time>
      </trkpt>
      <trkpt lat="46.60511" lon="0.43474">
        <ele>111</ele>
        <time>2023-02-26T10:26:07Z</time>
      </trkpt>
      <trkpt lat="46.6051" lon="0.4348">
        <ele>111.2</ele>
        <time>2023-02-26T10:26:08Z</time>
      </trkpt>
      <trkpt lat="46.6051" lon="0.43485">
        <ele>111.2</ele>
        <time>2023-02-26T10:26:09Z</time>
      </trkpt>
      <trkpt lat="46.60509" lon="0.43514">
        <ele>111.2</ele>
        <time>2023-02-26T10:26:14Z</time>
      </trkpt>
      <trkpt lat="46.60508" lon="0.43526">
        <ele>111.4</ele>
        <time>2023-02-26T10:26:16Z</time>
      </trkpt>
      <trkpt lat="46.60507" lon="0.43542">
        <ele>111.4</ele>
        <time>2023-02-26T10:26:19Z</time>
      </trkpt>
      <trkpt lat="46.60505" lon="0.43556">
        <ele>111.4</ele>
        <time>2023-02-26T10:26:21Z</time>
      </trkpt>
      <trkpt lat="46.60498" lon="0.43597">
        <ele>111.6</ele>
        <time>2023-02-26T10:26:26Z</time>
      </trkpt>
      <trkpt lat="46.60491" lon="0.43613">
        <ele>111.4</ele>
        <time>2023-02-26T10:26:28Z</time>
      </trkpt>
      <trkpt lat="46.60486" lon="0.4363">
        <ele>111</ele>
        <time>2023-02-26T10:26:30Z</time>
      </trkpt>
      <trkpt lat="46.60484" lon="0.43639">
        <ele>110.8</ele>
        <time>2023-02-26T10:26:31Z</time>
      </trkpt>
      <trkpt lat="46.60479" lon="0.43682">
        <ele>110.6</ele>
        <time>2023-02-26T10:26:36Z</time>
      </trkpt>
      <trkpt lat="46.6048" lon="0.43731">
        <ele>111</ele>
        <time>2023-02-26T10:26:43Z</time>
      </trkpt>
      <trkpt lat="46.60479" lon="0.43758">
        <ele>111.2</ele>
        <time>2023-02-26T10:26:47Z</time>
      </trkpt>
      <trkpt lat="46.60479" lon="0.43774">
        <ele>111.4</ele>
        <time>2023-02-26T10:26:49Z</time>
      </trkpt>
      <trkpt lat="46.60474" lon="0.43815">
        <ele>111.6</ele>
        <time>2023-02-26T10:26:55Z</time>
      </trkpt>
      <trkpt lat="46.60473" lon="0.43821">
        <ele>111.6</ele>
        <time>2023-02-26T10:26:56Z</time>
      </trkpt>
      <trkpt lat="46.6047" lon="0.43854">
        <ele>111</ele>
        <time>2023-02-26T10:27:01Z</time>
      </trkpt>
      <trkpt lat="46.60472" lon="0.43868">
        <ele>110.8</ele>
        <time>2023-02-26T10:27:03Z</time>
      </trkpt>
      <trkpt lat="46.60475" lon="0.43892">
        <ele>111.4</ele>
        <time>2023-02-26T10:27:07Z</time>
      </trkpt>
      <trkpt lat="46.6048" lon="0.43932">
        <ele>112.4</ele>
        <time>2023-02-26T10:27:14Z</time>
      </trkpt>
      <trkpt lat="46.6048" lon="0.43937">
        <ele>112.4</ele>
        <time>2023-02-26T10:27:15Z</time>
      </trkpt>
      <trkpt lat="46.60484" lon="0.43971">
        <ele>113.4</ele>
        <time>2023-02-26T10:27:21Z</time>
      </trkpt>
      <trkpt lat="46.60485" lon="0.43977">
        <ele>113.6</ele>
        <time>2023-02-26T10:27:22Z</time>
      </trkpt>
      <trkpt lat="46.60485" lon="0.44004">
        <ele>113.8</ele>
        <time>2023-02-26T10:27:27Z</time>
      </trkpt>
      <trkpt lat="46.60489" lon="0.4403">
        <ele>114.6</ele>
        <time>2023-02-26T10:27:33Z</time>
      </trkpt>
      <trkpt lat="46.60488" lon="0.44039">
        <ele>114.6</ele>
        <time>2023-02-26T10:27:35Z</time>
      </trkpt>
      <trkpt lat="46.60492" lon="0.44055">
        <ele>114.8</ele>
        <time>2023-02-26T10:27:38Z</time>
      </trkpt>
      <trkpt lat="46.60496" lon="0.4408">
        <ele>114.8</ele>
        <time>2023-02-26T10:27:43Z</time>
      </trkpt>
      <trkpt lat="46.60499" lon="0.44108">
        <ele>114.2</ele>
        <time>2023-02-26T10:27:49Z</time>
      </trkpt>
      <trkpt lat="46.60501" lon="0.44132">
        <ele>114</ele>
        <time>2023-02-26T10:27:54Z</time>
      </trkpt>
      <trkpt lat="46.60502" lon="0.44137">
        <ele>114.2</ele>
        <time>2023-02-26T10:27:55Z</time>
      </trkpt>
      <trkpt lat="46.60517" lon="0.4416">
        <ele>113.8</ele>
        <time>2023-02-26T10:28:00Z</time>
      </trkpt>
      <trkpt lat="46.60521" lon="0.44183">
        <ele>113.6</ele>
        <time>2023-02-26T10:28:04Z</time>
      </trkpt>
      <trkpt lat="46.60522" lon="0.442">
        <ele>113.6</ele>
        <time>2023-02-26T10:28:07Z</time>
      </trkpt>
      <trkpt lat="46.60523" lon="0.44239">
        <ele>114</ele>
        <time>2023-02-26T10:28:14Z</time>
      </trkpt>
      <trkpt lat="46.60523" lon="0.44283">
        <ele>113.2</ele>
        <time>2023-02-26T10:28:21Z</time>
      </trkpt>
      <trkpt lat="46.60522" lon="0.44315">
        <ele>113.4</ele>
        <time>2023-02-26T10:28:26Z</time>
      </trkpt>
      <trkpt lat="46.60519" lon="0.44354">
        <ele>113.8</ele>
        <time>2023-02-26T10:28:32Z</time>
      </trkpt>
      <trkpt lat="46.60519" lon="0.44367">
        <ele>113.8</ele>
        <time>2023-02-26T10:28:34Z</time>
      </trkpt>
      <trkpt lat="46.60517" lon="0.44381">
        <ele>113.8</ele>
        <time>2023-02-26T10:28:36Z</time>
      </trkpt>
      <trkpt lat="46.60516" lon="0.44386">
        <ele>113.8</ele>
        <time>2023-02-26T10:28:37Z</time>
      </trkpt>
      <trkpt lat="46.60513" lon="0.44436">
        <ele>114.2</ele>
        <time>2023-02-26T10:28:44Z</time>
      </trkpt>
      <trkpt lat="46.60511" lon="0.44448">
        <ele>114.8</ele>
        <time>2023-02-26T10:28:46Z</time>
      </trkpt>
      <trkpt lat="46.60505" lon="0.44494">
        <ele>115</ele>
        <time>2023-02-26T10:28:53Z</time>
      </trkpt>
      <trkpt lat="46.60499" lon="0.44543">
        <ele>115.2</ele>
        <time>2023-02-26T10:29:00Z</time>
      </trkpt>
      <trkpt lat="46.60495" lon="0.44584">
        <ele>114.6</ele>
        <time>2023-02-26T10:29:06Z</time>
      </trkpt>
      <trkpt lat="46.60494" lon="0.4459">
        <ele>114.6</ele>
        <time>2023-02-26T10:29:07Z</time>
      </trkpt>
      <trkpt lat="46.60488" lon="0.44626">
        <ele>114.4</ele>
        <time>2023-02-26T10:29:14Z</time>
      </trkpt>
      <trkpt lat="46.60487" lon="0.44631">
        <ele>114.2</ele>
        <time>2023-02-26T10:29:15Z</time>
      </trkpt>
      <trkpt lat="46.60483" lon="0.44649">
        <ele>114.2</ele>
        <time>2023-02-26T10:29:18Z</time>
      </trkpt>
      <trkpt lat="46.60482" lon="0.44656">
        <ele>114.2</ele>
        <time>2023-02-26T10:29:19Z</time>
      </trkpt>
      <trkpt lat="46.60474" lon="0.44697">
        <ele>114.4</ele>
        <time>2023-02-26T10:29:25Z</time>
      </trkpt>
      <trkpt lat="46.60462" lon="0.44749">
        <ele>115.2</ele>
        <time>2023-02-26T10:29:32Z</time>
      </trkpt>
      <trkpt lat="46.60451" lon="0.44796">
        <ele>115.4</ele>
        <time>2023-02-26T10:29:39Z</time>
      </trkpt>
      <trkpt lat="46.60445" lon="0.44811">
        <ele>115.4</ele>
        <time>2023-02-26T10:29:42Z</time>
      </trkpt>
      <trkpt lat="46.6044" lon="0.44824">
        <ele>115.2</ele>
        <time>2023-02-26T10:29:45Z</time>
      </trkpt>
      <trkpt lat="46.60436" lon="0.44836">
        <ele>115.2</ele>
        <time>2023-02-26T10:29:48Z</time>
      </trkpt>
      <trkpt lat="46.60432" lon="0.44851">
        <ele>115.4</ele>
        <time>2023-02-26T10:29:51Z</time>
      </trkpt>
      <trkpt lat="46.60429" lon="0.44861">
        <ele>116</ele>
        <time>2023-02-26T10:29:53Z</time>
      </trkpt>
      <trkpt lat="46.60422" lon="0.44885">
        <ele>116.8</ele>
        <time>2023-02-26T10:29:58Z</time>
      </trkpt>
      <trkpt lat="46.60412" lon="0.44928">
        <ele>116.8</ele>
        <time>2023-02-26T10:30:05Z</time>
      </trkpt>
      <trkpt lat="46.60408" lon="0.44955">
        <ele>116.6</ele>
        <time>2023-02-26T10:30:09Z</time>
      </trkpt>
      <trkpt lat="46.60404" lon="0.44974">
        <ele>116.4</ele>
        <time>2023-02-26T10:30:12Z</time>
      </trkpt>
      <trkpt lat="46.60397" lon="0.45003">
        <ele>116.6</ele>
        <time>2023-02-26T10:30:17Z</time>
      </trkpt>
      <trkpt lat="46.60394" lon="0.4502">
        <ele>116.6</ele>
        <time>2023-02-26T10:30:20Z</time>
      </trkpt>
      <trkpt lat="46.60391" lon="0.45029">
        <ele>117</ele>
        <time>2023-02-26T10:30:22Z</time>
      </trkpt>
      <trkpt lat="46.60387" lon="0.45046">
        <ele>117.6</ele>
        <time>2023-02-26T10:30:25Z</time>
      </trkpt>
      <trkpt lat="46.6038" lon="0.45072">
        <ele>118</ele>
        <time>2023-02-26T10:30:29Z</time>
      </trkpt>
      <trkpt lat="46.60377" lon="0.45084">
        <ele>118</ele>
        <time>2023-02-26T10:30:31Z</time>
      </trkpt>
      <trkpt lat="46.6036" lon="0.45116">
        <ele>118</ele>
        <time>2023-02-26T10:30:37Z</time>
      </trkpt>
      <trkpt lat="46.60343" lon="0.45141">
        <ele>118</ele>
        <time>2023-02-26T10:30:42Z</time>
      </trkpt>
      <trkpt lat="46.60337" lon="0.45152">
        <ele>117.8</ele>
        <time>2023-02-26T10:30:44Z</time>
      </trkpt>
      <trkpt lat="46.60315" lon="0.4519">
        <ele>117.8</ele>
        <time>2023-02-26T10:30:50Z</time>
      </trkpt>
      <trkpt lat="46.60312" lon="0.45197">
        <ele>117.8</ele>
        <time>2023-02-26T10:30:51Z</time>
      </trkpt>
      <trkpt lat="46.60304" lon="0.45217">
        <ele>118</ele>
        <time>2023-02-26T10:30:54Z</time>
      </trkpt>
      <trkpt lat="46.603" lon="0.45231">
        <ele>118.4</ele>
        <time>2023-02-26T10:30:56Z</time>
      </trkpt>
      <trkpt lat="46.60297" lon="0.45238">
        <ele>118.4</ele>
        <time>2023-02-26T10:30:57Z</time>
      </trkpt>
      <trkpt lat="46.60294" lon="0.45242">
        <ele>118.6</ele>
        <time>2023-02-26T10:30:58Z</time>
      </trkpt>
      <trkpt lat="46.60285" lon="0.45246">
        <ele>118.2</ele>
        <time>2023-02-26T10:31:00Z</time>
      </trkpt>
      <trkpt lat="46.60264" lon="0.4524">
        <ele>117.6</ele>
        <time>2023-02-26T10:31:04Z</time>
      </trkpt>
      <trkpt lat="46.60252" lon="0.45235">
        <ele>117.2</ele>
        <time>2023-02-26T10:31:06Z</time>
      </trkpt>
      <trkpt lat="46.60241" lon="0.45226">
        <ele>117</ele>
        <time>2023-02-26T10:31:08Z</time>
      </trkpt>
      <trkpt lat="46.60234" lon="0.45222">
        <ele>116.8</ele>
        <time>2023-02-26T10:31:09Z</time>
      </trkpt>
      <trkpt lat="46.60211" lon="0.45199">
        <ele>115.6</ele>
        <time>2023-02-26T10:31:14Z</time>
      </trkpt>
      <trkpt lat="46.60178" lon="0.45168">
        <ele>114.8</ele>
        <time>2023-02-26T10:31:20Z</time>
      </trkpt>
      <trkpt lat="46.60159" lon="0.45142">
        <ele>114.6</ele>
        <time>2023-02-26T10:31:24Z</time>
      </trkpt>
      <trkpt lat="46.60154" lon="0.45136">
        <ele>114.8</ele>
        <time>2023-02-26T10:31:25Z</time>
      </trkpt>
      <trkpt lat="46.60118" lon="0.45098">
        <ele>113.6</ele>
        <time>2023-02-26T10:31:32Z</time>
      </trkpt>
      <trkpt lat="46.60075" lon="0.4507">
        <ele>114</ele>
        <time>2023-02-26T10:31:40Z</time>
      </trkpt>
      <trkpt lat="46.60036" lon="0.45044">
        <ele>113.6</ele>
        <time>2023-02-26T10:31:48Z</time>
      </trkpt>
      <trkpt lat="46.60027" lon="0.45038">
        <ele>113.4</ele>
        <time>2023-02-26T10:31:50Z</time>
      </trkpt>
      <trkpt lat="46.59986" lon="0.45011">
        <ele>113</ele>
        <time>2023-02-26T10:31:59Z</time>
      </trkpt>
      <trkpt lat="46.59977" lon="0.45005">
        <ele>112.4</ele>
        <time>2023-02-26T10:32:01Z</time>
      </trkpt>
      <trkpt lat="46.59959" lon="0.4499">
        <ele>111.4</ele>
        <time>2023-02-26T10:32:05Z</time>
      </trkpt>
      <trkpt lat="46.59951" lon="0.4498">
        <ele>111</ele>
        <time>2023-02-26T10:32:07Z</time>
      </trkpt>
      <trkpt lat="46.59938" lon="0.44961">
        <ele>110.8</ele>
        <time>2023-02-26T10:32:11Z</time>
      </trkpt>
      <trkpt lat="46.59935" lon="0.44957">
        <ele>110.8</ele>
        <time>2023-02-26T10:32:12Z</time>
      </trkpt>
      <trkpt lat="46.59916" lon="0.44941">
        <ele>111.2</ele>
        <time>2023-02-26T10:32:17Z</time>
      </trkpt>
      <trkpt lat="46.59913" lon="0.44938">
        <ele>111.6</ele>
        <time>2023-02-26T10:32:18Z</time>
      </trkpt>
      <trkpt lat="46.59901" lon="0.44923">
        <ele>112.2</ele>
        <time>2023-02-26T10:32:22Z</time>
      </trkpt>
      <trkpt lat="46.59887" lon="0.4491">
        <ele>112.4</ele>
        <time>2023-02-26T10:32:26Z</time>
      </trkpt>
      <trkpt lat="46.59879" lon="0.44903">
        <ele>112.6</ele>
        <time>2023-02-26T10:32:28Z</time>
      </trkpt>
      <trkpt lat="46.59874" lon="0.449">
        <ele>112.8</ele>
        <time>2023-02-26T10:32:29Z</time>
      </trkpt>
      <trkpt lat="46.59855" lon="0.44885">
        <ele>113.2</ele>
        <time>2023-02-26T10:32:34Z</time>
      </trkpt>
      <trkpt lat="46.59848" lon="0.44879">
        <ele>113</ele>
        <time>2023-02-26T10:32:36Z</time>
      </trkpt>
      <trkpt lat="46.59842" lon="0.44874">
        <ele>113</ele>
        <time>2023-02-26T10:32:38Z</time>
      </trkpt>
      <trkpt lat="46.59831" lon="0.44864">
        <ele>113.2</ele>
        <time>2023-02-26T10:32:41Z</time>
      </trkpt>
      <trkpt lat="46.59826" lon="0.44859">
        <ele>113.6</ele>
        <time>2023-02-26T10:32:43Z</time>
      </trkpt>
      <trkpt lat="46.59818" lon="0.4485">
        <ele>113.6</ele>
        <time>2023-02-26T10:32:46Z</time>
      </trkpt>
      <trkpt lat="46.59809" lon="0.4484">
        <ele>113.6</ele>
        <time>2023-02-26T10:32:49Z</time>
      </trkpt>
      <trkpt lat="46.59799" lon="0.44832">
        <ele>113.6</ele>
        <time>2023-02-26T10:32:52Z</time>
      </trkpt>
      <trkpt lat="46.59788" lon="0.44821">
        <ele>113.4</ele>
        <time>2023-02-26T10:32:55Z</time>
      </trkpt>
      <trkpt lat="46.5978" lon="0.44814">
        <ele>113.4</ele>
        <time>2023-02-26T10:32:57Z</time>
      </trkpt>
      <trkpt lat="46.5977" lon="0.44802">
        <ele>113.2</ele>
        <time>2023-02-26T10:33:00Z</time>
      </trkpt>
      <trkpt lat="46.59761" lon="0.44795">
        <ele>112.8</ele>
        <time>2023-02-26T10:33:02Z</time>
      </trkpt>
      <trkpt lat="46.59753" lon="0.44787">
        <ele>112.4</ele>
        <time>2023-02-26T10:33:04Z</time>
      </trkpt>
      <trkpt lat="46.59745" lon="0.44778">
        <ele>112.2</ele>
        <time>2023-02-26T10:33:06Z</time>
      </trkpt>
      <trkpt lat="46.59732" lon="0.44764">
        <ele>111.6</ele>
        <time>2023-02-26T10:33:09Z</time>
      </trkpt>
      <trkpt lat="46.59721" lon="0.4475">
        <ele>111.4</ele>
        <time>2023-02-26T10:33:12Z</time>
      </trkpt>
      <trkpt lat="46.59717" lon="0.44746">
        <ele>111.4</ele>
        <time>2023-02-26T10:33:13Z</time>
      </trkpt>
      <trkpt lat="46.59712" lon="0.44742">
        <ele>111.4</ele>
        <time>2023-02-26T10:33:14Z</time>
      </trkpt>
      <trkpt lat="46.59698" lon="0.44732">
        <ele>111.2</ele>
        <time>2023-02-26T10:33:17Z</time>
      </trkpt>
      <trkpt lat="46.59692" lon="0.44734">
        <ele>111.2</ele>
        <time>2023-02-26T10:33:19Z</time>
      </trkpt>
      <trkpt lat="46.59688" lon="0.44747">
        <ele>111</ele>
        <time>2023-02-26T10:33:23Z</time>
      </trkpt>
      <trkpt lat="46.59687" lon="0.44751">
        <ele>110.8</ele>
        <time>2023-02-26T10:33:24Z</time>
      </trkpt>
      <trkpt lat="46.59684" lon="0.44758">
        <ele>111</ele>
        <time>2023-02-26T10:33:26Z</time>
      </trkpt>
      <trkpt lat="46.59682" lon="0.44765">
        <ele>111.4</ele>
        <time>2023-02-26T10:33:28Z</time>
      </trkpt>
      <trkpt lat="46.59681" lon="0.44769">
        <ele>111.8</ele>
        <time>2023-02-26T10:33:29Z</time>
      </trkpt>
      <trkpt lat="46.59675" lon="0.44777">
        <ele>112</ele>
        <time>2023-02-26T10:33:31Z</time>
      </trkpt>
      <trkpt lat="46.59673" lon="0.44781">
        <ele>112</ele>
        <time>2023-02-26T10:33:32Z</time>
      </trkpt>
      <trkpt lat="46.59672" lon="0.44784">
        <ele>111.8</ele>
        <time>2023-02-26T10:33:33Z</time>
      </trkpt>
      <trkpt lat="46.59662" lon="0.448">
        <ele>111.8</ele>
        <time>2023-02-26T10:33:37Z</time>
      </trkpt>
      <trkpt lat="46.59646" lon="0.44833">
        <ele>111.6</ele>
        <time>2023-02-26T10:33:43Z</time>
      </trkpt>
      <trkpt lat="46.59644" lon="0.44838">
        <ele>111.4</ele>
        <time>2023-02-26T10:33:44Z</time>
      </trkpt>
      <trkpt lat="46.5964" lon="0.4485">
        <ele>111.2</ele>
        <time>2023-02-26T10:33:46Z</time>
      </trkpt>
      <trkpt lat="46.59636" lon="0.44861">
        <ele>110.2</ele>
        <time>2023-02-26T10:33:48Z</time>
      </trkpt>
      <trkpt lat="46.59631" lon="0.44875">
        <ele>109.6</ele>
        <time>2023-02-26T10:33:50Z</time>
      </trkpt>
      <trkpt lat="46.59628" lon="0.44881">
        <ele>109.4</ele>
        <time>2023-02-26T10:33:51Z</time>
      </trkpt>
      <trkpt lat="46.59625" lon="0.44885">
        <ele>109</ele>
        <time>2023-02-26T10:33:52Z</time>
      </trkpt>
      <trkpt lat="46.59618" lon="0.44887">
        <ele>108.6</ele>
        <time>2023-02-26T10:33:53Z</time>
      </trkpt>
      <trkpt lat="46.59588" lon="0.44894">
        <ele>107.4</ele>
        <time>2023-02-26T10:33:58Z</time>
      </trkpt>
      <trkpt lat="46.5957" lon="0.44895">
        <ele>106.4</ele>
        <time>2023-02-26T10:34:01Z</time>
      </trkpt>
      <trkpt lat="46.5956" lon="0.44902">
        <ele>105.4</ele>
        <time>2023-02-26T10:34:03Z</time>
      </trkpt>
      <trkpt lat="46.59555" lon="0.44913">
        <ele>104</ele>
        <time>2023-02-26T10:34:05Z</time>
      </trkpt>
      <trkpt lat="46.59554" lon="0.4492">
        <ele>103.4</ele>
        <time>2023-02-26T10:34:06Z</time>
      </trkpt>
      <trkpt lat="46.59551" lon="0.44936">
        <ele>102.4</ele>
        <time>2023-02-26T10:34:08Z</time>
      </trkpt>
      <trkpt lat="46.59549" lon="0.44962">
        <ele>101.2</ele>
        <time>2023-02-26T10:34:11Z</time>
      </trkpt>
      <trkpt lat="46.59549" lon="0.44998">
        <ele>100.2</ele>
        <time>2023-02-26T10:34:15Z</time>
      </trkpt>
      <trkpt lat="46.5955" lon="0.45016">
        <ele>100</ele>
        <time>2023-02-26T10:34:17Z</time>
      </trkpt>
      <trkpt lat="46.59552" lon="0.45041">
        <ele>98.8</ele>
        <time>2023-02-26T10:34:20Z</time>
      </trkpt>
      <trkpt lat="46.59552" lon="0.45047">
        <ele>98.4</ele>
        <time>2023-02-26T10:34:21Z</time>
      </trkpt>
      <trkpt lat="46.59553" lon="0.45053">
        <ele>98</ele>
        <time>2023-02-26T10:34:22Z</time>
      </trkpt>
      <trkpt lat="46.59553" lon="0.45059">
        <ele>97.2</ele>
        <time>2023-02-26T10:34:23Z</time>
      </trkpt>
      <trkpt lat="46.59552" lon="0.45078">
        <ele>95.8</ele>
        <time>2023-02-26T10:34:26Z</time>
      </trkpt>
      <trkpt lat="46.59559" lon="0.45117">
        <ele>94.8</ele>
        <time>2023-02-26T10:34:31Z</time>
      </trkpt>
      <trkpt lat="46.5956" lon="0.45124">
        <ele>94.6</ele>
        <time>2023-02-26T10:34:32Z</time>
      </trkpt>
      <trkpt lat="46.59572" lon="0.45166">
        <ele>94.4</ele>
        <time>2023-02-26T10:34:37Z</time>
      </trkpt>
      <trkpt lat="46.59574" lon="0.45174">
        <ele>94.6</ele>
        <time>2023-02-26T10:34:38Z</time>
      </trkpt>
      <trkpt lat="46.59583" lon="0.45204">
        <ele>94.8</ele>
        <time>2023-02-26T10:34:43Z</time>
      </trkpt>
      <trkpt lat="46.59587" lon="0.45212">
        <ele>94.8</ele>
        <time>2023-02-26T10:34:44Z</time>
      </trkpt>
      <trkpt lat="46.5959" lon="0.45228">
        <ele>94.8</ele>
        <time>2023-02-26T10:34:47Z</time>
      </trkpt>
      <trkpt lat="46.5959" lon="0.4524">
        <ele>95</ele>
        <time>2023-02-26T10:34:49Z</time>
      </trkpt>
      <trkpt lat="46.59597" lon="0.45261">
        <ele>94.8</ele>
        <time>2023-02-26T10:34:52Z</time>
      </trkpt>
      <trkpt lat="46.596" lon="0.45267">
        <ele>94.8</ele>
        <time>2023-02-26T10:34:53Z</time>
      </trkpt>
      <trkpt lat="46.59604" lon="0.45274">
        <ele>95</ele>
        <time>2023-02-26T10:34:54Z</time>
      </trkpt>
      <trkpt lat="46.59609" lon="0.45294">
        <ele>95.4</ele>
        <time>2023-02-26T10:34:58Z</time>
      </trkpt>
      <trkpt lat="46.59612" lon="0.45302">
        <ele>95.8</ele>
        <time>2023-02-26T10:35:00Z</time>
      </trkpt>
      <trkpt lat="46.59612" lon="0.45317">
        <ele>96.2</ele>
        <time>2023-02-26T10:35:03Z</time>
      </trkpt>
      <trkpt lat="46.59615" lon="0.4533">
        <ele>96.2</ele>
        <time>2023-02-26T10:35:06Z</time>
      </trkpt>
      <trkpt lat="46.59624" lon="0.45343">
        <ele>95.8</ele>
        <time>2023-02-26T10:35:08Z</time>
      </trkpt>
      <trkpt lat="46.5963" lon="0.45356">
        <ele>95.8</ele>
        <time>2023-02-26T10:35:11Z</time>
      </trkpt>
      <trkpt lat="46.59636" lon="0.45365">
        <ele>95.6</ele>
        <time>2023-02-26T10:35:13Z</time>
      </trkpt>
      <trkpt lat="46.59641" lon="0.45379">
        <ele>94.8</ele>
        <time>2023-02-26T10:35:16Z</time>
      </trkpt>
      <trkpt lat="46.59647" lon="0.45391">
        <ele>94.2</ele>
        <time>2023-02-26T10:35:18Z</time>
      </trkpt>
      <trkpt lat="46.59651" lon="0.45397">
        <ele>94.2</ele>
        <time>2023-02-26T10:35:19Z</time>
      </trkpt>
      <trkpt lat="46.59654" lon="0.45402">
        <ele>94.2</ele>
        <time>2023-02-26T10:35:20Z</time>
      </trkpt>
      <trkpt lat="46.59658" lon="0.45413">
        <ele>93.8</ele>
        <time>2023-02-26T10:35:22Z</time>
      </trkpt>
      <trkpt lat="46.59658" lon="0.45418">
        <ele>93.8</ele>
        <time>2023-02-26T10:35:23Z</time>
      </trkpt>
      <trkpt lat="46.59663" lon="0.45443">
        <ele>93.2</ele>
        <time>2023-02-26T10:35:27Z</time>
      </trkpt>
      <trkpt lat="46.59664" lon="0.4545">
        <ele>93</ele>
        <time>2023-02-26T10:35:28Z</time>
      </trkpt>
      <trkpt lat="46.59664" lon="0.45456">
        <ele>93</ele>
        <time>2023-02-26T10:35:29Z</time>
      </trkpt>
      <trkpt lat="46.5966" lon="0.45479">
        <ele>93.2</ele>
        <time>2023-02-26T10:35:33Z</time>
      </trkpt>
      <trkpt lat="46.59657" lon="0.45509">
        <ele>94</ele>
        <time>2023-02-26T10:35:39Z</time>
      </trkpt>
      <trkpt lat="46.59661" lon="0.45532">
        <ele>94.8</ele>
        <time>2023-02-26T10:35:44Z</time>
      </trkpt>
      <trkpt lat="46.59661" lon="0.45536">
        <ele>95</ele>
        <time>2023-02-26T10:35:45Z</time>
      </trkpt>
      <trkpt lat="46.59663" lon="0.45548">
        <ele>96</ele>
        <time>2023-02-26T10:35:48Z</time>
      </trkpt>
      <trkpt lat="46.59663" lon="0.45566">
        <ele>97.2</ele>
        <time>2023-02-26T10:35:53Z</time>
      </trkpt>
      <trkpt lat="46.59663" lon="0.45584">
        <ele>98.2</ele>
        <time>2023-02-26T10:35:58Z</time>
      </trkpt>
      <trkpt lat="46.59664" lon="0.4559">
        <ele>98.4</ele>
        <time>2023-02-26T10:36:00Z</time>
      </trkpt>
      <trkpt lat="46.59666" lon="0.45611">
        <ele>99.2</ele>
        <time>2023-02-26T10:36:06Z</time>
      </trkpt>
      <trkpt lat="46.59667" lon="0.4562">
        <ele>99.6</ele>
        <time>2023-02-26T10:36:09Z</time>
      </trkpt>
      <trkpt lat="46.59672" lon="0.4565">
        <ele>100</ele>
        <time>2023-02-26T10:36:18Z</time>
      </trkpt>
      <trkpt lat="46.59674" lon="0.45665">
        <ele>100.4</ele>
        <time>2023-02-26T10:36:23Z</time>
      </trkpt>
      <trkpt lat="46.59675" lon="0.45671">
        <ele>100.6</ele>
        <time>2023-02-26T10:36:25Z</time>
      </trkpt>
      <trkpt lat="46.59676" lon="0.45694">
        <ele>101</ele>
        <time>2023-02-26T10:36:32Z</time>
      </trkpt>
      <trkpt lat="46.59677" lon="0.45709">
        <ele>101.4</ele>
        <time>2023-02-26T10:36:36Z</time>
      </trkpt>
      <trkpt lat="46.59678" lon="0.45716">
        <ele>102.4</ele>
        <time>2023-02-26T10:36:38Z</time>
      </trkpt>
      <trkpt lat="46.59679" lon="0.45723">
        <ele>103</ele>
        <time>2023-02-26T10:36:40Z</time>
      </trkpt>
      <trkpt lat="46.5968" lon="0.4573">
        <ele>103.2</ele>
        <time>2023-02-26T10:36:42Z</time>
      </trkpt>
      <trkpt lat="46.59681" lon="0.4574">
        <ele>103.4</ele>
        <time>2023-02-26T10:36:45Z</time>
      </trkpt>
      <trkpt lat="46.59684" lon="0.45754">
        <ele>103.6</ele>
        <time>2023-02-26T10:36:49Z</time>
      </trkpt>
      <trkpt lat="46.5969" lon="0.45784">
        <ele>104.4</ele>
        <time>2023-02-26T10:36:58Z</time>
      </trkpt>
      <trkpt lat="46.59691" lon="0.45788">
        <ele>104.6</ele>
        <time>2023-02-26T10:36:59Z</time>
      </trkpt>
      <trkpt lat="46.59696" lon="0.45815">
        <ele>105</ele>
        <time>2023-02-26T10:37:07Z</time>
      </trkpt>
      <trkpt lat="46.59697" lon="0.45826">
        <ele>105.4</ele>
        <time>2023-02-26T10:37:10Z</time>
      </trkpt>
      <trkpt lat="46.59697" lon="0.45832">
        <ele>105.4</ele>
        <time>2023-02-26T10:37:12Z</time>
      </trkpt>
      <trkpt lat="46.59696" lon="0.4584">
        <ele>105.8</ele>
        <time>2023-02-26T10:37:14Z</time>
      </trkpt>
      <trkpt lat="46.59689" lon="0.45857">
        <ele>106.2</ele>
        <time>2023-02-26T10:37:19Z</time>
      </trkpt>
      <trkpt lat="46.59682" lon="0.45868">
        <ele>105.4</ele>
        <time>2023-02-26T10:37:23Z</time>
      </trkpt>
      <trkpt lat="46.59661" lon="0.45889">
        <ele>106.4</ele>
        <time>2023-02-26T10:37:31Z</time>
      </trkpt>
      <trkpt lat="46.59643" lon="0.45911">
        <ele>105.2</ele>
        <time>2023-02-26T10:37:38Z</time>
      </trkpt>
      <trkpt lat="46.59622" lon="0.45939">
        <ele>105</ele>
        <time>2023-02-26T10:37:46Z</time>
      </trkpt>
      <trkpt lat="46.59604" lon="0.4596">
        <ele>105.4</ele>
        <time>2023-02-26T10:37:53Z</time>
      </trkpt>
      <trkpt lat="46.59589" lon="0.45982">
        <ele>105.4</ele>
        <time>2023-02-26T10:38:00Z</time>
      </trkpt>
      <trkpt lat="46.59575" lon="0.45998">
        <ele>106.2</ele>
        <time>2023-02-26T10:38:06Z</time>
      </trkpt>
      <trkpt lat="46.5957" lon="0.46006">
        <ele>106.8</ele>
        <time>2023-02-26T10:38:09Z</time>
      </trkpt>
      <trkpt lat="46.59566" lon="0.46013">
        <ele>108.4</ele>
        <time>2023-02-26T10:38:12Z</time>
      </trkpt>
      <trkpt lat="46.59565" lon="0.46015">
        <ele>108.6</ele>
        <time>2023-02-26T10:38:13Z</time>
      </trkpt>
      <trkpt lat="46.59566" lon="0.46024">
        <ele>109</ele>
        <time>2023-02-26T10:38:16Z</time>
      </trkpt>
      <trkpt lat="46.59568" lon="0.4603">
        <ele>109.4</ele>
        <time>2023-02-26T10:38:18Z</time>
      </trkpt>
      <trkpt lat="46.59574" lon="0.46044">
        <ele>109.6</ele>
        <time>2023-02-26T10:38:22Z</time>
      </trkpt>
      <trkpt lat="46.59585" lon="0.46067">
        <ele>109</ele>
        <time>2023-02-26T10:38:29Z</time>
      </trkpt>
      <trkpt lat="46.596" lon="0.46096">
        <ele>109.6</ele>
        <time>2023-02-26T10:38:36Z</time>
      </trkpt>
      <trkpt lat="46.5962" lon="0.46134">
        <ele>110.2</ele>
        <time>2023-02-26T10:38:45Z</time>
      </trkpt>
      <trkpt lat="46.59626" lon="0.46142">
        <ele>110.6</ele>
        <time>2023-02-26T10:38:47Z</time>
      </trkpt>
      <trkpt lat="46.59635" lon="0.4615">
        <ele>110.2</ele>
        <time>2023-02-26T10:38:50Z</time>
      </trkpt>
      <trkpt lat="46.59647" lon="0.46155">
        <ele>109.6</ele>
        <time>2023-02-26T10:38:53Z</time>
      </trkpt>
      <trkpt lat="46.59659" lon="0.4616">
        <ele>109.2</ele>
        <time>2023-02-26T10:38:56Z</time>
      </trkpt>
      <trkpt lat="46.59685" lon="0.46172">
        <ele>108.8</ele>
        <time>2023-02-26T10:39:02Z</time>
      </trkpt>
      <trkpt lat="46.59697" lon="0.46177">
        <ele>108.4</ele>
        <time>2023-02-26T10:39:05Z</time>
      </trkpt>
      <trkpt lat="46.59715" lon="0.46183">
        <ele>108.6</ele>
        <time>2023-02-26T10:39:09Z</time>
      </trkpt>
      <trkpt lat="46.59741" lon="0.46193">
        <ele>109.6</ele>
        <time>2023-02-26T10:39:14Z</time>
      </trkpt>
      <trkpt lat="46.59762" lon="0.46201">
        <ele>110.2</ele>
        <time>2023-02-26T10:39:18Z</time>
      </trkpt>
      <trkpt lat="46.59802" lon="0.46214">
        <ele>109.8</ele>
        <time>2023-02-26T10:39:26Z</time>
      </trkpt>
      <trkpt lat="46.59841" lon="0.46227">
        <ele>108.6</ele>
        <time>2023-02-26T10:39:34Z</time>
      </trkpt>
      <trkpt lat="46.59845" lon="0.46229">
        <ele>108.6</ele>
        <time>2023-02-26T10:39:35Z</time>
      </trkpt>
      <trkpt lat="46.59869" lon="0.46237">
        <ele>108.8</ele>
        <time>2023-02-26T10:39:40Z</time>
      </trkpt>
      <trkpt lat="46.59893" lon="0.46245">
        <ele>108.8</ele>
        <time>2023-02-26T10:39:45Z</time>
      </trkpt>
      <trkpt lat="46.59944" lon="0.46262">
        <ele>108.8</ele>
        <time>2023-02-26T10:39:56Z</time>
      </trkpt>
      <trkpt lat="46.59966" lon="0.46267">
        <ele>108.2</ele>
        <time>2023-02-26T10:40:01Z</time>
      </trkpt>
      <trkpt lat="46.59974" lon="0.46269">
        <ele>108.2</ele>
        <time>2023-02-26T10:40:03Z</time>
      </trkpt>
      <trkpt lat="46.60006" lon="0.46276">
        <ele>108.8</ele>
        <time>2023-02-26T10:40:10Z</time>
      </trkpt>
      <trkpt lat="46.6004" lon="0.46283">
        <ele>109.2</ele>
        <time>2023-02-26T10:40:17Z</time>
      </trkpt>
      <trkpt lat="46.60061" lon="0.4629">
        <ele>108.8</ele>
        <time>2023-02-26T10:40:22Z</time>
      </trkpt>
      <trkpt lat="46.60065" lon="0.46291">
        <ele>108.8</ele>
        <time>2023-02-26T10:40:23Z</time>
      </trkpt>
      <trkpt lat="46.60099" lon="0.46294">
        <ele>108.6</ele>
        <time>2023-02-26T10:40:30Z</time>
      </trkpt>
      <trkpt lat="46.6014" lon="0.46297">
        <ele>108.8</ele>
        <time>2023-02-26T10:40:39Z</time>
      </trkpt>
      <trkpt lat="46.60174" lon="0.463">
        <ele>107.8</ele>
        <time>2023-02-26T10:40:47Z</time>
      </trkpt>
      <trkpt lat="46.60213" lon="0.46303">
        <ele>108.4</ele>
        <time>2023-02-26T10:40:57Z</time>
      </trkpt>
      <trkpt lat="46.60242" lon="0.46302">
        <ele>108.6</ele>
        <time>2023-02-26T10:41:05Z</time>
      </trkpt>
      <trkpt lat="46.60266" lon="0.46291">
        <ele>108.6</ele>
        <time>2023-02-26T10:41:13Z</time>
      </trkpt>
      <trkpt lat="46.60298" lon="0.46275">
        <ele>109.6</ele>
        <time>2023-02-26T10:41:23Z</time>
      </trkpt>
      <trkpt lat="46.60322" lon="0.46264">
        <ele>110.2</ele>
        <time>2023-02-26T10:41:31Z</time>
      </trkpt>
      <trkpt lat="46.60345" lon="0.46253">
        <ele>110.6</ele>
        <time>2023-02-26T10:41:38Z</time>
      </trkpt>
      <trkpt lat="46.60352" lon="0.4625">
        <ele>110.8</ele>
        <time>2023-02-26T10:41:40Z</time>
      </trkpt>
      <trkpt lat="46.60367" lon="0.46251">
        <ele>111</ele>
        <time>2023-02-26T10:41:44Z</time>
      </trkpt>
      <trkpt lat="46.60391" lon="0.46259">
        <ele>111</ele>
        <time>2023-02-26T10:41:51Z</time>
      </trkpt>
      <trkpt lat="46.60399" lon="0.46259">
        <ele>111.2</ele>
        <time>2023-02-26T10:41:54Z</time>
      </trkpt>
      <trkpt lat="46.60403" lon="0.46256">
        <ele>111.8</ele>
        <time>2023-02-26T10:41:56Z</time>
      </trkpt>
      <trkpt lat="46.60409" lon="0.46233">
        <ele>112</ele>
        <time>2023-02-26T10:42:01Z</time>
      </trkpt>
      <trkpt lat="46.60418" lon="0.462">
        <ele>112.8</ele>
        <time>2023-02-26T10:42:08Z</time>
      </trkpt>
      <trkpt lat="46.60421" lon="0.46191">
        <ele>113</ele>
        <time>2023-02-26T10:42:10Z</time>
      </trkpt>
      <trkpt lat="46.60428" lon="0.46171">
        <ele>113.2</ele>
        <time>2023-02-26T10:42:15Z</time>
      </trkpt>
      <trkpt lat="46.60434" lon="0.46154">
        <ele>113.6</ele>
        <time>2023-02-26T10:42:20Z</time>
      </trkpt>
      <trkpt lat="46.60439" lon="0.46139">
        <ele>114.6</ele>
        <time>2023-02-26T10:42:24Z</time>
      </trkpt>
      <trkpt lat="46.60439" lon="0.46139">
        <ele>115.8</ele>
        <time>2023-02-26T10:42:25Z</time>
      </trkpt>
      <trkpt lat="46.60444" lon="0.46123">
        <ele>116</ele>
        <time>2023-02-26T10:42:28Z</time>
      </trkpt>
      <trkpt lat="46.60459" lon="0.46087">
        <ele>116</ele>
        <time>2023-02-26T10:42:36Z</time>
      </trkpt>
      <trkpt lat="46.60471" lon="0.46061">
        <ele>116.8</ele>
        <time>2023-02-26T10:42:42Z</time>
      </trkpt>
      <trkpt lat="46.60477" lon="0.46048">
        <ele>117</ele>
        <time>2023-02-26T10:42:45Z</time>
      </trkpt>
      <trkpt lat="46.605" lon="0.46004">
        <ele>117.4</ele>
        <time>2023-02-26T10:42:56Z</time>
      </trkpt>
      <trkpt lat="46.60521" lon="0.45964">
        <ele>117.4</ele>
        <time>2023-02-26T10:43:05Z</time>
      </trkpt>
      <trkpt lat="46.60523" lon="0.4596">
        <ele>117.8</ele>
        <time>2023-02-26T10:43:06Z</time>
      </trkpt>
      <trkpt lat="46.6054" lon="0.45936">
        <ele>118.6</ele>
        <time>2023-02-26T10:43:12Z</time>
      </trkpt>
      <trkpt lat="46.60558" lon="0.45917">
        <ele>118.4</ele>
        <time>2023-02-26T10:43:18Z</time>
      </trkpt>
      <trkpt lat="46.60574" lon="0.45906">
        <ele>118.6</ele>
        <time>2023-02-26T10:43:23Z</time>
      </trkpt>
      <trkpt lat="46.60577" lon="0.45904">
        <ele>118.6</ele>
        <time>2023-02-26T10:43:24Z</time>
      </trkpt>
      <trkpt lat="46.60581" lon="0.45903">
        <ele>118.8</ele>
        <time>2023-02-26T10:43:25Z</time>
      </trkpt>
      <trkpt lat="46.60595" lon="0.45897">
        <ele>119.4</ele>
        <time>2023-02-26T10:43:28Z</time>
      </trkpt>
      <trkpt lat="46.60602" lon="0.45893">
        <ele>119.6</ele>
        <time>2023-02-26T10:43:30Z</time>
      </trkpt>
      <trkpt lat="46.6061" lon="0.45883">
        <ele>119.8</ele>
        <time>2023-02-26T10:43:32Z</time>
      </trkpt>
      <trkpt lat="46.6063" lon="0.45851">
        <ele>119.2</ele>
        <time>2023-02-26T10:43:38Z</time>
      </trkpt>
      <trkpt lat="46.60637" lon="0.45837">
        <ele>118.8</ele>
        <time>2023-02-26T10:43:40Z</time>
      </trkpt>
      <trkpt lat="46.60648" lon="0.45819">
        <ele>118.2</ele>
        <time>2023-02-26T10:43:43Z</time>
      </trkpt>
      <trkpt lat="46.60664" lon="0.4579">
        <ele>117.8</ele>
        <time>2023-02-26T10:43:47Z</time>
      </trkpt>
      <trkpt lat="46.60671" lon="0.45774">
        <ele>117.8</ele>
        <time>2023-02-26T10:43:49Z</time>
      </trkpt>
      <trkpt lat="46.60691" lon="0.45736">
        <ele>116.6</ele>
        <time>2023-02-26T10:43:54Z</time>
      </trkpt>
      <trkpt lat="46.60696" lon="0.45729">
        <ele>116.4</ele>
        <time>2023-02-26T10:43:55Z</time>
      </trkpt>
      <trkpt lat="46.60712" lon="0.45707">
        <ele>115.4</ele>
        <time>2023-02-26T10:43:58Z</time>
      </trkpt>
      <trkpt lat="46.60721" lon="0.45694">
        <ele>115</ele>
        <time>2023-02-26T10:44:00Z</time>
      </trkpt>
      <trkpt lat="46.60737" lon="0.45667">
        <ele>114.6</ele>
        <time>2023-02-26T10:44:04Z</time>
      </trkpt>
      <trkpt lat="46.60739" lon="0.45658">
        <ele>114.6</ele>
        <time>2023-02-26T10:44:05Z</time>
      </trkpt>
      <trkpt lat="46.60751" lon="0.45612">
        <ele>115.2</ele>
        <time>2023-02-26T10:44:11Z</time>
      </trkpt>
      <trkpt lat="46.60764" lon="0.45549">
        <ele>114.6</ele>
        <time>2023-02-26T10:44:20Z</time>
      </trkpt>
      <trkpt lat="46.60773" lon="0.45511">
        <ele>114.4</ele>
        <time>2023-02-26T10:44:26Z</time>
      </trkpt>
      <trkpt lat="46.60776" lon="0.45498">
        <ele>114.4</ele>
        <time>2023-02-26T10:44:28Z</time>
      </trkpt>
      <trkpt lat="46.60786" lon="0.45446">
        <ele>114.8</ele>
        <time>2023-02-26T10:44:36Z</time>
      </trkpt>
      <trkpt lat="46.60788" lon="0.45433">
        <ele>115</ele>
        <time>2023-02-26T10:44:38Z</time>
      </trkpt>
      <trkpt lat="46.60798" lon="0.45385">
        <ele>115.4</ele>
        <time>2023-02-26T10:44:45Z</time>
      </trkpt>
      <trkpt lat="46.60799" lon="0.45378">
        <ele>115.6</ele>
        <time>2023-02-26T10:44:46Z</time>
      </trkpt>
      <trkpt lat="46.60815" lon="0.45313">
        <ele>115.2</ele>
        <time>2023-02-26T10:44:56Z</time>
      </trkpt>
      <trkpt lat="46.60822" lon="0.45307">
        <ele>115.2</ele>
        <time>2023-02-26T10:44:58Z</time>
      </trkpt>
      <trkpt lat="46.60825" lon="0.45307">
        <ele>115.4</ele>
        <time>2023-02-26T10:44:59Z</time>
      </trkpt>
      <trkpt lat="46.60828" lon="0.4531">
        <ele>115.6</ele>
        <time>2023-02-26T10:45:00Z</time>
      </trkpt>
      <trkpt lat="46.6084" lon="0.4532">
        <ele>116</ele>
        <time>2023-02-26T10:45:03Z</time>
      </trkpt>
      <trkpt lat="46.60844" lon="0.45323">
        <ele>116</ele>
        <time>2023-02-26T10:45:04Z</time>
      </trkpt>
      <trkpt lat="46.60868" lon="0.45335">
        <ele>115.6</ele>
        <time>2023-02-26T10:45:09Z</time>
      </trkpt>
      <trkpt lat="46.60896" lon="0.45349">
        <ele>114.2</ele>
        <time>2023-02-26T10:45:15Z</time>
      </trkpt>
      <trkpt lat="46.60925" lon="0.45365">
        <ele>113.6</ele>
        <time>2023-02-26T10:45:21Z</time>
      </trkpt>
      <trkpt lat="46.60964" lon="0.45385">
        <ele>113.8</ele>
        <time>2023-02-26T10:45:29Z</time>
      </trkpt>
      <trkpt lat="46.60982" lon="0.45396">
        <ele>113</ele>
        <time>2023-02-26T10:45:33Z</time>
      </trkpt>
      <trkpt lat="46.60999" lon="0.45408">
        <ele>112.6</ele>
        <time>2023-02-26T10:45:37Z</time>
      </trkpt>
      <trkpt lat="46.61021" lon="0.45425">
        <ele>111.8</ele>
        <time>2023-02-26T10:45:42Z</time>
      </trkpt>
      <trkpt lat="46.61025" lon="0.4543">
        <ele>111.6</ele>
        <time>2023-02-26T10:45:43Z</time>
      </trkpt>
      <trkpt lat="46.61043" lon="0.45465">
        <ele>111</ele>
        <time>2023-02-26T10:45:50Z</time>
      </trkpt>
      <trkpt lat="46.61047" lon="0.45475">
        <ele>110.8</ele>
        <time>2023-02-26T10:45:52Z</time>
      </trkpt>
      <trkpt lat="46.61049" lon="0.4548">
        <ele>110.4</ele>
        <time>2023-02-26T10:45:53Z</time>
      </trkpt>
      <trkpt lat="46.61059" lon="0.45504">
        <ele>109.4</ele>
        <time>2023-02-26T10:45:58Z</time>
      </trkpt>
      <trkpt lat="46.61078" lon="0.45551">
        <ele>108.6</ele>
        <time>2023-02-26T10:46:08Z</time>
      </trkpt>
      <trkpt lat="46.61081" lon="0.45561">
        <ele>108.2</ele>
        <time>2023-02-26T10:46:10Z</time>
      </trkpt>
      <trkpt lat="46.61095" lon="0.45593">
        <ele>107.6</ele>
        <time>2023-02-26T10:46:17Z</time>
      </trkpt>
      <trkpt lat="46.61108" lon="0.4562">
        <ele>106.8</ele>
        <time>2023-02-26T10:46:24Z</time>
      </trkpt>
      <trkpt lat="46.6111" lon="0.45624">
        <ele>106.6</ele>
        <time>2023-02-26T10:46:25Z</time>
      </trkpt>
      <trkpt lat="46.61123" lon="0.45654">
        <ele>105.8</ele>
        <time>2023-02-26T10:46:32Z</time>
      </trkpt>
      <trkpt lat="46.61137" lon="0.45701">
        <ele>105.4</ele>
        <time>2023-02-26T10:46:41Z</time>
      </trkpt>
      <trkpt lat="46.61148" lon="0.4573">
        <ele>105.4</ele>
        <time>2023-02-26T10:46:47Z</time>
      </trkpt>
      <trkpt lat="46.61151" lon="0.4574">
        <ele>105.6</ele>
        <time>2023-02-26T10:46:49Z</time>
      </trkpt>
      <trkpt lat="46.61155" lon="0.45755">
        <ele>105.4</ele>
        <time>2023-02-26T10:46:52Z</time>
      </trkpt>
      <trkpt lat="46.6116" lon="0.45771">
        <ele>105.6</ele>
        <time>2023-02-26T10:46:56Z</time>
      </trkpt>
      <trkpt lat="46.6116" lon="0.45771">
        <ele>105.8</ele>
        <time>2023-02-26T10:46:57Z</time>
      </trkpt>
      <trkpt lat="46.61165" lon="0.45792">
        <ele>105.8</ele>
        <time>2023-02-26T10:47:02Z</time>
      </trkpt>
      <trkpt lat="46.61167" lon="0.45797">
        <ele>105.8</ele>
        <time>2023-02-26T10:47:03Z</time>
      </trkpt>
      <trkpt lat="46.61175" lon="0.4582">
        <ele>106.2</ele>
        <time>2023-02-26T10:47:09Z</time>
      </trkpt>
      <trkpt lat="46.61188" lon="0.45839">
        <ele>106.6</ele>
        <time>2023-02-26T10:47:14Z</time>
      </trkpt>
      <trkpt lat="46.61202" lon="0.45838">
        <ele>106.4</ele>
        <time>2023-02-26T10:47:18Z</time>
      </trkpt>
      <trkpt lat="46.61209" lon="0.45835">
        <ele>106</ele>
        <time>2023-02-26T10:47:20Z</time>
      </trkpt>
      <trkpt lat="46.6122" lon="0.45829">
        <ele>106</ele>
        <time>2023-02-26T10:47:23Z</time>
      </trkpt>
      <trkpt lat="46.61227" lon="0.45825">
        <ele>106.2</ele>
        <time>2023-02-26T10:47:25Z</time>
      </trkpt>
      <trkpt lat="46.61237" lon="0.45818">
        <ele>106</ele>
        <time>2023-02-26T10:47:28Z</time>
      </trkpt>
      <trkpt lat="46.61241" lon="0.45816">
        <ele>106</ele>
        <time>2023-02-26T10:47:29Z</time>
      </trkpt>
      <trkpt lat="46.61255" lon="0.4581">
        <ele>106</ele>
        <time>2023-02-26T10:47:33Z</time>
      </trkpt>
      <trkpt lat="46.61262" lon="0.45808">
        <ele>106.2</ele>
        <time>2023-02-26T10:47:35Z</time>
      </trkpt>
      <trkpt lat="46.61278" lon="0.45803">
        <ele>106.4</ele>
        <time>2023-02-26T10:47:38Z</time>
      </trkpt>
      <trkpt lat="46.61284" lon="0.45802">
        <ele>106.4</ele>
        <time>2023-02-26T10:47:39Z</time>
      </trkpt>
      <trkpt lat="46.61295" lon="0.45803">
        <ele>106.2</ele>
        <time>2023-02-26T10:47:41Z</time>
      </trkpt>
      <trkpt lat="46.61305" lon="0.45808">
        <ele>106</ele>
        <time>2023-02-26T10:47:43Z</time>
      </trkpt>
      <trkpt lat="46.61314" lon="0.45812">
        <ele>106</ele>
        <time>2023-02-26T10:47:45Z</time>
      </trkpt>
      <trkpt lat="46.61323" lon="0.45815">
        <ele>105.8</ele>
        <time>2023-02-26T10:47:47Z</time>
      </trkpt>
      <trkpt lat="46.61327" lon="0.45816">
        <ele>105.6</ele>
        <time>2023-02-26T10:47:48Z</time>
      </trkpt>
      <trkpt lat="46.61349" lon="0.45828">
        <ele>105.6</ele>
        <time>2023-02-26T10:47:53Z</time>
      </trkpt>
      <trkpt lat="46.61369" lon="0.45838">
        <ele>106</ele>
        <time>2023-02-26T10:47:58Z</time>
      </trkpt>
      <trkpt lat="46.61399" lon="0.45854">
        <ele>106.6</ele>
        <time>2023-02-26T10:48:05Z</time>
      </trkpt>
      <trkpt lat="46.61432" lon="0.45856">
        <ele>106.2</ele>
        <time>2023-02-26T10:48:12Z</time>
      </trkpt>
      <trkpt lat="46.61458" lon="0.45858">
        <ele>106.8</ele>
        <time>2023-02-26T10:48:18Z</time>
      </trkpt>
      <trkpt lat="46.61466" lon="0.45857">
        <ele>106.8</ele>
        <time>2023-02-26T10:48:20Z</time>
      </trkpt>
      <trkpt lat="46.61495" lon="0.45849">
        <ele>107.4</ele>
        <time>2023-02-26T10:48:28Z</time>
      </trkpt>
      <trkpt lat="46.61501" lon="0.45847">
        <ele>107.8</ele>
        <time>2023-02-26T10:48:30Z</time>
      </trkpt>
      <trkpt lat="46.6152" lon="0.45839">
        <ele>108.2</ele>
        <time>2023-02-26T10:48:36Z</time>
      </trkpt>
      <trkpt lat="46.61541" lon="0.45831">
        <ele>108.4</ele>
        <time>2023-02-26T10:48:43Z</time>
      </trkpt>
      <trkpt lat="46.61554" lon="0.45826">
        <ele>109</ele>
        <time>2023-02-26T10:48:47Z</time>
      </trkpt>
      <trkpt lat="46.61562" lon="0.45823">
        <ele>109.2</ele>
        <time>2023-02-26T10:48:50Z</time>
      </trkpt>
      <trkpt lat="46.61585" lon="0.45815">
        <ele>109.6</ele>
        <time>2023-02-26T10:48:58Z</time>
      </trkpt>
      <trkpt lat="46.61597" lon="0.45808">
        <ele>110.2</ele>
        <time>2023-02-26T10:49:03Z</time>
      </trkpt>
      <trkpt lat="46.61603" lon="0.45806">
        <ele>110.4</ele>
        <time>2023-02-26T10:49:05Z</time>
      </trkpt>
      <trkpt lat="46.61611" lon="0.45803">
        <ele>111.2</ele>
        <time>2023-02-26T10:49:08Z</time>
      </trkpt>
      <trkpt lat="46.61621" lon="0.45798">
        <ele>111.8</ele>
        <time>2023-02-26T10:49:12Z</time>
      </trkpt>
      <trkpt lat="46.61636" lon="0.45786">
        <ele>112.4</ele>
        <time>2023-02-26T10:49:18Z</time>
      </trkpt>
      <trkpt lat="46.6165" lon="0.45782">
        <ele>113.4</ele>
        <time>2023-02-26T10:49:23Z</time>
      </trkpt>
      <trkpt lat="46.61653" lon="0.45781">
        <ele>113.4</ele>
        <time>2023-02-26T10:49:24Z</time>
      </trkpt>
      <trkpt lat="46.61679" lon="0.4578">
        <ele>113</ele>
        <time>2023-02-26T10:49:33Z</time>
      </trkpt>
      <trkpt lat="46.61682" lon="0.4578">
        <ele>113.2</ele>
        <time>2023-02-26T10:49:34Z</time>
      </trkpt>
      <trkpt lat="46.61699" lon="0.45781">
        <ele>114.4</ele>
        <time>2023-02-26T10:49:40Z</time>
      </trkpt>
      <trkpt lat="46.61705" lon="0.45782">
        <ele>114.6</ele>
        <time>2023-02-26T10:49:42Z</time>
      </trkpt>
      <trkpt lat="46.6172" lon="0.45784">
        <ele>114.8</ele>
        <time>2023-02-26T10:49:48Z</time>
      </trkpt>
      <trkpt lat="46.61741" lon="0.4579">
        <ele>115.2</ele>
        <time>2023-02-26T10:49:56Z</time>
      </trkpt>
      <trkpt lat="46.61758" lon="0.45795">
        <ele>115.6</ele>
        <time>2023-02-26T10:50:02Z</time>
      </trkpt>
      <trkpt lat="46.61766" lon="0.45798">
        <ele>115.8</ele>
        <time>2023-02-26T10:50:06Z</time>
      </trkpt>
      <trkpt lat="46.61785" lon="0.45804">
        <ele>116.2</ele>
        <time>2023-02-26T10:50:13Z</time>
      </trkpt>
      <trkpt lat="46.618" lon="0.45808">
        <ele>116.8</ele>
        <time>2023-02-26T10:50:18Z</time>
      </trkpt>
      <trkpt lat="46.61818" lon="0.45813">
        <ele>117.6</ele>
        <time>2023-02-26T10:50:24Z</time>
      </trkpt>
      <trkpt lat="46.61845" lon="0.4582">
        <ele>117.8</ele>
        <time>2023-02-26T10:50:32Z</time>
      </trkpt>
      <trkpt lat="46.61852" lon="0.45821">
        <ele>117.8</ele>
        <time>2023-02-26T10:50:34Z</time>
      </trkpt>
      <trkpt lat="46.61879" lon="0.45829">
        <ele>118.4</ele>
        <time>2023-02-26T10:50:41Z</time>
      </trkpt>
      <trkpt lat="46.61907" lon="0.4584">
        <ele>118.4</ele>
        <time>2023-02-26T10:50:48Z</time>
      </trkpt>
      <trkpt lat="46.61934" lon="0.45849">
        <ele>118</ele>
        <time>2023-02-26T10:50:55Z</time>
      </trkpt>
      <trkpt lat="46.61965" lon="0.45864">
        <ele>118.8</ele>
        <time>2023-02-26T10:51:03Z</time>
      </trkpt>
      <trkpt lat="46.61969" lon="0.45866">
        <ele>118.8</ele>
        <time>2023-02-26T10:51:04Z</time>
      </trkpt>
      <trkpt lat="46.61984" lon="0.45876">
        <ele>118.2</ele>
        <time>2023-02-26T10:51:08Z</time>
      </trkpt>
      <trkpt lat="46.61996" lon="0.45883">
        <ele>118.2</ele>
        <time>2023-02-26T10:51:11Z</time>
      </trkpt>
      <trkpt lat="46.62033" lon="0.45904">
        <ele>118</ele>
        <time>2023-02-26T10:51:20Z</time>
      </trkpt>
      <trkpt lat="46.62056" lon="0.45916">
        <ele>117.8</ele>
        <time>2023-02-26T10:51:26Z</time>
      </trkpt>
      <trkpt lat="46.62059" lon="0.45918">
        <ele>117.8</ele>
        <time>2023-02-26T10:51:27Z</time>
      </trkpt>
      <trkpt lat="46.62072" lon="0.45928">
        <ele>117.4</ele>
        <time>2023-02-26T10:51:32Z</time>
      </trkpt>
      <trkpt lat="46.62077" lon="0.4595">
        <ele>117.4</ele>
        <time>2023-02-26T10:51:37Z</time>
      </trkpt>
      <trkpt lat="46.62078" lon="0.45984">
        <ele>117.2</ele>
        <time>2023-02-26T10:51:44Z</time>
      </trkpt>
      <trkpt lat="46.62076" lon="0.4603">
        <ele>117.6</ele>
        <time>2023-02-26T10:51:53Z</time>
      </trkpt>
      <trkpt lat="46.62078" lon="0.46071">
        <ele>117.2</ele>
        <time>2023-02-26T10:52:01Z</time>
      </trkpt>
      <trkpt lat="46.62078" lon="0.46094">
        <ele>116.8</ele>
        <time>2023-02-26T10:52:07Z</time>
      </trkpt>
      <trkpt lat="46.62079" lon="0.46115">
        <ele>117.4</ele>
        <time>2023-02-26T10:52:13Z</time>
      </trkpt>
      <trkpt lat="46.62079" lon="0.46137">
        <ele>117.6</ele>
        <time>2023-02-26T10:52:19Z</time>
      </trkpt>
      <trkpt lat="46.6208" lon="0.46165">
        <ele>117.8</ele>
        <time>2023-02-26T10:52:26Z</time>
      </trkpt>
      <trkpt lat="46.6208" lon="0.46187">
        <ele>118.2</ele>
        <time>2023-02-26T10:52:32Z</time>
      </trkpt>
      <trkpt lat="46.62079" lon="0.46215">
        <ele>118.4</ele>
        <time>2023-02-26T10:52:39Z</time>
      </trkpt>
      <trkpt lat="46.6208" lon="0.46239">
        <ele>118.6</ele>
        <time>2023-02-26T10:52:44Z</time>
      </trkpt>
      <trkpt lat="46.62081" lon="0.46259">
        <ele>118.8</ele>
        <time>2023-02-26T10:52:48Z</time>
      </trkpt>
      <trkpt lat="46.62084" lon="0.46276">
        <ele>118.8</ele>
        <time>2023-02-26T10:52:51Z</time>
      </trkpt>
      <trkpt lat="46.62095" lon="0.46328">
        <ele>119.6</ele>
        <time>2023-02-26T10:53:00Z</time>
      </trkpt>
      <trkpt lat="46.62101" lon="0.46363">
        <ele>118.8</ele>
        <time>2023-02-26T10:53:06Z</time>
      </trkpt>
      <trkpt lat="46.62112" lon="0.46419">
        <ele>119</ele>
        <time>2023-02-26T10:53:15Z</time>
      </trkpt>
      <trkpt lat="46.62124" lon="0.4648">
        <ele>118</ele>
        <time>2023-02-26T10:53:25Z</time>
      </trkpt>
      <trkpt lat="46.62132" lon="0.46524">
        <ele>117.8</ele>
        <time>2023-02-26T10:53:33Z</time>
      </trkpt>
      <trkpt lat="46.62131" lon="0.4653">
        <ele>117.6</ele>
        <time>2023-02-26T10:53:34Z</time>
      </trkpt>
      <trkpt lat="46.62126" lon="0.46538">
        <ele>117.2</ele>
        <time>2023-02-26T10:53:36Z</time>
      </trkpt>
      <trkpt lat="46.621" lon="0.4655">
        <ele>117</ele>
        <time>2023-02-26T10:53:42Z</time>
      </trkpt>
      <trkpt lat="46.62065" lon="0.46568">
        <ele>117.2</ele>
        <time>2023-02-26T10:53:49Z</time>
      </trkpt>
      <trkpt lat="46.62025" lon="0.46588">
        <ele>116.8</ele>
        <time>2023-02-26T10:53:57Z</time>
      </trkpt>
      <trkpt lat="46.61991" lon="0.46606">
        <ele>115.6</ele>
        <time>2023-02-26T10:54:03Z</time>
      </trkpt>
      <trkpt lat="46.61985" lon="0.46608">
        <ele>115.4</ele>
        <time>2023-02-26T10:54:04Z</time>
      </trkpt>
      <trkpt lat="46.61962" lon="0.46621">
        <ele>114.6</ele>
        <time>2023-02-26T10:54:08Z</time>
      </trkpt>
      <trkpt lat="46.61951" lon="0.46627">
        <ele>114.2</ele>
        <time>2023-02-26T10:54:10Z</time>
      </trkpt>
      <trkpt lat="46.61946" lon="0.46629">
        <ele>114</ele>
        <time>2023-02-26T10:54:11Z</time>
      </trkpt>
      <trkpt lat="46.61919" lon="0.46643">
        <ele>113.4</ele>
        <time>2023-02-26T10:54:16Z</time>
      </trkpt>
      <trkpt lat="46.61915" lon="0.46646">
        <ele>113.4</ele>
        <time>2023-02-26T10:54:17Z</time>
      </trkpt>
      <trkpt lat="46.61912" lon="0.4665">
        <ele>113.4</ele>
        <time>2023-02-26T10:54:18Z</time>
      </trkpt>
      <trkpt lat="46.61912" lon="0.46654">
        <ele>113</ele>
        <time>2023-02-26T10:54:19Z</time>
      </trkpt>
      <trkpt lat="46.61916" lon="0.46661">
        <ele>112.6</ele>
        <time>2023-02-26T10:54:21Z</time>
      </trkpt>
      <trkpt lat="46.6193" lon="0.46679">
        <ele>112.2</ele>
        <time>2023-02-26T10:54:25Z</time>
      </trkpt>
      <trkpt lat="46.61954" lon="0.4671">
        <ele>113</ele>
        <time>2023-02-26T10:54:31Z</time>
      </trkpt>
      <trkpt lat="46.61962" lon="0.4672">
        <ele>113.2</ele>
        <time>2023-02-26T10:54:33Z</time>
      </trkpt>
      <trkpt lat="46.61972" lon="0.46733">
        <ele>113.2</ele>
        <time>2023-02-26T10:54:36Z</time>
      </trkpt>
      <trkpt lat="46.61976" lon="0.46737">
        <ele>113.2</ele>
        <time>2023-02-26T10:54:37Z</time>
      </trkpt>
      <trkpt lat="46.62007" lon="0.46762">
        <ele>112.6</ele>
        <time>2023-02-26T10:54:45Z</time>
      </trkpt>
      <trkpt lat="46.62011" lon="0.46768">
        <ele>112.6</ele>
        <time>2023-02-26T10:54:47Z</time>
      </trkpt>
      <trkpt lat="46.62013" lon="0.46777">
        <ele>112.4</ele>
        <time>2023-02-26T10:54:49Z</time>
      </trkpt>
      <trkpt lat="46.62015" lon="0.46787">
        <ele>112.2</ele>
        <time>2023-02-26T10:54:51Z</time>
      </trkpt>
      <trkpt lat="46.6202" lon="0.46796">
        <ele>112.4</ele>
        <time>2023-02-26T10:54:53Z</time>
      </trkpt>
      <trkpt lat="46.62036" lon="0.46817">
        <ele>113.2</ele>
        <time>2023-02-26T10:54:59Z</time>
      </trkpt>
      <trkpt lat="46.62042" lon="0.46823">
        <ele>113.6</ele>
        <time>2023-02-26T10:55:01Z</time>
      </trkpt>
      <trkpt lat="46.6205" lon="0.46833">
        <ele>114.2</ele>
        <time>2023-02-26T10:55:04Z</time>
      </trkpt>
      <trkpt lat="46.62053" lon="0.46837">
        <ele>114.2</ele>
        <time>2023-02-26T10:55:05Z</time>
      </trkpt>
      <trkpt lat="46.62053" lon="0.46837">
        <ele>114.4</ele>
        <time>2023-02-26T10:55:06Z</time>
      </trkpt>
      <trkpt lat="46.62069" lon="0.46854">
        <ele>114.2</ele>
        <time>2023-02-26T10:55:10Z</time>
      </trkpt>
      <trkpt lat="46.6207" lon="0.46857">
        <ele>114</ele>
        <time>2023-02-26T10:55:11Z</time>
      </trkpt>
      <trkpt lat="46.62071" lon="0.46865">
        <ele>113.8</ele>
        <time>2023-02-26T10:55:13Z</time>
      </trkpt>
      <trkpt lat="46.62071" lon="0.46869">
        <ele>113.6</ele>
        <time>2023-02-26T10:55:14Z</time>
      </trkpt>
      <trkpt lat="46.62071" lon="0.46879">
        <ele>113</ele>
        <time>2023-02-26T10:55:16Z</time>
      </trkpt>
      <trkpt lat="46.62069" lon="0.46886">
        <ele>112.6</ele>
        <time>2023-02-26T10:55:18Z</time>
      </trkpt>
      <trkpt lat="46.62069" lon="0.4689">
        <ele>112.4</ele>
        <time>2023-02-26T10:55:19Z</time>
      </trkpt>
      <trkpt lat="46.62064" lon="0.46897">
        <ele>112.4</ele>
        <time>2023-02-26T10:55:21Z</time>
      </trkpt>
      <trkpt lat="46.62063" lon="0.46906">
        <ele>112.4</ele>
        <time>2023-02-26T10:55:23Z</time>
      </trkpt>
      <trkpt lat="46.62062" lon="0.46915">
        <ele>112.6</ele>
        <time>2023-02-26T10:55:25Z</time>
      </trkpt>
      <trkpt lat="46.62057" lon="0.46928">
        <ele>113</ele>
        <time>2023-02-26T10:55:28Z</time>
      </trkpt>
      <trkpt lat="46.6205" lon="0.46941">
        <ele>112.8</ele>
        <time>2023-02-26T10:55:31Z</time>
      </trkpt>
      <trkpt lat="46.62043" lon="0.46954">
        <ele>112.4</ele>
        <time>2023-02-26T10:55:34Z</time>
      </trkpt>
      <trkpt lat="46.62042" lon="0.46964">
        <ele>112.2</ele>
        <time>2023-02-26T10:55:36Z</time>
      </trkpt>
      <trkpt lat="46.62043" lon="0.46969">
        <ele>112.4</ele>
        <time>2023-02-26T10:55:37Z</time>
      </trkpt>
      <trkpt lat="46.62046" lon="0.46975">
        <ele>112.6</ele>
        <time>2023-02-26T10:55:38Z</time>
      </trkpt>
      <trkpt lat="46.62054" lon="0.46998">
        <ele>113.2</ele>
        <time>2023-02-26T10:55:42Z</time>
      </trkpt>
      <trkpt lat="46.62072" lon="0.47031">
        <ele>112.8</ele>
        <time>2023-02-26T10:55:48Z</time>
      </trkpt>
      <trkpt lat="46.62076" lon="0.47037">
        <ele>112.8</ele>
        <time>2023-02-26T10:55:49Z</time>
      </trkpt>
      <trkpt lat="46.62079" lon="0.47042">
        <ele>112.6</ele>
        <time>2023-02-26T10:55:50Z</time>
      </trkpt>
      <trkpt lat="46.62088" lon="0.47061">
        <ele>112.6</ele>
        <time>2023-02-26T10:55:54Z</time>
      </trkpt>
      <trkpt lat="46.62105" lon="0.47095">
        <ele>112.2</ele>
        <time>2023-02-26T10:56:01Z</time>
      </trkpt>
      <trkpt lat="46.62118" lon="0.4713">
        <ele>112.4</ele>
        <time>2023-02-26T10:56:07Z</time>
      </trkpt>
      <trkpt lat="46.6212" lon="0.47136">
        <ele>112.4</ele>
        <time>2023-02-26T10:56:08Z</time>
      </trkpt>
      <trkpt lat="46.62122" lon="0.47141">
        <ele>112</ele>
        <time>2023-02-26T10:56:09Z</time>
      </trkpt>
      <trkpt lat="46.62123" lon="0.47147">
        <ele>111.6</ele>
        <time>2023-02-26T10:56:10Z</time>
      </trkpt>
      <trkpt lat="46.62129" lon="0.47164">
        <ele>110.8</ele>
        <time>2023-02-26T10:56:13Z</time>
      </trkpt>
      <trkpt lat="46.62132" lon="0.4717">
        <ele>110.6</ele>
        <time>2023-02-26T10:56:14Z</time>
      </trkpt>
      <trkpt lat="46.62135" lon="0.47175">
        <ele>110.4</ele>
        <time>2023-02-26T10:56:15Z</time>
      </trkpt>
      <trkpt lat="46.62145" lon="0.47199">
        <ele>110.2</ele>
        <time>2023-02-26T10:56:20Z</time>
      </trkpt>
      <trkpt lat="46.6216" lon="0.4723">
        <ele>109</ele>
        <time>2023-02-26T10:56:27Z</time>
      </trkpt>
      <trkpt lat="46.62161" lon="0.47235">
        <ele>108.8</ele>
        <time>2023-02-26T10:56:28Z</time>
      </trkpt>
      <trkpt lat="46.62162" lon="0.47252">
        <ele>108.4</ele>
        <time>2023-02-26T10:56:31Z</time>
      </trkpt>
      <trkpt lat="46.62161" lon="0.47259">
        <ele>108.4</ele>
        <time>2023-02-26T10:56:32Z</time>
      </trkpt>
      <trkpt lat="46.62152" lon="0.47299">
        <ele>108.8</ele>
        <time>2023-02-26T10:56:38Z</time>
      </trkpt>
      <trkpt lat="46.62141" lon="0.47343">
        <ele>108.8</ele>
        <time>2023-02-26T10:56:44Z</time>
      </trkpt>
      <trkpt lat="46.62136" lon="0.47358">
        <ele>108</ele>
        <time>2023-02-26T10:56:46Z</time>
      </trkpt>
      <trkpt lat="46.62126" lon="0.47386">
        <ele>107.6</ele>
        <time>2023-02-26T10:56:50Z</time>
      </trkpt>
      <trkpt lat="46.62125" lon="0.47393">
        <ele>107.6</ele>
        <time>2023-02-26T10:56:51Z</time>
      </trkpt>
      <trkpt lat="46.62121" lon="0.47405">
        <ele>107.6</ele>
        <time>2023-02-26T10:56:53Z</time>
      </trkpt>
      <trkpt lat="46.6212" lon="0.4741">
        <ele>107.6</ele>
        <time>2023-02-26T10:56:54Z</time>
      </trkpt>
      <trkpt lat="46.62117" lon="0.47422">
        <ele>107.6</ele>
        <time>2023-02-26T10:56:56Z</time>
      </trkpt>
      <trkpt lat="46.62113" lon="0.47441">
        <ele>107.4</ele>
        <time>2023-02-26T10:56:59Z</time>
      </trkpt>
      <trkpt lat="46.621" lon="0.47474">
        <ele>107.8</ele>
        <time>2023-02-26T10:57:05Z</time>
      </trkpt>
      <trkpt lat="46.62098" lon="0.47479">
        <ele>107.8</ele>
        <time>2023-02-26T10:57:06Z</time>
      </trkpt>
      <trkpt lat="46.62092" lon="0.47493">
        <ele>108.2</ele>
        <time>2023-02-26T10:57:09Z</time>
      </trkpt>
      <trkpt lat="46.6209" lon="0.47498">
        <ele>108</ele>
        <time>2023-02-26T10:57:10Z</time>
      </trkpt>
      <trkpt lat="46.62087" lon="0.4751">
        <ele>108</ele>
        <time>2023-02-26T10:57:12Z</time>
      </trkpt>
      <trkpt lat="46.6208" lon="0.47529">
        <ele>108</ele>
        <time>2023-02-26T10:57:15Z</time>
      </trkpt>
      <trkpt lat="46.62079" lon="0.47535">
        <ele>108</ele>
        <time>2023-02-26T10:57:16Z</time>
      </trkpt>
      <trkpt lat="46.62077" lon="0.47541">
        <ele>108</ele>
        <time>2023-02-26T10:57:17Z</time>
      </trkpt>
      <trkpt lat="46.62067" lon="0.47568">
        <ele>107.8</ele>
        <time>2023-02-26T10:57:21Z</time>
      </trkpt>
      <trkpt lat="46.62052" lon="0.47612">
        <ele>107.2</ele>
        <time>2023-02-26T10:57:27Z</time>
      </trkpt>
      <trkpt lat="46.62043" lon="0.47635">
        <ele>107</ele>
        <time>2023-02-26T10:57:30Z</time>
      </trkpt>
      <trkpt lat="46.62034" lon="0.47657">
        <ele>106.6</ele>
        <time>2023-02-26T10:57:33Z</time>
      </trkpt>
      <trkpt lat="46.62031" lon="0.47664">
        <ele>106.6</ele>
        <time>2023-02-26T10:57:34Z</time>
      </trkpt>
      <trkpt lat="46.62022" lon="0.47691">
        <ele>106.2</ele>
        <time>2023-02-26T10:57:38Z</time>
      </trkpt>
      <trkpt lat="46.6202" lon="0.47698">
        <ele>105.8</ele>
        <time>2023-02-26T10:57:39Z</time>
      </trkpt>
      <trkpt lat="46.62012" lon="0.47716">
        <ele>105.6</ele>
        <time>2023-02-26T10:57:42Z</time>
      </trkpt>
      <trkpt lat="46.62008" lon="0.47722">
        <ele>105.4</ele>
        <time>2023-02-26T10:57:43Z</time>
      </trkpt>
      <trkpt lat="46.61999" lon="0.47733">
        <ele>104.8</ele>
        <time>2023-02-26T10:57:45Z</time>
      </trkpt>
      <trkpt lat="46.61995" lon="0.47739">
        <ele>104.6</ele>
        <time>2023-02-26T10:57:46Z</time>
      </trkpt>
      <trkpt lat="46.61988" lon="0.47751">
        <ele>104.2</ele>
        <time>2023-02-26T10:57:48Z</time>
      </trkpt>
      <trkpt lat="46.61986" lon="0.47758">
        <ele>103.4</ele>
        <time>2023-02-26T10:57:49Z</time>
      </trkpt>
      <trkpt lat="46.61984" lon="0.47763">
        <ele>103.4</ele>
        <time>2023-02-26T10:57:50Z</time>
      </trkpt>
      <trkpt lat="46.61983" lon="0.47775">
        <ele>102.4</ele>
        <time>2023-02-26T10:57:52Z</time>
      </trkpt>
      <trkpt lat="46.61983" lon="0.47781">
        <ele>102.2</ele>
        <time>2023-02-26T10:57:53Z</time>
      </trkpt>
      <trkpt lat="46.61982" lon="0.47788">
        <ele>101.8</ele>
        <time>2023-02-26T10:57:54Z</time>
      </trkpt>
      <trkpt lat="46.61978" lon="0.47801">
        <ele>101.4</ele>
        <time>2023-02-26T10:57:56Z</time>
      </trkpt>
      <trkpt lat="46.61975" lon="0.47808">
        <ele>101.2</ele>
        <time>2023-02-26T10:57:57Z</time>
      </trkpt>
      <trkpt lat="46.61958" lon="0.47851">
        <ele>100</ele>
        <time>2023-02-26T10:58:03Z</time>
      </trkpt>
      <trkpt lat="46.61949" lon="0.47873">
        <ele>99.8</ele>
        <time>2023-02-26T10:58:06Z</time>
      </trkpt>
      <trkpt lat="46.61943" lon="0.4789">
        <ele>99.4</ele>
        <time>2023-02-26T10:58:08Z</time>
      </trkpt>
      <trkpt lat="46.61936" lon="0.47905">
        <ele>99.2</ele>
        <time>2023-02-26T10:58:10Z</time>
      </trkpt>
      <trkpt lat="46.61927" lon="0.47925">
        <ele>99</ele>
        <time>2023-02-26T10:58:13Z</time>
      </trkpt>
      <trkpt lat="46.61918" lon="0.47953">
        <ele>98.8</ele>
        <time>2023-02-26T10:58:17Z</time>
      </trkpt>
      <trkpt lat="46.61916" lon="0.47959">
        <ele>98.2</ele>
        <time>2023-02-26T10:58:18Z</time>
      </trkpt>
      <trkpt lat="46.61916" lon="0.47964">
        <ele>98</ele>
        <time>2023-02-26T10:58:19Z</time>
      </trkpt>
      <trkpt lat="46.61916" lon="0.47967">
        <ele>97.8</ele>
        <time>2023-02-26T10:58:20Z</time>
      </trkpt>
      <trkpt lat="46.61919" lon="0.47972">
        <ele>97.8</ele>
        <time>2023-02-26T10:58:21Z</time>
      </trkpt>
      <trkpt lat="46.61922" lon="0.47977">
        <ele>97.8</ele>
        <time>2023-02-26T10:58:22Z</time>
      </trkpt>
      <trkpt lat="46.6193" lon="0.47986">
        <ele>97.8</ele>
        <time>2023-02-26T10:58:24Z</time>
      </trkpt>
      <trkpt lat="46.61937" lon="0.47994">
        <ele>97.8</ele>
        <time>2023-02-26T10:58:26Z</time>
      </trkpt>
      <trkpt lat="46.6194" lon="0.47999">
        <ele>97.8</ele>
        <time>2023-02-26T10:58:27Z</time>
      </trkpt>
      <trkpt lat="46.61943" lon="0.48002">
        <ele>97.8</ele>
        <time>2023-02-26T10:58:28Z</time>
      </trkpt>
      <trkpt lat="46.61946" lon="0.48009">
        <ele>97.8</ele>
        <time>2023-02-26T10:58:30Z</time>
      </trkpt>
      <trkpt lat="46.61945" lon="0.48013">
        <ele>97.8</ele>
        <time>2023-02-26T10:58:31Z</time>
      </trkpt>
      <trkpt lat="46.6194" lon="0.48026">
        <ele>96.4</ele>
        <time>2023-02-26T10:58:34Z</time>
      </trkpt>
      <trkpt lat="46.61937" lon="0.48033">
        <ele>96</ele>
        <time>2023-02-26T10:58:35Z</time>
      </trkpt>
      <trkpt lat="46.61927" lon="0.48075">
        <ele>95.8</ele>
        <time>2023-02-26T10:58:41Z</time>
      </trkpt>
      <trkpt lat="46.61924" lon="0.48086">
        <ele>96</ele>
        <time>2023-02-26T10:58:43Z</time>
      </trkpt>
      <trkpt lat="46.61919" lon="0.48096">
        <ele>96.2</ele>
        <time>2023-02-26T10:58:45Z</time>
      </trkpt>
      <trkpt lat="46.61917" lon="0.48101">
        <ele>96.2</ele>
        <time>2023-02-26T10:58:46Z</time>
      </trkpt>
      <trkpt lat="46.61913" lon="0.48111">
        <ele>96.4</ele>
        <time>2023-02-26T10:58:48Z</time>
      </trkpt>
      <trkpt lat="46.6191" lon="0.48125">
        <ele>96.8</ele>
        <time>2023-02-26T10:58:51Z</time>
      </trkpt>
      <trkpt lat="46.61907" lon="0.48138">
        <ele>97.6</ele>
        <time>2023-02-26T10:58:54Z</time>
      </trkpt>
      <trkpt lat="46.61903" lon="0.4815">
        <ele>98.2</ele>
        <time>2023-02-26T10:58:57Z</time>
      </trkpt>
      <trkpt lat="46.61898" lon="0.48164">
        <ele>98.6</ele>
        <time>2023-02-26T10:59:01Z</time>
      </trkpt>
      <trkpt lat="46.61897" lon="0.48167">
        <ele>98.8</ele>
        <time>2023-02-26T10:59:02Z</time>
      </trkpt>
      <trkpt lat="46.61889" lon="0.48186">
        <ele>99.8</ele>
        <time>2023-02-26T10:59:07Z</time>
      </trkpt>
      <trkpt lat="46.61881" lon="0.48211">
        <ele>100.4</ele>
        <time>2023-02-26T10:59:13Z</time>
      </trkpt>
      <trkpt lat="46.61877" lon="0.48224">
        <ele>100.8</ele>
        <time>2023-02-26T10:59:16Z</time>
      </trkpt>
      <trkpt lat="46.61871" lon="0.48239">
        <ele>100.8</ele>
        <time>2023-02-26T10:59:20Z</time>
      </trkpt>
      <trkpt lat="46.61858" lon="0.48268">
        <ele>101.2</ele>
        <time>2023-02-26T10:59:27Z</time>
      </trkpt>
      <trkpt lat="46.61847" lon="0.48299">
        <ele>101.4</ele>
        <time>2023-02-26T10:59:34Z</time>
      </trkpt>
      <trkpt lat="46.61839" lon="0.48327">
        <ele>101.8</ele>
        <time>2023-02-26T10:59:40Z</time>
      </trkpt>
      <trkpt lat="46.61835" lon="0.48337">
        <ele>102</ele>
        <time>2023-02-26T10:59:42Z</time>
      </trkpt>
      <trkpt lat="46.6183" lon="0.48347">
        <ele>102.2</ele>
        <time>2023-02-26T10:59:44Z</time>
      </trkpt>
      <trkpt lat="46.61828" lon="0.48352">
        <ele>102.4</ele>
        <time>2023-02-26T10:59:45Z</time>
      </trkpt>
      <trkpt lat="46.61823" lon="0.48368">
        <ele>102.4</ele>
        <time>2023-02-26T10:59:48Z</time>
      </trkpt>
      <trkpt lat="46.61809" lon="0.48415">
        <ele>101.8</ele>
        <time>2023-02-26T10:59:54Z</time>
      </trkpt>
      <trkpt lat="46.61803" lon="0.48436">
        <ele>101.2</ele>
        <time>2023-02-26T10:59:57Z</time>
      </trkpt>
      <trkpt lat="46.61802" lon="0.4845">
        <ele>101</ele>
        <time>2023-02-26T10:59:59Z</time>
      </trkpt>
      <trkpt lat="46.61799" lon="0.4847">
        <ele>101.2</ele>
        <time>2023-02-26T11:00:02Z</time>
      </trkpt>
      <trkpt lat="46.61797" lon="0.48477">
        <ele>101.4</ele>
        <time>2023-02-26T11:00:03Z</time>
      </trkpt>
      <trkpt lat="46.61793" lon="0.48489">
        <ele>101.6</ele>
        <time>2023-02-26T11:00:05Z</time>
      </trkpt>
      <trkpt lat="46.61792" lon="0.48499">
        <ele>101.6</ele>
        <time>2023-02-26T11:00:07Z</time>
      </trkpt>
      <trkpt lat="46.61792" lon="0.48517">
        <ele>101.2</ele>
        <time>2023-02-26T11:00:10Z</time>
      </trkpt>
      <trkpt lat="46.61791" lon="0.48533">
        <ele>101</ele>
        <time>2023-02-26T11:00:13Z</time>
      </trkpt>
      <trkpt lat="46.61789" lon="0.48549">
        <ele>101.2</ele>
        <time>2023-02-26T11:00:17Z</time>
      </trkpt>
      <trkpt lat="46.6179" lon="0.48553">
        <ele>101.4</ele>
        <time>2023-02-26T11:00:18Z</time>
      </trkpt>
      <trkpt lat="46.6179" lon="0.48579">
        <ele>101.6</ele>
        <time>2023-02-26T11:00:24Z</time>
      </trkpt>
      <trkpt lat="46.61791" lon="0.48601">
        <ele>101.4</ele>
        <time>2023-02-26T11:00:29Z</time>
      </trkpt>
      <trkpt lat="46.61795" lon="0.48623">
        <ele>101.2</ele>
        <time>2023-02-26T11:00:34Z</time>
      </trkpt>
      <trkpt lat="46.61796" lon="0.48647">
        <ele>100.8</ele>
        <time>2023-02-26T11:00:39Z</time>
      </trkpt>
      <trkpt lat="46.61794" lon="0.48657">
        <ele>100.8</ele>
        <time>2023-02-26T11:00:41Z</time>
      </trkpt>
      <trkpt lat="46.61792" lon="0.48669">
        <ele>100.8</ele>
        <time>2023-02-26T11:00:43Z</time>
      </trkpt>
      <trkpt lat="46.61786" lon="0.48698">
        <ele>101</ele>
        <time>2023-02-26T11:00:48Z</time>
      </trkpt>
      <trkpt lat="46.61777" lon="0.48738">
        <ele>100.4</ele>
        <time>2023-02-26T11:00:55Z</time>
      </trkpt>
      <trkpt lat="46.61775" lon="0.48753">
        <ele>99.8</ele>
        <time>2023-02-26T11:00:58Z</time>
      </trkpt>
      <trkpt lat="46.61774" lon="0.48764">
        <ele>99.6</ele>
        <time>2023-02-26T11:01:00Z</time>
      </trkpt>
      <trkpt lat="46.61774" lon="0.4877">
        <ele>99.6</ele>
        <time>2023-02-26T11:01:01Z</time>
      </trkpt>
      <trkpt lat="46.61772" lon="0.48794">
        <ele>99.4</ele>
        <time>2023-02-26T11:01:05Z</time>
      </trkpt>
      <trkpt lat="46.6177" lon="0.48809">
        <ele>99</ele>
        <time>2023-02-26T11:01:07Z</time>
      </trkpt>
      <trkpt lat="46.61769" lon="0.48825">
        <ele>98.6</ele>
        <time>2023-02-26T11:01:09Z</time>
      </trkpt>
      <trkpt lat="46.61765" lon="0.48854">
        <ele>98.4</ele>
        <time>2023-02-26T11:01:13Z</time>
      </trkpt>
      <trkpt lat="46.61764" lon="0.48862">
        <ele>98.2</ele>
        <time>2023-02-26T11:01:14Z</time>
      </trkpt>
      <trkpt lat="46.61759" lon="0.4891">
        <ele>98</ele>
        <time>2023-02-26T11:01:20Z</time>
      </trkpt>
      <trkpt lat="46.61753" lon="0.48925">
        <ele>97.6</ele>
        <time>2023-02-26T11:01:22Z</time>
      </trkpt>
      <trkpt lat="46.6175" lon="0.4893">
        <ele>97.4</ele>
        <time>2023-02-26T11:01:23Z</time>
      </trkpt>
      <trkpt lat="46.61747" lon="0.48937">
        <ele>97.4</ele>
        <time>2023-02-26T11:01:24Z</time>
      </trkpt>
      <trkpt lat="46.61746" lon="0.48952">
        <ele>97</ele>
        <time>2023-02-26T11:01:26Z</time>
      </trkpt>
      <trkpt lat="46.61746" lon="0.48961">
        <ele>96.8</ele>
        <time>2023-02-26T11:01:27Z</time>
      </trkpt>
      <trkpt lat="46.61745" lon="0.48969">
        <ele>96.8</ele>
        <time>2023-02-26T11:01:28Z</time>
      </trkpt>
      <trkpt lat="46.61742" lon="0.48993">
        <ele>96.8</ele>
        <time>2023-02-26T11:01:31Z</time>
      </trkpt>
      <trkpt lat="46.61741" lon="0.49002">
        <ele>96.6</ele>
        <time>2023-02-26T11:01:32Z</time>
      </trkpt>
      <trkpt lat="46.61736" lon="0.49027">
        <ele>95.6</ele>
        <time>2023-02-26T11:01:35Z</time>
      </trkpt>
      <trkpt lat="46.61733" lon="0.49034">
        <ele>95.4</ele>
        <time>2023-02-26T11:01:36Z</time>
      </trkpt>
      <trkpt lat="46.6173" lon="0.49039">
        <ele>95.2</ele>
        <time>2023-02-26T11:01:37Z</time>
      </trkpt>
      <trkpt lat="46.61725" lon="0.49048">
        <ele>95</ele>
        <time>2023-02-26T11:01:39Z</time>
      </trkpt>
      <trkpt lat="46.61724" lon="0.49052">
        <ele>94.8</ele>
        <time>2023-02-26T11:01:40Z</time>
      </trkpt>
      <trkpt lat="46.61722" lon="0.49061">
        <ele>94.8</ele>
        <time>2023-02-26T11:01:42Z</time>
      </trkpt>
      <trkpt lat="46.61718" lon="0.49076">
        <ele>95</ele>
        <time>2023-02-26T11:01:46Z</time>
      </trkpt>
      <trkpt lat="46.61709" lon="0.49096">
        <ele>95.2</ele>
        <time>2023-02-26T11:01:51Z</time>
      </trkpt>
      <trkpt lat="46.61701" lon="0.49123">
        <ele>96</ele>
        <time>2023-02-26T11:01:58Z</time>
      </trkpt>
      <trkpt lat="46.61696" lon="0.49141">
        <ele>96.8</ele>
        <time>2023-02-26T11:02:03Z</time>
      </trkpt>
      <trkpt lat="46.61694" lon="0.49145">
        <ele>96.8</ele>
        <time>2023-02-26T11:02:04Z</time>
      </trkpt>
      <trkpt lat="46.61687" lon="0.49167">
        <ele>97</ele>
        <time>2023-02-26T11:02:10Z</time>
      </trkpt>
      <trkpt lat="46.61678" lon="0.49181">
        <ele>97</ele>
        <time>2023-02-26T11:02:15Z</time>
      </trkpt>
      <trkpt lat="46.61663" lon="0.49198">
        <ele>97</ele>
        <time>2023-02-26T11:02:21Z</time>
      </trkpt>
      <trkpt lat="46.61645" lon="0.49224">
        <ele>97.2</ele>
        <time>2023-02-26T11:02:28Z</time>
      </trkpt>
      <trkpt lat="46.61642" lon="0.49237">
        <ele>97.4</ele>
        <time>2023-02-26T11:02:31Z</time>
      </trkpt>
      <trkpt lat="46.61642" lon="0.49239">
        <ele>97.4</ele>
        <time>2023-02-26T11:02:32Z</time>
      </trkpt>
      <trkpt lat="46.61643" lon="0.49241">
        <ele>97</ele>
        <time>2023-02-26T11:02:33Z</time>
      </trkpt>
      <trkpt lat="46.61649" lon="0.49246">
        <ele>96.8</ele>
        <time>2023-02-26T11:02:36Z</time>
      </trkpt>
      <trkpt lat="46.61666" lon="0.49256">
        <ele>96.8</ele>
        <time>2023-02-26T11:02:42Z</time>
      </trkpt>
      <trkpt lat="46.61674" lon="0.49261">
        <ele>96.8</ele>
        <time>2023-02-26T11:02:44Z</time>
      </trkpt>
      <trkpt lat="46.6168" lon="0.49264">
        <ele>97</ele>
        <time>2023-02-26T11:02:46Z</time>
      </trkpt>
      <trkpt lat="46.61683" lon="0.49265">
        <ele>97</ele>
        <time>2023-02-26T11:02:47Z</time>
      </trkpt>
      <trkpt lat="46.61686" lon="0.49266">
        <ele>97</ele>
        <time>2023-02-26T11:02:48Z</time>
      </trkpt>
      <trkpt lat="46.61701" lon="0.49272">
        <ele>96.8</ele>
        <time>2023-02-26T11:02:52Z</time>
      </trkpt>
      <trkpt lat="46.61727" lon="0.4928">
        <ele>96.8</ele>
        <time>2023-02-26T11:02:58Z</time>
      </trkpt>
      <trkpt lat="46.61735" lon="0.49284">
        <ele>96.6</ele>
        <time>2023-02-26T11:03:00Z</time>
      </trkpt>
      <trkpt lat="46.6175" lon="0.49295">
        <ele>96.4</ele>
        <time>2023-02-26T11:03:03Z</time>
      </trkpt>
      <trkpt lat="46.61771" lon="0.49307">
        <ele>95.6</ele>
        <time>2023-02-26T11:03:07Z</time>
      </trkpt>
      <trkpt lat="46.61777" lon="0.49311">
        <ele>95.4</ele>
        <time>2023-02-26T11:03:08Z</time>
      </trkpt>
      <trkpt lat="46.61782" lon="0.49315">
        <ele>95.4</ele>
        <time>2023-02-26T11:03:09Z</time>
      </trkpt>
      <trkpt lat="46.61786" lon="0.49321">
        <ele>95.4</ele>
        <time>2023-02-26T11:03:10Z</time>
      </trkpt>
      <trkpt lat="46.61799" lon="0.49338">
        <ele>94.4</ele>
        <time>2023-02-26T11:03:13Z</time>
      </trkpt>
      <trkpt lat="46.61808" lon="0.49347">
        <ele>93.6</ele>
        <time>2023-02-26T11:03:15Z</time>
      </trkpt>
      <trkpt lat="46.61812" lon="0.49351">
        <ele>93</ele>
        <time>2023-02-26T11:03:16Z</time>
      </trkpt>
      <trkpt lat="46.6182" lon="0.49356">
        <ele>92.4</ele>
        <time>2023-02-26T11:03:18Z</time>
      </trkpt>
      <trkpt lat="46.61829" lon="0.4936">
        <ele>92.2</ele>
        <time>2023-02-26T11:03:20Z</time>
      </trkpt>
      <trkpt lat="46.6184" lon="0.49367">
        <ele>91.4</ele>
        <time>2023-02-26T11:03:22Z</time>
      </trkpt>
      <trkpt lat="46.61846" lon="0.4937">
        <ele>90.4</ele>
        <time>2023-02-26T11:03:23Z</time>
      </trkpt>
      <trkpt lat="46.61852" lon="0.49373">
        <ele>89.2</ele>
        <time>2023-02-26T11:03:24Z</time>
      </trkpt>
      <trkpt lat="46.61858" lon="0.49378">
        <ele>88.6</ele>
        <time>2023-02-26T11:03:25Z</time>
      </trkpt>
      <trkpt lat="46.61864" lon="0.49384">
        <ele>88.2</ele>
        <time>2023-02-26T11:03:26Z</time>
      </trkpt>
      <trkpt lat="46.6187" lon="0.49388">
        <ele>87.6</ele>
        <time>2023-02-26T11:03:27Z</time>
      </trkpt>
      <trkpt lat="46.61876" lon="0.49392">
        <ele>86.6</ele>
        <time>2023-02-26T11:03:28Z</time>
      </trkpt>
      <trkpt lat="46.61881" lon="0.49393">
        <ele>86</ele>
        <time>2023-02-26T11:03:29Z</time>
      </trkpt>
      <trkpt lat="46.61885" lon="0.49393">
        <ele>85.4</ele>
        <time>2023-02-26T11:03:30Z</time>
      </trkpt>
      <trkpt lat="46.61888" lon="0.49394">
        <ele>85.2</ele>
        <time>2023-02-26T11:03:31Z</time>
      </trkpt>
      <trkpt lat="46.61893" lon="0.49394">
        <ele>84.6</ele>
        <time>2023-02-26T11:03:33Z</time>
      </trkpt>
      <trkpt lat="46.61896" lon="0.49394">
        <ele>84.8</ele>
        <time>2023-02-26T11:03:34Z</time>
      </trkpt>
      <trkpt lat="46.61908" lon="0.49396">
        <ele>84.4</ele>
        <time>2023-02-26T11:03:38Z</time>
      </trkpt>
      <trkpt lat="46.61911" lon="0.49396">
        <ele>84.6</ele>
        <time>2023-02-26T11:03:39Z</time>
      </trkpt>
      <trkpt lat="46.61915" lon="0.49397">
        <ele>84.6</ele>
        <time>2023-02-26T11:03:40Z</time>
      </trkpt>
      <trkpt lat="46.6192" lon="0.49397">
        <ele>84.6</ele>
        <time>2023-02-26T11:03:41Z</time>
      </trkpt>
      <trkpt lat="46.61937" lon="0.49402">
        <ele>85.2</ele>
        <time>2023-02-26T11:03:45Z</time>
      </trkpt>
      <trkpt lat="46.61941" lon="0.49403">
        <ele>85.4</ele>
        <time>2023-02-26T11:03:46Z</time>
      </trkpt>
      <trkpt lat="46.61961" lon="0.49402">
        <ele>86</ele>
        <time>2023-02-26T11:03:51Z</time>
      </trkpt>
      <trkpt lat="46.61965" lon="0.49402">
        <ele>86</ele>
        <time>2023-02-26T11:03:52Z</time>
      </trkpt>
      <trkpt lat="46.61991" lon="0.49397">
        <ele>86</ele>
        <time>2023-02-26T11:03:58Z</time>
      </trkpt>
      <trkpt lat="46.62014" lon="0.49394">
        <ele>86.8</ele>
        <time>2023-02-26T11:04:03Z</time>
      </trkpt>
      <trkpt lat="46.62018" lon="0.49393">
        <ele>86.8</ele>
        <time>2023-02-26T11:04:04Z</time>
      </trkpt>
      <trkpt lat="46.62033" lon="0.49391">
        <ele>86.8</ele>
        <time>2023-02-26T11:04:09Z</time>
      </trkpt>
      <trkpt lat="46.62051" lon="0.4939">
        <ele>86.2</ele>
        <time>2023-02-26T11:04:14Z</time>
      </trkpt>
      <trkpt lat="46.62054" lon="0.49388">
        <ele>86</ele>
        <time>2023-02-26T11:04:15Z</time>
      </trkpt>
      <trkpt lat="46.62056" lon="0.49386">
        <ele>86</ele>
        <time>2023-02-26T11:04:16Z</time>
      </trkpt>
      <trkpt lat="46.62061" lon="0.4938">
        <ele>86.2</ele>
        <time>2023-02-26T11:04:18Z</time>
      </trkpt>
      <trkpt lat="46.62066" lon="0.49374">
        <ele>86.8</ele>
        <time>2023-02-26T11:04:20Z</time>
      </trkpt>
      <trkpt lat="46.62079" lon="0.4936">
        <ele>85.8</ele>
        <time>2023-02-26T11:04:24Z</time>
      </trkpt>
      <trkpt lat="46.62081" lon="0.49356">
        <ele>85.6</ele>
        <time>2023-02-26T11:04:25Z</time>
      </trkpt>
      <trkpt lat="46.62083" lon="0.49353">
        <ele>85</ele>
        <time>2023-02-26T11:04:26Z</time>
      </trkpt>
      <trkpt lat="46.62084" lon="0.4935">
        <ele>84.6</ele>
        <time>2023-02-26T11:04:27Z</time>
      </trkpt>
      <trkpt lat="46.62088" lon="0.49343">
        <ele>84</ele>
        <time>2023-02-26T11:04:30Z</time>
      </trkpt>
      <trkpt lat="46.62101" lon="0.49322">
        <ele>85.8</ele>
        <time>2023-02-26T11:04:36Z</time>
      </trkpt>
      <trkpt lat="46.62103" lon="0.49319">
        <ele>85.8</ele>
        <time>2023-02-26T11:04:37Z</time>
      </trkpt>
      <trkpt lat="46.62113" lon="0.49302">
        <ele>86</ele>
        <time>2023-02-26T11:04:43Z</time>
      </trkpt>
      <trkpt lat="46.62127" lon="0.4928">
        <ele>86.2</ele>
        <time>2023-02-26T11:04:50Z</time>
      </trkpt>
      <trkpt lat="46.62143" lon="0.49255">
        <ele>86.2</ele>
        <time>2023-02-26T11:04:58Z</time>
      </trkpt>
      <trkpt lat="46.62156" lon="0.49235">
        <ele>85.6</ele>
        <time>2023-02-26T11:05:04Z</time>
      </trkpt>
      <trkpt lat="46.6216" lon="0.49229">
        <ele>85.2</ele>
        <time>2023-02-26T11:05:05Z</time>
      </trkpt>
      <trkpt lat="46.62166" lon="0.49221">
        <ele>84.6</ele>
        <time>2023-02-26T11:05:07Z</time>
      </trkpt>
      <trkpt lat="46.62174" lon="0.49209">
        <ele>84.4</ele>
        <time>2023-02-26T11:05:09Z</time>
      </trkpt>
      <trkpt lat="46.62187" lon="0.49188">
        <ele>84.4</ele>
        <time>2023-02-26T11:05:14Z</time>
      </trkpt>
      <trkpt lat="46.6219" lon="0.49185">
        <ele>84.4</ele>
        <time>2023-02-26T11:05:15Z</time>
      </trkpt>
      <trkpt lat="46.62195" lon="0.49177">
        <ele>85</ele>
        <time>2023-02-26T11:05:17Z</time>
      </trkpt>
      <trkpt lat="46.62202" lon="0.49168">
        <ele>85.2</ele>
        <time>2023-02-26T11:05:19Z</time>
      </trkpt>
      <trkpt lat="46.62211" lon="0.49158">
        <ele>85.2</ele>
        <time>2023-02-26T11:05:22Z</time>
      </trkpt>
      <trkpt lat="46.62226" lon="0.49139">
        <ele>85.6</ele>
        <time>2023-02-26T11:05:28Z</time>
      </trkpt>
      <trkpt lat="46.62229" lon="0.49136">
        <ele>85.8</ele>
        <time>2023-02-26T11:05:29Z</time>
      </trkpt>
      <trkpt lat="46.62244" lon="0.49123">
        <ele>86</ele>
        <time>2023-02-26T11:05:34Z</time>
      </trkpt>
      <trkpt lat="46.62252" lon="0.49118">
        <ele>86</ele>
        <time>2023-02-26T11:05:36Z</time>
      </trkpt>
      <trkpt lat="46.62266" lon="0.4911">
        <ele>85.8</ele>
        <time>2023-02-26T11:05:40Z</time>
      </trkpt>
      <trkpt lat="46.62288" lon="0.49099">
        <ele>85</ele>
        <time>2023-02-26T11:05:45Z</time>
      </trkpt>
      <trkpt lat="46.62295" lon="0.49096">
        <ele>84.8</ele>
        <time>2023-02-26T11:05:47Z</time>
      </trkpt>
      <trkpt lat="46.62303" lon="0.49092">
        <ele>84.6</ele>
        <time>2023-02-26T11:05:49Z</time>
      </trkpt>
      <trkpt lat="46.62311" lon="0.49088">
        <ele>84.6</ele>
        <time>2023-02-26T11:05:51Z</time>
      </trkpt>
      <trkpt lat="46.62336" lon="0.49078">
        <ele>84.2</ele>
        <time>2023-02-26T11:05:57Z</time>
      </trkpt>
      <trkpt lat="46.62336" lon="0.49078">
        <ele>84.2</ele>
        <time>2023-02-26T11:05:58Z</time>
      </trkpt>
      <trkpt lat="46.62351" lon="0.49073">
        <ele>84.2</ele>
        <time>2023-02-26T11:06:00Z</time>
      </trkpt>
      <trkpt lat="46.62372" lon="0.49066">
        <ele>84.8</ele>
        <time>2023-02-26T11:06:04Z</time>
      </trkpt>
      <trkpt lat="46.62398" lon="0.4906">
        <ele>85.4</ele>
        <time>2023-02-26T11:06:09Z</time>
      </trkpt>
      <trkpt lat="46.62403" lon="0.4906">
        <ele>85.4</ele>
        <time>2023-02-26T11:06:10Z</time>
      </trkpt>
      <trkpt lat="46.62408" lon="0.49059">
        <ele>85.4</ele>
        <time>2023-02-26T11:06:11Z</time>
      </trkpt>
      <trkpt lat="46.62421" lon="0.49055">
        <ele>85.4</ele>
        <time>2023-02-26T11:06:14Z</time>
      </trkpt>
      <trkpt lat="46.6245" lon="0.49047">
        <ele>85.4</ele>
        <time>2023-02-26T11:06:20Z</time>
      </trkpt>
      <trkpt lat="46.62455" lon="0.49046">
        <ele>85.4</ele>
        <time>2023-02-26T11:06:21Z</time>
      </trkpt>
      <trkpt lat="46.62469" lon="0.49042">
        <ele>85.2</ele>
        <time>2023-02-26T11:06:25Z</time>
      </trkpt>
      <trkpt lat="46.62473" lon="0.49043">
        <ele>85.2</ele>
        <time>2023-02-26T11:06:27Z</time>
      </trkpt>
      <trkpt lat="46.62473" lon="0.49049">
        <ele>85</ele>
        <time>2023-02-26T11:06:29Z</time>
      </trkpt>
      <trkpt lat="46.62473" lon="0.49058">
        <ele>84.8</ele>
        <time>2023-02-26T11:06:31Z</time>
      </trkpt>
      <trkpt lat="46.62477" lon="0.49068">
        <ele>83.8</ele>
        <time>2023-02-26T11:06:33Z</time>
      </trkpt>
      <trkpt lat="46.62479" lon="0.49077">
        <ele>83.4</ele>
        <time>2023-02-26T11:06:36Z</time>
      </trkpt>
      <trkpt lat="46.62478" lon="0.49082">
        <ele>83.6</ele>
        <time>2023-02-26T11:06:39Z</time>
      </trkpt>
      <trkpt lat="46.62478" lon="0.49085">
        <ele>83.6</ele>
        <time>2023-02-26T11:06:41Z</time>
      </trkpt>
      <trkpt lat="46.62477" lon="0.49094">
        <ele>83</ele>
        <time>2023-02-26T11:06:53Z</time>
      </trkpt>
      <trkpt lat="46.62466" lon="0.49099">
        <ele>83</ele>
        <time>2023-02-26T11:06:59Z</time>
      </trkpt>
      <trkpt lat="46.62461" lon="0.49101">
        <ele>82.8</ele>
        <time>2023-02-26T11:07:01Z</time>
      </trkpt>
      <trkpt lat="46.62456" lon="0.49103">
        <ele>82.8</ele>
        <time>2023-02-26T11:07:03Z</time>
      </trkpt>
      <trkpt lat="46.62453" lon="0.49103">
        <ele>82.8</ele>
        <time>2023-02-26T11:07:04Z</time>
      </trkpt>
      <trkpt lat="46.62436" lon="0.49108">
        <ele>82.8</ele>
        <time>2023-02-26T11:07:09Z</time>
      </trkpt>
      <trkpt lat="46.62417" lon="0.49115">
        <ele>83</ele>
        <time>2023-02-26T11:07:15Z</time>
      </trkpt>
      <trkpt lat="46.62405" lon="0.49118">
        <ele>83</ele>
        <time>2023-02-26T11:07:18Z</time>
      </trkpt>
      <trkpt lat="46.62394" lon="0.49121">
        <ele>82.6</ele>
        <time>2023-02-26T11:07:21Z</time>
      </trkpt>
      <trkpt lat="46.6239" lon="0.49122">
        <ele>82.6</ele>
        <time>2023-02-26T11:07:22Z</time>
      </trkpt>
      <trkpt lat="46.62384" lon="0.49124">
        <ele>82.6</ele>
        <time>2023-02-26T11:07:24Z</time>
      </trkpt>
      <trkpt lat="46.62372" lon="0.4913">
        <ele>82.8</ele>
        <time>2023-02-26T11:07:28Z</time>
      </trkpt>
      <trkpt lat="46.62368" lon="0.49132">
        <ele>82.8</ele>
        <time>2023-02-26T11:07:29Z</time>
      </trkpt>
      <trkpt lat="46.62355" lon="0.49139">
        <ele>83.2</ele>
        <time>2023-02-26T11:07:33Z</time>
      </trkpt>
      <trkpt lat="46.62352" lon="0.4914">
        <ele>83.4</ele>
        <time>2023-02-26T11:07:34Z</time>
      </trkpt>
      <trkpt lat="46.62349" lon="0.49143">
        <ele>83.4</ele>
        <time>2023-02-26T11:07:35Z</time>
      </trkpt>
      <trkpt lat="46.6234" lon="0.49149">
        <ele>83.4</ele>
        <time>2023-02-26T11:07:37Z</time>
      </trkpt>
      <trkpt lat="46.62334" lon="0.49155">
        <ele>83.2</ele>
        <time>2023-02-26T11:07:39Z</time>
      </trkpt>
      <trkpt lat="46.62316" lon="0.49171">
        <ele>83.4</ele>
        <time>2023-02-26T11:07:44Z</time>
      </trkpt>
      <trkpt lat="46.62308" lon="0.49181">
        <ele>83.4</ele>
        <time>2023-02-26T11:07:47Z</time>
      </trkpt>
      <trkpt lat="46.62298" lon="0.49191">
        <ele>83.6</ele>
        <time>2023-02-26T11:07:50Z</time>
      </trkpt>
      <trkpt lat="46.6229" lon="0.49199">
        <ele>83.6</ele>
        <time>2023-02-26T11:07:52Z</time>
      </trkpt>
      <trkpt lat="46.62286" lon="0.49204">
        <ele>83.6</ele>
        <time>2023-02-26T11:07:53Z</time>
      </trkpt>
      <trkpt lat="46.62282" lon="0.49207">
        <ele>83.6</ele>
        <time>2023-02-26T11:07:54Z</time>
      </trkpt>
      <trkpt lat="46.62271" lon="0.49216">
        <ele>83.4</ele>
        <time>2023-02-26T11:07:57Z</time>
      </trkpt>
      <trkpt lat="46.62263" lon="0.49226">
        <ele>83.6</ele>
        <time>2023-02-26T11:07:59Z</time>
      </trkpt>
      <trkpt lat="46.6226" lon="0.49228">
        <ele>83.8</ele>
        <time>2023-02-26T11:08:00Z</time>
      </trkpt>
      <trkpt lat="46.62255" lon="0.49234">
        <ele>84.2</ele>
        <time>2023-02-26T11:08:02Z</time>
      </trkpt>
      <trkpt lat="46.62247" lon="0.49242">
        <ele>84.8</ele>
        <time>2023-02-26T11:08:05Z</time>
      </trkpt>
      <trkpt lat="46.62243" lon="0.4925">
        <ele>84.8</ele>
        <time>2023-02-26T11:08:07Z</time>
      </trkpt>
      <trkpt lat="46.6224" lon="0.49258">
        <ele>84</ele>
        <time>2023-02-26T11:08:10Z</time>
      </trkpt>
      <trkpt lat="46.62238" lon="0.49261">
        <ele>83.8</ele>
        <time>2023-02-26T11:08:11Z</time>
      </trkpt>
      <trkpt lat="46.62237" lon="0.49269">
        <ele>84.6</ele>
        <time>2023-02-26T11:08:15Z</time>
      </trkpt>
      <trkpt lat="46.62238" lon="0.4927">
        <ele>84.6</ele>
        <time>2023-02-26T11:08:16Z</time>
      </trkpt>
      <trkpt lat="46.62241" lon="0.49278">
        <ele>85</ele>
        <time>2023-02-26T11:08:22Z</time>
      </trkpt>
      <trkpt lat="46.62247" lon="0.49286">
        <ele>85.4</ele>
        <time>2023-02-26T11:08:28Z</time>
      </trkpt>
      <trkpt lat="46.62254" lon="0.49288">
        <ele>84.2</ele>
        <time>2023-02-26T11:08:34Z</time>
      </trkpt>
      <trkpt lat="46.62262" lon="0.49285">
        <ele>85</ele>
        <time>2023-02-26T11:08:41Z</time>
      </trkpt>
      <trkpt lat="46.62264" lon="0.49284">
        <ele>85.4</ele>
        <time>2023-02-26T11:08:42Z</time>
      </trkpt>
      <trkpt lat="46.62268" lon="0.49282">
        <ele>86.2</ele>
        <time>2023-02-26T11:08:45Z</time>
      </trkpt>
      <trkpt lat="46.62272" lon="0.4928">
        <ele>86.6</ele>
        <time>2023-02-26T11:08:47Z</time>
      </trkpt>
      <trkpt lat="46.62276" lon="0.49278">
        <ele>87.2</ele>
        <time>2023-02-26T11:08:50Z</time>
      </trkpt>
      <trkpt lat="46.62283" lon="0.49274">
        <ele>88.4</ele>
        <time>2023-02-26T11:08:54Z</time>
      </trkpt>
      <trkpt lat="46.62283" lon="0.49274">
        <ele>88.8</ele>
        <time>2023-02-26T11:08:55Z</time>
      </trkpt>
      <trkpt lat="46.62288" lon="0.49269">
        <ele>89</ele>
        <time>2023-02-26T11:08:58Z</time>
      </trkpt>
      <trkpt lat="46.62292" lon="0.49267">
        <ele>89.4</ele>
        <time>2023-02-26T11:09:00Z</time>
      </trkpt>
      <trkpt lat="46.62294" lon="0.49266">
        <ele>89.6</ele>
        <time>2023-02-26T11:09:01Z</time>
      </trkpt>
      <trkpt lat="46.62299" lon="0.49258">
        <ele>90</ele>
        <time>2023-02-26T11:09:07Z</time>
      </trkpt>
      <trkpt lat="46.623" lon="0.49256">
        <ele>90</ele>
        <time>2023-02-26T11:09:08Z</time>
      </trkpt>
      <trkpt lat="46.62305" lon="0.49249">
        <ele>90</ele>
        <time>2023-02-26T11:09:12Z</time>
      </trkpt>
      <trkpt lat="46.62308" lon="0.49247">
        <ele>90</ele>
        <time>2023-02-26T11:09:14Z</time>
      </trkpt>
      <trkpt lat="46.62319" lon="0.49242">
        <ele>90.2</ele>
        <time>2023-02-26T11:09:20Z</time>
      </trkpt>
      <trkpt lat="46.62323" lon="0.4924">
        <ele>90.8</ele>
        <time>2023-02-26T11:09:22Z</time>
      </trkpt>
      <trkpt lat="46.6233" lon="0.49238">
        <ele>92</ele>
        <time>2023-02-26T11:09:26Z</time>
      </trkpt>
      <trkpt lat="46.62332" lon="0.49237">
        <ele>92.2</ele>
        <time>2023-02-26T11:09:27Z</time>
      </trkpt>
      <trkpt lat="46.62345" lon="0.49228">
        <ele>92.8</ele>
        <time>2023-02-26T11:09:34Z</time>
      </trkpt>
      <trkpt lat="46.62359" lon="0.49219">
        <ele>92.6</ele>
        <time>2023-02-26T11:09:41Z</time>
      </trkpt>
      <trkpt lat="46.62377" lon="0.49219">
        <ele>92.8</ele>
        <time>2023-02-26T11:09:46Z</time>
      </trkpt>
      <trkpt lat="46.62393" lon="0.49224">
        <ele>92.4</ele>
        <time>2023-02-26T11:09:52Z</time>
      </trkpt>
      <trkpt lat="46.6241" lon="0.49226">
        <ele>92.2</ele>
        <time>2023-02-26T11:09:58Z</time>
      </trkpt>
      <trkpt lat="46.62427" lon="0.49235">
        <ele>92.6</ele>
        <time>2023-02-26T11:10:04Z</time>
      </trkpt>
      <trkpt lat="46.62439" lon="0.49242">
        <ele>93.2</ele>
        <time>2023-02-26T11:10:09Z</time>
      </trkpt>
      <trkpt lat="46.62441" lon="0.49243">
        <ele>93.2</ele>
        <time>2023-02-26T11:10:10Z</time>
      </trkpt>
      <trkpt lat="46.62459" lon="0.49249">
        <ele>93.8</ele>
        <time>2023-02-26T11:10:16Z</time>
      </trkpt>
      <trkpt lat="46.6247" lon="0.49245">
        <ele>93</ele>
        <time>2023-02-26T11:10:21Z</time>
      </trkpt>
      <trkpt lat="46.62484" lon="0.49236">
        <ele>93.2</ele>
        <time>2023-02-26T11:10:26Z</time>
      </trkpt>
      <trkpt lat="46.62486" lon="0.49236">
        <ele>93.2</ele>
        <time>2023-02-26T11:10:27Z</time>
      </trkpt>
      <trkpt lat="46.62503" lon="0.49227">
        <ele>93.4</ele>
        <time>2023-02-26T11:10:33Z</time>
      </trkpt>
      <trkpt lat="46.62521" lon="0.49227">
        <ele>92.8</ele>
        <time>2023-02-26T11:10:38Z</time>
      </trkpt>
      <trkpt lat="46.62529" lon="0.49226">
        <ele>92.8</ele>
        <time>2023-02-26T11:10:40Z</time>
      </trkpt>
      <trkpt lat="46.62537" lon="0.49229">
        <ele>93</ele>
        <time>2023-02-26T11:10:42Z</time>
      </trkpt>
      <trkpt lat="46.62558" lon="0.49245">
        <ele>93.2</ele>
        <time>2023-02-26T11:10:48Z</time>
      </trkpt>
      <trkpt lat="46.62561" lon="0.49246">
        <ele>93.2</ele>
        <time>2023-02-26T11:10:49Z</time>
      </trkpt>
      <trkpt lat="46.62575" lon="0.49244">
        <ele>93.8</ele>
        <time>2023-02-26T11:10:54Z</time>
      </trkpt>
      <trkpt lat="46.62579" lon="0.49243">
        <ele>93.8</ele>
        <time>2023-02-26T11:10:55Z</time>
      </trkpt>
      <trkpt lat="46.62582" lon="0.49241">
        <ele>93.6</ele>
        <time>2023-02-26T11:10:56Z</time>
      </trkpt>
      <trkpt lat="46.62588" lon="0.49238">
        <ele>93.4</ele>
        <time>2023-02-26T11:10:58Z</time>
      </trkpt>
      <trkpt lat="46.62597" lon="0.49233">
        <ele>92.2</ele>
        <time>2023-02-26T11:11:01Z</time>
      </trkpt>
      <trkpt lat="46.62601" lon="0.49232">
        <ele>92.2</ele>
        <time>2023-02-26T11:11:02Z</time>
      </trkpt>
      <trkpt lat="46.62605" lon="0.49231">
        <ele>92.2</ele>
        <time>2023-02-26T11:11:03Z</time>
      </trkpt>
      <trkpt lat="46.62612" lon="0.49231">
        <ele>92.2</ele>
        <time>2023-02-26T11:11:05Z</time>
      </trkpt>
      <trkpt lat="46.62615" lon="0.49229">
        <ele>92.2</ele>
        <time>2023-02-26T11:11:06Z</time>
      </trkpt>
      <trkpt lat="46.62619" lon="0.49229">
        <ele>92.4</ele>
        <time>2023-02-26T11:11:07Z</time>
      </trkpt>
      <trkpt lat="46.62627" lon="0.49227">
        <ele>92.6</ele>
        <time>2023-02-26T11:11:09Z</time>
      </trkpt>
      <trkpt lat="46.62631" lon="0.49226">
        <ele>92.4</ele>
        <time>2023-02-26T11:11:10Z</time>
      </trkpt>
      <trkpt lat="46.62642" lon="0.49218">
        <ele>91.4</ele>
        <time>2023-02-26T11:11:13Z</time>
      </trkpt>
      <trkpt lat="46.62646" lon="0.49217">
        <ele>90.8</ele>
        <time>2023-02-26T11:11:14Z</time>
      </trkpt>
      <trkpt lat="46.62652" lon="0.49217">
        <ele>90.4</ele>
        <time>2023-02-26T11:11:15Z</time>
      </trkpt>
      <trkpt lat="46.62655" lon="0.49217">
        <ele>90.2</ele>
        <time>2023-02-26T11:11:16Z</time>
      </trkpt>
      <trkpt lat="46.62668" lon="0.49214">
        <ele>89.8</ele>
        <time>2023-02-26T11:11:19Z</time>
      </trkpt>
      <trkpt lat="46.62683" lon="0.49213">
        <ele>88.6</ele>
        <time>2023-02-26T11:11:22Z</time>
      </trkpt>
      <trkpt lat="46.62691" lon="0.49212">
        <ele>87.8</ele>
        <time>2023-02-26T11:11:24Z</time>
      </trkpt>
      <trkpt lat="46.62695" lon="0.49211">
        <ele>87.4</ele>
        <time>2023-02-26T11:11:25Z</time>
      </trkpt>
      <trkpt lat="46.62698" lon="0.49211">
        <ele>87.2</ele>
        <time>2023-02-26T11:11:26Z</time>
      </trkpt>
      <trkpt lat="46.62717" lon="0.49209">
        <ele>87.2</ele>
        <time>2023-02-26T11:11:31Z</time>
      </trkpt>
      <trkpt lat="46.62735" lon="0.49215">
        <ele>88.4</ele>
        <time>2023-02-26T11:11:35Z</time>
      </trkpt>
      <trkpt lat="46.6274" lon="0.49216">
        <ele>88.8</ele>
        <time>2023-02-26T11:11:36Z</time>
      </trkpt>
      <trkpt lat="46.62758" lon="0.49223">
        <ele>89.6</ele>
        <time>2023-02-26T11:11:41Z</time>
      </trkpt>
      <trkpt lat="46.62778" lon="0.49243">
        <ele>90.4</ele>
        <time>2023-02-26T11:11:47Z</time>
      </trkpt>
      <trkpt lat="46.62783" lon="0.49247">
        <ele>90.6</ele>
        <time>2023-02-26T11:11:49Z</time>
      </trkpt>
      <trkpt lat="46.62786" lon="0.49247">
        <ele>90.6</ele>
        <time>2023-02-26T11:11:50Z</time>
      </trkpt>
      <trkpt lat="46.62788" lon="0.49247">
        <ele>90.6</ele>
        <time>2023-02-26T11:11:51Z</time>
      </trkpt>
      <trkpt lat="46.62804" lon="0.4924">
        <ele>90</ele>
        <time>2023-02-26T11:11:56Z</time>
      </trkpt>
      <trkpt lat="46.62812" lon="0.49233">
        <ele>89.8</ele>
        <time>2023-02-26T11:11:58Z</time>
      </trkpt>
      <trkpt lat="46.62816" lon="0.4923">
        <ele>89.6</ele>
        <time>2023-02-26T11:11:59Z</time>
      </trkpt>
      <trkpt lat="46.6282" lon="0.49228">
        <ele>89.4</ele>
        <time>2023-02-26T11:12:00Z</time>
      </trkpt>
      <trkpt lat="46.6283" lon="0.49226">
        <ele>88.6</ele>
        <time>2023-02-26T11:12:02Z</time>
      </trkpt>
      <trkpt lat="46.62834" lon="0.49225">
        <ele>88.2</ele>
        <time>2023-02-26T11:12:03Z</time>
      </trkpt>
      <trkpt lat="46.62847" lon="0.49223">
        <ele>87.6</ele>
        <time>2023-02-26T11:12:06Z</time>
      </trkpt>
      <trkpt lat="46.6285" lon="0.49223">
        <ele>87.6</ele>
        <time>2023-02-26T11:12:07Z</time>
      </trkpt>
      <trkpt lat="46.62854" lon="0.49222">
        <ele>87.6</ele>
        <time>2023-02-26T11:12:08Z</time>
      </trkpt>
      <trkpt lat="46.6287" lon="0.49222">
        <ele>87.6</ele>
        <time>2023-02-26T11:12:12Z</time>
      </trkpt>
      <trkpt lat="46.62874" lon="0.4922">
        <ele>87.6</ele>
        <time>2023-02-26T11:12:13Z</time>
      </trkpt>
      <trkpt lat="46.62883" lon="0.49217">
        <ele>87.4</ele>
        <time>2023-02-26T11:12:15Z</time>
      </trkpt>
      <trkpt lat="46.62895" lon="0.49215">
        <ele>87.6</ele>
        <time>2023-02-26T11:12:18Z</time>
      </trkpt>
      <trkpt lat="46.62898" lon="0.49215">
        <ele>87.6</ele>
        <time>2023-02-26T11:12:19Z</time>
      </trkpt>
      <trkpt lat="46.62909" lon="0.49212">
        <ele>87.8</ele>
        <time>2023-02-26T11:12:22Z</time>
      </trkpt>
      <trkpt lat="46.62916" lon="0.49207">
        <ele>87.8</ele>
        <time>2023-02-26T11:12:24Z</time>
      </trkpt>
      <trkpt lat="46.62919" lon="0.49205">
        <ele>87.8</ele>
        <time>2023-02-26T11:12:25Z</time>
      </trkpt>
      <trkpt lat="46.62928" lon="0.49198">
        <ele>87.8</ele>
        <time>2023-02-26T11:12:27Z</time>
      </trkpt>
      <trkpt lat="46.62931" lon="0.49194">
        <ele>87.6</ele>
        <time>2023-02-26T11:12:28Z</time>
      </trkpt>
      <trkpt lat="46.62954" lon="0.49175">
        <ele>86.8</ele>
        <time>2023-02-26T11:12:34Z</time>
      </trkpt>
      <trkpt lat="46.62958" lon="0.49171">
        <ele>86.4</ele>
        <time>2023-02-26T11:12:35Z</time>
      </trkpt>
      <trkpt lat="46.62969" lon="0.49159">
        <ele>85.2</ele>
        <time>2023-02-26T11:12:38Z</time>
      </trkpt>
      <trkpt lat="46.62973" lon="0.49155">
        <ele>84.8</ele>
        <time>2023-02-26T11:12:39Z</time>
      </trkpt>
      <trkpt lat="46.62978" lon="0.49148">
        <ele>84.2</ele>
        <time>2023-02-26T11:12:41Z</time>
      </trkpt>
      <trkpt lat="46.62981" lon="0.49146">
        <ele>84.2</ele>
        <time>2023-02-26T11:12:42Z</time>
      </trkpt>
      <trkpt lat="46.62987" lon="0.49141">
        <ele>84</ele>
        <time>2023-02-26T11:12:44Z</time>
      </trkpt>
      <trkpt lat="46.63009" lon="0.49122">
        <ele>84</ele>
        <time>2023-02-26T11:12:50Z</time>
      </trkpt>
      <trkpt lat="46.63019" lon="0.49114">
        <ele>84.2</ele>
        <time>2023-02-26T11:12:53Z</time>
      </trkpt>
      <trkpt lat="46.63025" lon="0.49108">
        <ele>84.6</ele>
        <time>2023-02-26T11:12:55Z</time>
      </trkpt>
      <trkpt lat="46.63041" lon="0.49098">
        <ele>84.8</ele>
        <time>2023-02-26T11:13:01Z</time>
      </trkpt>
      <trkpt lat="46.63048" lon="0.49095">
        <ele>84.8</ele>
        <time>2023-02-26T11:13:03Z</time>
      </trkpt>
      <trkpt lat="46.63055" lon="0.49088">
        <ele>84.6</ele>
        <time>2023-02-26T11:13:06Z</time>
      </trkpt>
      <trkpt lat="46.6307" lon="0.49076">
        <ele>84</ele>
        <time>2023-02-26T11:13:12Z</time>
      </trkpt>
      <trkpt lat="46.63087" lon="0.49063">
        <ele>83.4</ele>
        <time>2023-02-26T11:13:17Z</time>
      </trkpt>
      <trkpt lat="46.63093" lon="0.49054">
        <ele>83.2</ele>
        <time>2023-02-26T11:13:19Z</time>
      </trkpt>
      <trkpt lat="46.63095" lon="0.49048">
        <ele>83</ele>
        <time>2023-02-26T11:13:20Z</time>
      </trkpt>
      <trkpt lat="46.63097" lon="0.49044">
        <ele>82.8</ele>
        <time>2023-02-26T11:13:21Z</time>
      </trkpt>
      <trkpt lat="46.63101" lon="0.49042">
        <ele>82.6</ele>
        <time>2023-02-26T11:13:22Z</time>
      </trkpt>
      <trkpt lat="46.63106" lon="0.4904">
        <ele>82.4</ele>
        <time>2023-02-26T11:13:23Z</time>
      </trkpt>
      <trkpt lat="46.63115" lon="0.49037">
        <ele>82</ele>
        <time>2023-02-26T11:13:25Z</time>
      </trkpt>
      <trkpt lat="46.63131" lon="0.49034">
        <ele>81.8</ele>
        <time>2023-02-26T11:13:28Z</time>
      </trkpt>
      <trkpt lat="46.63161" lon="0.49029">
        <ele>82.6</ele>
        <time>2023-02-26T11:13:34Z</time>
      </trkpt>
      <trkpt lat="46.63184" lon="0.49036">
        <ele>82.8</ele>
        <time>2023-02-26T11:13:39Z</time>
      </trkpt>
      <trkpt lat="46.63198" lon="0.49054">
        <ele>83.4</ele>
        <time>2023-02-26T11:13:44Z</time>
      </trkpt>
      <trkpt lat="46.63208" lon="0.49062">
        <ele>84.2</ele>
        <time>2023-02-26T11:13:48Z</time>
      </trkpt>
      <trkpt lat="46.6321" lon="0.49062">
        <ele>84.4</ele>
        <time>2023-02-26T11:13:49Z</time>
      </trkpt>
      <trkpt lat="46.63217" lon="0.49059">
        <ele>84.6</ele>
        <time>2023-02-26T11:13:52Z</time>
      </trkpt>
      <trkpt lat="46.63227" lon="0.4906">
        <ele>84</ele>
        <time>2023-02-26T11:13:57Z</time>
      </trkpt>
      <trkpt lat="46.63231" lon="0.49063">
        <ele>83.4</ele>
        <time>2023-02-26T11:13:59Z</time>
      </trkpt>
      <trkpt lat="46.63234" lon="0.49072">
        <ele>83.6</ele>
        <time>2023-02-26T11:14:03Z</time>
      </trkpt>
      <trkpt lat="46.63235" lon="0.49082">
        <ele>84.2</ele>
        <time>2023-02-26T11:14:08Z</time>
      </trkpt>
      <trkpt lat="46.63235" lon="0.49082">
        <ele>84.2</ele>
        <time>2023-02-26T11:14:09Z</time>
      </trkpt>
    </trkseg>
  </trk>
</gpx>